<?xml version="1.0" encoding="UTF-8" standalone="no" ?>
<gpx xmlns="http://www.topografix.com/GPX/1/1" xmlns:xsi="http://www.w3.org/2001/XMLSchema-instance" xsi:schemaLocation="http://www.topografix.com/GPX/1/1 http://www.topografix.com/GPX/1/1/gpx.xsd" version="1.1" creator="VisuGPX - https://www.visugpx.com">
  <metadata>
    <name>Rando Vtt Départ Bois de St Pierre</name>
  </metadata>
  <trk>
    <name><![CDATA[Rando Vtt Départ Bois de St Pierre_1]]></name>
    <trkseg>
      <trkpt lat="46.50641" lon="0.36795">
        <ele>126.6</ele>
        <time>2020-12-20T07:42:38Z</time>
      </trkpt>
      <trkpt lat="46.50645" lon="0.36802">
        <ele>126.8</ele>
        <time>2020-12-20T07:42:48Z</time>
      </trkpt>
      <trkpt lat="46.50644" lon="0.36817">
        <ele>127.2</ele>
        <time>2020-12-20T07:42:56Z</time>
      </trkpt>
      <trkpt lat="46.50636" lon="0.36828">
        <ele>127.4</ele>
        <time>2020-12-20T07:43:02Z</time>
      </trkpt>
      <trkpt lat="46.50632" lon="0.36837">
        <ele>127.6</ele>
        <time>2020-12-20T07:43:05Z</time>
      </trkpt>
      <trkpt lat="46.50627" lon="0.36848">
        <ele>128</ele>
        <time>2020-12-20T07:43:09Z</time>
      </trkpt>
      <trkpt lat="46.50618" lon="0.36869">
        <ele>128.4</ele>
        <time>2020-12-20T07:43:15Z</time>
      </trkpt>
      <trkpt lat="46.50613" lon="0.36881">
        <ele>128.6</ele>
        <time>2020-12-20T07:43:19Z</time>
      </trkpt>
      <trkpt lat="46.50612" lon="0.36885">
        <ele>128.6</ele>
        <time>2020-12-20T07:43:20Z</time>
      </trkpt>
      <trkpt lat="46.50611" lon="0.36888">
        <ele>128.6</ele>
        <time>2020-12-20T07:43:21Z</time>
      </trkpt>
      <trkpt lat="46.50601" lon="0.36913">
        <ele>128.8</ele>
        <time>2020-12-20T07:43:28Z</time>
      </trkpt>
      <trkpt lat="46.50591" lon="0.36939">
        <ele>129.2</ele>
        <time>2020-12-20T07:43:34Z</time>
      </trkpt>
      <trkpt lat="46.50586" lon="0.3696">
        <ele>128.8</ele>
        <time>2020-12-20T07:43:40Z</time>
      </trkpt>
      <trkpt lat="46.50585" lon="0.36977">
        <ele>128.6</ele>
        <time>2020-12-20T07:43:44Z</time>
      </trkpt>
      <trkpt lat="46.50586" lon="0.36982">
        <ele>128.6</ele>
        <time>2020-12-20T07:43:45Z</time>
      </trkpt>
      <trkpt lat="46.50587" lon="0.36995">
        <ele>128.6</ele>
        <time>2020-12-20T07:43:48Z</time>
      </trkpt>
      <trkpt lat="46.50588" lon="0.37003">
        <ele>128.6</ele>
        <time>2020-12-20T07:43:50Z</time>
      </trkpt>
      <trkpt lat="46.50589" lon="0.37007">
        <ele>128.6</ele>
        <time>2020-12-20T07:43:51Z</time>
      </trkpt>
      <trkpt lat="46.5059" lon="0.37011">
        <ele>128.6</ele>
        <time>2020-12-20T07:43:52Z</time>
      </trkpt>
      <trkpt lat="46.50592" lon="0.37021">
        <ele>127.6</ele>
        <time>2020-12-20T07:43:55Z</time>
      </trkpt>
      <trkpt lat="46.50595" lon="0.37028">
        <ele>127.4</ele>
        <time>2020-12-20T07:43:57Z</time>
      </trkpt>
      <trkpt lat="46.50604" lon="0.37051">
        <ele>126.8</ele>
        <time>2020-12-20T07:44:04Z</time>
      </trkpt>
      <trkpt lat="46.50605" lon="0.37056">
        <ele>126.4</ele>
        <time>2020-12-20T07:44:06Z</time>
      </trkpt>
      <trkpt lat="46.50608" lon="0.37071">
        <ele>125.6</ele>
        <time>2020-12-20T07:44:10Z</time>
      </trkpt>
      <trkpt lat="46.50608" lon="0.37078">
        <ele>125.2</ele>
        <time>2020-12-20T07:44:11Z</time>
      </trkpt>
      <trkpt lat="46.50607" lon="0.37089">
        <ele>124.8</ele>
        <time>2020-12-20T07:44:15Z</time>
      </trkpt>
      <trkpt lat="46.50604" lon="0.37097">
        <ele>124</ele>
        <time>2020-12-20T07:44:17Z</time>
      </trkpt>
      <trkpt lat="46.50599" lon="0.37103">
        <ele>123</ele>
        <time>2020-12-20T07:44:19Z</time>
      </trkpt>
      <trkpt lat="46.50597" lon="0.37107">
        <ele>122.8</ele>
        <time>2020-12-20T07:44:20Z</time>
      </trkpt>
      <trkpt lat="46.50591" lon="0.37115">
        <ele>122</ele>
        <time>2020-12-20T07:44:22Z</time>
      </trkpt>
      <trkpt lat="46.50587" lon="0.3712">
        <ele>121.6</ele>
        <time>2020-12-20T07:44:23Z</time>
      </trkpt>
      <trkpt lat="46.5058" lon="0.37127">
        <ele>121.4</ele>
        <time>2020-12-20T07:44:24Z</time>
      </trkpt>
      <trkpt lat="46.50578" lon="0.37132">
        <ele>121.2</ele>
        <time>2020-12-20T07:44:25Z</time>
      </trkpt>
      <trkpt lat="46.50553" lon="0.37154">
        <ele>122.4</ele>
        <time>2020-12-20T07:44:30Z</time>
      </trkpt>
      <trkpt lat="46.50547" lon="0.37157">
        <ele>122.8</ele>
        <time>2020-12-20T07:44:31Z</time>
      </trkpt>
      <trkpt lat="46.50541" lon="0.3716">
        <ele>123</ele>
        <time>2020-12-20T07:44:32Z</time>
      </trkpt>
      <trkpt lat="46.50532" lon="0.37168">
        <ele>123.4</ele>
        <time>2020-12-20T07:44:34Z</time>
      </trkpt>
      <trkpt lat="46.50525" lon="0.37174">
        <ele>123.8</ele>
        <time>2020-12-20T07:44:36Z</time>
      </trkpt>
      <trkpt lat="46.50522" lon="0.37178">
        <ele>123.8</ele>
        <time>2020-12-20T07:44:37Z</time>
      </trkpt>
      <trkpt lat="46.50515" lon="0.37189">
        <ele>124.4</ele>
        <time>2020-12-20T07:44:40Z</time>
      </trkpt>
      <trkpt lat="46.50509" lon="0.37196">
        <ele>125</ele>
        <time>2020-12-20T07:44:42Z</time>
      </trkpt>
      <trkpt lat="46.505" lon="0.37211">
        <ele>125.4</ele>
        <time>2020-12-20T07:44:45Z</time>
      </trkpt>
      <trkpt lat="46.50495" lon="0.37234">
        <ele>125.6</ele>
        <time>2020-12-20T07:44:50Z</time>
      </trkpt>
      <trkpt lat="46.50496" lon="0.37236">
        <ele>125.6</ele>
        <time>2020-12-20T07:44:51Z</time>
      </trkpt>
      <trkpt lat="46.50497" lon="0.37245">
        <ele>125.6</ele>
        <time>2020-12-20T07:44:54Z</time>
      </trkpt>
      <trkpt lat="46.50497" lon="0.37246">
        <ele>125.6</ele>
        <time>2020-12-20T07:44:55Z</time>
      </trkpt>
      <trkpt lat="46.50496" lon="0.37253">
        <ele>125.2</ele>
        <time>2020-12-20T07:45:00Z</time>
      </trkpt>
      <trkpt lat="46.50498" lon="0.37258">
        <ele>125</ele>
        <time>2020-12-20T07:45:04Z</time>
      </trkpt>
      <trkpt lat="46.50499" lon="0.37259">
        <ele>125</ele>
        <time>2020-12-20T07:45:05Z</time>
      </trkpt>
      <trkpt lat="46.50501" lon="0.37263">
        <ele>125.2</ele>
        <time>2020-12-20T07:45:09Z</time>
      </trkpt>
      <trkpt lat="46.50502" lon="0.37265">
        <ele>125</ele>
        <time>2020-12-20T07:45:15Z</time>
      </trkpt>
      <trkpt lat="46.50505" lon="0.37269">
        <ele>124.8</ele>
        <time>2020-12-20T07:45:27Z</time>
      </trkpt>
      <trkpt lat="46.50506" lon="0.3727">
        <ele>124.8</ele>
        <time>2020-12-20T07:45:28Z</time>
      </trkpt>
      <trkpt lat="46.50516" lon="0.37277">
        <ele>124.4</ele>
        <time>2020-12-20T07:45:36Z</time>
      </trkpt>
      <trkpt lat="46.50527" lon="0.3729">
        <ele>124.2</ele>
        <time>2020-12-20T07:45:43Z</time>
      </trkpt>
      <trkpt lat="46.50529" lon="0.37299">
        <ele>124</ele>
        <time>2020-12-20T07:45:45Z</time>
      </trkpt>
      <trkpt lat="46.50529" lon="0.37307">
        <ele>124</ele>
        <time>2020-12-20T07:45:47Z</time>
      </trkpt>
      <trkpt lat="46.50526" lon="0.37321">
        <ele>124.4</ele>
        <time>2020-12-20T07:45:52Z</time>
      </trkpt>
      <trkpt lat="46.50518" lon="0.37338">
        <ele>124.8</ele>
        <time>2020-12-20T07:45:58Z</time>
      </trkpt>
      <trkpt lat="46.50516" lon="0.37343">
        <ele>124.8</ele>
        <time>2020-12-20T07:45:59Z</time>
      </trkpt>
      <trkpt lat="46.5051" lon="0.37357">
        <ele>125.4</ele>
        <time>2020-12-20T07:46:02Z</time>
      </trkpt>
      <trkpt lat="46.50508" lon="0.37364">
        <ele>125.4</ele>
        <time>2020-12-20T07:46:04Z</time>
      </trkpt>
      <trkpt lat="46.50508" lon="0.37366">
        <ele>125.4</ele>
        <time>2020-12-20T07:46:05Z</time>
      </trkpt>
      <trkpt lat="46.5051" lon="0.37377">
        <ele>125.8</ele>
        <time>2020-12-20T07:46:09Z</time>
      </trkpt>
      <trkpt lat="46.50508" lon="0.37402">
        <ele>125.4</ele>
        <time>2020-12-20T07:46:14Z</time>
      </trkpt>
      <trkpt lat="46.50507" lon="0.37414">
        <ele>125.4</ele>
        <time>2020-12-20T07:46:16Z</time>
      </trkpt>
      <trkpt lat="46.50505" lon="0.37426">
        <ele>125.4</ele>
        <time>2020-12-20T07:46:18Z</time>
      </trkpt>
      <trkpt lat="46.50504" lon="0.3743">
        <ele>125.2</ele>
        <time>2020-12-20T07:46:19Z</time>
      </trkpt>
      <trkpt lat="46.50502" lon="0.37433">
        <ele>125.2</ele>
        <time>2020-12-20T07:46:20Z</time>
      </trkpt>
      <trkpt lat="46.50496" lon="0.37436">
        <ele>125</ele>
        <time>2020-12-20T07:46:22Z</time>
      </trkpt>
      <trkpt lat="46.50484" lon="0.37437">
        <ele>125</ele>
        <time>2020-12-20T07:46:25Z</time>
      </trkpt>
      <trkpt lat="46.50478" lon="0.37434">
        <ele>125.2</ele>
        <time>2020-12-20T07:46:27Z</time>
      </trkpt>
      <trkpt lat="46.50475" lon="0.37434">
        <ele>125</ele>
        <time>2020-12-20T07:46:28Z</time>
      </trkpt>
      <trkpt lat="46.50471" lon="0.37436">
        <ele>125</ele>
        <time>2020-12-20T07:46:30Z</time>
      </trkpt>
      <trkpt lat="46.5047" lon="0.37438">
        <ele>125</ele>
        <time>2020-12-20T07:46:31Z</time>
      </trkpt>
      <trkpt lat="46.50468" lon="0.37442">
        <ele>125</ele>
        <time>2020-12-20T07:46:32Z</time>
      </trkpt>
      <trkpt lat="46.50464" lon="0.37451">
        <ele>124.8</ele>
        <time>2020-12-20T07:46:34Z</time>
      </trkpt>
      <trkpt lat="46.50462" lon="0.37453">
        <ele>124.6</ele>
        <time>2020-12-20T07:46:35Z</time>
      </trkpt>
      <trkpt lat="46.5046" lon="0.37456">
        <ele>124.4</ele>
        <time>2020-12-20T07:46:36Z</time>
      </trkpt>
      <trkpt lat="46.50455" lon="0.37464">
        <ele>124</ele>
        <time>2020-12-20T07:46:38Z</time>
      </trkpt>
      <trkpt lat="46.50454" lon="0.37469">
        <ele>123.6</ele>
        <time>2020-12-20T07:46:39Z</time>
      </trkpt>
      <trkpt lat="46.50451" lon="0.3748">
        <ele>122.8</ele>
        <time>2020-12-20T07:46:42Z</time>
      </trkpt>
      <trkpt lat="46.5045" lon="0.37489">
        <ele>122.4</ele>
        <time>2020-12-20T07:46:44Z</time>
      </trkpt>
      <trkpt lat="46.50446" lon="0.37497">
        <ele>122.2</ele>
        <time>2020-12-20T07:46:45Z</time>
      </trkpt>
      <trkpt lat="46.5044" lon="0.37506">
        <ele>121.2</ele>
        <time>2020-12-20T07:46:47Z</time>
      </trkpt>
      <trkpt lat="46.5044" lon="0.37506">
        <ele>121</ele>
        <time>2020-12-20T07:46:48Z</time>
      </trkpt>
      <trkpt lat="46.50439" lon="0.37508">
        <ele>121</ele>
        <time>2020-12-20T07:46:49Z</time>
      </trkpt>
      <trkpt lat="46.50432" lon="0.3752">
        <ele>120.6</ele>
        <time>2020-12-20T07:46:51Z</time>
      </trkpt>
      <trkpt lat="46.50431" lon="0.37525">
        <ele>120</ele>
        <time>2020-12-20T07:46:52Z</time>
      </trkpt>
      <trkpt lat="46.50432" lon="0.37529">
        <ele>119.8</ele>
        <time>2020-12-20T07:46:53Z</time>
      </trkpt>
      <trkpt lat="46.50438" lon="0.37542">
        <ele>119</ele>
        <time>2020-12-20T07:46:56Z</time>
      </trkpt>
      <trkpt lat="46.50446" lon="0.37552">
        <ele>118.8</ele>
        <time>2020-12-20T07:46:58Z</time>
      </trkpt>
      <trkpt lat="46.5045" lon="0.37558">
        <ele>118.6</ele>
        <time>2020-12-20T07:46:59Z</time>
      </trkpt>
      <trkpt lat="46.50465" lon="0.37573">
        <ele>117.8</ele>
        <time>2020-12-20T07:47:02Z</time>
      </trkpt>
      <trkpt lat="46.50477" lon="0.37586">
        <ele>116.8</ele>
        <time>2020-12-20T07:47:05Z</time>
      </trkpt>
      <trkpt lat="46.50492" lon="0.37604">
        <ele>116</ele>
        <time>2020-12-20T07:47:10Z</time>
      </trkpt>
      <trkpt lat="46.50496" lon="0.3761">
        <ele>115.6</ele>
        <time>2020-12-20T07:47:12Z</time>
      </trkpt>
      <trkpt lat="46.50498" lon="0.37613">
        <ele>114.8</ele>
        <time>2020-12-20T07:47:14Z</time>
      </trkpt>
      <trkpt lat="46.50505" lon="0.3762">
        <ele>114.6</ele>
        <time>2020-12-20T07:47:18Z</time>
      </trkpt>
      <trkpt lat="46.50506" lon="0.37624">
        <ele>114.6</ele>
        <time>2020-12-20T07:47:19Z</time>
      </trkpt>
      <trkpt lat="46.50509" lon="0.37642">
        <ele>115.2</ele>
        <time>2020-12-20T07:47:24Z</time>
      </trkpt>
      <trkpt lat="46.50508" lon="0.3765">
        <ele>116.8</ele>
        <time>2020-12-20T07:47:27Z</time>
      </trkpt>
      <trkpt lat="46.50506" lon="0.37659">
        <ele>117.4</ele>
        <time>2020-12-20T07:47:29Z</time>
      </trkpt>
      <trkpt lat="46.50503" lon="0.37671">
        <ele>118.2</ele>
        <time>2020-12-20T07:47:32Z</time>
      </trkpt>
      <trkpt lat="46.50506" lon="0.37672">
        <ele>118.8</ele>
        <time>2020-12-20T07:47:34Z</time>
      </trkpt>
      <trkpt lat="46.5051" lon="0.37675">
        <ele>119</ele>
        <time>2020-12-20T07:47:36Z</time>
      </trkpt>
      <trkpt lat="46.50515" lon="0.3768">
        <ele>119</ele>
        <time>2020-12-20T07:47:38Z</time>
      </trkpt>
      <trkpt lat="46.50521" lon="0.37688">
        <ele>118.6</ele>
        <time>2020-12-20T07:47:40Z</time>
      </trkpt>
      <trkpt lat="46.50532" lon="0.37698">
        <ele>118</ele>
        <time>2020-12-20T07:47:43Z</time>
      </trkpt>
      <trkpt lat="46.5054" lon="0.37705">
        <ele>117</ele>
        <time>2020-12-20T07:47:45Z</time>
      </trkpt>
      <trkpt lat="46.50553" lon="0.37717">
        <ele>115.8</ele>
        <time>2020-12-20T07:47:48Z</time>
      </trkpt>
      <trkpt lat="46.50573" lon="0.37729">
        <ele>114.4</ele>
        <time>2020-12-20T07:47:52Z</time>
      </trkpt>
      <trkpt lat="46.50579" lon="0.37731">
        <ele>114.2</ele>
        <time>2020-12-20T07:47:53Z</time>
      </trkpt>
      <trkpt lat="46.50592" lon="0.37737">
        <ele>113.2</ele>
        <time>2020-12-20T07:47:55Z</time>
      </trkpt>
      <trkpt lat="46.50605" lon="0.37745">
        <ele>112.2</ele>
        <time>2020-12-20T07:47:57Z</time>
      </trkpt>
      <trkpt lat="46.50613" lon="0.3775">
        <ele>111.8</ele>
        <time>2020-12-20T07:47:58Z</time>
      </trkpt>
      <trkpt lat="46.50633" lon="0.37763">
        <ele>111</ele>
        <time>2020-12-20T07:48:01Z</time>
      </trkpt>
      <trkpt lat="46.50646" lon="0.37773">
        <ele>110.4</ele>
        <time>2020-12-20T07:48:03Z</time>
      </trkpt>
      <trkpt lat="46.50652" lon="0.37778">
        <ele>110.2</ele>
        <time>2020-12-20T07:48:04Z</time>
      </trkpt>
      <trkpt lat="46.50664" lon="0.37782">
        <ele>110</ele>
        <time>2020-12-20T07:48:06Z</time>
      </trkpt>
      <trkpt lat="46.5067" lon="0.37782">
        <ele>109.8</ele>
        <time>2020-12-20T07:48:07Z</time>
      </trkpt>
      <trkpt lat="46.50692" lon="0.37789">
        <ele>109.6</ele>
        <time>2020-12-20T07:48:11Z</time>
      </trkpt>
      <trkpt lat="46.50703" lon="0.37794">
        <ele>109.6</ele>
        <time>2020-12-20T07:48:12Z</time>
      </trkpt>
      <trkpt lat="46.50734" lon="0.37812">
        <ele>110.2</ele>
        <time>2020-12-20T07:48:19Z</time>
      </trkpt>
      <trkpt lat="46.50745" lon="0.37812">
        <ele>110.2</ele>
        <time>2020-12-20T07:48:21Z</time>
      </trkpt>
      <trkpt lat="46.50757" lon="0.37809">
        <ele>109.2</ele>
        <time>2020-12-20T07:48:23Z</time>
      </trkpt>
      <trkpt lat="46.50762" lon="0.37806">
        <ele>108.8</ele>
        <time>2020-12-20T07:48:24Z</time>
      </trkpt>
      <trkpt lat="46.50772" lon="0.37803">
        <ele>108</ele>
        <time>2020-12-20T07:48:26Z</time>
      </trkpt>
      <trkpt lat="46.50777" lon="0.378">
        <ele>107.6</ele>
        <time>2020-12-20T07:48:27Z</time>
      </trkpt>
      <trkpt lat="46.50787" lon="0.37793">
        <ele>106.4</ele>
        <time>2020-12-20T07:48:29Z</time>
      </trkpt>
      <trkpt lat="46.50796" lon="0.37784">
        <ele>105.8</ele>
        <time>2020-12-20T07:48:31Z</time>
      </trkpt>
      <trkpt lat="46.50807" lon="0.3777">
        <ele>106.4</ele>
        <time>2020-12-20T07:48:34Z</time>
      </trkpt>
      <trkpt lat="46.50811" lon="0.37767">
        <ele>106.6</ele>
        <time>2020-12-20T07:48:35Z</time>
      </trkpt>
      <trkpt lat="46.50817" lon="0.3776">
        <ele>107.2</ele>
        <time>2020-12-20T07:48:37Z</time>
      </trkpt>
      <trkpt lat="46.50819" lon="0.37757">
        <ele>108</ele>
        <time>2020-12-20T07:48:38Z</time>
      </trkpt>
      <trkpt lat="46.50822" lon="0.37755">
        <ele>108.4</ele>
        <time>2020-12-20T07:48:39Z</time>
      </trkpt>
      <trkpt lat="46.50826" lon="0.37751">
        <ele>109.2</ele>
        <time>2020-12-20T07:48:41Z</time>
      </trkpt>
      <trkpt lat="46.50829" lon="0.37747">
        <ele>110.2</ele>
        <time>2020-12-20T07:48:43Z</time>
      </trkpt>
      <trkpt lat="46.50832" lon="0.37744">
        <ele>111</ele>
        <time>2020-12-20T07:48:45Z</time>
      </trkpt>
      <trkpt lat="46.50834" lon="0.37742">
        <ele>111.2</ele>
        <time>2020-12-20T07:48:46Z</time>
      </trkpt>
      <trkpt lat="46.5084" lon="0.37736">
        <ele>111.6</ele>
        <time>2020-12-20T07:48:49Z</time>
      </trkpt>
      <trkpt lat="46.50841" lon="0.37735">
        <ele>112.6</ele>
        <time>2020-12-20T07:48:51Z</time>
      </trkpt>
      <trkpt lat="46.50843" lon="0.37736">
        <ele>112.8</ele>
        <time>2020-12-20T07:48:52Z</time>
      </trkpt>
      <trkpt lat="46.50847" lon="0.37743">
        <ele>113.4</ele>
        <time>2020-12-20T07:48:55Z</time>
      </trkpt>
      <trkpt lat="46.50851" lon="0.37755">
        <ele>113.6</ele>
        <time>2020-12-20T07:48:58Z</time>
      </trkpt>
      <trkpt lat="46.50853" lon="0.37768">
        <ele>113</ele>
        <time>2020-12-20T07:49:01Z</time>
      </trkpt>
      <trkpt lat="46.50855" lon="0.37777">
        <ele>112.6</ele>
        <time>2020-12-20T07:49:03Z</time>
      </trkpt>
      <trkpt lat="46.50858" lon="0.37793">
        <ele>111.6</ele>
        <time>2020-12-20T07:49:06Z</time>
      </trkpt>
      <trkpt lat="46.50859" lon="0.37799">
        <ele>111.4</ele>
        <time>2020-12-20T07:49:07Z</time>
      </trkpt>
      <trkpt lat="46.50862" lon="0.37809">
        <ele>110.6</ele>
        <time>2020-12-20T07:49:09Z</time>
      </trkpt>
      <trkpt lat="46.50864" lon="0.37814">
        <ele>110</ele>
        <time>2020-12-20T07:49:10Z</time>
      </trkpt>
      <trkpt lat="46.50868" lon="0.37824">
        <ele>109</ele>
        <time>2020-12-20T07:49:12Z</time>
      </trkpt>
      <trkpt lat="46.5087" lon="0.37829">
        <ele>108.6</ele>
        <time>2020-12-20T07:49:13Z</time>
      </trkpt>
      <trkpt lat="46.50873" lon="0.37834">
        <ele>108.2</ele>
        <time>2020-12-20T07:49:14Z</time>
      </trkpt>
      <trkpt lat="46.50878" lon="0.37845">
        <ele>107.8</ele>
        <time>2020-12-20T07:49:16Z</time>
      </trkpt>
      <trkpt lat="46.5088" lon="0.3785">
        <ele>107.8</ele>
        <time>2020-12-20T07:49:17Z</time>
      </trkpt>
      <trkpt lat="46.50883" lon="0.37855">
        <ele>107.2</ele>
        <time>2020-12-20T07:49:18Z</time>
      </trkpt>
      <trkpt lat="46.50897" lon="0.37888">
        <ele>106</ele>
        <time>2020-12-20T07:49:23Z</time>
      </trkpt>
      <trkpt lat="46.50901" lon="0.37894">
        <ele>105.8</ele>
        <time>2020-12-20T07:49:24Z</time>
      </trkpt>
      <trkpt lat="46.50909" lon="0.37907">
        <ele>105</ele>
        <time>2020-12-20T07:49:26Z</time>
      </trkpt>
      <trkpt lat="46.50915" lon="0.37917">
        <ele>104.4</ele>
        <time>2020-12-20T07:49:28Z</time>
      </trkpt>
      <trkpt lat="46.50922" lon="0.37925">
        <ele>104</ele>
        <time>2020-12-20T07:49:30Z</time>
      </trkpt>
      <trkpt lat="46.50926" lon="0.37927">
        <ele>104</ele>
        <time>2020-12-20T07:49:31Z</time>
      </trkpt>
      <trkpt lat="46.50931" lon="0.3793">
        <ele>104</ele>
        <time>2020-12-20T07:49:32Z</time>
      </trkpt>
      <trkpt lat="46.50953" lon="0.37938">
        <ele>104</ele>
        <time>2020-12-20T07:49:36Z</time>
      </trkpt>
      <trkpt lat="46.50957" lon="0.3794">
        <ele>104</ele>
        <time>2020-12-20T07:49:37Z</time>
      </trkpt>
      <trkpt lat="46.50961" lon="0.37941">
        <ele>104</ele>
        <time>2020-12-20T07:49:38Z</time>
      </trkpt>
      <trkpt lat="46.50971" lon="0.37942">
        <ele>104</ele>
        <time>2020-12-20T07:49:40Z</time>
      </trkpt>
      <trkpt lat="46.50985" lon="0.37942">
        <ele>103.6</ele>
        <time>2020-12-20T07:49:43Z</time>
      </trkpt>
      <trkpt lat="46.51002" lon="0.3794">
        <ele>103</ele>
        <time>2020-12-20T07:49:46Z</time>
      </trkpt>
      <trkpt lat="46.51008" lon="0.37939">
        <ele>102.8</ele>
        <time>2020-12-20T07:49:47Z</time>
      </trkpt>
      <trkpt lat="46.51015" lon="0.37938">
        <ele>102.8</ele>
        <time>2020-12-20T07:49:48Z</time>
      </trkpt>
      <trkpt lat="46.51026" lon="0.37936">
        <ele>102.8</ele>
        <time>2020-12-20T07:49:50Z</time>
      </trkpt>
      <trkpt lat="46.51036" lon="0.37938">
        <ele>102.6</ele>
        <time>2020-12-20T07:49:52Z</time>
      </trkpt>
      <trkpt lat="46.51046" lon="0.3794">
        <ele>101.8</ele>
        <time>2020-12-20T07:49:54Z</time>
      </trkpt>
      <trkpt lat="46.51064" lon="0.37942">
        <ele>100.8</ele>
        <time>2020-12-20T07:49:57Z</time>
      </trkpt>
      <trkpt lat="46.5108" lon="0.37946">
        <ele>100</ele>
        <time>2020-12-20T07:49:59Z</time>
      </trkpt>
      <trkpt lat="46.5109" lon="0.37949">
        <ele>99.6</ele>
        <time>2020-12-20T07:50:01Z</time>
      </trkpt>
      <trkpt lat="46.51097" lon="0.3795">
        <ele>99.2</ele>
        <time>2020-12-20T07:50:02Z</time>
      </trkpt>
      <trkpt lat="46.51115" lon="0.37952">
        <ele>99</ele>
        <time>2020-12-20T07:50:04Z</time>
      </trkpt>
      <trkpt lat="46.51127" lon="0.37952">
        <ele>99.2</ele>
        <time>2020-12-20T07:50:06Z</time>
      </trkpt>
      <trkpt lat="46.51138" lon="0.37955">
        <ele>99.4</ele>
        <time>2020-12-20T07:50:08Z</time>
      </trkpt>
      <trkpt lat="46.51154" lon="0.3796">
        <ele>100</ele>
        <time>2020-12-20T07:50:11Z</time>
      </trkpt>
      <trkpt lat="46.51168" lon="0.37963">
        <ele>100</ele>
        <time>2020-12-20T07:50:14Z</time>
      </trkpt>
      <trkpt lat="46.51177" lon="0.37968">
        <ele>100</ele>
        <time>2020-12-20T07:50:16Z</time>
      </trkpt>
      <trkpt lat="46.51183" lon="0.37971">
        <ele>100.2</ele>
        <time>2020-12-20T07:50:17Z</time>
      </trkpt>
      <trkpt lat="46.51207" lon="0.3798">
        <ele>100.2</ele>
        <time>2020-12-20T07:50:21Z</time>
      </trkpt>
      <trkpt lat="46.51225" lon="0.37986">
        <ele>100.6</ele>
        <time>2020-12-20T07:50:24Z</time>
      </trkpt>
      <trkpt lat="46.51232" lon="0.37989">
        <ele>100.6</ele>
        <time>2020-12-20T07:50:26Z</time>
      </trkpt>
      <trkpt lat="46.51243" lon="0.37998">
        <ele>100.6</ele>
        <time>2020-12-20T07:50:32Z</time>
      </trkpt>
      <trkpt lat="46.51252" lon="0.38006">
        <ele>100</ele>
        <time>2020-12-20T07:50:37Z</time>
      </trkpt>
      <trkpt lat="46.51259" lon="0.38015">
        <ele>99.6</ele>
        <time>2020-12-20T07:50:42Z</time>
      </trkpt>
      <trkpt lat="46.5126" lon="0.38016">
        <ele>99.4</ele>
        <time>2020-12-20T07:50:43Z</time>
      </trkpt>
      <trkpt lat="46.51261" lon="0.38022">
        <ele>97.6</ele>
        <time>2020-12-20T07:50:46Z</time>
      </trkpt>
      <trkpt lat="46.51262" lon="0.38029">
        <ele>95.4</ele>
        <time>2020-12-20T07:50:49Z</time>
      </trkpt>
      <trkpt lat="46.51262" lon="0.38031">
        <ele>94.2</ele>
        <time>2020-12-20T07:50:50Z</time>
      </trkpt>
      <trkpt lat="46.51262" lon="0.38034">
        <ele>92.4</ele>
        <time>2020-12-20T07:50:51Z</time>
      </trkpt>
      <trkpt lat="46.51262" lon="0.38037">
        <ele>91.2</ele>
        <time>2020-12-20T07:50:52Z</time>
      </trkpt>
      <trkpt lat="46.51262" lon="0.3804">
        <ele>90.6</ele>
        <time>2020-12-20T07:50:53Z</time>
      </trkpt>
      <trkpt lat="46.51264" lon="0.38043">
        <ele>90</ele>
        <time>2020-12-20T07:50:54Z</time>
      </trkpt>
      <trkpt lat="46.51264" lon="0.38045">
        <ele>89.8</ele>
        <time>2020-12-20T07:50:55Z</time>
      </trkpt>
      <trkpt lat="46.51268" lon="0.3805">
        <ele>89.4</ele>
        <time>2020-12-20T07:50:57Z</time>
      </trkpt>
      <trkpt lat="46.51275" lon="0.38058">
        <ele>89.2</ele>
        <time>2020-12-20T07:51:00Z</time>
      </trkpt>
      <trkpt lat="46.51278" lon="0.3806">
        <ele>89</ele>
        <time>2020-12-20T07:51:01Z</time>
      </trkpt>
      <trkpt lat="46.51281" lon="0.38063">
        <ele>88.8</ele>
        <time>2020-12-20T07:51:02Z</time>
      </trkpt>
      <trkpt lat="46.51286" lon="0.38066">
        <ele>88.6</ele>
        <time>2020-12-20T07:51:04Z</time>
      </trkpt>
      <trkpt lat="46.51299" lon="0.38073">
        <ele>88.4</ele>
        <time>2020-12-20T07:51:10Z</time>
      </trkpt>
      <trkpt lat="46.51314" lon="0.38081">
        <ele>88.8</ele>
        <time>2020-12-20T07:51:16Z</time>
      </trkpt>
      <trkpt lat="46.51334" lon="0.38086">
        <ele>88.6</ele>
        <time>2020-12-20T07:51:21Z</time>
      </trkpt>
      <trkpt lat="46.51351" lon="0.38088">
        <ele>88.6</ele>
        <time>2020-12-20T07:51:27Z</time>
      </trkpt>
      <trkpt lat="46.5137" lon="0.38081">
        <ele>89</ele>
        <time>2020-12-20T07:51:33Z</time>
      </trkpt>
      <trkpt lat="46.51375" lon="0.38082">
        <ele>89.2</ele>
        <time>2020-12-20T07:51:35Z</time>
      </trkpt>
      <trkpt lat="46.51384" lon="0.38082">
        <ele>89.4</ele>
        <time>2020-12-20T07:51:38Z</time>
      </trkpt>
      <trkpt lat="46.51398" lon="0.38085">
        <ele>89.6</ele>
        <time>2020-12-20T07:51:44Z</time>
      </trkpt>
      <trkpt lat="46.51407" lon="0.38086">
        <ele>90</ele>
        <time>2020-12-20T07:51:48Z</time>
      </trkpt>
      <trkpt lat="46.51412" lon="0.38081">
        <ele>90.4</ele>
        <time>2020-12-20T07:51:52Z</time>
      </trkpt>
      <trkpt lat="46.51413" lon="0.3808">
        <ele>91</ele>
        <time>2020-12-20T07:51:53Z</time>
      </trkpt>
      <trkpt lat="46.51414" lon="0.38073">
        <ele>92.2</ele>
        <time>2020-12-20T07:51:56Z</time>
      </trkpt>
      <trkpt lat="46.51413" lon="0.38071">
        <ele>92.4</ele>
        <time>2020-12-20T07:51:59Z</time>
      </trkpt>
      <trkpt lat="46.51414" lon="0.38068">
        <ele>92.4</ele>
        <time>2020-12-20T07:52:11Z</time>
      </trkpt>
      <trkpt lat="46.51415" lon="0.38068">
        <ele>92.2</ele>
        <time>2020-12-20T07:52:28Z</time>
      </trkpt>
      <trkpt lat="46.51414" lon="0.38065">
        <ele>92.4</ele>
        <time>2020-12-20T07:52:47Z</time>
      </trkpt>
      <trkpt lat="46.51411" lon="0.38064">
        <ele>93</ele>
        <time>2020-12-20T07:52:51Z</time>
      </trkpt>
      <trkpt lat="46.51408" lon="0.38064">
        <ele>93.2</ele>
        <time>2020-12-20T07:52:55Z</time>
      </trkpt>
      <trkpt lat="46.51405" lon="0.38062">
        <ele>94.4</ele>
        <time>2020-12-20T07:53:00Z</time>
      </trkpt>
      <trkpt lat="46.51401" lon="0.3806">
        <ele>95.4</ele>
        <time>2020-12-20T07:53:05Z</time>
      </trkpt>
      <trkpt lat="46.51399" lon="0.38058">
        <ele>96.6</ele>
        <time>2020-12-20T07:53:10Z</time>
      </trkpt>
      <trkpt lat="46.51397" lon="0.38057">
        <ele>97</ele>
        <time>2020-12-20T07:53:12Z</time>
      </trkpt>
      <trkpt lat="46.51396" lon="0.38056">
        <ele>97.6</ele>
        <time>2020-12-20T07:53:14Z</time>
      </trkpt>
      <trkpt lat="46.51395" lon="0.38055">
        <ele>98</ele>
        <time>2020-12-20T07:53:15Z</time>
      </trkpt>
      <trkpt lat="46.51392" lon="0.38055">
        <ele>98.8</ele>
        <time>2020-12-20T07:53:20Z</time>
      </trkpt>
      <trkpt lat="46.51387" lon="0.38053">
        <ele>99.2</ele>
        <time>2020-12-20T07:53:25Z</time>
      </trkpt>
      <trkpt lat="46.51371" lon="0.38055">
        <ele>99.4</ele>
        <time>2020-12-20T07:53:32Z</time>
      </trkpt>
      <trkpt lat="46.51352" lon="0.38054">
        <ele>99</ele>
        <time>2020-12-20T07:53:37Z</time>
      </trkpt>
      <trkpt lat="46.51342" lon="0.38052">
        <ele>99</ele>
        <time>2020-12-20T07:53:39Z</time>
      </trkpt>
      <trkpt lat="46.51331" lon="0.38049">
        <ele>98.8</ele>
        <time>2020-12-20T07:53:41Z</time>
      </trkpt>
      <trkpt lat="46.51327" lon="0.38045">
        <ele>98.8</ele>
        <time>2020-12-20T07:53:42Z</time>
      </trkpt>
      <trkpt lat="46.51323" lon="0.38041">
        <ele>98.8</ele>
        <time>2020-12-20T07:53:43Z</time>
      </trkpt>
      <trkpt lat="46.5131" lon="0.3803">
        <ele>99.2</ele>
        <time>2020-12-20T07:53:46Z</time>
      </trkpt>
      <trkpt lat="46.51307" lon="0.38026">
        <ele>99.4</ele>
        <time>2020-12-20T07:53:47Z</time>
      </trkpt>
      <trkpt lat="46.51301" lon="0.38022">
        <ele>99.8</ele>
        <time>2020-12-20T07:53:49Z</time>
      </trkpt>
      <trkpt lat="46.513" lon="0.38021">
        <ele>100</ele>
        <time>2020-12-20T07:53:50Z</time>
      </trkpt>
      <trkpt lat="46.51294" lon="0.38015">
        <ele>100.8</ele>
        <time>2020-12-20T07:53:57Z</time>
      </trkpt>
      <trkpt lat="46.51294" lon="0.38015">
        <ele>100.8</ele>
        <time>2020-12-20T07:53:58Z</time>
      </trkpt>
      <trkpt lat="46.51295" lon="0.38014">
        <ele>101.8</ele>
        <time>2020-12-20T07:54:05Z</time>
      </trkpt>
      <trkpt lat="46.51296" lon="0.38014">
        <ele>102</ele>
        <time>2020-12-20T07:54:07Z</time>
      </trkpt>
      <trkpt lat="46.51297" lon="0.38014">
        <ele>102.2</ele>
        <time>2020-12-20T07:54:08Z</time>
      </trkpt>
      <trkpt lat="46.51298" lon="0.38011">
        <ele>102.4</ele>
        <time>2020-12-20T07:54:10Z</time>
      </trkpt>
      <trkpt lat="46.513" lon="0.38008">
        <ele>103</ele>
        <time>2020-12-20T07:54:12Z</time>
      </trkpt>
      <trkpt lat="46.513" lon="0.38008">
        <ele>103</ele>
        <time>2020-12-20T07:54:13Z</time>
      </trkpt>
      <trkpt lat="46.51302" lon="0.38008">
        <ele>103.4</ele>
        <time>2020-12-20T07:54:14Z</time>
      </trkpt>
      <trkpt lat="46.51304" lon="0.38009">
        <ele>104</ele>
        <time>2020-12-20T07:54:15Z</time>
      </trkpt>
      <trkpt lat="46.51305" lon="0.38009">
        <ele>104.2</ele>
        <time>2020-12-20T07:54:16Z</time>
      </trkpt>
      <trkpt lat="46.51316" lon="0.38008">
        <ele>105.4</ele>
        <time>2020-12-20T07:54:21Z</time>
      </trkpt>
      <trkpt lat="46.51325" lon="0.38003">
        <ele>106.4</ele>
        <time>2020-12-20T07:54:25Z</time>
      </trkpt>
      <trkpt lat="46.51332" lon="0.37998">
        <ele>106.8</ele>
        <time>2020-12-20T07:54:28Z</time>
      </trkpt>
      <trkpt lat="46.51337" lon="0.37991">
        <ele>107.4</ele>
        <time>2020-12-20T07:54:32Z</time>
      </trkpt>
      <trkpt lat="46.5134" lon="0.37988">
        <ele>107.8</ele>
        <time>2020-12-20T07:54:34Z</time>
      </trkpt>
      <trkpt lat="46.51345" lon="0.37982">
        <ele>108.4</ele>
        <time>2020-12-20T07:54:38Z</time>
      </trkpt>
      <trkpt lat="46.5135" lon="0.37977">
        <ele>109</ele>
        <time>2020-12-20T07:54:41Z</time>
      </trkpt>
      <trkpt lat="46.51353" lon="0.37974">
        <ele>109.6</ele>
        <time>2020-12-20T07:54:44Z</time>
      </trkpt>
      <trkpt lat="46.51357" lon="0.37968">
        <ele>110</ele>
        <time>2020-12-20T07:54:48Z</time>
      </trkpt>
      <trkpt lat="46.51359" lon="0.37967">
        <ele>110</ele>
        <time>2020-12-20T07:54:49Z</time>
      </trkpt>
      <trkpt lat="46.51361" lon="0.37964">
        <ele>110.4</ele>
        <time>2020-12-20T07:54:51Z</time>
      </trkpt>
      <trkpt lat="46.51365" lon="0.37957">
        <ele>110.6</ele>
        <time>2020-12-20T07:54:55Z</time>
      </trkpt>
      <trkpt lat="46.51367" lon="0.37954">
        <ele>110.6</ele>
        <time>2020-12-20T07:54:56Z</time>
      </trkpt>
      <trkpt lat="46.51383" lon="0.37944">
        <ele>111.4</ele>
        <time>2020-12-20T07:55:03Z</time>
      </trkpt>
      <trkpt lat="46.514" lon="0.37947">
        <ele>110.8</ele>
        <time>2020-12-20T07:55:09Z</time>
      </trkpt>
      <trkpt lat="46.51422" lon="0.37947">
        <ele>110</ele>
        <time>2020-12-20T07:55:15Z</time>
      </trkpt>
      <trkpt lat="46.51433" lon="0.37948">
        <ele>109.4</ele>
        <time>2020-12-20T07:55:18Z</time>
      </trkpt>
      <trkpt lat="46.51436" lon="0.37948">
        <ele>109</ele>
        <time>2020-12-20T07:55:19Z</time>
      </trkpt>
      <trkpt lat="46.51443" lon="0.37947">
        <ele>108.6</ele>
        <time>2020-12-20T07:55:21Z</time>
      </trkpt>
      <trkpt lat="46.51447" lon="0.37947">
        <ele>108.4</ele>
        <time>2020-12-20T07:55:22Z</time>
      </trkpt>
      <trkpt lat="46.5145" lon="0.37947">
        <ele>108.4</ele>
        <time>2020-12-20T07:55:23Z</time>
      </trkpt>
      <trkpt lat="46.51453" lon="0.37946">
        <ele>108.4</ele>
        <time>2020-12-20T07:55:24Z</time>
      </trkpt>
      <trkpt lat="46.51461" lon="0.37945">
        <ele>108.4</ele>
        <time>2020-12-20T07:55:26Z</time>
      </trkpt>
      <trkpt lat="46.51468" lon="0.37944">
        <ele>108.2</ele>
        <time>2020-12-20T07:55:28Z</time>
      </trkpt>
      <trkpt lat="46.51481" lon="0.37943">
        <ele>107.8</ele>
        <time>2020-12-20T07:55:31Z</time>
      </trkpt>
      <trkpt lat="46.5149" lon="0.37944">
        <ele>107.8</ele>
        <time>2020-12-20T07:55:33Z</time>
      </trkpt>
      <trkpt lat="46.51513" lon="0.37946">
        <ele>107.4</ele>
        <time>2020-12-20T07:55:38Z</time>
      </trkpt>
      <trkpt lat="46.51521" lon="0.37946">
        <ele>107</ele>
        <time>2020-12-20T07:55:40Z</time>
      </trkpt>
      <trkpt lat="46.51548" lon="0.3795">
        <ele>106.6</ele>
        <time>2020-12-20T07:55:46Z</time>
      </trkpt>
      <trkpt lat="46.51561" lon="0.37957">
        <ele>106.2</ele>
        <time>2020-12-20T07:55:49Z</time>
      </trkpt>
      <trkpt lat="46.51567" lon="0.37964">
        <ele>105.8</ele>
        <time>2020-12-20T07:55:51Z</time>
      </trkpt>
      <trkpt lat="46.5157" lon="0.37968">
        <ele>105.4</ele>
        <time>2020-12-20T07:55:52Z</time>
      </trkpt>
      <trkpt lat="46.51572" lon="0.37972">
        <ele>104.8</ele>
        <time>2020-12-20T07:55:53Z</time>
      </trkpt>
      <trkpt lat="46.5159" lon="0.37995">
        <ele>104</ele>
        <time>2020-12-20T07:55:57Z</time>
      </trkpt>
      <trkpt lat="46.51595" lon="0.38002">
        <ele>103.6</ele>
        <time>2020-12-20T07:55:58Z</time>
      </trkpt>
      <trkpt lat="46.51604" lon="0.38018">
        <ele>102.6</ele>
        <time>2020-12-20T07:56:00Z</time>
      </trkpt>
      <trkpt lat="46.51609" lon="0.38027">
        <ele>101.2</ele>
        <time>2020-12-20T07:56:01Z</time>
      </trkpt>
      <trkpt lat="46.51613" lon="0.38035">
        <ele>100.4</ele>
        <time>2020-12-20T07:56:02Z</time>
      </trkpt>
      <trkpt lat="46.51617" lon="0.38042">
        <ele>99.6</ele>
        <time>2020-12-20T07:56:03Z</time>
      </trkpt>
      <trkpt lat="46.51623" lon="0.38054">
        <ele>98</ele>
        <time>2020-12-20T07:56:05Z</time>
      </trkpt>
      <trkpt lat="46.51626" lon="0.38059">
        <ele>97</ele>
        <time>2020-12-20T07:56:06Z</time>
      </trkpt>
      <trkpt lat="46.51629" lon="0.38065">
        <ele>96.4</ele>
        <time>2020-12-20T07:56:07Z</time>
      </trkpt>
      <trkpt lat="46.51637" lon="0.3808">
        <ele>95.8</ele>
        <time>2020-12-20T07:56:09Z</time>
      </trkpt>
      <trkpt lat="46.5164" lon="0.38088">
        <ele>95.6</ele>
        <time>2020-12-20T07:56:10Z</time>
      </trkpt>
      <trkpt lat="46.51642" lon="0.38096">
        <ele>95.4</ele>
        <time>2020-12-20T07:56:11Z</time>
      </trkpt>
      <trkpt lat="46.51645" lon="0.38113">
        <ele>94.4</ele>
        <time>2020-12-20T07:56:12Z</time>
      </trkpt>
      <trkpt lat="46.51649" lon="0.38122">
        <ele>94.2</ele>
        <time>2020-12-20T07:56:14Z</time>
      </trkpt>
      <trkpt lat="46.51651" lon="0.3813">
        <ele>94</ele>
        <time>2020-12-20T07:56:15Z</time>
      </trkpt>
      <trkpt lat="46.51658" lon="0.38158">
        <ele>92.8</ele>
        <time>2020-12-20T07:56:18Z</time>
      </trkpt>
      <trkpt lat="46.51662" lon="0.38177">
        <ele>91.8</ele>
        <time>2020-12-20T07:56:20Z</time>
      </trkpt>
      <trkpt lat="46.51669" lon="0.38213">
        <ele>90.6</ele>
        <time>2020-12-20T07:56:24Z</time>
      </trkpt>
      <trkpt lat="46.51673" lon="0.3823">
        <ele>88.8</ele>
        <time>2020-12-20T07:56:26Z</time>
      </trkpt>
      <trkpt lat="46.51679" lon="0.38241">
        <ele>87.6</ele>
        <time>2020-12-20T07:56:28Z</time>
      </trkpt>
      <trkpt lat="46.51684" lon="0.38246">
        <ele>87.2</ele>
        <time>2020-12-20T07:56:29Z</time>
      </trkpt>
      <trkpt lat="46.51706" lon="0.38268">
        <ele>87.2</ele>
        <time>2020-12-20T07:56:35Z</time>
      </trkpt>
      <trkpt lat="46.51708" lon="0.38272">
        <ele>87.2</ele>
        <time>2020-12-20T07:56:36Z</time>
      </trkpt>
      <trkpt lat="46.51715" lon="0.38283">
        <ele>87.4</ele>
        <time>2020-12-20T07:56:39Z</time>
      </trkpt>
      <trkpt lat="46.51722" lon="0.38304">
        <ele>88.2</ele>
        <time>2020-12-20T07:56:44Z</time>
      </trkpt>
      <trkpt lat="46.51724" lon="0.38315">
        <ele>88.8</ele>
        <time>2020-12-20T07:56:48Z</time>
      </trkpt>
      <trkpt lat="46.51725" lon="0.38316">
        <ele>89</ele>
        <time>2020-12-20T07:56:49Z</time>
      </trkpt>
      <trkpt lat="46.51728" lon="0.38321">
        <ele>90</ele>
        <time>2020-12-20T07:56:51Z</time>
      </trkpt>
      <trkpt lat="46.51729" lon="0.38323">
        <ele>90.6</ele>
        <time>2020-12-20T07:56:53Z</time>
      </trkpt>
      <trkpt lat="46.51733" lon="0.38327">
        <ele>91.2</ele>
        <time>2020-12-20T07:56:56Z</time>
      </trkpt>
      <trkpt lat="46.51734" lon="0.38327">
        <ele>91.4</ele>
        <time>2020-12-20T07:56:57Z</time>
      </trkpt>
      <trkpt lat="46.51742" lon="0.38333">
        <ele>92.4</ele>
        <time>2020-12-20T07:57:00Z</time>
      </trkpt>
      <trkpt lat="46.51747" lon="0.38335">
        <ele>93</ele>
        <time>2020-12-20T07:57:02Z</time>
      </trkpt>
      <trkpt lat="46.51751" lon="0.38338">
        <ele>93.6</ele>
        <time>2020-12-20T07:57:04Z</time>
      </trkpt>
      <trkpt lat="46.51766" lon="0.38346">
        <ele>94.6</ele>
        <time>2020-12-20T07:57:11Z</time>
      </trkpt>
      <trkpt lat="46.51771" lon="0.38347">
        <ele>94.8</ele>
        <time>2020-12-20T07:57:13Z</time>
      </trkpt>
      <trkpt lat="46.51778" lon="0.38351">
        <ele>96</ele>
        <time>2020-12-20T07:57:16Z</time>
      </trkpt>
      <trkpt lat="46.51783" lon="0.38353">
        <ele>96.4</ele>
        <time>2020-12-20T07:57:18Z</time>
      </trkpt>
      <trkpt lat="46.51794" lon="0.38359">
        <ele>97.2</ele>
        <time>2020-12-20T07:57:23Z</time>
      </trkpt>
      <trkpt lat="46.518" lon="0.38364">
        <ele>98.2</ele>
        <time>2020-12-20T07:57:26Z</time>
      </trkpt>
      <trkpt lat="46.51803" lon="0.38366">
        <ele>98.6</ele>
        <time>2020-12-20T07:57:27Z</time>
      </trkpt>
      <trkpt lat="46.5181" lon="0.38372">
        <ele>99.4</ele>
        <time>2020-12-20T07:57:30Z</time>
      </trkpt>
      <trkpt lat="46.51818" lon="0.38379">
        <ele>99.8</ele>
        <time>2020-12-20T07:57:33Z</time>
      </trkpt>
      <trkpt lat="46.51824" lon="0.38385">
        <ele>100.6</ele>
        <time>2020-12-20T07:57:36Z</time>
      </trkpt>
      <trkpt lat="46.51833" lon="0.38394">
        <ele>101.8</ele>
        <time>2020-12-20T07:57:40Z</time>
      </trkpt>
      <trkpt lat="46.51845" lon="0.3841">
        <ele>102.8</ele>
        <time>2020-12-20T07:57:46Z</time>
      </trkpt>
      <trkpt lat="46.51847" lon="0.38413">
        <ele>103</ele>
        <time>2020-12-20T07:57:47Z</time>
      </trkpt>
      <trkpt lat="46.51854" lon="0.38432">
        <ele>103.8</ele>
        <time>2020-12-20T07:57:54Z</time>
      </trkpt>
      <trkpt lat="46.51861" lon="0.38449">
        <ele>104.8</ele>
        <time>2020-12-20T07:58:00Z</time>
      </trkpt>
      <trkpt lat="46.51861" lon="0.38452">
        <ele>105</ele>
        <time>2020-12-20T07:58:01Z</time>
      </trkpt>
      <trkpt lat="46.5187" lon="0.38475">
        <ele>105.8</ele>
        <time>2020-12-20T07:58:07Z</time>
      </trkpt>
      <trkpt lat="46.51873" lon="0.38483">
        <ele>106</ele>
        <time>2020-12-20T07:58:09Z</time>
      </trkpt>
      <trkpt lat="46.51881" lon="0.38504">
        <ele>106.8</ele>
        <time>2020-12-20T07:58:15Z</time>
      </trkpt>
      <trkpt lat="46.51885" lon="0.38513">
        <ele>107.2</ele>
        <time>2020-12-20T07:58:18Z</time>
      </trkpt>
      <trkpt lat="46.51892" lon="0.38531">
        <ele>108.2</ele>
        <time>2020-12-20T07:58:24Z</time>
      </trkpt>
      <trkpt lat="46.51898" lon="0.38546">
        <ele>109.2</ele>
        <time>2020-12-20T07:58:29Z</time>
      </trkpt>
      <trkpt lat="46.51903" lon="0.38562">
        <ele>110</ele>
        <time>2020-12-20T07:58:34Z</time>
      </trkpt>
      <trkpt lat="46.51904" lon="0.38566">
        <ele>110.2</ele>
        <time>2020-12-20T07:58:35Z</time>
      </trkpt>
      <trkpt lat="46.51909" lon="0.38582">
        <ele>111.2</ele>
        <time>2020-12-20T07:58:40Z</time>
      </trkpt>
      <trkpt lat="46.5191" lon="0.38588">
        <ele>111.6</ele>
        <time>2020-12-20T07:58:42Z</time>
      </trkpt>
      <trkpt lat="46.51912" lon="0.38594">
        <ele>112.4</ele>
        <time>2020-12-20T07:58:44Z</time>
      </trkpt>
      <trkpt lat="46.51918" lon="0.38607">
        <ele>113.6</ele>
        <time>2020-12-20T07:58:49Z</time>
      </trkpt>
      <trkpt lat="46.5192" lon="0.38613">
        <ele>114</ele>
        <time>2020-12-20T07:58:51Z</time>
      </trkpt>
      <trkpt lat="46.51924" lon="0.38625">
        <ele>114.8</ele>
        <time>2020-12-20T07:58:55Z</time>
      </trkpt>
      <trkpt lat="46.51929" lon="0.38634">
        <ele>115.2</ele>
        <time>2020-12-20T07:58:59Z</time>
      </trkpt>
      <trkpt lat="46.51935" lon="0.38643">
        <ele>115.6</ele>
        <time>2020-12-20T07:59:05Z</time>
      </trkpt>
      <trkpt lat="46.51936" lon="0.38644">
        <ele>115.8</ele>
        <time>2020-12-20T07:59:06Z</time>
      </trkpt>
      <trkpt lat="46.5194" lon="0.38651">
        <ele>116</ele>
        <time>2020-12-20T07:59:11Z</time>
      </trkpt>
      <trkpt lat="46.51944" lon="0.38653">
        <ele>116.2</ele>
        <time>2020-12-20T07:59:14Z</time>
      </trkpt>
      <trkpt lat="46.51945" lon="0.38652">
        <ele>116.2</ele>
        <time>2020-12-20T07:59:16Z</time>
      </trkpt>
      <trkpt lat="46.51945" lon="0.3865">
        <ele>116.2</ele>
        <time>2020-12-20T07:59:17Z</time>
      </trkpt>
      <trkpt lat="46.51942" lon="0.38649">
        <ele>116.2</ele>
        <time>2020-12-20T07:59:19Z</time>
      </trkpt>
      <trkpt lat="46.51941" lon="0.3865">
        <ele>116.2</ele>
        <time>2020-12-20T07:59:20Z</time>
      </trkpt>
      <trkpt lat="46.51929" lon="0.38666">
        <ele>116</ele>
        <time>2020-12-20T07:59:27Z</time>
      </trkpt>
      <trkpt lat="46.51915" lon="0.38685">
        <ele>116.2</ele>
        <time>2020-12-20T07:59:32Z</time>
      </trkpt>
      <trkpt lat="46.519" lon="0.38706">
        <ele>116</ele>
        <time>2020-12-20T07:59:38Z</time>
      </trkpt>
      <trkpt lat="46.51893" lon="0.38719">
        <ele>117</ele>
        <time>2020-12-20T07:59:41Z</time>
      </trkpt>
      <trkpt lat="46.51886" lon="0.38732">
        <ele>117.4</ele>
        <time>2020-12-20T07:59:44Z</time>
      </trkpt>
      <trkpt lat="46.51883" lon="0.38737">
        <ele>117.6</ele>
        <time>2020-12-20T07:59:45Z</time>
      </trkpt>
      <trkpt lat="46.5187" lon="0.38762">
        <ele>117.8</ele>
        <time>2020-12-20T07:59:50Z</time>
      </trkpt>
      <trkpt lat="46.51868" lon="0.38768">
        <ele>118</ele>
        <time>2020-12-20T07:59:51Z</time>
      </trkpt>
      <trkpt lat="46.51854" lon="0.3882">
        <ele>117.4</ele>
        <time>2020-12-20T07:59:58Z</time>
      </trkpt>
      <trkpt lat="46.51842" lon="0.38869">
        <ele>116</ele>
        <time>2020-12-20T08:00:04Z</time>
      </trkpt>
      <trkpt lat="46.51828" lon="0.38918">
        <ele>114.8</ele>
        <time>2020-12-20T08:00:10Z</time>
      </trkpt>
      <trkpt lat="46.51821" lon="0.38941">
        <ele>113</ele>
        <time>2020-12-20T08:00:12Z</time>
      </trkpt>
      <trkpt lat="46.51818" lon="0.38948">
        <ele>112.8</ele>
        <time>2020-12-20T08:00:14Z</time>
      </trkpt>
      <trkpt lat="46.51805" lon="0.38981">
        <ele>112</ele>
        <time>2020-12-20T08:00:19Z</time>
      </trkpt>
      <trkpt lat="46.51792" lon="0.39007">
        <ele>110.8</ele>
        <time>2020-12-20T08:00:23Z</time>
      </trkpt>
      <trkpt lat="46.51787" lon="0.39015">
        <ele>110.6</ele>
        <time>2020-12-20T08:00:24Z</time>
      </trkpt>
      <trkpt lat="46.51759" lon="0.39058">
        <ele>110</ele>
        <time>2020-12-20T08:00:30Z</time>
      </trkpt>
      <trkpt lat="46.5173" lon="0.39103">
        <ele>109.6</ele>
        <time>2020-12-20T08:00:37Z</time>
      </trkpt>
      <trkpt lat="46.51722" lon="0.39116">
        <ele>109.2</ele>
        <time>2020-12-20T08:00:39Z</time>
      </trkpt>
      <trkpt lat="46.51716" lon="0.39128">
        <ele>108.8</ele>
        <time>2020-12-20T08:00:41Z</time>
      </trkpt>
      <trkpt lat="46.51713" lon="0.39135">
        <ele>108.6</ele>
        <time>2020-12-20T08:00:42Z</time>
      </trkpt>
      <trkpt lat="46.51703" lon="0.39157">
        <ele>108</ele>
        <time>2020-12-20T08:00:45Z</time>
      </trkpt>
      <trkpt lat="46.51695" lon="0.39174">
        <ele>107.4</ele>
        <time>2020-12-20T08:00:47Z</time>
      </trkpt>
      <trkpt lat="46.51681" lon="0.39202">
        <ele>106.6</ele>
        <time>2020-12-20T08:00:50Z</time>
      </trkpt>
      <trkpt lat="46.51676" lon="0.39213">
        <ele>106</ele>
        <time>2020-12-20T08:00:51Z</time>
      </trkpt>
      <trkpt lat="46.51665" lon="0.39234">
        <ele>104.4</ele>
        <time>2020-12-20T08:00:53Z</time>
      </trkpt>
      <trkpt lat="46.51654" lon="0.39256">
        <ele>103</ele>
        <time>2020-12-20T08:00:55Z</time>
      </trkpt>
      <trkpt lat="46.51649" lon="0.39265">
        <ele>101.6</ele>
        <time>2020-12-20T08:00:56Z</time>
      </trkpt>
      <trkpt lat="46.51641" lon="0.39282">
        <ele>99.2</ele>
        <time>2020-12-20T08:00:58Z</time>
      </trkpt>
      <trkpt lat="46.51638" lon="0.39288">
        <ele>97.8</ele>
        <time>2020-12-20T08:00:59Z</time>
      </trkpt>
      <trkpt lat="46.51635" lon="0.39291">
        <ele>97</ele>
        <time>2020-12-20T08:01:00Z</time>
      </trkpt>
      <trkpt lat="46.51631" lon="0.39292">
        <ele>96.4</ele>
        <time>2020-12-20T08:01:01Z</time>
      </trkpt>
      <trkpt lat="46.51626" lon="0.3929">
        <ele>95.8</ele>
        <time>2020-12-20T08:01:02Z</time>
      </trkpt>
      <trkpt lat="46.51622" lon="0.39287">
        <ele>95.4</ele>
        <time>2020-12-20T08:01:03Z</time>
      </trkpt>
      <trkpt lat="46.51617" lon="0.39283">
        <ele>95</ele>
        <time>2020-12-20T08:01:04Z</time>
      </trkpt>
      <trkpt lat="46.51607" lon="0.3928">
        <ele>94</ele>
        <time>2020-12-20T08:01:05Z</time>
      </trkpt>
      <trkpt lat="46.51607" lon="0.3928">
        <ele>94</ele>
        <time>2020-12-20T08:01:06Z</time>
      </trkpt>
      <trkpt lat="46.51599" lon="0.39284">
        <ele>94</ele>
        <time>2020-12-20T08:01:08Z</time>
      </trkpt>
      <trkpt lat="46.51593" lon="0.39291">
        <ele>93.6</ele>
        <time>2020-12-20T08:01:10Z</time>
      </trkpt>
      <trkpt lat="46.51584" lon="0.39305">
        <ele>94.2</ele>
        <time>2020-12-20T08:01:15Z</time>
      </trkpt>
      <trkpt lat="46.51585" lon="0.39315">
        <ele>95.4</ele>
        <time>2020-12-20T08:01:18Z</time>
      </trkpt>
      <trkpt lat="46.51586" lon="0.39319">
        <ele>95.8</ele>
        <time>2020-12-20T08:01:19Z</time>
      </trkpt>
      <trkpt lat="46.51587" lon="0.39326">
        <ele>96.4</ele>
        <time>2020-12-20T08:01:21Z</time>
      </trkpt>
      <trkpt lat="46.51588" lon="0.39338">
        <ele>97.2</ele>
        <time>2020-12-20T08:01:24Z</time>
      </trkpt>
      <trkpt lat="46.51588" lon="0.39343">
        <ele>97.4</ele>
        <time>2020-12-20T08:01:25Z</time>
      </trkpt>
      <trkpt lat="46.51589" lon="0.39357">
        <ele>98.6</ele>
        <time>2020-12-20T08:01:28Z</time>
      </trkpt>
      <trkpt lat="46.51588" lon="0.39367">
        <ele>99</ele>
        <time>2020-12-20T08:01:30Z</time>
      </trkpt>
      <trkpt lat="46.51588" lon="0.39377">
        <ele>99.8</ele>
        <time>2020-12-20T08:01:32Z</time>
      </trkpt>
      <trkpt lat="46.51586" lon="0.39402">
        <ele>100.4</ele>
        <time>2020-12-20T08:01:37Z</time>
      </trkpt>
      <trkpt lat="46.51584" lon="0.39419">
        <ele>101.4</ele>
        <time>2020-12-20T08:01:41Z</time>
      </trkpt>
      <trkpt lat="46.51582" lon="0.39432">
        <ele>102</ele>
        <time>2020-12-20T08:01:44Z</time>
      </trkpt>
      <trkpt lat="46.5158" lon="0.39445">
        <ele>102.4</ele>
        <time>2020-12-20T08:01:47Z</time>
      </trkpt>
      <trkpt lat="46.51579" lon="0.39459">
        <ele>103.8</ele>
        <time>2020-12-20T08:01:50Z</time>
      </trkpt>
      <trkpt lat="46.51578" lon="0.39468">
        <ele>104.4</ele>
        <time>2020-12-20T08:01:52Z</time>
      </trkpt>
      <trkpt lat="46.51578" lon="0.39473">
        <ele>104.8</ele>
        <time>2020-12-20T08:01:53Z</time>
      </trkpt>
      <trkpt lat="46.51578" lon="0.39492">
        <ele>105.6</ele>
        <time>2020-12-20T08:01:58Z</time>
      </trkpt>
      <trkpt lat="46.51578" lon="0.395">
        <ele>105.8</ele>
        <time>2020-12-20T08:02:00Z</time>
      </trkpt>
      <trkpt lat="46.51577" lon="0.39508">
        <ele>106</ele>
        <time>2020-12-20T08:02:02Z</time>
      </trkpt>
      <trkpt lat="46.51575" lon="0.39516">
        <ele>106.2</ele>
        <time>2020-12-20T08:02:04Z</time>
      </trkpt>
      <trkpt lat="46.51576" lon="0.39539">
        <ele>106.2</ele>
        <time>2020-12-20T08:02:10Z</time>
      </trkpt>
      <trkpt lat="46.51577" lon="0.3956">
        <ele>106.4</ele>
        <time>2020-12-20T08:02:16Z</time>
      </trkpt>
      <trkpt lat="46.51576" lon="0.3958">
        <ele>106.4</ele>
        <time>2020-12-20T08:02:22Z</time>
      </trkpt>
      <trkpt lat="46.51577" lon="0.39609">
        <ele>106.4</ele>
        <time>2020-12-20T08:02:29Z</time>
      </trkpt>
      <trkpt lat="46.51573" lon="0.39639">
        <ele>105.6</ele>
        <time>2020-12-20T08:02:34Z</time>
      </trkpt>
      <trkpt lat="46.51564" lon="0.39681">
        <ele>105.2</ele>
        <time>2020-12-20T08:02:41Z</time>
      </trkpt>
      <trkpt lat="46.51559" lon="0.39709">
        <ele>106</ele>
        <time>2020-12-20T08:02:48Z</time>
      </trkpt>
      <trkpt lat="46.51555" lon="0.39737">
        <ele>106.6</ele>
        <time>2020-12-20T08:02:55Z</time>
      </trkpt>
      <trkpt lat="46.51551" lon="0.39757">
        <ele>106.8</ele>
        <time>2020-12-20T08:03:00Z</time>
      </trkpt>
      <trkpt lat="46.51549" lon="0.39766">
        <ele>107.4</ele>
        <time>2020-12-20T08:03:02Z</time>
      </trkpt>
      <trkpt lat="46.51544" lon="0.39786">
        <ele>108</ele>
        <time>2020-12-20T08:03:06Z</time>
      </trkpt>
      <trkpt lat="46.5154" lon="0.39802">
        <ele>108.6</ele>
        <time>2020-12-20T08:03:09Z</time>
      </trkpt>
      <trkpt lat="46.51534" lon="0.39824">
        <ele>109.4</ele>
        <time>2020-12-20T08:03:13Z</time>
      </trkpt>
      <trkpt lat="46.51526" lon="0.39848">
        <ele>110.2</ele>
        <time>2020-12-20T08:03:17Z</time>
      </trkpt>
      <trkpt lat="46.51521" lon="0.39867">
        <ele>110.8</ele>
        <time>2020-12-20T08:03:20Z</time>
      </trkpt>
      <trkpt lat="46.51516" lon="0.39893">
        <ele>111.8</ele>
        <time>2020-12-20T08:03:24Z</time>
      </trkpt>
      <trkpt lat="46.51514" lon="0.39899">
        <ele>112</ele>
        <time>2020-12-20T08:03:25Z</time>
      </trkpt>
      <trkpt lat="46.51513" lon="0.39945">
        <ele>112.8</ele>
        <time>2020-12-20T08:03:32Z</time>
      </trkpt>
      <trkpt lat="46.51513" lon="0.39952">
        <ele>113</ele>
        <time>2020-12-20T08:03:33Z</time>
      </trkpt>
      <trkpt lat="46.51518" lon="0.39982">
        <ele>113.4</ele>
        <time>2020-12-20T08:03:38Z</time>
      </trkpt>
      <trkpt lat="46.51519" lon="0.39988">
        <ele>113.8</ele>
        <time>2020-12-20T08:03:39Z</time>
      </trkpt>
      <trkpt lat="46.51521" lon="0.4">
        <ele>114</ele>
        <time>2020-12-20T08:03:41Z</time>
      </trkpt>
      <trkpt lat="46.51523" lon="0.4002">
        <ele>114.4</ele>
        <time>2020-12-20T08:03:44Z</time>
      </trkpt>
      <trkpt lat="46.51524" lon="0.40026">
        <ele>114.4</ele>
        <time>2020-12-20T08:03:45Z</time>
      </trkpt>
      <trkpt lat="46.51524" lon="0.40046">
        <ele>114.8</ele>
        <time>2020-12-20T08:03:48Z</time>
      </trkpt>
      <trkpt lat="46.51523" lon="0.40053">
        <ele>115</ele>
        <time>2020-12-20T08:03:49Z</time>
      </trkpt>
      <trkpt lat="46.51521" lon="0.40066">
        <ele>115.4</ele>
        <time>2020-12-20T08:03:51Z</time>
      </trkpt>
      <trkpt lat="46.51516" lon="0.40104">
        <ele>116</ele>
        <time>2020-12-20T08:03:57Z</time>
      </trkpt>
      <trkpt lat="46.51513" lon="0.40122">
        <ele>116.2</ele>
        <time>2020-12-20T08:04:00Z</time>
      </trkpt>
      <trkpt lat="46.51504" lon="0.40175">
        <ele>116.8</ele>
        <time>2020-12-20T08:04:08Z</time>
      </trkpt>
      <trkpt lat="46.51494" lon="0.40232">
        <ele>117</ele>
        <time>2020-12-20T08:04:17Z</time>
      </trkpt>
      <trkpt lat="46.51486" lon="0.40261">
        <ele>117</ele>
        <time>2020-12-20T08:04:23Z</time>
      </trkpt>
      <trkpt lat="46.51483" lon="0.40271">
        <ele>117.2</ele>
        <time>2020-12-20T08:04:25Z</time>
      </trkpt>
      <trkpt lat="46.51475" lon="0.40308">
        <ele>118</ele>
        <time>2020-12-20T08:04:32Z</time>
      </trkpt>
      <trkpt lat="46.5147" lon="0.40346">
        <ele>117.8</ele>
        <time>2020-12-20T08:04:38Z</time>
      </trkpt>
      <trkpt lat="46.51471" lon="0.40386">
        <ele>117.6</ele>
        <time>2020-12-20T08:04:44Z</time>
      </trkpt>
      <trkpt lat="46.51471" lon="0.40392">
        <ele>117.4</ele>
        <time>2020-12-20T08:04:45Z</time>
      </trkpt>
      <trkpt lat="46.51471" lon="0.40426">
        <ele>116.4</ele>
        <time>2020-12-20T08:04:51Z</time>
      </trkpt>
      <trkpt lat="46.51471" lon="0.40432">
        <ele>116.4</ele>
        <time>2020-12-20T08:04:52Z</time>
      </trkpt>
      <trkpt lat="46.5147" lon="0.40445">
        <ele>116</ele>
        <time>2020-12-20T08:04:54Z</time>
      </trkpt>
      <trkpt lat="46.5147" lon="0.40452">
        <ele>115.8</ele>
        <time>2020-12-20T08:04:55Z</time>
      </trkpt>
      <trkpt lat="46.51469" lon="0.40472">
        <ele>115.6</ele>
        <time>2020-12-20T08:04:58Z</time>
      </trkpt>
      <trkpt lat="46.51467" lon="0.40485">
        <ele>115.4</ele>
        <time>2020-12-20T08:05:00Z</time>
      </trkpt>
      <trkpt lat="46.51466" lon="0.4049">
        <ele>115</ele>
        <time>2020-12-20T08:05:01Z</time>
      </trkpt>
      <trkpt lat="46.51462" lon="0.4052">
        <ele>114</ele>
        <time>2020-12-20T08:05:05Z</time>
      </trkpt>
      <trkpt lat="46.51461" lon="0.40528">
        <ele>113.8</ele>
        <time>2020-12-20T08:05:06Z</time>
      </trkpt>
      <trkpt lat="46.51458" lon="0.40558">
        <ele>112.6</ele>
        <time>2020-12-20T08:05:11Z</time>
      </trkpt>
      <trkpt lat="46.51456" lon="0.40578">
        <ele>111.6</ele>
        <time>2020-12-20T08:05:17Z</time>
      </trkpt>
      <trkpt lat="46.51457" lon="0.40581">
        <ele>111.6</ele>
        <time>2020-12-20T08:05:18Z</time>
      </trkpt>
      <trkpt lat="46.51457" lon="0.40593">
        <ele>111</ele>
        <time>2020-12-20T08:05:23Z</time>
      </trkpt>
      <trkpt lat="46.51455" lon="0.40595">
        <ele>111</ele>
        <time>2020-12-20T08:05:24Z</time>
      </trkpt>
      <trkpt lat="46.51453" lon="0.40596">
        <ele>111</ele>
        <time>2020-12-20T08:05:25Z</time>
      </trkpt>
      <trkpt lat="46.51446" lon="0.40598">
        <ele>110.6</ele>
        <time>2020-12-20T08:05:29Z</time>
      </trkpt>
      <trkpt lat="46.51433" lon="0.40601">
        <ele>109.6</ele>
        <time>2020-12-20T08:05:33Z</time>
      </trkpt>
      <trkpt lat="46.5143" lon="0.40602">
        <ele>109.4</ele>
        <time>2020-12-20T08:05:34Z</time>
      </trkpt>
      <trkpt lat="46.51428" lon="0.40603">
        <ele>108.4</ele>
        <time>2020-12-20T08:05:35Z</time>
      </trkpt>
      <trkpt lat="46.51426" lon="0.40603">
        <ele>107.6</ele>
        <time>2020-12-20T08:05:36Z</time>
      </trkpt>
      <trkpt lat="46.51424" lon="0.40604">
        <ele>107.2</ele>
        <time>2020-12-20T08:05:37Z</time>
      </trkpt>
      <trkpt lat="46.51422" lon="0.40605">
        <ele>105.8</ele>
        <time>2020-12-20T08:05:38Z</time>
      </trkpt>
      <trkpt lat="46.51419" lon="0.40607">
        <ele>104.2</ele>
        <time>2020-12-20T08:05:40Z</time>
      </trkpt>
      <trkpt lat="46.51418" lon="0.4061">
        <ele>103.4</ele>
        <time>2020-12-20T08:05:41Z</time>
      </trkpt>
      <trkpt lat="46.51418" lon="0.40613">
        <ele>102.6</ele>
        <time>2020-12-20T08:05:42Z</time>
      </trkpt>
      <trkpt lat="46.51415" lon="0.40621">
        <ele>102</ele>
        <time>2020-12-20T08:05:44Z</time>
      </trkpt>
      <trkpt lat="46.51411" lon="0.40625">
        <ele>102</ele>
        <time>2020-12-20T08:05:45Z</time>
      </trkpt>
      <trkpt lat="46.51409" lon="0.40628">
        <ele>101.8</ele>
        <time>2020-12-20T08:05:46Z</time>
      </trkpt>
      <trkpt lat="46.51401" lon="0.40629">
        <ele>101.8</ele>
        <time>2020-12-20T08:05:48Z</time>
      </trkpt>
      <trkpt lat="46.51398" lon="0.40627">
        <ele>101.6</ele>
        <time>2020-12-20T08:05:49Z</time>
      </trkpt>
      <trkpt lat="46.51395" lon="0.40625">
        <ele>101.4</ele>
        <time>2020-12-20T08:05:50Z</time>
      </trkpt>
      <trkpt lat="46.51387" lon="0.40613">
        <ele>101.2</ele>
        <time>2020-12-20T08:05:53Z</time>
      </trkpt>
      <trkpt lat="46.51383" lon="0.40611">
        <ele>101.2</ele>
        <time>2020-12-20T08:05:54Z</time>
      </trkpt>
      <trkpt lat="46.51375" lon="0.40608">
        <ele>101.2</ele>
        <time>2020-12-20T08:05:55Z</time>
      </trkpt>
      <trkpt lat="46.51361" lon="0.40596">
        <ele>101</ele>
        <time>2020-12-20T08:05:59Z</time>
      </trkpt>
      <trkpt lat="46.51352" lon="0.40592">
        <ele>100.8</ele>
        <time>2020-12-20T08:06:01Z</time>
      </trkpt>
      <trkpt lat="46.51344" lon="0.40585">
        <ele>100.2</ele>
        <time>2020-12-20T08:06:03Z</time>
      </trkpt>
      <trkpt lat="46.5134" lon="0.40581">
        <ele>100.2</ele>
        <time>2020-12-20T08:06:04Z</time>
      </trkpt>
      <trkpt lat="46.51329" lon="0.40575">
        <ele>99.6</ele>
        <time>2020-12-20T08:06:06Z</time>
      </trkpt>
      <trkpt lat="46.51319" lon="0.4057">
        <ele>99.2</ele>
        <time>2020-12-20T08:06:08Z</time>
      </trkpt>
      <trkpt lat="46.51309" lon="0.40564">
        <ele>98.6</ele>
        <time>2020-12-20T08:06:10Z</time>
      </trkpt>
      <trkpt lat="46.51295" lon="0.40555">
        <ele>98.2</ele>
        <time>2020-12-20T08:06:12Z</time>
      </trkpt>
      <trkpt lat="46.51292" lon="0.40553">
        <ele>98</ele>
        <time>2020-12-20T08:06:14Z</time>
      </trkpt>
      <trkpt lat="46.51289" lon="0.40551">
        <ele>98</ele>
        <time>2020-12-20T08:06:15Z</time>
      </trkpt>
      <trkpt lat="46.5127" lon="0.40535">
        <ele>97.8</ele>
        <time>2020-12-20T08:06:21Z</time>
      </trkpt>
      <trkpt lat="46.51261" lon="0.40525">
        <ele>97.6</ele>
        <time>2020-12-20T08:06:25Z</time>
      </trkpt>
      <trkpt lat="46.51259" lon="0.40524">
        <ele>97.6</ele>
        <time>2020-12-20T08:06:26Z</time>
      </trkpt>
      <trkpt lat="46.51252" lon="0.40527">
        <ele>99.2</ele>
        <time>2020-12-20T08:06:32Z</time>
      </trkpt>
      <trkpt lat="46.5125" lon="0.40529">
        <ele>99.6</ele>
        <time>2020-12-20T08:06:34Z</time>
      </trkpt>
      <trkpt lat="46.51247" lon="0.4053">
        <ele>100.4</ele>
        <time>2020-12-20T08:06:36Z</time>
      </trkpt>
      <trkpt lat="46.51244" lon="0.40534">
        <ele>101.2</ele>
        <time>2020-12-20T08:06:40Z</time>
      </trkpt>
      <trkpt lat="46.51243" lon="0.40536">
        <ele>101.6</ele>
        <time>2020-12-20T08:06:41Z</time>
      </trkpt>
      <trkpt lat="46.51242" lon="0.40537">
        <ele>102.2</ele>
        <time>2020-12-20T08:06:43Z</time>
      </trkpt>
      <trkpt lat="46.51239" lon="0.40539">
        <ele>102.4</ele>
        <time>2020-12-20T08:06:44Z</time>
      </trkpt>
      <trkpt lat="46.51239" lon="0.4054">
        <ele>102.6</ele>
        <time>2020-12-20T08:06:45Z</time>
      </trkpt>
      <trkpt lat="46.51237" lon="0.40542">
        <ele>103</ele>
        <time>2020-12-20T08:06:47Z</time>
      </trkpt>
      <trkpt lat="46.51232" lon="0.40547">
        <ele>103.4</ele>
        <time>2020-12-20T08:06:51Z</time>
      </trkpt>
      <trkpt lat="46.51231" lon="0.40548">
        <ele>104</ele>
        <time>2020-12-20T08:06:53Z</time>
      </trkpt>
      <trkpt lat="46.51229" lon="0.40548">
        <ele>104.6</ele>
        <time>2020-12-20T08:06:55Z</time>
      </trkpt>
      <trkpt lat="46.51227" lon="0.40549">
        <ele>105</ele>
        <time>2020-12-20T08:06:58Z</time>
      </trkpt>
      <trkpt lat="46.51216" lon="0.40558">
        <ele>105.6</ele>
        <time>2020-12-20T08:07:06Z</time>
      </trkpt>
      <trkpt lat="46.51212" lon="0.40559">
        <ele>105.8</ele>
        <time>2020-12-20T08:07:08Z</time>
      </trkpt>
      <trkpt lat="46.51206" lon="0.40561">
        <ele>106</ele>
        <time>2020-12-20T08:07:12Z</time>
      </trkpt>
      <trkpt lat="46.51194" lon="0.40566">
        <ele>106.6</ele>
        <time>2020-12-20T08:07:20Z</time>
      </trkpt>
      <trkpt lat="46.51191" lon="0.40574">
        <ele>107</ele>
        <time>2020-12-20T08:07:24Z</time>
      </trkpt>
      <trkpt lat="46.51189" lon="0.4058">
        <ele>107.4</ele>
        <time>2020-12-20T08:07:27Z</time>
      </trkpt>
      <trkpt lat="46.51185" lon="0.40583">
        <ele>108</ele>
        <time>2020-12-20T08:07:30Z</time>
      </trkpt>
      <trkpt lat="46.51182" lon="0.40585">
        <ele>108.2</ele>
        <time>2020-12-20T08:07:32Z</time>
      </trkpt>
      <trkpt lat="46.51179" lon="0.40588">
        <ele>108.4</ele>
        <time>2020-12-20T08:07:34Z</time>
      </trkpt>
      <trkpt lat="46.51173" lon="0.40593">
        <ele>109.2</ele>
        <time>2020-12-20T08:07:38Z</time>
      </trkpt>
      <trkpt lat="46.51167" lon="0.40602">
        <ele>109.6</ele>
        <time>2020-12-20T08:07:43Z</time>
      </trkpt>
      <trkpt lat="46.51164" lon="0.40608">
        <ele>109.8</ele>
        <time>2020-12-20T08:07:46Z</time>
      </trkpt>
      <trkpt lat="46.51163" lon="0.40612">
        <ele>110.2</ele>
        <time>2020-12-20T08:07:49Z</time>
      </trkpt>
      <trkpt lat="46.51163" lon="0.40615">
        <ele>110.6</ele>
        <time>2020-12-20T08:07:51Z</time>
      </trkpt>
      <trkpt lat="46.51166" lon="0.40621">
        <ele>110.6</ele>
        <time>2020-12-20T08:07:55Z</time>
      </trkpt>
      <trkpt lat="46.51166" lon="0.40623">
        <ele>110.6</ele>
        <time>2020-12-20T08:07:56Z</time>
      </trkpt>
      <trkpt lat="46.51176" lon="0.40639">
        <ele>110.8</ele>
        <time>2020-12-20T08:08:06Z</time>
      </trkpt>
      <trkpt lat="46.51186" lon="0.40649">
        <ele>111</ele>
        <time>2020-12-20T08:08:15Z</time>
      </trkpt>
      <trkpt lat="46.51193" lon="0.40657">
        <ele>111</ele>
        <time>2020-12-20T08:08:21Z</time>
      </trkpt>
      <trkpt lat="46.51195" lon="0.40659">
        <ele>111.2</ele>
        <time>2020-12-20T08:08:22Z</time>
      </trkpt>
      <trkpt lat="46.51196" lon="0.40663">
        <ele>111.6</ele>
        <time>2020-12-20T08:08:23Z</time>
      </trkpt>
      <trkpt lat="46.51201" lon="0.40683">
        <ele>112.2</ele>
        <time>2020-12-20T08:08:28Z</time>
      </trkpt>
      <trkpt lat="46.51201" lon="0.40686">
        <ele>112.4</ele>
        <time>2020-12-20T08:08:29Z</time>
      </trkpt>
      <trkpt lat="46.51201" lon="0.40689">
        <ele>112.4</ele>
        <time>2020-12-20T08:08:30Z</time>
      </trkpt>
      <trkpt lat="46.512" lon="0.40702">
        <ele>112.8</ele>
        <time>2020-12-20T08:08:34Z</time>
      </trkpt>
      <trkpt lat="46.512" lon="0.40717">
        <ele>113</ele>
        <time>2020-12-20T08:08:39Z</time>
      </trkpt>
      <trkpt lat="46.512" lon="0.40728">
        <ele>113.4</ele>
        <time>2020-12-20T08:08:42Z</time>
      </trkpt>
      <trkpt lat="46.51199" lon="0.4074">
        <ele>114</ele>
        <time>2020-12-20T08:08:45Z</time>
      </trkpt>
      <trkpt lat="46.51198" lon="0.40742">
        <ele>114</ele>
        <time>2020-12-20T08:08:46Z</time>
      </trkpt>
      <trkpt lat="46.51193" lon="0.40748">
        <ele>114.2</ele>
        <time>2020-12-20T08:08:49Z</time>
      </trkpt>
      <trkpt lat="46.51187" lon="0.40752">
        <ele>114.4</ele>
        <time>2020-12-20T08:08:52Z</time>
      </trkpt>
      <trkpt lat="46.51177" lon="0.40757">
        <ele>114.8</ele>
        <time>2020-12-20T08:08:56Z</time>
      </trkpt>
      <trkpt lat="46.51174" lon="0.40759">
        <ele>114.8</ele>
        <time>2020-12-20T08:08:57Z</time>
      </trkpt>
      <trkpt lat="46.51169" lon="0.40768">
        <ele>115</ele>
        <time>2020-12-20T08:09:00Z</time>
      </trkpt>
      <trkpt lat="46.51164" lon="0.40774">
        <ele>115</ele>
        <time>2020-12-20T08:09:02Z</time>
      </trkpt>
      <trkpt lat="46.51164" lon="0.4078">
        <ele>115</ele>
        <time>2020-12-20T08:09:04Z</time>
      </trkpt>
      <trkpt lat="46.51164" lon="0.40783">
        <ele>115</ele>
        <time>2020-12-20T08:09:05Z</time>
      </trkpt>
      <trkpt lat="46.51168" lon="0.40797">
        <ele>115.4</ele>
        <time>2020-12-20T08:09:10Z</time>
      </trkpt>
      <trkpt lat="46.51172" lon="0.40803">
        <ele>115.4</ele>
        <time>2020-12-20T08:09:12Z</time>
      </trkpt>
      <trkpt lat="46.51184" lon="0.40818">
        <ele>115.4</ele>
        <time>2020-12-20T08:09:17Z</time>
      </trkpt>
      <trkpt lat="46.51187" lon="0.40822">
        <ele>115.6</ele>
        <time>2020-12-20T08:09:18Z</time>
      </trkpt>
      <trkpt lat="46.51198" lon="0.40833">
        <ele>115.6</ele>
        <time>2020-12-20T08:09:21Z</time>
      </trkpt>
      <trkpt lat="46.51208" lon="0.40842">
        <ele>115.6</ele>
        <time>2020-12-20T08:09:24Z</time>
      </trkpt>
      <trkpt lat="46.51216" lon="0.40851">
        <ele>115.6</ele>
        <time>2020-12-20T08:09:27Z</time>
      </trkpt>
      <trkpt lat="46.51222" lon="0.40858">
        <ele>115.8</ele>
        <time>2020-12-20T08:09:29Z</time>
      </trkpt>
      <trkpt lat="46.51225" lon="0.40861">
        <ele>115.6</ele>
        <time>2020-12-20T08:09:30Z</time>
      </trkpt>
      <trkpt lat="46.51241" lon="0.40879">
        <ele>115.4</ele>
        <time>2020-12-20T08:09:36Z</time>
      </trkpt>
      <trkpt lat="46.51252" lon="0.40897">
        <ele>115.4</ele>
        <time>2020-12-20T08:09:41Z</time>
      </trkpt>
      <trkpt lat="46.51253" lon="0.409">
        <ele>115.4</ele>
        <time>2020-12-20T08:09:42Z</time>
      </trkpt>
      <trkpt lat="46.51254" lon="0.40915">
        <ele>115.4</ele>
        <time>2020-12-20T08:09:46Z</time>
      </trkpt>
      <trkpt lat="46.51253" lon="0.40926">
        <ele>115.8</ele>
        <time>2020-12-20T08:09:49Z</time>
      </trkpt>
      <trkpt lat="46.51251" lon="0.40937">
        <ele>115.8</ele>
        <time>2020-12-20T08:09:52Z</time>
      </trkpt>
      <trkpt lat="46.51247" lon="0.40963">
        <ele>116</ele>
        <time>2020-12-20T08:09:59Z</time>
      </trkpt>
      <trkpt lat="46.51243" lon="0.40984">
        <ele>116</ele>
        <time>2020-12-20T08:10:02Z</time>
      </trkpt>
      <trkpt lat="46.51239" lon="0.40995">
        <ele>116</ele>
        <time>2020-12-20T08:10:05Z</time>
      </trkpt>
      <trkpt lat="46.51238" lon="0.40999">
        <ele>115.8</ele>
        <time>2020-12-20T08:10:06Z</time>
      </trkpt>
      <trkpt lat="46.51233" lon="0.41013">
        <ele>115.4</ele>
        <time>2020-12-20T08:10:09Z</time>
      </trkpt>
      <trkpt lat="46.51227" lon="0.41019">
        <ele>115</ele>
        <time>2020-12-20T08:10:11Z</time>
      </trkpt>
      <trkpt lat="46.51214" lon="0.41028">
        <ele>114.8</ele>
        <time>2020-12-20T08:10:13Z</time>
      </trkpt>
      <trkpt lat="46.51201" lon="0.41032">
        <ele>114.4</ele>
        <time>2020-12-20T08:10:16Z</time>
      </trkpt>
      <trkpt lat="46.51192" lon="0.41035">
        <ele>113.6</ele>
        <time>2020-12-20T08:10:18Z</time>
      </trkpt>
      <trkpt lat="46.51187" lon="0.41035">
        <ele>113</ele>
        <time>2020-12-20T08:10:19Z</time>
      </trkpt>
      <trkpt lat="46.51182" lon="0.41035">
        <ele>112.2</ele>
        <time>2020-12-20T08:10:20Z</time>
      </trkpt>
      <trkpt lat="46.51176" lon="0.41037">
        <ele>111.6</ele>
        <time>2020-12-20T08:10:21Z</time>
      </trkpt>
      <trkpt lat="46.51167" lon="0.41038">
        <ele>110.4</ele>
        <time>2020-12-20T08:10:23Z</time>
      </trkpt>
      <trkpt lat="46.51161" lon="0.4104">
        <ele>109</ele>
        <time>2020-12-20T08:10:25Z</time>
      </trkpt>
      <trkpt lat="46.51159" lon="0.41042">
        <ele>108.4</ele>
        <time>2020-12-20T08:10:26Z</time>
      </trkpt>
      <trkpt lat="46.51157" lon="0.41047">
        <ele>107.8</ele>
        <time>2020-12-20T08:10:28Z</time>
      </trkpt>
      <trkpt lat="46.51156" lon="0.4105">
        <ele>107.2</ele>
        <time>2020-12-20T08:10:29Z</time>
      </trkpt>
      <trkpt lat="46.51156" lon="0.41053">
        <ele>106.6</ele>
        <time>2020-12-20T08:10:30Z</time>
      </trkpt>
      <trkpt lat="46.51155" lon="0.4106">
        <ele>105.6</ele>
        <time>2020-12-20T08:10:33Z</time>
      </trkpt>
      <trkpt lat="46.51154" lon="0.41065">
        <ele>105</ele>
        <time>2020-12-20T08:10:35Z</time>
      </trkpt>
      <trkpt lat="46.51155" lon="0.41069">
        <ele>104.2</ele>
        <time>2020-12-20T08:10:37Z</time>
      </trkpt>
      <trkpt lat="46.51157" lon="0.41076">
        <ele>102.6</ele>
        <time>2020-12-20T08:10:40Z</time>
      </trkpt>
      <trkpt lat="46.51156" lon="0.41079">
        <ele>102.2</ele>
        <time>2020-12-20T08:10:41Z</time>
      </trkpt>
      <trkpt lat="46.51155" lon="0.41081">
        <ele>101.6</ele>
        <time>2020-12-20T08:10:42Z</time>
      </trkpt>
      <trkpt lat="46.51155" lon="0.41085">
        <ele>101.2</ele>
        <time>2020-12-20T08:10:43Z</time>
      </trkpt>
      <trkpt lat="46.51157" lon="0.41091">
        <ele>100.2</ele>
        <time>2020-12-20T08:10:45Z</time>
      </trkpt>
      <trkpt lat="46.51158" lon="0.41096">
        <ele>99.8</ele>
        <time>2020-12-20T08:10:46Z</time>
      </trkpt>
      <trkpt lat="46.51161" lon="0.41107">
        <ele>99.2</ele>
        <time>2020-12-20T08:10:48Z</time>
      </trkpt>
      <trkpt lat="46.51167" lon="0.41117">
        <ele>98.6</ele>
        <time>2020-12-20T08:10:50Z</time>
      </trkpt>
      <trkpt lat="46.51173" lon="0.41126">
        <ele>98</ele>
        <time>2020-12-20T08:10:52Z</time>
      </trkpt>
      <trkpt lat="46.51182" lon="0.41141">
        <ele>97.6</ele>
        <time>2020-12-20T08:10:55Z</time>
      </trkpt>
      <trkpt lat="46.51183" lon="0.41149">
        <ele>97.6</ele>
        <time>2020-12-20T08:10:56Z</time>
      </trkpt>
      <trkpt lat="46.51189" lon="0.41169">
        <ele>97.2</ele>
        <time>2020-12-20T08:10:59Z</time>
      </trkpt>
      <trkpt lat="46.51192" lon="0.4118">
        <ele>97</ele>
        <time>2020-12-20T08:11:01Z</time>
      </trkpt>
      <trkpt lat="46.51195" lon="0.41201">
        <ele>96.8</ele>
        <time>2020-12-20T08:11:06Z</time>
      </trkpt>
      <trkpt lat="46.51202" lon="0.41218">
        <ele>96</ele>
        <time>2020-12-20T08:11:13Z</time>
      </trkpt>
      <trkpt lat="46.51203" lon="0.4122">
        <ele>96</ele>
        <time>2020-12-20T08:11:14Z</time>
      </trkpt>
      <trkpt lat="46.51203" lon="0.41225">
        <ele>96</ele>
        <time>2020-12-20T08:11:16Z</time>
      </trkpt>
      <trkpt lat="46.51203" lon="0.4123">
        <ele>96.2</ele>
        <time>2020-12-20T08:11:18Z</time>
      </trkpt>
      <trkpt lat="46.51204" lon="0.41241">
        <ele>96</ele>
        <time>2020-12-20T08:11:22Z</time>
      </trkpt>
      <trkpt lat="46.51198" lon="0.41248">
        <ele>95.6</ele>
        <time>2020-12-20T08:11:24Z</time>
      </trkpt>
      <trkpt lat="46.51188" lon="0.41253">
        <ele>94.6</ele>
        <time>2020-12-20T08:11:26Z</time>
      </trkpt>
      <trkpt lat="46.51182" lon="0.41256">
        <ele>94.4</ele>
        <time>2020-12-20T08:11:27Z</time>
      </trkpt>
      <trkpt lat="46.51169" lon="0.41263">
        <ele>93.2</ele>
        <time>2020-12-20T08:11:29Z</time>
      </trkpt>
      <trkpt lat="46.51146" lon="0.41267">
        <ele>92.8</ele>
        <time>2020-12-20T08:11:33Z</time>
      </trkpt>
      <trkpt lat="46.51109" lon="0.41275">
        <ele>93.2</ele>
        <time>2020-12-20T08:11:40Z</time>
      </trkpt>
      <trkpt lat="46.51103" lon="0.41276">
        <ele>93.2</ele>
        <time>2020-12-20T08:11:42Z</time>
      </trkpt>
      <trkpt lat="46.511" lon="0.41277">
        <ele>93.4</ele>
        <time>2020-12-20T08:11:43Z</time>
      </trkpt>
      <trkpt lat="46.51097" lon="0.41276">
        <ele>93.4</ele>
        <time>2020-12-20T08:11:44Z</time>
      </trkpt>
      <trkpt lat="46.51093" lon="0.41272">
        <ele>93.4</ele>
        <time>2020-12-20T08:11:46Z</time>
      </trkpt>
      <trkpt lat="46.51088" lon="0.4126">
        <ele>94</ele>
        <time>2020-12-20T08:11:50Z</time>
      </trkpt>
      <trkpt lat="46.51085" lon="0.41259">
        <ele>94.2</ele>
        <time>2020-12-20T08:11:51Z</time>
      </trkpt>
      <trkpt lat="46.51072" lon="0.41245">
        <ele>94.2</ele>
        <time>2020-12-20T08:11:58Z</time>
      </trkpt>
      <trkpt lat="46.51054" lon="0.41237">
        <ele>94.6</ele>
        <time>2020-12-20T08:12:03Z</time>
      </trkpt>
      <trkpt lat="46.51026" lon="0.41224">
        <ele>94</ele>
        <time>2020-12-20T08:12:09Z</time>
      </trkpt>
      <trkpt lat="46.51007" lon="0.41216">
        <ele>94.8</ele>
        <time>2020-12-20T08:12:15Z</time>
      </trkpt>
      <trkpt lat="46.50983" lon="0.41207">
        <ele>94.8</ele>
        <time>2020-12-20T08:12:21Z</time>
      </trkpt>
      <trkpt lat="46.50956" lon="0.41199">
        <ele>94.2</ele>
        <time>2020-12-20T08:12:27Z</time>
      </trkpt>
      <trkpt lat="46.50945" lon="0.41203">
        <ele>94</ele>
        <time>2020-12-20T08:12:30Z</time>
      </trkpt>
      <trkpt lat="46.5094" lon="0.41205">
        <ele>93.8</ele>
        <time>2020-12-20T08:12:32Z</time>
      </trkpt>
      <trkpt lat="46.5094" lon="0.41219">
        <ele>93.6</ele>
        <time>2020-12-20T08:12:35Z</time>
      </trkpt>
      <trkpt lat="46.50937" lon="0.41242">
        <ele>93.2</ele>
        <time>2020-12-20T08:12:39Z</time>
      </trkpt>
      <trkpt lat="46.50935" lon="0.41253">
        <ele>93.2</ele>
        <time>2020-12-20T08:12:41Z</time>
      </trkpt>
      <trkpt lat="46.50934" lon="0.41258">
        <ele>93</ele>
        <time>2020-12-20T08:12:42Z</time>
      </trkpt>
      <trkpt lat="46.50936" lon="0.4127">
        <ele>92.8</ele>
        <time>2020-12-20T08:12:45Z</time>
      </trkpt>
      <trkpt lat="46.50942" lon="0.41283">
        <ele>92.8</ele>
        <time>2020-12-20T08:12:49Z</time>
      </trkpt>
      <trkpt lat="46.50942" lon="0.41287">
        <ele>92.8</ele>
        <time>2020-12-20T08:12:50Z</time>
      </trkpt>
      <trkpt lat="46.50939" lon="0.41317">
        <ele>92.4</ele>
        <time>2020-12-20T08:12:56Z</time>
      </trkpt>
      <trkpt lat="46.50938" lon="0.41323">
        <ele>92.2</ele>
        <time>2020-12-20T08:12:57Z</time>
      </trkpt>
      <trkpt lat="46.50936" lon="0.41345">
        <ele>92.2</ele>
        <time>2020-12-20T08:13:02Z</time>
      </trkpt>
      <trkpt lat="46.5093" lon="0.4137">
        <ele>92.6</ele>
        <time>2020-12-20T08:13:08Z</time>
      </trkpt>
      <trkpt lat="46.50931" lon="0.41372">
        <ele>92.8</ele>
        <time>2020-12-20T08:13:09Z</time>
      </trkpt>
      <trkpt lat="46.50933" lon="0.41375">
        <ele>93</ele>
        <time>2020-12-20T08:13:11Z</time>
      </trkpt>
      <trkpt lat="46.50935" lon="0.41377">
        <ele>93.2</ele>
        <time>2020-12-20T08:13:13Z</time>
      </trkpt>
      <trkpt lat="46.50938" lon="0.41381">
        <ele>93.6</ele>
        <time>2020-12-20T08:13:16Z</time>
      </trkpt>
      <trkpt lat="46.50939" lon="0.41382">
        <ele>93.6</ele>
        <time>2020-12-20T08:13:17Z</time>
      </trkpt>
      <trkpt lat="46.50938" lon="0.41394">
        <ele>94</ele>
        <time>2020-12-20T08:13:20Z</time>
      </trkpt>
      <trkpt lat="46.50937" lon="0.41399">
        <ele>94.4</ele>
        <time>2020-12-20T08:13:21Z</time>
      </trkpt>
      <trkpt lat="46.50938" lon="0.41421">
        <ele>95.4</ele>
        <time>2020-12-20T08:13:26Z</time>
      </trkpt>
      <trkpt lat="46.5094" lon="0.41423">
        <ele>95.6</ele>
        <time>2020-12-20T08:13:27Z</time>
      </trkpt>
      <trkpt lat="46.50943" lon="0.41423">
        <ele>95.8</ele>
        <time>2020-12-20T08:13:29Z</time>
      </trkpt>
      <trkpt lat="46.50957" lon="0.41416">
        <ele>95.4</ele>
        <time>2020-12-20T08:13:33Z</time>
      </trkpt>
      <trkpt lat="46.50966" lon="0.41413">
        <ele>95</ele>
        <time>2020-12-20T08:13:35Z</time>
      </trkpt>
      <trkpt lat="46.50975" lon="0.41411">
        <ele>94.4</ele>
        <time>2020-12-20T08:13:37Z</time>
      </trkpt>
      <trkpt lat="46.50979" lon="0.4141">
        <ele>94.2</ele>
        <time>2020-12-20T08:13:38Z</time>
      </trkpt>
      <trkpt lat="46.51012" lon="0.41412">
        <ele>93.6</ele>
        <time>2020-12-20T08:13:45Z</time>
      </trkpt>
      <trkpt lat="46.5102" lon="0.41413">
        <ele>93.4</ele>
        <time>2020-12-20T08:13:47Z</time>
      </trkpt>
      <trkpt lat="46.51024" lon="0.41413">
        <ele>93.2</ele>
        <time>2020-12-20T08:13:48Z</time>
      </trkpt>
      <trkpt lat="46.51038" lon="0.41412">
        <ele>93.2</ele>
        <time>2020-12-20T08:13:51Z</time>
      </trkpt>
      <trkpt lat="46.51053" lon="0.4142">
        <ele>93</ele>
        <time>2020-12-20T08:13:56Z</time>
      </trkpt>
      <trkpt lat="46.51052" lon="0.41427">
        <ele>92.8</ele>
        <time>2020-12-20T08:13:58Z</time>
      </trkpt>
      <trkpt lat="46.5105" lon="0.41433">
        <ele>92.8</ele>
        <time>2020-12-20T08:14:00Z</time>
      </trkpt>
      <trkpt lat="46.51047" lon="0.41452">
        <ele>93.8</ele>
        <time>2020-12-20T08:14:06Z</time>
      </trkpt>
      <trkpt lat="46.51045" lon="0.41458">
        <ele>94.8</ele>
        <time>2020-12-20T08:14:08Z</time>
      </trkpt>
      <trkpt lat="46.51044" lon="0.41466">
        <ele>96</ele>
        <time>2020-12-20T08:14:11Z</time>
      </trkpt>
      <trkpt lat="46.51044" lon="0.41472">
        <ele>96.6</ele>
        <time>2020-12-20T08:14:12Z</time>
      </trkpt>
      <trkpt lat="46.51044" lon="0.41474">
        <ele>97</ele>
        <time>2020-12-20T08:14:14Z</time>
      </trkpt>
      <trkpt lat="46.51044" lon="0.41482">
        <ele>98.2</ele>
        <time>2020-12-20T08:14:17Z</time>
      </trkpt>
      <trkpt lat="46.51044" lon="0.41489">
        <ele>99.4</ele>
        <time>2020-12-20T08:14:20Z</time>
      </trkpt>
      <trkpt lat="46.51046" lon="0.41492">
        <ele>100.6</ele>
        <time>2020-12-20T08:14:22Z</time>
      </trkpt>
      <trkpt lat="46.51058" lon="0.41498">
        <ele>101.6</ele>
        <time>2020-12-20T08:14:28Z</time>
      </trkpt>
      <trkpt lat="46.51059" lon="0.41499">
        <ele>102.2</ele>
        <time>2020-12-20T08:14:29Z</time>
      </trkpt>
      <trkpt lat="46.51073" lon="0.41503">
        <ele>103.2</ele>
        <time>2020-12-20T08:14:36Z</time>
      </trkpt>
      <trkpt lat="46.51074" lon="0.41503">
        <ele>103.2</ele>
        <time>2020-12-20T08:14:37Z</time>
      </trkpt>
      <trkpt lat="46.51087" lon="0.41508">
        <ele>104.8</ele>
        <time>2020-12-20T08:14:44Z</time>
      </trkpt>
      <trkpt lat="46.51087" lon="0.41508">
        <ele>105</ele>
        <time>2020-12-20T08:14:45Z</time>
      </trkpt>
      <trkpt lat="46.51088" lon="0.41511">
        <ele>105.8</ele>
        <time>2020-12-20T08:14:47Z</time>
      </trkpt>
      <trkpt lat="46.51087" lon="0.41512">
        <ele>106</ele>
        <time>2020-12-20T08:14:48Z</time>
      </trkpt>
      <trkpt lat="46.51085" lon="0.41512">
        <ele>106.6</ele>
        <time>2020-12-20T08:14:50Z</time>
      </trkpt>
      <trkpt lat="46.51083" lon="0.41514">
        <ele>107</ele>
        <time>2020-12-20T08:14:52Z</time>
      </trkpt>
      <trkpt lat="46.51083" lon="0.41518">
        <ele>107.6</ele>
        <time>2020-12-20T08:14:55Z</time>
      </trkpt>
      <trkpt lat="46.51084" lon="0.41519">
        <ele>107.6</ele>
        <time>2020-12-20T08:14:56Z</time>
      </trkpt>
      <trkpt lat="46.51088" lon="0.41523">
        <ele>108</ele>
        <time>2020-12-20T08:14:59Z</time>
      </trkpt>
      <trkpt lat="46.5109" lon="0.41523">
        <ele>108.2</ele>
        <time>2020-12-20T08:15:00Z</time>
      </trkpt>
      <trkpt lat="46.51106" lon="0.41527">
        <ele>109</ele>
        <time>2020-12-20T08:15:07Z</time>
      </trkpt>
      <trkpt lat="46.51121" lon="0.41527">
        <ele>110</ele>
        <time>2020-12-20T08:15:14Z</time>
      </trkpt>
      <trkpt lat="46.51126" lon="0.41527">
        <ele>110.2</ele>
        <time>2020-12-20T08:15:16Z</time>
      </trkpt>
      <trkpt lat="46.51148" lon="0.41523">
        <ele>111</ele>
        <time>2020-12-20T08:15:24Z</time>
      </trkpt>
      <trkpt lat="46.51156" lon="0.41521">
        <ele>111.4</ele>
        <time>2020-12-20T08:15:27Z</time>
      </trkpt>
      <trkpt lat="46.51171" lon="0.41518">
        <ele>112.2</ele>
        <time>2020-12-20T08:15:33Z</time>
      </trkpt>
      <trkpt lat="46.51177" lon="0.41515">
        <ele>112.6</ele>
        <time>2020-12-20T08:15:35Z</time>
      </trkpt>
      <trkpt lat="46.51187" lon="0.41511">
        <ele>113</ele>
        <time>2020-12-20T08:15:39Z</time>
      </trkpt>
      <trkpt lat="46.51204" lon="0.41507">
        <ele>113.8</ele>
        <time>2020-12-20T08:15:45Z</time>
      </trkpt>
      <trkpt lat="46.51206" lon="0.41507">
        <ele>114</ele>
        <time>2020-12-20T08:15:46Z</time>
      </trkpt>
      <trkpt lat="46.51225" lon="0.41509">
        <ele>114.8</ele>
        <time>2020-12-20T08:15:53Z</time>
      </trkpt>
      <trkpt lat="46.51249" lon="0.41518">
        <ele>115.8</ele>
        <time>2020-12-20T08:16:01Z</time>
      </trkpt>
      <trkpt lat="46.51252" lon="0.41519">
        <ele>116.2</ele>
        <time>2020-12-20T08:16:02Z</time>
      </trkpt>
      <trkpt lat="46.51274" lon="0.41525">
        <ele>117.2</ele>
        <time>2020-12-20T08:16:09Z</time>
      </trkpt>
      <trkpt lat="46.51296" lon="0.41528">
        <ele>117.6</ele>
        <time>2020-12-20T08:16:16Z</time>
      </trkpt>
      <trkpt lat="46.51302" lon="0.41525">
        <ele>118.2</ele>
        <time>2020-12-20T08:16:18Z</time>
      </trkpt>
      <trkpt lat="46.51314" lon="0.41519">
        <ele>118.8</ele>
        <time>2020-12-20T08:16:22Z</time>
      </trkpt>
      <trkpt lat="46.5132" lon="0.41509">
        <ele>119.2</ele>
        <time>2020-12-20T08:16:25Z</time>
      </trkpt>
      <trkpt lat="46.51321" lon="0.41506">
        <ele>119.2</ele>
        <time>2020-12-20T08:16:26Z</time>
      </trkpt>
      <trkpt lat="46.51327" lon="0.4148">
        <ele>119.2</ele>
        <time>2020-12-20T08:16:32Z</time>
      </trkpt>
      <trkpt lat="46.51337" lon="0.41446">
        <ele>118.8</ele>
        <time>2020-12-20T08:16:40Z</time>
      </trkpt>
      <trkpt lat="46.51338" lon="0.4144">
        <ele>119</ele>
        <time>2020-12-20T08:16:41Z</time>
      </trkpt>
      <trkpt lat="46.51343" lon="0.41419">
        <ele>119</ele>
        <time>2020-12-20T08:16:45Z</time>
      </trkpt>
      <trkpt lat="46.51354" lon="0.41378">
        <ele>118.4</ele>
        <time>2020-12-20T08:16:52Z</time>
      </trkpt>
      <trkpt lat="46.51362" lon="0.41342">
        <ele>118.4</ele>
        <time>2020-12-20T08:16:57Z</time>
      </trkpt>
      <trkpt lat="46.51363" lon="0.41335">
        <ele>118.4</ele>
        <time>2020-12-20T08:16:58Z</time>
      </trkpt>
      <trkpt lat="46.51369" lon="0.41305">
        <ele>118.4</ele>
        <time>2020-12-20T08:17:03Z</time>
      </trkpt>
      <trkpt lat="46.51369" lon="0.413">
        <ele>118.4</ele>
        <time>2020-12-20T08:17:04Z</time>
      </trkpt>
      <trkpt lat="46.51368" lon="0.41297">
        <ele>118.6</ele>
        <time>2020-12-20T08:17:05Z</time>
      </trkpt>
      <trkpt lat="46.51363" lon="0.41291">
        <ele>118.6</ele>
        <time>2020-12-20T08:17:07Z</time>
      </trkpt>
      <trkpt lat="46.51339" lon="0.41267">
        <ele>118.4</ele>
        <time>2020-12-20T08:17:14Z</time>
      </trkpt>
      <trkpt lat="46.51336" lon="0.41264">
        <ele>118</ele>
        <time>2020-12-20T08:17:15Z</time>
      </trkpt>
      <trkpt lat="46.51331" lon="0.41257">
        <ele>117.8</ele>
        <time>2020-12-20T08:17:17Z</time>
      </trkpt>
      <trkpt lat="46.51324" lon="0.41247">
        <ele>117.8</ele>
        <time>2020-12-20T08:17:19Z</time>
      </trkpt>
      <trkpt lat="46.51318" lon="0.41236">
        <ele>117.6</ele>
        <time>2020-12-20T08:17:22Z</time>
      </trkpt>
      <trkpt lat="46.51312" lon="0.41225">
        <ele>117.4</ele>
        <time>2020-12-20T08:17:25Z</time>
      </trkpt>
      <trkpt lat="46.51307" lon="0.41216">
        <ele>117.4</ele>
        <time>2020-12-20T08:17:27Z</time>
      </trkpt>
      <trkpt lat="46.51301" lon="0.41206">
        <ele>117.2</ele>
        <time>2020-12-20T08:17:29Z</time>
      </trkpt>
      <trkpt lat="46.51293" lon="0.41195">
        <ele>117.2</ele>
        <time>2020-12-20T08:17:31Z</time>
      </trkpt>
      <trkpt lat="46.51289" lon="0.4119">
        <ele>117</ele>
        <time>2020-12-20T08:17:32Z</time>
      </trkpt>
      <trkpt lat="46.51284" lon="0.41186">
        <ele>117</ele>
        <time>2020-12-20T08:17:33Z</time>
      </trkpt>
      <trkpt lat="46.51275" lon="0.41177">
        <ele>116.8</ele>
        <time>2020-12-20T08:17:35Z</time>
      </trkpt>
      <trkpt lat="46.5127" lon="0.41171">
        <ele>116.4</ele>
        <time>2020-12-20T08:17:36Z</time>
      </trkpt>
      <trkpt lat="46.51263" lon="0.41161">
        <ele>116</ele>
        <time>2020-12-20T08:17:38Z</time>
      </trkpt>
      <trkpt lat="46.51256" lon="0.41152">
        <ele>115.6</ele>
        <time>2020-12-20T08:17:40Z</time>
      </trkpt>
      <trkpt lat="46.51253" lon="0.41148">
        <ele>115.4</ele>
        <time>2020-12-20T08:17:41Z</time>
      </trkpt>
      <trkpt lat="46.51239" lon="0.41117">
        <ele>114.6</ele>
        <time>2020-12-20T08:17:47Z</time>
      </trkpt>
      <trkpt lat="46.51237" lon="0.41113">
        <ele>114.4</ele>
        <time>2020-12-20T08:17:48Z</time>
      </trkpt>
      <trkpt lat="46.5123" lon="0.411">
        <ele>114</ele>
        <time>2020-12-20T08:17:51Z</time>
      </trkpt>
      <trkpt lat="46.51227" lon="0.41096">
        <ele>113.8</ele>
        <time>2020-12-20T08:17:53Z</time>
      </trkpt>
      <trkpt lat="46.51224" lon="0.41091">
        <ele>113.6</ele>
        <time>2020-12-20T08:17:55Z</time>
      </trkpt>
      <trkpt lat="46.51217" lon="0.4108">
        <ele>113.4</ele>
        <time>2020-12-20T08:18:05Z</time>
      </trkpt>
      <trkpt lat="46.51216" lon="0.41079">
        <ele>113.4</ele>
        <time>2020-12-20T08:18:18Z</time>
      </trkpt>
      <trkpt lat="46.51213" lon="0.41077">
        <ele>113.2</ele>
        <time>2020-12-20T08:18:21Z</time>
      </trkpt>
      <trkpt lat="46.51205" lon="0.41073">
        <ele>113</ele>
        <time>2020-12-20T08:18:24Z</time>
      </trkpt>
      <trkpt lat="46.51199" lon="0.41071">
        <ele>112.6</ele>
        <time>2020-12-20T08:18:26Z</time>
      </trkpt>
      <trkpt lat="46.51195" lon="0.41069">
        <ele>112.4</ele>
        <time>2020-12-20T08:18:27Z</time>
      </trkpt>
      <trkpt lat="46.51181" lon="0.41067">
        <ele>112.2</ele>
        <time>2020-12-20T08:18:30Z</time>
      </trkpt>
      <trkpt lat="46.51176" lon="0.41067">
        <ele>111.4</ele>
        <time>2020-12-20T08:18:31Z</time>
      </trkpt>
      <trkpt lat="46.51161" lon="0.41065">
        <ele>110.4</ele>
        <time>2020-12-20T08:18:34Z</time>
      </trkpt>
      <trkpt lat="46.51157" lon="0.41065">
        <ele>109</ele>
        <time>2020-12-20T08:18:35Z</time>
      </trkpt>
      <trkpt lat="46.51154" lon="0.41066">
        <ele>108.2</ele>
        <time>2020-12-20T08:18:36Z</time>
      </trkpt>
      <trkpt lat="46.51152" lon="0.41069">
        <ele>107.6</ele>
        <time>2020-12-20T08:18:37Z</time>
      </trkpt>
      <trkpt lat="46.51151" lon="0.41072">
        <ele>106.6</ele>
        <time>2020-12-20T08:18:38Z</time>
      </trkpt>
      <trkpt lat="46.51149" lon="0.41078">
        <ele>105</ele>
        <time>2020-12-20T08:18:40Z</time>
      </trkpt>
      <trkpt lat="46.51149" lon="0.41083">
        <ele>104</ele>
        <time>2020-12-20T08:18:42Z</time>
      </trkpt>
      <trkpt lat="46.51151" lon="0.41091">
        <ele>102.8</ele>
        <time>2020-12-20T08:18:45Z</time>
      </trkpt>
      <trkpt lat="46.51152" lon="0.41097">
        <ele>101.2</ele>
        <time>2020-12-20T08:18:47Z</time>
      </trkpt>
      <trkpt lat="46.51154" lon="0.41101">
        <ele>100</ele>
        <time>2020-12-20T08:18:49Z</time>
      </trkpt>
      <trkpt lat="46.51156" lon="0.41108">
        <ele>98.8</ele>
        <time>2020-12-20T08:18:51Z</time>
      </trkpt>
      <trkpt lat="46.51158" lon="0.41112">
        <ele>98.2</ele>
        <time>2020-12-20T08:18:52Z</time>
      </trkpt>
      <trkpt lat="46.51163" lon="0.41121">
        <ele>97.2</ele>
        <time>2020-12-20T08:18:53Z</time>
      </trkpt>
      <trkpt lat="46.5117" lon="0.41133">
        <ele>96.8</ele>
        <time>2020-12-20T08:18:57Z</time>
      </trkpt>
      <trkpt lat="46.51174" lon="0.41142">
        <ele>96.4</ele>
        <time>2020-12-20T08:18:59Z</time>
      </trkpt>
      <trkpt lat="46.5118" lon="0.41154">
        <ele>96.2</ele>
        <time>2020-12-20T08:19:02Z</time>
      </trkpt>
      <trkpt lat="46.51181" lon="0.41162">
        <ele>96</ele>
        <time>2020-12-20T08:19:04Z</time>
      </trkpt>
      <trkpt lat="46.51186" lon="0.41174">
        <ele>95.8</ele>
        <time>2020-12-20T08:19:09Z</time>
      </trkpt>
      <trkpt lat="46.51187" lon="0.4118">
        <ele>95.6</ele>
        <time>2020-12-20T08:19:12Z</time>
      </trkpt>
      <trkpt lat="46.5119" lon="0.41194">
        <ele>95.4</ele>
        <time>2020-12-20T08:19:17Z</time>
      </trkpt>
      <trkpt lat="46.51192" lon="0.41208">
        <ele>95.2</ele>
        <time>2020-12-20T08:19:22Z</time>
      </trkpt>
      <trkpt lat="46.51192" lon="0.41208">
        <ele>95.2</ele>
        <time>2020-12-20T08:19:24Z</time>
      </trkpt>
      <trkpt lat="46.5119" lon="0.41207">
        <ele>95.4</ele>
        <time>2020-12-20T08:19:26Z</time>
      </trkpt>
      <trkpt lat="46.51188" lon="0.41205">
        <ele>95.4</ele>
        <time>2020-12-20T08:19:28Z</time>
      </trkpt>
      <trkpt lat="46.51186" lon="0.41199">
        <ele>95.4</ele>
        <time>2020-12-20T08:19:34Z</time>
      </trkpt>
      <trkpt lat="46.51186" lon="0.41199">
        <ele>95.4</ele>
        <time>2020-12-20T08:19:35Z</time>
      </trkpt>
      <trkpt lat="46.51185" lon="0.41199">
        <ele>95.2</ele>
        <time>2020-12-20T08:19:46Z</time>
      </trkpt>
      <trkpt lat="46.51185" lon="0.412">
        <ele>95.2</ele>
        <time>2020-12-20T08:20:04Z</time>
      </trkpt>
      <trkpt lat="46.51183" lon="0.412">
        <ele>95.2</ele>
        <time>2020-12-20T08:20:18Z</time>
      </trkpt>
      <trkpt lat="46.51181" lon="0.41193">
        <ele>95.4</ele>
        <time>2020-12-20T08:20:31Z</time>
      </trkpt>
      <trkpt lat="46.51176" lon="0.41179">
        <ele>96</ele>
        <time>2020-12-20T08:20:37Z</time>
      </trkpt>
      <trkpt lat="46.51173" lon="0.41176">
        <ele>96.2</ele>
        <time>2020-12-20T08:20:39Z</time>
      </trkpt>
      <trkpt lat="46.51165" lon="0.41168">
        <ele>96.4</ele>
        <time>2020-12-20T08:20:42Z</time>
      </trkpt>
      <trkpt lat="46.51152" lon="0.41152">
        <ele>96</ele>
        <time>2020-12-20T08:20:49Z</time>
      </trkpt>
      <trkpt lat="46.51147" lon="0.41147">
        <ele>95.8</ele>
        <time>2020-12-20T08:20:51Z</time>
      </trkpt>
      <trkpt lat="46.51142" lon="0.41142">
        <ele>95.6</ele>
        <time>2020-12-20T08:20:53Z</time>
      </trkpt>
      <trkpt lat="46.51138" lon="0.41137">
        <ele>95.4</ele>
        <time>2020-12-20T08:20:54Z</time>
      </trkpt>
      <trkpt lat="46.51127" lon="0.41126">
        <ele>95</ele>
        <time>2020-12-20T08:20:57Z</time>
      </trkpt>
      <trkpt lat="46.51116" lon="0.41119">
        <ele>94.4</ele>
        <time>2020-12-20T08:21:00Z</time>
      </trkpt>
      <trkpt lat="46.51106" lon="0.41113">
        <ele>93.8</ele>
        <time>2020-12-20T08:21:02Z</time>
      </trkpt>
      <trkpt lat="46.51091" lon="0.41103">
        <ele>93</ele>
        <time>2020-12-20T08:21:05Z</time>
      </trkpt>
      <trkpt lat="46.51086" lon="0.411">
        <ele>92.8</ele>
        <time>2020-12-20T08:21:06Z</time>
      </trkpt>
      <trkpt lat="46.51061" lon="0.41087">
        <ele>91.8</ele>
        <time>2020-12-20T08:21:10Z</time>
      </trkpt>
      <trkpt lat="46.51055" lon="0.41084">
        <ele>91.6</ele>
        <time>2020-12-20T08:21:11Z</time>
      </trkpt>
      <trkpt lat="46.51021" lon="0.41066">
        <ele>91.2</ele>
        <time>2020-12-20T08:21:17Z</time>
      </trkpt>
      <trkpt lat="46.50985" lon="0.4105">
        <ele>91.6</ele>
        <time>2020-12-20T08:21:23Z</time>
      </trkpt>
      <trkpt lat="46.50965" lon="0.41043">
        <ele>91</ele>
        <time>2020-12-20T08:21:28Z</time>
      </trkpt>
      <trkpt lat="46.50959" lon="0.41041">
        <ele>91</ele>
        <time>2020-12-20T08:21:29Z</time>
      </trkpt>
      <trkpt lat="46.50938" lon="0.41034">
        <ele>91</ele>
        <time>2020-12-20T08:21:34Z</time>
      </trkpt>
      <trkpt lat="46.50924" lon="0.41026">
        <ele>91.4</ele>
        <time>2020-12-20T08:21:39Z</time>
      </trkpt>
      <trkpt lat="46.50918" lon="0.41023">
        <ele>91.4</ele>
        <time>2020-12-20T08:21:41Z</time>
      </trkpt>
      <trkpt lat="46.50889" lon="0.41013">
        <ele>92.2</ele>
        <time>2020-12-20T08:21:49Z</time>
      </trkpt>
      <trkpt lat="46.50877" lon="0.41008">
        <ele>92.8</ele>
        <time>2020-12-20T08:21:53Z</time>
      </trkpt>
      <trkpt lat="46.50874" lon="0.41007">
        <ele>93</ele>
        <time>2020-12-20T08:21:54Z</time>
      </trkpt>
      <trkpt lat="46.50851" lon="0.41">
        <ele>93.2</ele>
        <time>2020-12-20T08:22:00Z</time>
      </trkpt>
      <trkpt lat="46.50832" lon="0.40991">
        <ele>93.4</ele>
        <time>2020-12-20T08:22:06Z</time>
      </trkpt>
      <trkpt lat="46.50828" lon="0.40985">
        <ele>94</ele>
        <time>2020-12-20T08:22:08Z</time>
      </trkpt>
      <trkpt lat="46.50821" lon="0.40977">
        <ele>95.2</ele>
        <time>2020-12-20T08:22:11Z</time>
      </trkpt>
      <trkpt lat="46.50816" lon="0.40972">
        <ele>95.6</ele>
        <time>2020-12-20T08:22:13Z</time>
      </trkpt>
      <trkpt lat="46.50813" lon="0.40967">
        <ele>96.4</ele>
        <time>2020-12-20T08:22:15Z</time>
      </trkpt>
      <trkpt lat="46.50808" lon="0.40955">
        <ele>97.8</ele>
        <time>2020-12-20T08:22:19Z</time>
      </trkpt>
      <trkpt lat="46.50806" lon="0.40944">
        <ele>98.8</ele>
        <time>2020-12-20T08:22:22Z</time>
      </trkpt>
      <trkpt lat="46.50805" lon="0.40934">
        <ele>100</ele>
        <time>2020-12-20T08:22:25Z</time>
      </trkpt>
      <trkpt lat="46.50806" lon="0.40932">
        <ele>100.2</ele>
        <time>2020-12-20T08:22:26Z</time>
      </trkpt>
      <trkpt lat="46.5081" lon="0.40923">
        <ele>101</ele>
        <time>2020-12-20T08:22:30Z</time>
      </trkpt>
      <trkpt lat="46.50813" lon="0.4092">
        <ele>101.4</ele>
        <time>2020-12-20T08:22:32Z</time>
      </trkpt>
      <trkpt lat="46.50821" lon="0.40912">
        <ele>102</ele>
        <time>2020-12-20T08:22:37Z</time>
      </trkpt>
      <trkpt lat="46.50823" lon="0.40911">
        <ele>102.2</ele>
        <time>2020-12-20T08:22:38Z</time>
      </trkpt>
      <trkpt lat="46.50836" lon="0.40907">
        <ele>102.8</ele>
        <time>2020-12-20T08:22:44Z</time>
      </trkpt>
      <trkpt lat="46.50851" lon="0.40906">
        <ele>103</ele>
        <time>2020-12-20T08:22:52Z</time>
      </trkpt>
      <trkpt lat="46.50858" lon="0.40908">
        <ele>103.2</ele>
        <time>2020-12-20T08:22:55Z</time>
      </trkpt>
      <trkpt lat="46.50869" lon="0.40908">
        <ele>103.6</ele>
        <time>2020-12-20T08:22:59Z</time>
      </trkpt>
      <trkpt lat="46.50885" lon="0.40907">
        <ele>103.6</ele>
        <time>2020-12-20T08:23:05Z</time>
      </trkpt>
      <trkpt lat="46.509" lon="0.40906">
        <ele>104</ele>
        <time>2020-12-20T08:23:12Z</time>
      </trkpt>
      <trkpt lat="46.50909" lon="0.40908">
        <ele>104.2</ele>
        <time>2020-12-20T08:23:15Z</time>
      </trkpt>
      <trkpt lat="46.50919" lon="0.4091">
        <ele>105</ele>
        <time>2020-12-20T08:23:19Z</time>
      </trkpt>
      <trkpt lat="46.50927" lon="0.40911">
        <ele>105.4</ele>
        <time>2020-12-20T08:23:22Z</time>
      </trkpt>
      <trkpt lat="46.50936" lon="0.40911">
        <ele>105.6</ele>
        <time>2020-12-20T08:23:25Z</time>
      </trkpt>
      <trkpt lat="46.50949" lon="0.40913">
        <ele>106.4</ele>
        <time>2020-12-20T08:23:30Z</time>
      </trkpt>
      <trkpt lat="46.50955" lon="0.40913">
        <ele>106.4</ele>
        <time>2020-12-20T08:23:32Z</time>
      </trkpt>
      <trkpt lat="46.50971" lon="0.40914">
        <ele>107.2</ele>
        <time>2020-12-20T08:23:39Z</time>
      </trkpt>
      <trkpt lat="46.50981" lon="0.40916">
        <ele>107.4</ele>
        <time>2020-12-20T08:23:43Z</time>
      </trkpt>
      <trkpt lat="46.50986" lon="0.40916">
        <ele>107.4</ele>
        <time>2020-12-20T08:23:45Z</time>
      </trkpt>
      <trkpt lat="46.5101" lon="0.40919">
        <ele>107.8</ele>
        <time>2020-12-20T08:23:52Z</time>
      </trkpt>
      <trkpt lat="46.51023" lon="0.40918">
        <ele>108</ele>
        <time>2020-12-20T08:23:57Z</time>
      </trkpt>
      <trkpt lat="46.51028" lon="0.40919">
        <ele>108.4</ele>
        <time>2020-12-20T08:24:00Z</time>
      </trkpt>
      <trkpt lat="46.51032" lon="0.40918">
        <ele>109</ele>
        <time>2020-12-20T08:24:03Z</time>
      </trkpt>
      <trkpt lat="46.51039" lon="0.40915">
        <ele>109.4</ele>
        <time>2020-12-20T08:24:08Z</time>
      </trkpt>
      <trkpt lat="46.51042" lon="0.40914">
        <ele>109.8</ele>
        <time>2020-12-20T08:24:10Z</time>
      </trkpt>
      <trkpt lat="46.51054" lon="0.40911">
        <ele>110.2</ele>
        <time>2020-12-20T08:24:15Z</time>
      </trkpt>
      <trkpt lat="46.51057" lon="0.40912">
        <ele>110.2</ele>
        <time>2020-12-20T08:24:16Z</time>
      </trkpt>
      <trkpt lat="46.51062" lon="0.40913">
        <ele>110.6</ele>
        <time>2020-12-20T08:24:18Z</time>
      </trkpt>
      <trkpt lat="46.51073" lon="0.40915">
        <ele>111</ele>
        <time>2020-12-20T08:24:22Z</time>
      </trkpt>
      <trkpt lat="46.51092" lon="0.40921">
        <ele>111.6</ele>
        <time>2020-12-20T08:24:27Z</time>
      </trkpt>
      <trkpt lat="46.51097" lon="0.40923">
        <ele>111.6</ele>
        <time>2020-12-20T08:24:29Z</time>
      </trkpt>
      <trkpt lat="46.51105" lon="0.40926">
        <ele>111.6</ele>
        <time>2020-12-20T08:24:32Z</time>
      </trkpt>
      <trkpt lat="46.5111" lon="0.4093">
        <ele>111.8</ele>
        <time>2020-12-20T08:24:35Z</time>
      </trkpt>
      <trkpt lat="46.51113" lon="0.40931">
        <ele>111.8</ele>
        <time>2020-12-20T08:24:37Z</time>
      </trkpt>
      <trkpt lat="46.51115" lon="0.40931">
        <ele>111.8</ele>
        <time>2020-12-20T08:24:38Z</time>
      </trkpt>
      <trkpt lat="46.51126" lon="0.40931">
        <ele>111.4</ele>
        <time>2020-12-20T08:24:42Z</time>
      </trkpt>
      <trkpt lat="46.51142" lon="0.40934">
        <ele>111.6</ele>
        <time>2020-12-20T08:24:49Z</time>
      </trkpt>
      <trkpt lat="46.51146" lon="0.40939">
        <ele>111.8</ele>
        <time>2020-12-20T08:24:54Z</time>
      </trkpt>
      <trkpt lat="46.51146" lon="0.4094">
        <ele>111.8</ele>
        <time>2020-12-20T08:24:55Z</time>
      </trkpt>
      <trkpt lat="46.51144" lon="0.40937">
        <ele>111.6</ele>
        <time>2020-12-20T08:24:58Z</time>
      </trkpt>
      <trkpt lat="46.51143" lon="0.40936">
        <ele>111.4</ele>
        <time>2020-12-20T08:25:00Z</time>
      </trkpt>
      <trkpt lat="46.51144" lon="0.40934">
        <ele>111.4</ele>
        <time>2020-12-20T08:25:02Z</time>
      </trkpt>
      <trkpt lat="46.51144" lon="0.40934">
        <ele>111.6</ele>
        <time>2020-12-20T08:25:04Z</time>
      </trkpt>
      <trkpt lat="46.51145" lon="0.40931">
        <ele>112.2</ele>
        <time>2020-12-20T08:25:07Z</time>
      </trkpt>
      <trkpt lat="46.51149" lon="0.40929">
        <ele>112.6</ele>
        <time>2020-12-20T08:25:10Z</time>
      </trkpt>
      <trkpt lat="46.5115" lon="0.40929">
        <ele>112.8</ele>
        <time>2020-12-20T08:25:11Z</time>
      </trkpt>
      <trkpt lat="46.51154" lon="0.40932">
        <ele>113</ele>
        <time>2020-12-20T08:25:14Z</time>
      </trkpt>
      <trkpt lat="46.5116" lon="0.40937">
        <ele>113.2</ele>
        <time>2020-12-20T08:25:19Z</time>
      </trkpt>
      <trkpt lat="46.51162" lon="0.40942">
        <ele>113</ele>
        <time>2020-12-20T08:25:24Z</time>
      </trkpt>
      <trkpt lat="46.5116" lon="0.4094">
        <ele>112.8</ele>
        <time>2020-12-20T08:25:27Z</time>
      </trkpt>
      <trkpt lat="46.51159" lon="0.40939">
        <ele>112.6</ele>
        <time>2020-12-20T08:25:28Z</time>
      </trkpt>
      <trkpt lat="46.51153" lon="0.4094">
        <ele>112</ele>
        <time>2020-12-20T08:25:31Z</time>
      </trkpt>
      <trkpt lat="46.51151" lon="0.40948">
        <ele>112.2</ele>
        <time>2020-12-20T08:25:36Z</time>
      </trkpt>
      <trkpt lat="46.51156" lon="0.40955">
        <ele>112.4</ele>
        <time>2020-12-20T08:25:41Z</time>
      </trkpt>
      <trkpt lat="46.51165" lon="0.40968">
        <ele>113</ele>
        <time>2020-12-20T08:25:47Z</time>
      </trkpt>
      <trkpt lat="46.51172" lon="0.40985">
        <ele>113</ele>
        <time>2020-12-20T08:25:53Z</time>
      </trkpt>
      <trkpt lat="46.51182" lon="0.40998">
        <ele>113</ele>
        <time>2020-12-20T08:25:58Z</time>
      </trkpt>
      <trkpt lat="46.5119" lon="0.41016">
        <ele>113</ele>
        <time>2020-12-20T08:26:04Z</time>
      </trkpt>
      <trkpt lat="46.51193" lon="0.41021">
        <ele>112.8</ele>
        <time>2020-12-20T08:26:06Z</time>
      </trkpt>
      <trkpt lat="46.51197" lon="0.41022">
        <ele>112.8</ele>
        <time>2020-12-20T08:26:09Z</time>
      </trkpt>
      <trkpt lat="46.51204" lon="0.41016">
        <ele>113.4</ele>
        <time>2020-12-20T08:26:14Z</time>
      </trkpt>
      <trkpt lat="46.5121" lon="0.41006">
        <ele>113.6</ele>
        <time>2020-12-20T08:26:18Z</time>
      </trkpt>
      <trkpt lat="46.51214" lon="0.40998">
        <ele>113.8</ele>
        <time>2020-12-20T08:26:21Z</time>
      </trkpt>
      <trkpt lat="46.51218" lon="0.40981">
        <ele>114</ele>
        <time>2020-12-20T08:26:27Z</time>
      </trkpt>
      <trkpt lat="46.51221" lon="0.40973">
        <ele>113.8</ele>
        <time>2020-12-20T08:26:29Z</time>
      </trkpt>
      <trkpt lat="46.51225" lon="0.40965">
        <ele>113.6</ele>
        <time>2020-12-20T08:26:31Z</time>
      </trkpt>
      <trkpt lat="46.5123" lon="0.40957">
        <ele>113.6</ele>
        <time>2020-12-20T08:26:33Z</time>
      </trkpt>
      <trkpt lat="46.51238" lon="0.40943">
        <ele>113.6</ele>
        <time>2020-12-20T08:26:36Z</time>
      </trkpt>
      <trkpt lat="46.51245" lon="0.40931">
        <ele>113.6</ele>
        <time>2020-12-20T08:26:39Z</time>
      </trkpt>
      <trkpt lat="46.51241" lon="0.40912">
        <ele>113.4</ele>
        <time>2020-12-20T08:26:46Z</time>
      </trkpt>
      <trkpt lat="46.51233" lon="0.40899">
        <ele>113.4</ele>
        <time>2020-12-20T08:26:52Z</time>
      </trkpt>
      <trkpt lat="46.51217" lon="0.40883">
        <ele>113.2</ele>
        <time>2020-12-20T08:26:58Z</time>
      </trkpt>
      <trkpt lat="46.51214" lon="0.4088">
        <ele>113.2</ele>
        <time>2020-12-20T08:26:59Z</time>
      </trkpt>
      <trkpt lat="46.51191" lon="0.40856">
        <ele>112.8</ele>
        <time>2020-12-20T08:27:06Z</time>
      </trkpt>
      <trkpt lat="46.51188" lon="0.40854">
        <ele>112.8</ele>
        <time>2020-12-20T08:27:07Z</time>
      </trkpt>
      <trkpt lat="46.51183" lon="0.40849">
        <ele>112.8</ele>
        <time>2020-12-20T08:27:09Z</time>
      </trkpt>
      <trkpt lat="46.51173" lon="0.40839">
        <ele>112.8</ele>
        <time>2020-12-20T08:27:12Z</time>
      </trkpt>
      <trkpt lat="46.51155" lon="0.40824">
        <ele>113</ele>
        <time>2020-12-20T08:27:16Z</time>
      </trkpt>
      <trkpt lat="46.51147" lon="0.40818">
        <ele>113</ele>
        <time>2020-12-20T08:27:18Z</time>
      </trkpt>
      <trkpt lat="46.51136" lon="0.40809">
        <ele>113</ele>
        <time>2020-12-20T08:27:21Z</time>
      </trkpt>
      <trkpt lat="46.51131" lon="0.40805">
        <ele>113</ele>
        <time>2020-12-20T08:27:22Z</time>
      </trkpt>
      <trkpt lat="46.51122" lon="0.40798">
        <ele>113</ele>
        <time>2020-12-20T08:27:24Z</time>
      </trkpt>
      <trkpt lat="46.51113" lon="0.40792">
        <ele>113</ele>
        <time>2020-12-20T08:27:26Z</time>
      </trkpt>
      <trkpt lat="46.51108" lon="0.4079">
        <ele>113</ele>
        <time>2020-12-20T08:27:27Z</time>
      </trkpt>
      <trkpt lat="46.51089" lon="0.40779">
        <ele>113.2</ele>
        <time>2020-12-20T08:27:31Z</time>
      </trkpt>
      <trkpt lat="46.51067" lon="0.40765">
        <ele>113.2</ele>
        <time>2020-12-20T08:27:36Z</time>
      </trkpt>
      <trkpt lat="46.51056" lon="0.40758">
        <ele>113</ele>
        <time>2020-12-20T08:27:38Z</time>
      </trkpt>
      <trkpt lat="46.51038" lon="0.40747">
        <ele>112.6</ele>
        <time>2020-12-20T08:27:42Z</time>
      </trkpt>
      <trkpt lat="46.5103" lon="0.4074">
        <ele>112.2</ele>
        <time>2020-12-20T08:27:45Z</time>
      </trkpt>
      <trkpt lat="46.51029" lon="0.40736">
        <ele>112.2</ele>
        <time>2020-12-20T08:27:46Z</time>
      </trkpt>
      <trkpt lat="46.5103" lon="0.40716">
        <ele>111.8</ele>
        <time>2020-12-20T08:27:52Z</time>
      </trkpt>
      <trkpt lat="46.51033" lon="0.40697">
        <ele>111.6</ele>
        <time>2020-12-20T08:27:56Z</time>
      </trkpt>
      <trkpt lat="46.51034" lon="0.40693">
        <ele>111.4</ele>
        <time>2020-12-20T08:27:57Z</time>
      </trkpt>
      <trkpt lat="46.5104" lon="0.40668">
        <ele>110.6</ele>
        <time>2020-12-20T08:28:02Z</time>
      </trkpt>
      <trkpt lat="46.51042" lon="0.40663">
        <ele>110.2</ele>
        <time>2020-12-20T08:28:03Z</time>
      </trkpt>
      <trkpt lat="46.51045" lon="0.40648">
        <ele>109.4</ele>
        <time>2020-12-20T08:28:05Z</time>
      </trkpt>
      <trkpt lat="46.51047" lon="0.40637">
        <ele>109</ele>
        <time>2020-12-20T08:28:07Z</time>
      </trkpt>
      <trkpt lat="46.51048" lon="0.40633">
        <ele>108.6</ele>
        <time>2020-12-20T08:28:08Z</time>
      </trkpt>
      <trkpt lat="46.51048" lon="0.40628">
        <ele>107.6</ele>
        <time>2020-12-20T08:28:09Z</time>
      </trkpt>
      <trkpt lat="46.5104" lon="0.40619">
        <ele>106.2</ele>
        <time>2020-12-20T08:28:12Z</time>
      </trkpt>
      <trkpt lat="46.5104" lon="0.40619">
        <ele>106.2</ele>
        <time>2020-12-20T08:28:13Z</time>
      </trkpt>
      <trkpt lat="46.51029" lon="0.40613">
        <ele>105.8</ele>
        <time>2020-12-20T08:28:16Z</time>
      </trkpt>
      <trkpt lat="46.51016" lon="0.40602">
        <ele>105.6</ele>
        <time>2020-12-20T08:28:19Z</time>
      </trkpt>
      <trkpt lat="46.51011" lon="0.40597">
        <ele>105.6</ele>
        <time>2020-12-20T08:28:20Z</time>
      </trkpt>
      <trkpt lat="46.50999" lon="0.40584">
        <ele>105.2</ele>
        <time>2020-12-20T08:28:23Z</time>
      </trkpt>
      <trkpt lat="46.50996" lon="0.4058">
        <ele>104.8</ele>
        <time>2020-12-20T08:28:24Z</time>
      </trkpt>
      <trkpt lat="46.50988" lon="0.40569">
        <ele>103.8</ele>
        <time>2020-12-20T08:28:26Z</time>
      </trkpt>
      <trkpt lat="46.50975" lon="0.40552">
        <ele>103.2</ele>
        <time>2020-12-20T08:28:29Z</time>
      </trkpt>
      <trkpt lat="46.5097" lon="0.40546">
        <ele>102.6</ele>
        <time>2020-12-20T08:28:30Z</time>
      </trkpt>
      <trkpt lat="46.50958" lon="0.4053">
        <ele>101.4</ele>
        <time>2020-12-20T08:28:33Z</time>
      </trkpt>
      <trkpt lat="46.50954" lon="0.40527">
        <ele>101</ele>
        <time>2020-12-20T08:28:34Z</time>
      </trkpt>
      <trkpt lat="46.50951" lon="0.40525">
        <ele>100.6</ele>
        <time>2020-12-20T08:28:35Z</time>
      </trkpt>
      <trkpt lat="46.50948" lon="0.40523">
        <ele>100.4</ele>
        <time>2020-12-20T08:28:36Z</time>
      </trkpt>
      <trkpt lat="46.50946" lon="0.40522">
        <ele>100.4</ele>
        <time>2020-12-20T08:28:37Z</time>
      </trkpt>
      <trkpt lat="46.50944" lon="0.40522">
        <ele>100.4</ele>
        <time>2020-12-20T08:28:38Z</time>
      </trkpt>
      <trkpt lat="46.50935" lon="0.40524">
        <ele>101.8</ele>
        <time>2020-12-20T08:28:42Z</time>
      </trkpt>
      <trkpt lat="46.50928" lon="0.40526">
        <ele>102.6</ele>
        <time>2020-12-20T08:28:45Z</time>
      </trkpt>
      <trkpt lat="46.50927" lon="0.40526">
        <ele>102.8</ele>
        <time>2020-12-20T08:28:46Z</time>
      </trkpt>
      <trkpt lat="46.50923" lon="0.40527">
        <ele>103.2</ele>
        <time>2020-12-20T08:28:48Z</time>
      </trkpt>
      <trkpt lat="46.50919" lon="0.40525">
        <ele>103.4</ele>
        <time>2020-12-20T08:28:50Z</time>
      </trkpt>
      <trkpt lat="46.5091" lon="0.40515">
        <ele>102.8</ele>
        <time>2020-12-20T08:28:57Z</time>
      </trkpt>
      <trkpt lat="46.50907" lon="0.40515">
        <ele>102.8</ele>
        <time>2020-12-20T08:28:58Z</time>
      </trkpt>
      <trkpt lat="46.50902" lon="0.40506">
        <ele>102.8</ele>
        <time>2020-12-20T08:29:04Z</time>
      </trkpt>
      <trkpt lat="46.50901" lon="0.40504">
        <ele>102.6</ele>
        <time>2020-12-20T08:29:05Z</time>
      </trkpt>
      <trkpt lat="46.509" lon="0.40499">
        <ele>102.2</ele>
        <time>2020-12-20T08:29:08Z</time>
      </trkpt>
      <trkpt lat="46.50897" lon="0.40492">
        <ele>101.8</ele>
        <time>2020-12-20T08:29:13Z</time>
      </trkpt>
      <trkpt lat="46.50895" lon="0.40489">
        <ele>101.8</ele>
        <time>2020-12-20T08:29:16Z</time>
      </trkpt>
      <trkpt lat="46.50888" lon="0.40478">
        <ele>101.8</ele>
        <time>2020-12-20T08:29:30Z</time>
      </trkpt>
      <trkpt lat="46.50888" lon="0.40477">
        <ele>101.6</ele>
        <time>2020-12-20T08:29:50Z</time>
      </trkpt>
      <trkpt lat="46.50888" lon="0.40477">
        <ele>101.8</ele>
        <time>2020-12-20T08:30:06Z</time>
      </trkpt>
      <trkpt lat="46.5089" lon="0.40485">
        <ele>102</ele>
        <time>2020-12-20T08:30:18Z</time>
      </trkpt>
      <trkpt lat="46.5089" lon="0.4049">
        <ele>102</ele>
        <time>2020-12-20T08:30:21Z</time>
      </trkpt>
      <trkpt lat="46.5089" lon="0.40497">
        <ele>102.2</ele>
        <time>2020-12-20T08:30:25Z</time>
      </trkpt>
      <trkpt lat="46.50889" lon="0.40503">
        <ele>102.4</ele>
        <time>2020-12-20T08:30:30Z</time>
      </trkpt>
      <trkpt lat="46.50889" lon="0.40505">
        <ele>102.4</ele>
        <time>2020-12-20T08:30:31Z</time>
      </trkpt>
      <trkpt lat="46.50889" lon="0.40507">
        <ele>102.4</ele>
        <time>2020-12-20T08:30:32Z</time>
      </trkpt>
      <trkpt lat="46.50889" lon="0.40513">
        <ele>102.8</ele>
        <time>2020-12-20T08:30:35Z</time>
      </trkpt>
      <trkpt lat="46.5089" lon="0.40526">
        <ele>103.8</ele>
        <time>2020-12-20T08:30:41Z</time>
      </trkpt>
      <trkpt lat="46.5089" lon="0.40532">
        <ele>104</ele>
        <time>2020-12-20T08:30:43Z</time>
      </trkpt>
      <trkpt lat="46.50887" lon="0.40542">
        <ele>104.2</ele>
        <time>2020-12-20T08:30:48Z</time>
      </trkpt>
      <trkpt lat="46.50884" lon="0.40543">
        <ele>104.2</ele>
        <time>2020-12-20T08:30:49Z</time>
      </trkpt>
      <trkpt lat="46.5088" lon="0.40548">
        <ele>104.4</ele>
        <time>2020-12-20T08:30:52Z</time>
      </trkpt>
      <trkpt lat="46.5088" lon="0.40552">
        <ele>104.6</ele>
        <time>2020-12-20T08:30:54Z</time>
      </trkpt>
      <trkpt lat="46.5088" lon="0.40553">
        <ele>104.6</ele>
        <time>2020-12-20T08:30:55Z</time>
      </trkpt>
      <trkpt lat="46.50878" lon="0.4056">
        <ele>104.6</ele>
        <time>2020-12-20T08:31:02Z</time>
      </trkpt>
      <trkpt lat="46.50874" lon="0.40564">
        <ele>104.6</ele>
        <time>2020-12-20T08:31:05Z</time>
      </trkpt>
      <trkpt lat="46.50868" lon="0.40571">
        <ele>103.6</ele>
        <time>2020-12-20T08:31:09Z</time>
      </trkpt>
      <trkpt lat="46.50865" lon="0.40583">
        <ele>102.8</ele>
        <time>2020-12-20T08:31:14Z</time>
      </trkpt>
      <trkpt lat="46.50865" lon="0.40588">
        <ele>102.2</ele>
        <time>2020-12-20T08:31:16Z</time>
      </trkpt>
      <trkpt lat="46.50865" lon="0.4059">
        <ele>101.8</ele>
        <time>2020-12-20T08:31:17Z</time>
      </trkpt>
      <trkpt lat="46.50863" lon="0.40593">
        <ele>101.2</ele>
        <time>2020-12-20T08:31:19Z</time>
      </trkpt>
      <trkpt lat="46.50862" lon="0.40597">
        <ele>101.2</ele>
        <time>2020-12-20T08:31:21Z</time>
      </trkpt>
      <trkpt lat="46.50859" lon="0.40604">
        <ele>101.2</ele>
        <time>2020-12-20T08:31:24Z</time>
      </trkpt>
      <trkpt lat="46.50859" lon="0.4061">
        <ele>101.4</ele>
        <time>2020-12-20T08:31:26Z</time>
      </trkpt>
      <trkpt lat="46.50857" lon="0.40619">
        <ele>101.8</ele>
        <time>2020-12-20T08:31:31Z</time>
      </trkpt>
      <trkpt lat="46.50855" lon="0.40621">
        <ele>101.8</ele>
        <time>2020-12-20T08:31:32Z</time>
      </trkpt>
      <trkpt lat="46.50853" lon="0.40627">
        <ele>101.2</ele>
        <time>2020-12-20T08:31:35Z</time>
      </trkpt>
      <trkpt lat="46.50849" lon="0.40631">
        <ele>100.8</ele>
        <time>2020-12-20T08:31:38Z</time>
      </trkpt>
      <trkpt lat="46.50848" lon="0.40632">
        <ele>100.6</ele>
        <time>2020-12-20T08:31:39Z</time>
      </trkpt>
      <trkpt lat="46.50845" lon="0.40637">
        <ele>100.2</ele>
        <time>2020-12-20T08:31:43Z</time>
      </trkpt>
      <trkpt lat="46.50839" lon="0.40643">
        <ele>100.4</ele>
        <time>2020-12-20T08:31:49Z</time>
      </trkpt>
      <trkpt lat="46.50836" lon="0.40647">
        <ele>100.4</ele>
        <time>2020-12-20T08:31:52Z</time>
      </trkpt>
      <trkpt lat="46.50835" lon="0.4065">
        <ele>100.2</ele>
        <time>2020-12-20T08:31:54Z</time>
      </trkpt>
      <trkpt lat="46.50833" lon="0.40653">
        <ele>99.4</ele>
        <time>2020-12-20T08:31:56Z</time>
      </trkpt>
      <trkpt lat="46.50829" lon="0.40655">
        <ele>98.2</ele>
        <time>2020-12-20T08:31:58Z</time>
      </trkpt>
      <trkpt lat="46.50826" lon="0.40656">
        <ele>97.4</ele>
        <time>2020-12-20T08:31:59Z</time>
      </trkpt>
      <trkpt lat="46.50824" lon="0.40657">
        <ele>96.8</ele>
        <time>2020-12-20T08:32:00Z</time>
      </trkpt>
      <trkpt lat="46.50819" lon="0.40658">
        <ele>95.4</ele>
        <time>2020-12-20T08:32:03Z</time>
      </trkpt>
      <trkpt lat="46.50816" lon="0.40659">
        <ele>94.2</ele>
        <time>2020-12-20T08:32:05Z</time>
      </trkpt>
      <trkpt lat="46.50814" lon="0.4066">
        <ele>93.4</ele>
        <time>2020-12-20T08:32:07Z</time>
      </trkpt>
      <trkpt lat="46.50812" lon="0.4066">
        <ele>93</ele>
        <time>2020-12-20T08:32:08Z</time>
      </trkpt>
      <trkpt lat="46.50809" lon="0.40659">
        <ele>92.2</ele>
        <time>2020-12-20T08:32:09Z</time>
      </trkpt>
      <trkpt lat="46.50806" lon="0.40657">
        <ele>91.6</ele>
        <time>2020-12-20T08:32:10Z</time>
      </trkpt>
      <trkpt lat="46.50804" lon="0.40654">
        <ele>90.8</ele>
        <time>2020-12-20T08:32:11Z</time>
      </trkpt>
      <trkpt lat="46.50804" lon="0.40649">
        <ele>89.4</ele>
        <time>2020-12-20T08:32:12Z</time>
      </trkpt>
      <trkpt lat="46.50804" lon="0.40647">
        <ele>89</ele>
        <time>2020-12-20T08:32:14Z</time>
      </trkpt>
      <trkpt lat="46.50805" lon="0.40643">
        <ele>88.6</ele>
        <time>2020-12-20T08:32:17Z</time>
      </trkpt>
      <trkpt lat="46.50808" lon="0.40642">
        <ele>88.4</ele>
        <time>2020-12-20T08:32:20Z</time>
      </trkpt>
      <trkpt lat="46.50808" lon="0.40641">
        <ele>88.4</ele>
        <time>2020-12-20T08:32:21Z</time>
      </trkpt>
      <trkpt lat="46.50809" lon="0.40642">
        <ele>88.4</ele>
        <time>2020-12-20T08:32:22Z</time>
      </trkpt>
      <trkpt lat="46.50813" lon="0.4064">
        <ele>88.6</ele>
        <time>2020-12-20T08:32:26Z</time>
      </trkpt>
      <trkpt lat="46.50821" lon="0.4063">
        <ele>88.4</ele>
        <time>2020-12-20T08:32:32Z</time>
      </trkpt>
      <trkpt lat="46.50828" lon="0.40615">
        <ele>88.4</ele>
        <time>2020-12-20T08:32:39Z</time>
      </trkpt>
      <trkpt lat="46.50835" lon="0.40599">
        <ele>88.2</ele>
        <time>2020-12-20T08:32:46Z</time>
      </trkpt>
      <trkpt lat="46.50843" lon="0.40577">
        <ele>88.4</ele>
        <time>2020-12-20T08:32:54Z</time>
      </trkpt>
      <trkpt lat="46.50849" lon="0.40561">
        <ele>88</ele>
        <time>2020-12-20T08:33:00Z</time>
      </trkpt>
      <trkpt lat="46.50854" lon="0.40542">
        <ele>88.4</ele>
        <time>2020-12-20T08:33:08Z</time>
      </trkpt>
      <trkpt lat="46.50854" lon="0.40539">
        <ele>88.4</ele>
        <time>2020-12-20T08:33:09Z</time>
      </trkpt>
      <trkpt lat="46.50858" lon="0.40531">
        <ele>88.4</ele>
        <time>2020-12-20T08:33:13Z</time>
      </trkpt>
      <trkpt lat="46.5086" lon="0.40515">
        <ele>88</ele>
        <time>2020-12-20T08:33:20Z</time>
      </trkpt>
      <trkpt lat="46.50863" lon="0.40502">
        <ele>88</ele>
        <time>2020-12-20T08:33:25Z</time>
      </trkpt>
      <trkpt lat="46.50865" lon="0.40484">
        <ele>88</ele>
        <time>2020-12-20T08:33:33Z</time>
      </trkpt>
      <trkpt lat="46.50867" lon="0.40463">
        <ele>87.8</ele>
        <time>2020-12-20T08:33:39Z</time>
      </trkpt>
      <trkpt lat="46.50871" lon="0.40436">
        <ele>88</ele>
        <time>2020-12-20T08:33:45Z</time>
      </trkpt>
      <trkpt lat="46.50872" lon="0.40418">
        <ele>88.2</ele>
        <time>2020-12-20T08:33:50Z</time>
      </trkpt>
      <trkpt lat="46.50875" lon="0.40396">
        <ele>87.8</ele>
        <time>2020-12-20T08:33:56Z</time>
      </trkpt>
      <trkpt lat="46.50881" lon="0.40376">
        <ele>88</ele>
        <time>2020-12-20T08:34:03Z</time>
      </trkpt>
      <trkpt lat="46.50889" lon="0.40368">
        <ele>87.8</ele>
        <time>2020-12-20T08:34:09Z</time>
      </trkpt>
      <trkpt lat="46.50896" lon="0.40368">
        <ele>88.2</ele>
        <time>2020-12-20T08:34:14Z</time>
      </trkpt>
      <trkpt lat="46.50898" lon="0.40367">
        <ele>88.2</ele>
        <time>2020-12-20T08:34:15Z</time>
      </trkpt>
      <trkpt lat="46.50903" lon="0.40369">
        <ele>88.4</ele>
        <time>2020-12-20T08:34:18Z</time>
      </trkpt>
      <trkpt lat="46.50905" lon="0.40374">
        <ele>88.6</ele>
        <time>2020-12-20T08:34:20Z</time>
      </trkpt>
      <trkpt lat="46.50907" lon="0.40388">
        <ele>89.4</ele>
        <time>2020-12-20T08:34:25Z</time>
      </trkpt>
      <trkpt lat="46.50907" lon="0.40391">
        <ele>89.6</ele>
        <time>2020-12-20T08:34:26Z</time>
      </trkpt>
      <trkpt lat="46.50907" lon="0.404">
        <ele>90.8</ele>
        <time>2020-12-20T08:34:29Z</time>
      </trkpt>
      <trkpt lat="46.50909" lon="0.40409">
        <ele>91.8</ele>
        <time>2020-12-20T08:34:32Z</time>
      </trkpt>
      <trkpt lat="46.5091" lon="0.40415">
        <ele>92.8</ele>
        <time>2020-12-20T08:34:34Z</time>
      </trkpt>
      <trkpt lat="46.50913" lon="0.40428">
        <ele>94</ele>
        <time>2020-12-20T08:34:38Z</time>
      </trkpt>
      <trkpt lat="46.50914" lon="0.40436">
        <ele>95.2</ele>
        <time>2020-12-20T08:34:41Z</time>
      </trkpt>
      <trkpt lat="46.50916" lon="0.40443">
        <ele>96.4</ele>
        <time>2020-12-20T08:34:44Z</time>
      </trkpt>
      <trkpt lat="46.50919" lon="0.40454">
        <ele>97.4</ele>
        <time>2020-12-20T08:34:48Z</time>
      </trkpt>
      <trkpt lat="46.5092" lon="0.40456">
        <ele>97.8</ele>
        <time>2020-12-20T08:34:49Z</time>
      </trkpt>
      <trkpt lat="46.5092" lon="0.40466">
        <ele>98.6</ele>
        <time>2020-12-20T08:34:52Z</time>
      </trkpt>
      <trkpt lat="46.50919" lon="0.40471">
        <ele>99</ele>
        <time>2020-12-20T08:34:54Z</time>
      </trkpt>
      <trkpt lat="46.50919" lon="0.40475">
        <ele>99.6</ele>
        <time>2020-12-20T08:34:56Z</time>
      </trkpt>
      <trkpt lat="46.50918" lon="0.40484">
        <ele>100.6</ele>
        <time>2020-12-20T08:35:00Z</time>
      </trkpt>
      <trkpt lat="46.50918" lon="0.40487">
        <ele>101</ele>
        <time>2020-12-20T08:35:01Z</time>
      </trkpt>
      <trkpt lat="46.50918" lon="0.40488">
        <ele>101.2</ele>
        <time>2020-12-20T08:35:02Z</time>
      </trkpt>
      <trkpt lat="46.50914" lon="0.40495">
        <ele>101.6</ele>
        <time>2020-12-20T08:35:06Z</time>
      </trkpt>
      <trkpt lat="46.50908" lon="0.40504">
        <ele>102.2</ele>
        <time>2020-12-20T08:35:12Z</time>
      </trkpt>
      <trkpt lat="46.50907" lon="0.40504">
        <ele>102.2</ele>
        <time>2020-12-20T08:35:15Z</time>
      </trkpt>
      <trkpt lat="46.50901" lon="0.40505">
        <ele>102</ele>
        <time>2020-12-20T08:35:21Z</time>
      </trkpt>
      <trkpt lat="46.50899" lon="0.40504">
        <ele>102</ele>
        <time>2020-12-20T08:35:32Z</time>
      </trkpt>
      <trkpt lat="46.50899" lon="0.40506">
        <ele>102.2</ele>
        <time>2020-12-20T08:35:55Z</time>
      </trkpt>
      <trkpt lat="46.50895" lon="0.40508">
        <ele>102</ele>
        <time>2020-12-20T08:36:03Z</time>
      </trkpt>
      <trkpt lat="46.50894" lon="0.4051">
        <ele>102</ele>
        <time>2020-12-20T08:36:05Z</time>
      </trkpt>
      <trkpt lat="46.50893" lon="0.40511">
        <ele>102</ele>
        <time>2020-12-20T08:36:07Z</time>
      </trkpt>
      <trkpt lat="46.50892" lon="0.40517">
        <ele>102.4</ele>
        <time>2020-12-20T08:36:11Z</time>
      </trkpt>
      <trkpt lat="46.50892" lon="0.40522">
        <ele>102.6</ele>
        <time>2020-12-20T08:36:14Z</time>
      </trkpt>
      <trkpt lat="46.50891" lon="0.40526">
        <ele>102.8</ele>
        <time>2020-12-20T08:36:16Z</time>
      </trkpt>
      <trkpt lat="46.50891" lon="0.40537">
        <ele>103.8</ele>
        <time>2020-12-20T08:36:21Z</time>
      </trkpt>
      <trkpt lat="46.50889" lon="0.40541">
        <ele>104.2</ele>
        <time>2020-12-20T08:36:23Z</time>
      </trkpt>
      <trkpt lat="46.50888" lon="0.40542">
        <ele>104.2</ele>
        <time>2020-12-20T08:36:24Z</time>
      </trkpt>
      <trkpt lat="46.50881" lon="0.4055">
        <ele>103</ele>
        <time>2020-12-20T08:36:33Z</time>
      </trkpt>
      <trkpt lat="46.5088" lon="0.40551">
        <ele>103</ele>
        <time>2020-12-20T08:36:36Z</time>
      </trkpt>
      <trkpt lat="46.50878" lon="0.40555">
        <ele>103</ele>
        <time>2020-12-20T08:36:44Z</time>
      </trkpt>
      <trkpt lat="46.50877" lon="0.4056">
        <ele>102.8</ele>
        <time>2020-12-20T08:36:55Z</time>
      </trkpt>
      <trkpt lat="46.50877" lon="0.40561">
        <ele>102.8</ele>
        <time>2020-12-20T08:37:00Z</time>
      </trkpt>
      <trkpt lat="46.50877" lon="0.40561">
        <ele>102.8</ele>
        <time>2020-12-20T08:37:18Z</time>
      </trkpt>
      <trkpt lat="46.50874" lon="0.40562">
        <ele>102.8</ele>
        <time>2020-12-20T08:37:34Z</time>
      </trkpt>
      <trkpt lat="46.50874" lon="0.40563">
        <ele>102.6</ele>
        <time>2020-12-20T08:37:46Z</time>
      </trkpt>
      <trkpt lat="46.50874" lon="0.40564">
        <ele>102.6</ele>
        <time>2020-12-20T08:37:58Z</time>
      </trkpt>
      <trkpt lat="46.50871" lon="0.40567">
        <ele>102.6</ele>
        <time>2020-12-20T08:38:14Z</time>
      </trkpt>
      <trkpt lat="46.50862" lon="0.40579">
        <ele>102.4</ele>
        <time>2020-12-20T08:38:21Z</time>
      </trkpt>
      <trkpt lat="46.50861" lon="0.40587">
        <ele>101.8</ele>
        <time>2020-12-20T08:38:24Z</time>
      </trkpt>
      <trkpt lat="46.5086" lon="0.40596">
        <ele>100.8</ele>
        <time>2020-12-20T08:38:28Z</time>
      </trkpt>
      <trkpt lat="46.5086" lon="0.40598">
        <ele>100.6</ele>
        <time>2020-12-20T08:38:29Z</time>
      </trkpt>
      <trkpt lat="46.50859" lon="0.406">
        <ele>100.6</ele>
        <time>2020-12-20T08:38:30Z</time>
      </trkpt>
      <trkpt lat="46.50855" lon="0.4061">
        <ele>100.2</ele>
        <time>2020-12-20T08:38:34Z</time>
      </trkpt>
      <trkpt lat="46.50855" lon="0.40615">
        <ele>100.2</ele>
        <time>2020-12-20T08:38:37Z</time>
      </trkpt>
      <trkpt lat="46.50853" lon="0.40618">
        <ele>100.6</ele>
        <time>2020-12-20T08:38:39Z</time>
      </trkpt>
      <trkpt lat="46.50851" lon="0.40622">
        <ele>100.6</ele>
        <time>2020-12-20T08:38:41Z</time>
      </trkpt>
      <trkpt lat="46.50845" lon="0.4063">
        <ele>99.8</ele>
        <time>2020-12-20T08:38:45Z</time>
      </trkpt>
      <trkpt lat="46.50841" lon="0.40635">
        <ele>99.4</ele>
        <time>2020-12-20T08:38:47Z</time>
      </trkpt>
      <trkpt lat="46.50838" lon="0.40642">
        <ele>99.2</ele>
        <time>2020-12-20T08:38:50Z</time>
      </trkpt>
      <trkpt lat="46.50835" lon="0.40646">
        <ele>99.2</ele>
        <time>2020-12-20T08:38:52Z</time>
      </trkpt>
      <trkpt lat="46.50831" lon="0.40652">
        <ele>99.2</ele>
        <time>2020-12-20T08:38:55Z</time>
      </trkpt>
      <trkpt lat="46.5083" lon="0.40654">
        <ele>99</ele>
        <time>2020-12-20T08:38:56Z</time>
      </trkpt>
      <trkpt lat="46.50827" lon="0.40656">
        <ele>98</ele>
        <time>2020-12-20T08:38:58Z</time>
      </trkpt>
      <trkpt lat="46.50824" lon="0.40657">
        <ele>97</ele>
        <time>2020-12-20T08:39:00Z</time>
      </trkpt>
      <trkpt lat="46.50823" lon="0.40656">
        <ele>96</ele>
        <time>2020-12-20T08:39:01Z</time>
      </trkpt>
      <trkpt lat="46.50822" lon="0.40655">
        <ele>95.6</ele>
        <time>2020-12-20T08:39:02Z</time>
      </trkpt>
      <trkpt lat="46.50819" lon="0.40654">
        <ele>94.4</ele>
        <time>2020-12-20T08:39:04Z</time>
      </trkpt>
      <trkpt lat="46.50818" lon="0.40654">
        <ele>93.8</ele>
        <time>2020-12-20T08:39:05Z</time>
      </trkpt>
      <trkpt lat="46.50817" lon="0.40655">
        <ele>93.2</ele>
        <time>2020-12-20T08:39:06Z</time>
      </trkpt>
      <trkpt lat="46.50813" lon="0.40657">
        <ele>92</ele>
        <time>2020-12-20T08:39:09Z</time>
      </trkpt>
      <trkpt lat="46.50807" lon="0.40649">
        <ele>91</ele>
        <time>2020-12-20T08:39:11Z</time>
      </trkpt>
      <trkpt lat="46.50805" lon="0.40643">
        <ele>90</ele>
        <time>2020-12-20T08:39:12Z</time>
      </trkpt>
      <trkpt lat="46.50805" lon="0.40638">
        <ele>89</ele>
        <time>2020-12-20T08:39:13Z</time>
      </trkpt>
      <trkpt lat="46.50806" lon="0.40632">
        <ele>88.6</ele>
        <time>2020-12-20T08:39:14Z</time>
      </trkpt>
      <trkpt lat="46.50809" lon="0.40623">
        <ele>88</ele>
        <time>2020-12-20T08:39:16Z</time>
      </trkpt>
      <trkpt lat="46.50813" lon="0.40619">
        <ele>87.8</ele>
        <time>2020-12-20T08:39:18Z</time>
      </trkpt>
      <trkpt lat="46.50823" lon="0.40615">
        <ele>87.2</ele>
        <time>2020-12-20T08:39:22Z</time>
      </trkpt>
      <trkpt lat="46.50834" lon="0.40601">
        <ele>87.4</ele>
        <time>2020-12-20T08:39:28Z</time>
      </trkpt>
      <trkpt lat="46.50844" lon="0.40576">
        <ele>87.4</ele>
        <time>2020-12-20T08:39:35Z</time>
      </trkpt>
      <trkpt lat="46.50857" lon="0.40538">
        <ele>87.8</ele>
        <time>2020-12-20T08:39:43Z</time>
      </trkpt>
      <trkpt lat="46.50865" lon="0.40501">
        <ele>87.8</ele>
        <time>2020-12-20T08:39:49Z</time>
      </trkpt>
      <trkpt lat="46.50866" lon="0.40494">
        <ele>87.8</ele>
        <time>2020-12-20T08:39:50Z</time>
      </trkpt>
      <trkpt lat="46.50868" lon="0.40448">
        <ele>87.2</ele>
        <time>2020-12-20T08:39:57Z</time>
      </trkpt>
      <trkpt lat="46.50872" lon="0.4042">
        <ele>87.4</ele>
        <time>2020-12-20T08:40:03Z</time>
      </trkpt>
      <trkpt lat="46.50875" lon="0.40411">
        <ele>87.4</ele>
        <time>2020-12-20T08:40:08Z</time>
      </trkpt>
      <trkpt lat="46.50874" lon="0.4041">
        <ele>87.2</ele>
        <time>2020-12-20T08:40:21Z</time>
      </trkpt>
      <trkpt lat="46.50874" lon="0.40409">
        <ele>87</ele>
        <time>2020-12-20T08:40:40Z</time>
      </trkpt>
      <trkpt lat="46.50874" lon="0.40409">
        <ele>87</ele>
        <time>2020-12-20T08:41:04Z</time>
      </trkpt>
      <trkpt lat="46.50874" lon="0.40409">
        <ele>87</ele>
        <time>2020-12-20T08:41:09Z</time>
      </trkpt>
      <trkpt lat="46.50874" lon="0.40407">
        <ele>87.4</ele>
        <time>2020-12-20T08:41:21Z</time>
      </trkpt>
      <trkpt lat="46.50874" lon="0.40406">
        <ele>87.4</ele>
        <time>2020-12-20T08:41:37Z</time>
      </trkpt>
      <trkpt lat="46.50874" lon="0.40403">
        <ele>87.4</ele>
        <time>2020-12-20T08:41:53Z</time>
      </trkpt>
      <trkpt lat="46.50874" lon="0.40401">
        <ele>87.4</ele>
        <time>2020-12-20T08:42:10Z</time>
      </trkpt>
      <trkpt lat="46.50874" lon="0.404">
        <ele>87.4</ele>
        <time>2020-12-20T08:42:27Z</time>
      </trkpt>
      <trkpt lat="46.50873" lon="0.40402">
        <ele>87.4</ele>
        <time>2020-12-20T08:42:45Z</time>
      </trkpt>
      <trkpt lat="46.50873" lon="0.40402">
        <ele>87.4</ele>
        <time>2020-12-20T08:43:06Z</time>
      </trkpt>
      <trkpt lat="46.50874" lon="0.40403">
        <ele>87.4</ele>
        <time>2020-12-20T08:43:25Z</time>
      </trkpt>
      <trkpt lat="46.50874" lon="0.40402">
        <ele>87.4</ele>
        <time>2020-12-20T08:43:42Z</time>
      </trkpt>
      <trkpt lat="46.50874" lon="0.40402">
        <ele>87.4</ele>
        <time>2020-12-20T08:43:48Z</time>
      </trkpt>
      <trkpt lat="46.50874" lon="0.40402">
        <ele>87.4</ele>
        <time>2020-12-20T08:43:59Z</time>
      </trkpt>
      <trkpt lat="46.50871" lon="0.40403">
        <ele>87.4</ele>
        <time>2020-12-20T08:44:15Z</time>
      </trkpt>
      <trkpt lat="46.50871" lon="0.40404">
        <ele>87.4</ele>
        <time>2020-12-20T08:44:34Z</time>
      </trkpt>
      <trkpt lat="46.50872" lon="0.40404">
        <ele>87.4</ele>
        <time>2020-12-20T08:44:53Z</time>
      </trkpt>
      <trkpt lat="46.50871" lon="0.40398">
        <ele>87.4</ele>
        <time>2020-12-20T08:45:07Z</time>
      </trkpt>
      <trkpt lat="46.50874" lon="0.40382">
        <ele>87.4</ele>
        <time>2020-12-20T08:45:13Z</time>
      </trkpt>
      <trkpt lat="46.50882" lon="0.40359">
        <ele>87.2</ele>
        <time>2020-12-20T08:45:20Z</time>
      </trkpt>
      <trkpt lat="46.5089" lon="0.40338">
        <ele>87.8</ele>
        <time>2020-12-20T08:45:26Z</time>
      </trkpt>
      <trkpt lat="46.50891" lon="0.40334">
        <ele>88</ele>
        <time>2020-12-20T08:45:27Z</time>
      </trkpt>
      <trkpt lat="46.50895" lon="0.40314">
        <ele>88</ele>
        <time>2020-12-20T08:45:32Z</time>
      </trkpt>
      <trkpt lat="46.50894" lon="0.40308">
        <ele>88.2</ele>
        <time>2020-12-20T08:45:34Z</time>
      </trkpt>
      <trkpt lat="46.5089" lon="0.40305">
        <ele>88.6</ele>
        <time>2020-12-20T08:45:36Z</time>
      </trkpt>
      <trkpt lat="46.50874" lon="0.40305">
        <ele>89</ele>
        <time>2020-12-20T08:45:41Z</time>
      </trkpt>
      <trkpt lat="46.5086" lon="0.40307">
        <ele>89.2</ele>
        <time>2020-12-20T08:45:45Z</time>
      </trkpt>
      <trkpt lat="46.50852" lon="0.40309">
        <ele>89.4</ele>
        <time>2020-12-20T08:45:48Z</time>
      </trkpt>
      <trkpt lat="46.50843" lon="0.40311">
        <ele>90.2</ele>
        <time>2020-12-20T08:45:51Z</time>
      </trkpt>
      <trkpt lat="46.50828" lon="0.40312">
        <ele>90.2</ele>
        <time>2020-12-20T08:45:55Z</time>
      </trkpt>
      <trkpt lat="46.50802" lon="0.40308">
        <ele>89.6</ele>
        <time>2020-12-20T08:46:01Z</time>
      </trkpt>
      <trkpt lat="46.50773" lon="0.40297">
        <ele>90.2</ele>
        <time>2020-12-20T08:46:09Z</time>
      </trkpt>
      <trkpt lat="46.50759" lon="0.40302">
        <ele>91.4</ele>
        <time>2020-12-20T08:46:12Z</time>
      </trkpt>
      <trkpt lat="46.50756" lon="0.40304">
        <ele>91.8</ele>
        <time>2020-12-20T08:46:14Z</time>
      </trkpt>
      <trkpt lat="46.50747" lon="0.40304">
        <ele>92.4</ele>
        <time>2020-12-20T08:46:17Z</time>
      </trkpt>
      <trkpt lat="46.50745" lon="0.40304">
        <ele>93.2</ele>
        <time>2020-12-20T08:46:18Z</time>
      </trkpt>
      <trkpt lat="46.50744" lon="0.40304">
        <ele>93.6</ele>
        <time>2020-12-20T08:46:19Z</time>
      </trkpt>
      <trkpt lat="46.50741" lon="0.40304">
        <ele>95</ele>
        <time>2020-12-20T08:46:22Z</time>
      </trkpt>
      <trkpt lat="46.5074" lon="0.40305">
        <ele>95.4</ele>
        <time>2020-12-20T08:46:23Z</time>
      </trkpt>
      <trkpt lat="46.50739" lon="0.40305">
        <ele>95.8</ele>
        <time>2020-12-20T08:46:24Z</time>
      </trkpt>
      <trkpt lat="46.50738" lon="0.40306">
        <ele>96</ele>
        <time>2020-12-20T08:46:25Z</time>
      </trkpt>
      <trkpt lat="46.50736" lon="0.40308">
        <ele>96.4</ele>
        <time>2020-12-20T08:46:27Z</time>
      </trkpt>
      <trkpt lat="46.50734" lon="0.40311">
        <ele>96.8</ele>
        <time>2020-12-20T08:46:29Z</time>
      </trkpt>
      <trkpt lat="46.50732" lon="0.40312">
        <ele>97.2</ele>
        <time>2020-12-20T08:46:31Z</time>
      </trkpt>
      <trkpt lat="46.50727" lon="0.40314">
        <ele>98.4</ele>
        <time>2020-12-20T08:46:36Z</time>
      </trkpt>
      <trkpt lat="46.50725" lon="0.40314">
        <ele>99.4</ele>
        <time>2020-12-20T08:46:39Z</time>
      </trkpt>
      <trkpt lat="46.50721" lon="0.40314">
        <ele>100.2</ele>
        <time>2020-12-20T08:46:43Z</time>
      </trkpt>
      <trkpt lat="46.50719" lon="0.40314">
        <ele>100.6</ele>
        <time>2020-12-20T08:46:45Z</time>
      </trkpt>
      <trkpt lat="46.50716" lon="0.40311">
        <ele>101.8</ele>
        <time>2020-12-20T08:46:49Z</time>
      </trkpt>
      <trkpt lat="46.50716" lon="0.40309">
        <ele>102</ele>
        <time>2020-12-20T08:46:50Z</time>
      </trkpt>
      <trkpt lat="46.50715" lon="0.40305">
        <ele>102.6</ele>
        <time>2020-12-20T08:46:53Z</time>
      </trkpt>
      <trkpt lat="46.50714" lon="0.40301">
        <ele>103</ele>
        <time>2020-12-20T08:46:55Z</time>
      </trkpt>
      <trkpt lat="46.50708" lon="0.40296">
        <ele>103.8</ele>
        <time>2020-12-20T08:47:01Z</time>
      </trkpt>
      <trkpt lat="46.50707" lon="0.40297">
        <ele>104</ele>
        <time>2020-12-20T08:47:02Z</time>
      </trkpt>
      <trkpt lat="46.50699" lon="0.40297">
        <ele>105</ele>
        <time>2020-12-20T08:47:07Z</time>
      </trkpt>
      <trkpt lat="46.50698" lon="0.40295">
        <ele>105</ele>
        <time>2020-12-20T08:47:08Z</time>
      </trkpt>
      <trkpt lat="46.50698" lon="0.40292">
        <ele>105</ele>
        <time>2020-12-20T08:47:09Z</time>
      </trkpt>
      <trkpt lat="46.507" lon="0.40285">
        <ele>105.4</ele>
        <time>2020-12-20T08:47:12Z</time>
      </trkpt>
      <trkpt lat="46.50698" lon="0.4027">
        <ele>105.8</ele>
        <time>2020-12-20T08:47:17Z</time>
      </trkpt>
      <trkpt lat="46.50697" lon="0.40256">
        <ele>106</ele>
        <time>2020-12-20T08:47:21Z</time>
      </trkpt>
      <trkpt lat="46.50695" lon="0.40243">
        <ele>106.2</ele>
        <time>2020-12-20T08:47:24Z</time>
      </trkpt>
      <trkpt lat="46.50695" lon="0.40211">
        <ele>107</ele>
        <time>2020-12-20T08:47:31Z</time>
      </trkpt>
      <trkpt lat="46.50696" lon="0.40195">
        <ele>107.2</ele>
        <time>2020-12-20T08:47:34Z</time>
      </trkpt>
      <trkpt lat="46.50698" lon="0.40175">
        <ele>107</ele>
        <time>2020-12-20T08:47:37Z</time>
      </trkpt>
      <trkpt lat="46.50707" lon="0.40122">
        <ele>106.2</ele>
        <time>2020-12-20T08:47:44Z</time>
      </trkpt>
      <trkpt lat="46.50709" lon="0.40115">
        <ele>106</ele>
        <time>2020-12-20T08:47:45Z</time>
      </trkpt>
      <trkpt lat="46.50715" lon="0.40092">
        <ele>104.8</ele>
        <time>2020-12-20T08:47:48Z</time>
      </trkpt>
      <trkpt lat="46.50721" lon="0.40071">
        <ele>104.4</ele>
        <time>2020-12-20T08:47:51Z</time>
      </trkpt>
      <trkpt lat="46.50729" lon="0.40045">
        <ele>103.8</ele>
        <time>2020-12-20T08:47:55Z</time>
      </trkpt>
      <trkpt lat="46.50735" lon="0.40023">
        <ele>103</ele>
        <time>2020-12-20T08:47:58Z</time>
      </trkpt>
      <trkpt lat="46.50739" lon="0.40008">
        <ele>102.8</ele>
        <time>2020-12-20T08:48:00Z</time>
      </trkpt>
      <trkpt lat="46.50749" lon="0.39972">
        <ele>101.4</ele>
        <time>2020-12-20T08:48:05Z</time>
      </trkpt>
      <trkpt lat="46.50753" lon="0.39959">
        <ele>100.8</ele>
        <time>2020-12-20T08:48:07Z</time>
      </trkpt>
      <trkpt lat="46.50755" lon="0.39952">
        <ele>100.4</ele>
        <time>2020-12-20T08:48:08Z</time>
      </trkpt>
      <trkpt lat="46.5076" lon="0.39932">
        <ele>99.4</ele>
        <time>2020-12-20T08:48:11Z</time>
      </trkpt>
      <trkpt lat="46.50763" lon="0.3992">
        <ele>99</ele>
        <time>2020-12-20T08:48:13Z</time>
      </trkpt>
      <trkpt lat="46.50775" lon="0.39882">
        <ele>98.2</ele>
        <time>2020-12-20T08:48:19Z</time>
      </trkpt>
      <trkpt lat="46.50776" lon="0.39876">
        <ele>97.8</ele>
        <time>2020-12-20T08:48:20Z</time>
      </trkpt>
      <trkpt lat="46.50782" lon="0.39854">
        <ele>97</ele>
        <time>2020-12-20T08:48:23Z</time>
      </trkpt>
      <trkpt lat="46.50792" lon="0.39814">
        <ele>96.4</ele>
        <time>2020-12-20T08:48:28Z</time>
      </trkpt>
      <trkpt lat="46.508" lon="0.3979">
        <ele>95.8</ele>
        <time>2020-12-20T08:48:31Z</time>
      </trkpt>
      <trkpt lat="46.50803" lon="0.39783">
        <ele>95.6</ele>
        <time>2020-12-20T08:48:32Z</time>
      </trkpt>
      <trkpt lat="46.50807" lon="0.39777">
        <ele>95.2</ele>
        <time>2020-12-20T08:48:33Z</time>
      </trkpt>
      <trkpt lat="46.50811" lon="0.39771">
        <ele>94</ele>
        <time>2020-12-20T08:48:34Z</time>
      </trkpt>
      <trkpt lat="46.50818" lon="0.39763">
        <ele>92.6</ele>
        <time>2020-12-20T08:48:36Z</time>
      </trkpt>
      <trkpt lat="46.5082" lon="0.3976">
        <ele>92</ele>
        <time>2020-12-20T08:48:37Z</time>
      </trkpt>
      <trkpt lat="46.50825" lon="0.39756">
        <ele>90.8</ele>
        <time>2020-12-20T08:48:39Z</time>
      </trkpt>
      <trkpt lat="46.50829" lon="0.39753">
        <ele>90.2</ele>
        <time>2020-12-20T08:48:41Z</time>
      </trkpt>
      <trkpt lat="46.50829" lon="0.39751">
        <ele>89.6</ele>
        <time>2020-12-20T08:48:42Z</time>
      </trkpt>
      <trkpt lat="46.50829" lon="0.39749">
        <ele>89.2</ele>
        <time>2020-12-20T08:48:43Z</time>
      </trkpt>
      <trkpt lat="46.50828" lon="0.39746">
        <ele>88.6</ele>
        <time>2020-12-20T08:48:45Z</time>
      </trkpt>
      <trkpt lat="46.50827" lon="0.39744">
        <ele>88.2</ele>
        <time>2020-12-20T08:48:46Z</time>
      </trkpt>
      <trkpt lat="46.50826" lon="0.39743">
        <ele>88</ele>
        <time>2020-12-20T08:48:47Z</time>
      </trkpt>
      <trkpt lat="46.50821" lon="0.39745">
        <ele>87.8</ele>
        <time>2020-12-20T08:48:51Z</time>
      </trkpt>
      <trkpt lat="46.50811" lon="0.39743">
        <ele>87.8</ele>
        <time>2020-12-20T08:48:56Z</time>
      </trkpt>
      <trkpt lat="46.50806" lon="0.39741">
        <ele>87.4</ele>
        <time>2020-12-20T08:48:58Z</time>
      </trkpt>
      <trkpt lat="46.50796" lon="0.39736">
        <ele>86.8</ele>
        <time>2020-12-20T08:49:03Z</time>
      </trkpt>
      <trkpt lat="46.5078" lon="0.39734">
        <ele>86.8</ele>
        <time>2020-12-20T08:49:09Z</time>
      </trkpt>
      <trkpt lat="46.50771" lon="0.39736">
        <ele>86.8</ele>
        <time>2020-12-20T08:49:13Z</time>
      </trkpt>
      <trkpt lat="46.50768" lon="0.39736">
        <ele>86.8</ele>
        <time>2020-12-20T08:49:14Z</time>
      </trkpt>
      <trkpt lat="46.50756" lon="0.39738">
        <ele>87</ele>
        <time>2020-12-20T08:49:19Z</time>
      </trkpt>
      <trkpt lat="46.50754" lon="0.39738">
        <ele>87</ele>
        <time>2020-12-20T08:49:20Z</time>
      </trkpt>
      <trkpt lat="46.50744" lon="0.3974">
        <ele>86.6</ele>
        <time>2020-12-20T08:49:25Z</time>
      </trkpt>
      <trkpt lat="46.5074" lon="0.39741">
        <ele>86.4</ele>
        <time>2020-12-20T08:49:28Z</time>
      </trkpt>
      <trkpt lat="46.50737" lon="0.39744">
        <ele>86.6</ele>
        <time>2020-12-20T08:49:30Z</time>
      </trkpt>
      <trkpt lat="46.50735" lon="0.39744">
        <ele>86.8</ele>
        <time>2020-12-20T08:49:31Z</time>
      </trkpt>
      <trkpt lat="46.50726" lon="0.39743">
        <ele>86.6</ele>
        <time>2020-12-20T08:49:36Z</time>
      </trkpt>
      <trkpt lat="46.50724" lon="0.39744">
        <ele>86.2</ele>
        <time>2020-12-20T08:49:37Z</time>
      </trkpt>
      <trkpt lat="46.50712" lon="0.39744">
        <ele>85.2</ele>
        <time>2020-12-20T08:49:42Z</time>
      </trkpt>
      <trkpt lat="46.50697" lon="0.39748">
        <ele>85.2</ele>
        <time>2020-12-20T08:49:48Z</time>
      </trkpt>
      <trkpt lat="46.50677" lon="0.39751">
        <ele>85.8</ele>
        <time>2020-12-20T08:49:55Z</time>
      </trkpt>
      <trkpt lat="46.50653" lon="0.39755">
        <ele>85.6</ele>
        <time>2020-12-20T08:50:02Z</time>
      </trkpt>
      <trkpt lat="46.50625" lon="0.39755">
        <ele>85.4</ele>
        <time>2020-12-20T08:50:09Z</time>
      </trkpt>
      <trkpt lat="46.50594" lon="0.39755">
        <ele>85.8</ele>
        <time>2020-12-20T08:50:17Z</time>
      </trkpt>
      <trkpt lat="46.5058" lon="0.39753">
        <ele>86.2</ele>
        <time>2020-12-20T08:50:21Z</time>
      </trkpt>
      <trkpt lat="46.50573" lon="0.39753">
        <ele>86.2</ele>
        <time>2020-12-20T08:50:23Z</time>
      </trkpt>
      <trkpt lat="46.5055" lon="0.39748">
        <ele>86.2</ele>
        <time>2020-12-20T08:50:29Z</time>
      </trkpt>
      <trkpt lat="46.50526" lon="0.39742">
        <ele>86.2</ele>
        <time>2020-12-20T08:50:36Z</time>
      </trkpt>
      <trkpt lat="46.5051" lon="0.39732">
        <ele>86.8</ele>
        <time>2020-12-20T08:50:41Z</time>
      </trkpt>
      <trkpt lat="46.50493" lon="0.39721">
        <ele>87</ele>
        <time>2020-12-20T08:50:46Z</time>
      </trkpt>
      <trkpt lat="46.50488" lon="0.39716">
        <ele>87.4</ele>
        <time>2020-12-20T08:50:48Z</time>
      </trkpt>
      <trkpt lat="46.50485" lon="0.39712">
        <ele>87.6</ele>
        <time>2020-12-20T08:50:50Z</time>
      </trkpt>
      <trkpt lat="46.50483" lon="0.39705">
        <ele>87.8</ele>
        <time>2020-12-20T08:50:52Z</time>
      </trkpt>
      <trkpt lat="46.50476" lon="0.39681">
        <ele>87.6</ele>
        <time>2020-12-20T08:50:58Z</time>
      </trkpt>
      <trkpt lat="46.50475" lon="0.39677">
        <ele>87.6</ele>
        <time>2020-12-20T08:50:59Z</time>
      </trkpt>
      <trkpt lat="46.50472" lon="0.3967">
        <ele>87.6</ele>
        <time>2020-12-20T08:51:01Z</time>
      </trkpt>
      <trkpt lat="46.50469" lon="0.39661">
        <ele>87.6</ele>
        <time>2020-12-20T08:51:03Z</time>
      </trkpt>
      <trkpt lat="46.50462" lon="0.39637">
        <ele>88</ele>
        <time>2020-12-20T08:51:08Z</time>
      </trkpt>
      <trkpt lat="46.50461" lon="0.39631">
        <ele>88</ele>
        <time>2020-12-20T08:51:09Z</time>
      </trkpt>
      <trkpt lat="46.50461" lon="0.39621">
        <ele>88</ele>
        <time>2020-12-20T08:51:11Z</time>
      </trkpt>
      <trkpt lat="46.50462" lon="0.39606">
        <ele>88</ele>
        <time>2020-12-20T08:51:14Z</time>
      </trkpt>
      <trkpt lat="46.50467" lon="0.39568">
        <ele>87.8</ele>
        <time>2020-12-20T08:51:20Z</time>
      </trkpt>
      <trkpt lat="46.50472" lon="0.39547">
        <ele>87</ele>
        <time>2020-12-20T08:51:24Z</time>
      </trkpt>
      <trkpt lat="46.50473" lon="0.39541">
        <ele>86.8</ele>
        <time>2020-12-20T08:51:25Z</time>
      </trkpt>
      <trkpt lat="46.50475" lon="0.39531">
        <ele>86.2</ele>
        <time>2020-12-20T08:51:27Z</time>
      </trkpt>
      <trkpt lat="46.50476" lon="0.39521">
        <ele>86</ele>
        <time>2020-12-20T08:51:29Z</time>
      </trkpt>
      <trkpt lat="46.50466" lon="0.39493">
        <ele>86.6</ele>
        <time>2020-12-20T08:51:34Z</time>
      </trkpt>
      <trkpt lat="46.50449" lon="0.39466">
        <ele>87.2</ele>
        <time>2020-12-20T08:51:39Z</time>
      </trkpt>
      <trkpt lat="46.50445" lon="0.39461">
        <ele>87.2</ele>
        <time>2020-12-20T08:51:40Z</time>
      </trkpt>
      <trkpt lat="46.50424" lon="0.39435">
        <ele>88.2</ele>
        <time>2020-12-20T08:51:46Z</time>
      </trkpt>
      <trkpt lat="46.50419" lon="0.3943">
        <ele>88.4</ele>
        <time>2020-12-20T08:51:47Z</time>
      </trkpt>
      <trkpt lat="46.50407" lon="0.39416">
        <ele>88.8</ele>
        <time>2020-12-20T08:51:50Z</time>
      </trkpt>
      <trkpt lat="46.50403" lon="0.39412">
        <ele>88.8</ele>
        <time>2020-12-20T08:51:51Z</time>
      </trkpt>
      <trkpt lat="46.50383" lon="0.39393">
        <ele>89.4</ele>
        <time>2020-12-20T08:51:56Z</time>
      </trkpt>
      <trkpt lat="46.50371" lon="0.39382">
        <ele>89.8</ele>
        <time>2020-12-20T08:51:59Z</time>
      </trkpt>
      <trkpt lat="46.50357" lon="0.39364">
        <ele>90.2</ele>
        <time>2020-12-20T08:52:03Z</time>
      </trkpt>
      <trkpt lat="46.50354" lon="0.39358">
        <ele>90.4</ele>
        <time>2020-12-20T08:52:04Z</time>
      </trkpt>
      <trkpt lat="46.50351" lon="0.39354">
        <ele>90.6</ele>
        <time>2020-12-20T08:52:05Z</time>
      </trkpt>
      <trkpt lat="46.50346" lon="0.39346">
        <ele>90.8</ele>
        <time>2020-12-20T08:52:07Z</time>
      </trkpt>
      <trkpt lat="46.50337" lon="0.39329">
        <ele>91.4</ele>
        <time>2020-12-20T08:52:11Z</time>
      </trkpt>
      <trkpt lat="46.50333" lon="0.39321">
        <ele>91.8</ele>
        <time>2020-12-20T08:52:12Z</time>
      </trkpt>
      <trkpt lat="46.50327" lon="0.39309">
        <ele>92.8</ele>
        <time>2020-12-20T08:52:16Z</time>
      </trkpt>
      <trkpt lat="46.50325" lon="0.39306">
        <ele>93.2</ele>
        <time>2020-12-20T08:52:17Z</time>
      </trkpt>
      <trkpt lat="46.5032" lon="0.39297">
        <ele>94.2</ele>
        <time>2020-12-20T08:52:20Z</time>
      </trkpt>
      <trkpt lat="46.50319" lon="0.39292">
        <ele>94.6</ele>
        <time>2020-12-20T08:52:22Z</time>
      </trkpt>
      <trkpt lat="46.5032" lon="0.39291">
        <ele>94.6</ele>
        <time>2020-12-20T08:52:23Z</time>
      </trkpt>
      <trkpt lat="46.5032" lon="0.39286">
        <ele>95</ele>
        <time>2020-12-20T08:52:26Z</time>
      </trkpt>
      <trkpt lat="46.50321" lon="0.39286">
        <ele>95</ele>
        <time>2020-12-20T08:52:27Z</time>
      </trkpt>
      <trkpt lat="46.50322" lon="0.39286">
        <ele>95.4</ele>
        <time>2020-12-20T08:52:28Z</time>
      </trkpt>
      <trkpt lat="46.50326" lon="0.39283">
        <ele>95.8</ele>
        <time>2020-12-20T08:52:32Z</time>
      </trkpt>
      <trkpt lat="46.50332" lon="0.39281">
        <ele>96.2</ele>
        <time>2020-12-20T08:52:38Z</time>
      </trkpt>
      <trkpt lat="46.50333" lon="0.39279">
        <ele>96.4</ele>
        <time>2020-12-20T08:52:40Z</time>
      </trkpt>
      <trkpt lat="46.50336" lon="0.39277">
        <ele>97</ele>
        <time>2020-12-20T08:52:44Z</time>
      </trkpt>
      <trkpt lat="46.5034" lon="0.39276">
        <ele>97.2</ele>
        <time>2020-12-20T08:52:48Z</time>
      </trkpt>
      <trkpt lat="46.50342" lon="0.39277">
        <ele>97.4</ele>
        <time>2020-12-20T08:52:49Z</time>
      </trkpt>
      <trkpt lat="46.50353" lon="0.39275">
        <ele>98.2</ele>
        <time>2020-12-20T08:52:58Z</time>
      </trkpt>
      <trkpt lat="46.50364" lon="0.39277">
        <ele>98.6</ele>
        <time>2020-12-20T08:53:07Z</time>
      </trkpt>
      <trkpt lat="46.5037" lon="0.39278">
        <ele>98.8</ele>
        <time>2020-12-20T08:53:11Z</time>
      </trkpt>
      <trkpt lat="46.50381" lon="0.39279">
        <ele>99.4</ele>
        <time>2020-12-20T08:53:18Z</time>
      </trkpt>
      <trkpt lat="46.50384" lon="0.39278">
        <ele>99.6</ele>
        <time>2020-12-20T08:53:20Z</time>
      </trkpt>
      <trkpt lat="46.50386" lon="0.39279">
        <ele>99.8</ele>
        <time>2020-12-20T08:53:22Z</time>
      </trkpt>
      <trkpt lat="46.50388" lon="0.39279">
        <ele>99.6</ele>
        <time>2020-12-20T08:53:23Z</time>
      </trkpt>
      <trkpt lat="46.50389" lon="0.39279">
        <ele>99.6</ele>
        <time>2020-12-20T08:53:24Z</time>
      </trkpt>
      <trkpt lat="46.50402" lon="0.39281">
        <ele>99.8</ele>
        <time>2020-12-20T08:53:30Z</time>
      </trkpt>
      <trkpt lat="46.50412" lon="0.39274">
        <ele>100.2</ele>
        <time>2020-12-20T08:53:34Z</time>
      </trkpt>
      <trkpt lat="46.50419" lon="0.39265">
        <ele>100.6</ele>
        <time>2020-12-20T08:53:38Z</time>
      </trkpt>
      <trkpt lat="46.50422" lon="0.39259">
        <ele>101</ele>
        <time>2020-12-20T08:53:40Z</time>
      </trkpt>
      <trkpt lat="46.50432" lon="0.3924">
        <ele>101.6</ele>
        <time>2020-12-20T08:53:45Z</time>
      </trkpt>
      <trkpt lat="46.50433" lon="0.39237">
        <ele>101.8</ele>
        <time>2020-12-20T08:53:46Z</time>
      </trkpt>
      <trkpt lat="46.50442" lon="0.3922">
        <ele>102.4</ele>
        <time>2020-12-20T08:53:51Z</time>
      </trkpt>
      <trkpt lat="46.50444" lon="0.39216">
        <ele>102.4</ele>
        <time>2020-12-20T08:53:52Z</time>
      </trkpt>
      <trkpt lat="46.50446" lon="0.39212">
        <ele>102.4</ele>
        <time>2020-12-20T08:53:53Z</time>
      </trkpt>
      <trkpt lat="46.50452" lon="0.39195">
        <ele>102.6</ele>
        <time>2020-12-20T08:53:58Z</time>
      </trkpt>
      <trkpt lat="46.50454" lon="0.39189">
        <ele>102.8</ele>
        <time>2020-12-20T08:54:00Z</time>
      </trkpt>
      <trkpt lat="46.5046" lon="0.39162">
        <ele>103</ele>
        <time>2020-12-20T08:54:06Z</time>
      </trkpt>
      <trkpt lat="46.50467" lon="0.39141">
        <ele>104</ele>
        <time>2020-12-20T08:54:11Z</time>
      </trkpt>
      <trkpt lat="46.50468" lon="0.39138">
        <ele>104.2</ele>
        <time>2020-12-20T08:54:12Z</time>
      </trkpt>
      <trkpt lat="46.50471" lon="0.39104">
        <ele>104.8</ele>
        <time>2020-12-20T08:54:20Z</time>
      </trkpt>
      <trkpt lat="46.50472" lon="0.39095">
        <ele>105.2</ele>
        <time>2020-12-20T08:54:22Z</time>
      </trkpt>
      <trkpt lat="46.50476" lon="0.39076">
        <ele>105.4</ele>
        <time>2020-12-20T08:54:26Z</time>
      </trkpt>
      <trkpt lat="46.50484" lon="0.39051">
        <ele>105.4</ele>
        <time>2020-12-20T08:54:31Z</time>
      </trkpt>
      <trkpt lat="46.50489" lon="0.39038">
        <ele>105.8</ele>
        <time>2020-12-20T08:54:34Z</time>
      </trkpt>
      <trkpt lat="46.50491" lon="0.39028">
        <ele>106</ele>
        <time>2020-12-20T08:54:36Z</time>
      </trkpt>
      <trkpt lat="46.50493" lon="0.39017">
        <ele>106.2</ele>
        <time>2020-12-20T08:54:38Z</time>
      </trkpt>
      <trkpt lat="46.50496" lon="0.38996">
        <ele>106.6</ele>
        <time>2020-12-20T08:54:43Z</time>
      </trkpt>
      <trkpt lat="46.50503" lon="0.3897">
        <ele>107.2</ele>
        <time>2020-12-20T08:54:49Z</time>
      </trkpt>
      <trkpt lat="46.50507" lon="0.38959">
        <ele>107.2</ele>
        <time>2020-12-20T08:54:51Z</time>
      </trkpt>
      <trkpt lat="46.50509" lon="0.38939">
        <ele>107.6</ele>
        <time>2020-12-20T08:54:55Z</time>
      </trkpt>
      <trkpt lat="46.50516" lon="0.38915">
        <ele>108.2</ele>
        <time>2020-12-20T08:55:00Z</time>
      </trkpt>
      <trkpt lat="46.50519" lon="0.38908">
        <ele>108.2</ele>
        <time>2020-12-20T08:55:01Z</time>
      </trkpt>
      <trkpt lat="46.50522" lon="0.38902">
        <ele>108.2</ele>
        <time>2020-12-20T08:55:02Z</time>
      </trkpt>
      <trkpt lat="46.50531" lon="0.38887">
        <ele>108.4</ele>
        <time>2020-12-20T08:55:06Z</time>
      </trkpt>
      <trkpt lat="46.5055" lon="0.3885">
        <ele>109.4</ele>
        <time>2020-12-20T08:55:14Z</time>
      </trkpt>
      <trkpt lat="46.50555" lon="0.38844">
        <ele>109.4</ele>
        <time>2020-12-20T08:55:16Z</time>
      </trkpt>
      <trkpt lat="46.50567" lon="0.38834">
        <ele>109.6</ele>
        <time>2020-12-20T08:55:20Z</time>
      </trkpt>
      <trkpt lat="46.50571" lon="0.38831">
        <ele>109.6</ele>
        <time>2020-12-20T08:55:21Z</time>
      </trkpt>
      <trkpt lat="46.50579" lon="0.38825">
        <ele>109.6</ele>
        <time>2020-12-20T08:55:23Z</time>
      </trkpt>
      <trkpt lat="46.50592" lon="0.3882">
        <ele>109.8</ele>
        <time>2020-12-20T08:55:26Z</time>
      </trkpt>
      <trkpt lat="46.506" lon="0.38816">
        <ele>109.4</ele>
        <time>2020-12-20T08:55:28Z</time>
      </trkpt>
      <trkpt lat="46.50612" lon="0.38809">
        <ele>109</ele>
        <time>2020-12-20T08:55:32Z</time>
      </trkpt>
      <trkpt lat="46.5062" lon="0.38806">
        <ele>109</ele>
        <time>2020-12-20T08:55:34Z</time>
      </trkpt>
      <trkpt lat="46.50643" lon="0.38798">
        <ele>109.2</ele>
        <time>2020-12-20T08:55:39Z</time>
      </trkpt>
      <trkpt lat="46.50669" lon="0.3879">
        <ele>109.8</ele>
        <time>2020-12-20T08:55:46Z</time>
      </trkpt>
      <trkpt lat="46.50693" lon="0.38781">
        <ele>110</ele>
        <time>2020-12-20T08:55:53Z</time>
      </trkpt>
      <trkpt lat="46.50703" lon="0.38778">
        <ele>110</ele>
        <time>2020-12-20T08:55:56Z</time>
      </trkpt>
      <trkpt lat="46.50711" lon="0.38773">
        <ele>110.2</ele>
        <time>2020-12-20T08:55:58Z</time>
      </trkpt>
      <trkpt lat="46.50719" lon="0.38769">
        <ele>110.2</ele>
        <time>2020-12-20T08:56:00Z</time>
      </trkpt>
      <trkpt lat="46.50728" lon="0.38762">
        <ele>110</ele>
        <time>2020-12-20T08:56:03Z</time>
      </trkpt>
      <trkpt lat="46.5073" lon="0.38759">
        <ele>110</ele>
        <time>2020-12-20T08:56:04Z</time>
      </trkpt>
      <trkpt lat="46.50735" lon="0.3875">
        <ele>109.8</ele>
        <time>2020-12-20T08:56:06Z</time>
      </trkpt>
      <trkpt lat="46.50742" lon="0.38741">
        <ele>109.8</ele>
        <time>2020-12-20T08:56:08Z</time>
      </trkpt>
      <trkpt lat="46.50746" lon="0.38736">
        <ele>109.4</ele>
        <time>2020-12-20T08:56:09Z</time>
      </trkpt>
      <trkpt lat="46.50754" lon="0.38725">
        <ele>109.2</ele>
        <time>2020-12-20T08:56:11Z</time>
      </trkpt>
      <trkpt lat="46.50762" lon="0.38713">
        <ele>109.2</ele>
        <time>2020-12-20T08:56:13Z</time>
      </trkpt>
      <trkpt lat="46.50787" lon="0.38682">
        <ele>108</ele>
        <time>2020-12-20T08:56:19Z</time>
      </trkpt>
      <trkpt lat="46.50791" lon="0.38677">
        <ele>107.6</ele>
        <time>2020-12-20T08:56:20Z</time>
      </trkpt>
      <trkpt lat="46.50805" lon="0.38659">
        <ele>106.8</ele>
        <time>2020-12-20T08:56:23Z</time>
      </trkpt>
      <trkpt lat="46.50815" lon="0.38649">
        <ele>105.6</ele>
        <time>2020-12-20T08:56:25Z</time>
      </trkpt>
      <trkpt lat="46.50819" lon="0.38645">
        <ele>105.2</ele>
        <time>2020-12-20T08:56:26Z</time>
      </trkpt>
      <trkpt lat="46.50828" lon="0.3864">
        <ele>104.6</ele>
        <time>2020-12-20T08:56:28Z</time>
      </trkpt>
      <trkpt lat="46.50833" lon="0.38636">
        <ele>104.2</ele>
        <time>2020-12-20T08:56:29Z</time>
      </trkpt>
      <trkpt lat="46.50835" lon="0.38633">
        <ele>103.4</ele>
        <time>2020-12-20T08:56:30Z</time>
      </trkpt>
      <trkpt lat="46.50847" lon="0.38619">
        <ele>102.4</ele>
        <time>2020-12-20T08:56:34Z</time>
      </trkpt>
      <trkpt lat="46.50852" lon="0.38614">
        <ele>102</ele>
        <time>2020-12-20T08:56:35Z</time>
      </trkpt>
      <trkpt lat="46.50862" lon="0.38605">
        <ele>101.4</ele>
        <time>2020-12-20T08:56:37Z</time>
      </trkpt>
      <trkpt lat="46.50864" lon="0.38599">
        <ele>101.2</ele>
        <time>2020-12-20T08:56:38Z</time>
      </trkpt>
      <trkpt lat="46.50865" lon="0.38581">
        <ele>100.8</ele>
        <time>2020-12-20T08:56:41Z</time>
      </trkpt>
      <trkpt lat="46.50864" lon="0.38569">
        <ele>99.8</ele>
        <time>2020-12-20T08:56:43Z</time>
      </trkpt>
      <trkpt lat="46.50864" lon="0.38564">
        <ele>99.4</ele>
        <time>2020-12-20T08:56:44Z</time>
      </trkpt>
      <trkpt lat="46.50861" lon="0.38558">
        <ele>98.8</ele>
        <time>2020-12-20T08:56:45Z</time>
      </trkpt>
      <trkpt lat="46.50859" lon="0.38554">
        <ele>98.4</ele>
        <time>2020-12-20T08:56:46Z</time>
      </trkpt>
      <trkpt lat="46.5085" lon="0.38545">
        <ele>98.2</ele>
        <time>2020-12-20T08:56:48Z</time>
      </trkpt>
      <trkpt lat="46.50824" lon="0.38519">
        <ele>99</ele>
        <time>2020-12-20T08:56:55Z</time>
      </trkpt>
      <trkpt lat="46.50812" lon="0.38508">
        <ele>99.2</ele>
        <time>2020-12-20T08:57:00Z</time>
      </trkpt>
      <trkpt lat="46.50806" lon="0.38498">
        <ele>99.6</ele>
        <time>2020-12-20T08:57:04Z</time>
      </trkpt>
      <trkpt lat="46.50808" lon="0.38486">
        <ele>99.8</ele>
        <time>2020-12-20T08:57:08Z</time>
      </trkpt>
      <trkpt lat="46.50809" lon="0.38482">
        <ele>99.8</ele>
        <time>2020-12-20T08:57:09Z</time>
      </trkpt>
      <trkpt lat="46.50811" lon="0.38478">
        <ele>100.4</ele>
        <time>2020-12-20T08:57:11Z</time>
      </trkpt>
      <trkpt lat="46.50814" lon="0.38471">
        <ele>101</ele>
        <time>2020-12-20T08:57:14Z</time>
      </trkpt>
      <trkpt lat="46.50817" lon="0.38463">
        <ele>102</ele>
        <time>2020-12-20T08:57:17Z</time>
      </trkpt>
      <trkpt lat="46.50817" lon="0.38461">
        <ele>102.2</ele>
        <time>2020-12-20T08:57:18Z</time>
      </trkpt>
      <trkpt lat="46.50819" lon="0.38458">
        <ele>102.8</ele>
        <time>2020-12-20T08:57:20Z</time>
      </trkpt>
      <trkpt lat="46.50823" lon="0.3845">
        <ele>103.6</ele>
        <time>2020-12-20T08:57:23Z</time>
      </trkpt>
      <trkpt lat="46.5083" lon="0.38442">
        <ele>104.2</ele>
        <time>2020-12-20T08:57:27Z</time>
      </trkpt>
      <trkpt lat="46.50835" lon="0.38435">
        <ele>104.6</ele>
        <time>2020-12-20T08:57:30Z</time>
      </trkpt>
      <trkpt lat="46.50839" lon="0.38432">
        <ele>105.4</ele>
        <time>2020-12-20T08:57:31Z</time>
      </trkpt>
      <trkpt lat="46.50842" lon="0.3843">
        <ele>105.6</ele>
        <time>2020-12-20T08:57:34Z</time>
      </trkpt>
      <trkpt lat="46.50843" lon="0.38429">
        <ele>105.6</ele>
        <time>2020-12-20T08:57:35Z</time>
      </trkpt>
      <trkpt lat="46.50846" lon="0.38424">
        <ele>105.6</ele>
        <time>2020-12-20T08:57:37Z</time>
      </trkpt>
      <trkpt lat="46.5085" lon="0.38418">
        <ele>105.8</ele>
        <time>2020-12-20T08:57:40Z</time>
      </trkpt>
      <trkpt lat="46.50859" lon="0.38409">
        <ele>106</ele>
        <time>2020-12-20T08:57:45Z</time>
      </trkpt>
      <trkpt lat="46.5086" lon="0.38407">
        <ele>106</ele>
        <time>2020-12-20T08:57:46Z</time>
      </trkpt>
      <trkpt lat="46.50865" lon="0.384">
        <ele>106</ele>
        <time>2020-12-20T08:57:48Z</time>
      </trkpt>
      <trkpt lat="46.50867" lon="0.38397">
        <ele>106</ele>
        <time>2020-12-20T08:57:49Z</time>
      </trkpt>
      <trkpt lat="46.50878" lon="0.38387">
        <ele>106.2</ele>
        <time>2020-12-20T08:57:54Z</time>
      </trkpt>
      <trkpt lat="46.50884" lon="0.38379">
        <ele>106.2</ele>
        <time>2020-12-20T08:57:58Z</time>
      </trkpt>
      <trkpt lat="46.5089" lon="0.38374">
        <ele>106.2</ele>
        <time>2020-12-20T08:58:01Z</time>
      </trkpt>
      <trkpt lat="46.50897" lon="0.38359">
        <ele>105.6</ele>
        <time>2020-12-20T08:58:05Z</time>
      </trkpt>
      <trkpt lat="46.50912" lon="0.38348">
        <ele>105</ele>
        <time>2020-12-20T08:58:10Z</time>
      </trkpt>
      <trkpt lat="46.50914" lon="0.38346">
        <ele>104.6</ele>
        <time>2020-12-20T08:58:11Z</time>
      </trkpt>
      <trkpt lat="46.50928" lon="0.38329">
        <ele>103.8</ele>
        <time>2020-12-20T08:58:16Z</time>
      </trkpt>
      <trkpt lat="46.50938" lon="0.3832">
        <ele>103.6</ele>
        <time>2020-12-20T08:58:19Z</time>
      </trkpt>
      <trkpt lat="46.50943" lon="0.38314">
        <ele>103.6</ele>
        <time>2020-12-20T08:58:21Z</time>
      </trkpt>
      <trkpt lat="46.50956" lon="0.38296">
        <ele>104.2</ele>
        <time>2020-12-20T08:58:26Z</time>
      </trkpt>
      <trkpt lat="46.50959" lon="0.38291">
        <ele>104.4</ele>
        <time>2020-12-20T08:58:27Z</time>
      </trkpt>
      <trkpt lat="46.50964" lon="0.38278">
        <ele>104.6</ele>
        <time>2020-12-20T08:58:30Z</time>
      </trkpt>
      <trkpt lat="46.50968" lon="0.3827">
        <ele>104.6</ele>
        <time>2020-12-20T08:58:32Z</time>
      </trkpt>
      <trkpt lat="46.50981" lon="0.38247">
        <ele>104.8</ele>
        <time>2020-12-20T08:58:38Z</time>
      </trkpt>
      <trkpt lat="46.50993" lon="0.38229">
        <ele>105</ele>
        <time>2020-12-20T08:58:44Z</time>
      </trkpt>
      <trkpt lat="46.51002" lon="0.38213">
        <ele>105.2</ele>
        <time>2020-12-20T08:58:49Z</time>
      </trkpt>
      <trkpt lat="46.51006" lon="0.38206">
        <ele>105.2</ele>
        <time>2020-12-20T08:58:51Z</time>
      </trkpt>
      <trkpt lat="46.5101" lon="0.38198">
        <ele>105.2</ele>
        <time>2020-12-20T08:58:54Z</time>
      </trkpt>
      <trkpt lat="46.51016" lon="0.38184">
        <ele>104.8</ele>
        <time>2020-12-20T08:58:59Z</time>
      </trkpt>
      <trkpt lat="46.51031" lon="0.38159">
        <ele>105.8</ele>
        <time>2020-12-20T08:59:06Z</time>
      </trkpt>
      <trkpt lat="46.51048" lon="0.38135">
        <ele>106.6</ele>
        <time>2020-12-20T08:59:14Z</time>
      </trkpt>
      <trkpt lat="46.51052" lon="0.38128">
        <ele>106.2</ele>
        <time>2020-12-20T08:59:24Z</time>
      </trkpt>
      <trkpt lat="46.51056" lon="0.38122">
        <ele>106.2</ele>
        <time>2020-12-20T08:59:40Z</time>
      </trkpt>
      <trkpt lat="46.51064" lon="0.38111">
        <ele>106</ele>
        <time>2020-12-20T08:59:46Z</time>
      </trkpt>
      <trkpt lat="46.51065" lon="0.38111">
        <ele>105.8</ele>
        <time>2020-12-20T08:59:47Z</time>
      </trkpt>
      <trkpt lat="46.5107" lon="0.38113">
        <ele>105.2</ele>
        <time>2020-12-20T08:59:50Z</time>
      </trkpt>
      <trkpt lat="46.51073" lon="0.38116">
        <ele>104.6</ele>
        <time>2020-12-20T08:59:53Z</time>
      </trkpt>
      <trkpt lat="46.51075" lon="0.38119">
        <ele>103.8</ele>
        <time>2020-12-20T08:59:56Z</time>
      </trkpt>
      <trkpt lat="46.51076" lon="0.38119">
        <ele>103.4</ele>
        <time>2020-12-20T08:59:57Z</time>
      </trkpt>
      <trkpt lat="46.51076" lon="0.3812">
        <ele>103.4</ele>
        <time>2020-12-20T08:59:58Z</time>
      </trkpt>
      <trkpt lat="46.51077" lon="0.38122">
        <ele>103</ele>
        <time>2020-12-20T09:00:02Z</time>
      </trkpt>
      <trkpt lat="46.51077" lon="0.38123">
        <ele>102.8</ele>
        <time>2020-12-20T09:00:03Z</time>
      </trkpt>
      <trkpt lat="46.51078" lon="0.38124">
        <ele>102.6</ele>
        <time>2020-12-20T09:00:04Z</time>
      </trkpt>
      <trkpt lat="46.51078" lon="0.38126">
        <ele>102.4</ele>
        <time>2020-12-20T09:00:05Z</time>
      </trkpt>
      <trkpt lat="46.51078" lon="0.38127">
        <ele>101.2</ele>
        <time>2020-12-20T09:00:07Z</time>
      </trkpt>
      <trkpt lat="46.5108" lon="0.38128">
        <ele>100.6</ele>
        <time>2020-12-20T09:00:10Z</time>
      </trkpt>
      <trkpt lat="46.51083" lon="0.38128">
        <ele>100</ele>
        <time>2020-12-20T09:00:12Z</time>
      </trkpt>
      <trkpt lat="46.51084" lon="0.38128">
        <ele>98.8</ele>
        <time>2020-12-20T09:00:15Z</time>
      </trkpt>
      <trkpt lat="46.51085" lon="0.38128">
        <ele>98.6</ele>
        <time>2020-12-20T09:00:16Z</time>
      </trkpt>
      <trkpt lat="46.51089" lon="0.38128">
        <ele>97.8</ele>
        <time>2020-12-20T09:00:20Z</time>
      </trkpt>
      <trkpt lat="46.5109" lon="0.38128">
        <ele>97.6</ele>
        <time>2020-12-20T09:00:21Z</time>
      </trkpt>
      <trkpt lat="46.51096" lon="0.38127">
        <ele>96.4</ele>
        <time>2020-12-20T09:00:26Z</time>
      </trkpt>
      <trkpt lat="46.51098" lon="0.38126">
        <ele>95</ele>
        <time>2020-12-20T09:00:28Z</time>
      </trkpt>
      <trkpt lat="46.51101" lon="0.38125">
        <ele>94</ele>
        <time>2020-12-20T09:00:30Z</time>
      </trkpt>
      <trkpt lat="46.51107" lon="0.38124">
        <ele>92.8</ele>
        <time>2020-12-20T09:00:34Z</time>
      </trkpt>
      <trkpt lat="46.51114" lon="0.38121">
        <ele>92.2</ele>
        <time>2020-12-20T09:00:39Z</time>
      </trkpt>
      <trkpt lat="46.51116" lon="0.38121">
        <ele>92.2</ele>
        <time>2020-12-20T09:00:40Z</time>
      </trkpt>
      <trkpt lat="46.5112" lon="0.38116">
        <ele>92.4</ele>
        <time>2020-12-20T09:00:45Z</time>
      </trkpt>
      <trkpt lat="46.51122" lon="0.38115">
        <ele>92.8</ele>
        <time>2020-12-20T09:00:48Z</time>
      </trkpt>
      <trkpt lat="46.51124" lon="0.38115">
        <ele>93</ele>
        <time>2020-12-20T09:00:49Z</time>
      </trkpt>
      <trkpt lat="46.51129" lon="0.38113">
        <ele>93</ele>
        <time>2020-12-20T09:00:55Z</time>
      </trkpt>
      <trkpt lat="46.51134" lon="0.3811">
        <ele>93.4</ele>
        <time>2020-12-20T09:01:01Z</time>
      </trkpt>
      <trkpt lat="46.51143" lon="0.38104">
        <ele>93.8</ele>
        <time>2020-12-20T09:01:10Z</time>
      </trkpt>
      <trkpt lat="46.51145" lon="0.38103">
        <ele>93.8</ele>
        <time>2020-12-20T09:01:13Z</time>
      </trkpt>
      <trkpt lat="46.51147" lon="0.38102">
        <ele>93.6</ele>
        <time>2020-12-20T09:01:15Z</time>
      </trkpt>
      <trkpt lat="46.51151" lon="0.38101">
        <ele>93.4</ele>
        <time>2020-12-20T09:01:21Z</time>
      </trkpt>
      <trkpt lat="46.51154" lon="0.38099">
        <ele>93.4</ele>
        <time>2020-12-20T09:01:24Z</time>
      </trkpt>
      <trkpt lat="46.51156" lon="0.38098">
        <ele>93.4</ele>
        <time>2020-12-20T09:01:26Z</time>
      </trkpt>
      <trkpt lat="46.51167" lon="0.38089">
        <ele>93.6</ele>
        <time>2020-12-20T09:01:38Z</time>
      </trkpt>
      <trkpt lat="46.51172" lon="0.38083">
        <ele>93.6</ele>
        <time>2020-12-20T09:01:52Z</time>
      </trkpt>
      <trkpt lat="46.51175" lon="0.38082">
        <ele>93.8</ele>
        <time>2020-12-20T09:01:57Z</time>
      </trkpt>
      <trkpt lat="46.51179" lon="0.38082">
        <ele>94</ele>
        <time>2020-12-20T09:02:03Z</time>
      </trkpt>
      <trkpt lat="46.5118" lon="0.38081">
        <ele>94</ele>
        <time>2020-12-20T09:02:04Z</time>
      </trkpt>
      <trkpt lat="46.51182" lon="0.38077">
        <ele>94</ele>
        <time>2020-12-20T09:02:08Z</time>
      </trkpt>
      <trkpt lat="46.51186" lon="0.38074">
        <ele>94.2</ele>
        <time>2020-12-20T09:02:13Z</time>
      </trkpt>
      <trkpt lat="46.51187" lon="0.38073">
        <ele>94.2</ele>
        <time>2020-12-20T09:02:15Z</time>
      </trkpt>
      <trkpt lat="46.51189" lon="0.3807">
        <ele>94</ele>
        <time>2020-12-20T09:02:17Z</time>
      </trkpt>
      <trkpt lat="46.51198" lon="0.38063">
        <ele>93.2</ele>
        <time>2020-12-20T09:02:24Z</time>
      </trkpt>
      <trkpt lat="46.51201" lon="0.38059">
        <ele>92.4</ele>
        <time>2020-12-20T09:02:26Z</time>
      </trkpt>
      <trkpt lat="46.51205" lon="0.38056">
        <ele>91.2</ele>
        <time>2020-12-20T09:02:29Z</time>
      </trkpt>
      <trkpt lat="46.51207" lon="0.38053">
        <ele>90</ele>
        <time>2020-12-20T09:02:31Z</time>
      </trkpt>
      <trkpt lat="46.51209" lon="0.38051">
        <ele>88.6</ele>
        <time>2020-12-20T09:02:33Z</time>
      </trkpt>
      <trkpt lat="46.51212" lon="0.3805">
        <ele>87.2</ele>
        <time>2020-12-20T09:02:35Z</time>
      </trkpt>
      <trkpt lat="46.51214" lon="0.38049">
        <ele>86.4</ele>
        <time>2020-12-20T09:02:37Z</time>
      </trkpt>
      <trkpt lat="46.51216" lon="0.38048">
        <ele>86.2</ele>
        <time>2020-12-20T09:02:39Z</time>
      </trkpt>
      <trkpt lat="46.51221" lon="0.38041">
        <ele>85.8</ele>
        <time>2020-12-20T09:02:44Z</time>
      </trkpt>
      <trkpt lat="46.51226" lon="0.38037">
        <ele>84.8</ele>
        <time>2020-12-20T09:02:47Z</time>
      </trkpt>
      <trkpt lat="46.51228" lon="0.38037">
        <ele>84.4</ele>
        <time>2020-12-20T09:02:48Z</time>
      </trkpt>
      <trkpt lat="46.51231" lon="0.38038">
        <ele>83.6</ele>
        <time>2020-12-20T09:02:50Z</time>
      </trkpt>
      <trkpt lat="46.51239" lon="0.38044">
        <ele>82.6</ele>
        <time>2020-12-20T09:02:55Z</time>
      </trkpt>
      <trkpt lat="46.51244" lon="0.38047">
        <ele>82</ele>
        <time>2020-12-20T09:02:58Z</time>
      </trkpt>
      <trkpt lat="46.51247" lon="0.38049">
        <ele>81.8</ele>
        <time>2020-12-20T09:03:02Z</time>
      </trkpt>
      <trkpt lat="46.5125" lon="0.38053">
        <ele>81.4</ele>
        <time>2020-12-20T09:03:07Z</time>
      </trkpt>
      <trkpt lat="46.51255" lon="0.38056">
        <ele>81.4</ele>
        <time>2020-12-20T09:03:12Z</time>
      </trkpt>
      <trkpt lat="46.51258" lon="0.3806">
        <ele>81.4</ele>
        <time>2020-12-20T09:03:24Z</time>
      </trkpt>
      <trkpt lat="46.5126" lon="0.38055">
        <ele>81.6</ele>
        <time>2020-12-20T09:03:41Z</time>
      </trkpt>
      <trkpt lat="46.5126" lon="0.38054">
        <ele>81.6</ele>
        <time>2020-12-20T09:03:58Z</time>
      </trkpt>
      <trkpt lat="46.51261" lon="0.38054">
        <ele>81.4</ele>
        <time>2020-12-20T09:04:13Z</time>
      </trkpt>
      <trkpt lat="46.51261" lon="0.3806">
        <ele>81.4</ele>
        <time>2020-12-20T09:04:31Z</time>
      </trkpt>
      <trkpt lat="46.51262" lon="0.38065">
        <ele>81.4</ele>
        <time>2020-12-20T09:04:50Z</time>
      </trkpt>
      <trkpt lat="46.51265" lon="0.38066">
        <ele>81.4</ele>
        <time>2020-12-20T09:04:55Z</time>
      </trkpt>
      <trkpt lat="46.51269" lon="0.38068">
        <ele>81.2</ele>
        <time>2020-12-20T09:04:59Z</time>
      </trkpt>
      <trkpt lat="46.51281" lon="0.38077">
        <ele>80.8</ele>
        <time>2020-12-20T09:05:07Z</time>
      </trkpt>
      <trkpt lat="46.51295" lon="0.38083">
        <ele>81</ele>
        <time>2020-12-20T09:05:12Z</time>
      </trkpt>
      <trkpt lat="46.51314" lon="0.38089">
        <ele>81</ele>
        <time>2020-12-20T09:05:18Z</time>
      </trkpt>
      <trkpt lat="46.51335" lon="0.38095">
        <ele>80.8</ele>
        <time>2020-12-20T09:05:25Z</time>
      </trkpt>
      <trkpt lat="46.51354" lon="0.38099">
        <ele>81.2</ele>
        <time>2020-12-20T09:05:31Z</time>
      </trkpt>
      <trkpt lat="46.51375" lon="0.38098">
        <ele>81.6</ele>
        <time>2020-12-20T09:05:37Z</time>
      </trkpt>
      <trkpt lat="46.51395" lon="0.38093">
        <ele>81.8</ele>
        <time>2020-12-20T09:05:43Z</time>
      </trkpt>
      <trkpt lat="46.51415" lon="0.38094">
        <ele>82.4</ele>
        <time>2020-12-20T09:05:49Z</time>
      </trkpt>
      <trkpt lat="46.51436" lon="0.381">
        <ele>83</ele>
        <time>2020-12-20T09:05:56Z</time>
      </trkpt>
      <trkpt lat="46.51456" lon="0.38105">
        <ele>83.6</ele>
        <time>2020-12-20T09:06:03Z</time>
      </trkpt>
      <trkpt lat="46.51474" lon="0.38109">
        <ele>84</ele>
        <time>2020-12-20T09:06:09Z</time>
      </trkpt>
      <trkpt lat="46.51496" lon="0.38113">
        <ele>84.2</ele>
        <time>2020-12-20T09:06:16Z</time>
      </trkpt>
      <trkpt lat="46.51503" lon="0.38113">
        <ele>84.6</ele>
        <time>2020-12-20T09:06:18Z</time>
      </trkpt>
      <trkpt lat="46.51511" lon="0.38115">
        <ele>84.8</ele>
        <time>2020-12-20T09:06:21Z</time>
      </trkpt>
      <trkpt lat="46.51535" lon="0.38117">
        <ele>85</ele>
        <time>2020-12-20T09:06:27Z</time>
      </trkpt>
      <trkpt lat="46.51556" lon="0.38117">
        <ele>85.6</ele>
        <time>2020-12-20T09:06:32Z</time>
      </trkpt>
      <trkpt lat="46.51577" lon="0.38114">
        <ele>86.2</ele>
        <time>2020-12-20T09:06:39Z</time>
      </trkpt>
      <trkpt lat="46.5159" lon="0.38112">
        <ele>86.8</ele>
        <time>2020-12-20T09:06:43Z</time>
      </trkpt>
      <trkpt lat="46.51595" lon="0.38113">
        <ele>87</ele>
        <time>2020-12-20T09:06:44Z</time>
      </trkpt>
      <trkpt lat="46.51602" lon="0.38113">
        <ele>87</ele>
        <time>2020-12-20T09:06:46Z</time>
      </trkpt>
      <trkpt lat="46.51611" lon="0.38109">
        <ele>87</ele>
        <time>2020-12-20T09:06:48Z</time>
      </trkpt>
      <trkpt lat="46.51614" lon="0.38107">
        <ele>87</ele>
        <time>2020-12-20T09:06:49Z</time>
      </trkpt>
      <trkpt lat="46.51618" lon="0.38099">
        <ele>87.2</ele>
        <time>2020-12-20T09:06:53Z</time>
      </trkpt>
      <trkpt lat="46.51621" lon="0.38091">
        <ele>87.8</ele>
        <time>2020-12-20T09:06:57Z</time>
      </trkpt>
      <trkpt lat="46.51621" lon="0.38089">
        <ele>87.8</ele>
        <time>2020-12-20T09:06:58Z</time>
      </trkpt>
      <trkpt lat="46.5162" lon="0.38086">
        <ele>88</ele>
        <time>2020-12-20T09:06:59Z</time>
      </trkpt>
      <trkpt lat="46.51619" lon="0.38073">
        <ele>89</ele>
        <time>2020-12-20T09:07:03Z</time>
      </trkpt>
      <trkpt lat="46.51618" lon="0.3807">
        <ele>89</ele>
        <time>2020-12-20T09:07:04Z</time>
      </trkpt>
      <trkpt lat="46.51618" lon="0.38057">
        <ele>90.4</ele>
        <time>2020-12-20T09:07:08Z</time>
      </trkpt>
      <trkpt lat="46.51618" lon="0.38054">
        <ele>90.6</ele>
        <time>2020-12-20T09:07:09Z</time>
      </trkpt>
      <trkpt lat="46.51618" lon="0.38049">
        <ele>91.4</ele>
        <time>2020-12-20T09:07:11Z</time>
      </trkpt>
      <trkpt lat="46.51618" lon="0.38042">
        <ele>92.4</ele>
        <time>2020-12-20T09:07:13Z</time>
      </trkpt>
      <trkpt lat="46.51617" lon="0.38035">
        <ele>92.8</ele>
        <time>2020-12-20T09:07:15Z</time>
      </trkpt>
      <trkpt lat="46.51617" lon="0.38032">
        <ele>93.4</ele>
        <time>2020-12-20T09:07:16Z</time>
      </trkpt>
      <trkpt lat="46.51614" lon="0.38017">
        <ele>94.6</ele>
        <time>2020-12-20T09:07:21Z</time>
      </trkpt>
      <trkpt lat="46.51611" lon="0.38009">
        <ele>95.6</ele>
        <time>2020-12-20T09:07:24Z</time>
      </trkpt>
      <trkpt lat="46.51605" lon="0.37999">
        <ele>97</ele>
        <time>2020-12-20T09:07:28Z</time>
      </trkpt>
      <trkpt lat="46.51598" lon="0.37981">
        <ele>98</ele>
        <time>2020-12-20T09:07:33Z</time>
      </trkpt>
      <trkpt lat="46.51596" lon="0.37978">
        <ele>98.2</ele>
        <time>2020-12-20T09:07:34Z</time>
      </trkpt>
      <trkpt lat="46.51589" lon="0.37961">
        <ele>99</ele>
        <time>2020-12-20T09:07:40Z</time>
      </trkpt>
      <trkpt lat="46.51587" lon="0.37957">
        <ele>99.2</ele>
        <time>2020-12-20T09:07:41Z</time>
      </trkpt>
      <trkpt lat="46.5158" lon="0.37941">
        <ele>100.2</ele>
        <time>2020-12-20T09:07:45Z</time>
      </trkpt>
      <trkpt lat="46.51577" lon="0.37934">
        <ele>100.6</ele>
        <time>2020-12-20T09:07:47Z</time>
      </trkpt>
      <trkpt lat="46.51566" lon="0.3791">
        <ele>100.6</ele>
        <time>2020-12-20T09:07:53Z</time>
      </trkpt>
      <trkpt lat="46.51551" lon="0.37881">
        <ele>101.2</ele>
        <time>2020-12-20T09:08:00Z</time>
      </trkpt>
      <trkpt lat="46.51549" lon="0.37877">
        <ele>101.2</ele>
        <time>2020-12-20T09:08:01Z</time>
      </trkpt>
      <trkpt lat="46.5154" lon="0.37855">
        <ele>101.4</ele>
        <time>2020-12-20T09:08:06Z</time>
      </trkpt>
      <trkpt lat="46.51529" lon="0.3783">
        <ele>101.8</ele>
        <time>2020-12-20T09:08:11Z</time>
      </trkpt>
      <trkpt lat="46.51518" lon="0.37807">
        <ele>102.2</ele>
        <time>2020-12-20T09:08:16Z</time>
      </trkpt>
      <trkpt lat="46.51514" lon="0.37798">
        <ele>102.4</ele>
        <time>2020-12-20T09:08:18Z</time>
      </trkpt>
      <trkpt lat="46.51501" lon="0.37764">
        <ele>103.8</ele>
        <time>2020-12-20T09:08:25Z</time>
      </trkpt>
      <trkpt lat="46.515" lon="0.37759">
        <ele>104.2</ele>
        <time>2020-12-20T09:08:26Z</time>
      </trkpt>
      <trkpt lat="46.51497" lon="0.37748">
        <ele>104.4</ele>
        <time>2020-12-20T09:08:28Z</time>
      </trkpt>
      <trkpt lat="46.51494" lon="0.37735">
        <ele>104.6</ele>
        <time>2020-12-20T09:08:31Z</time>
      </trkpt>
      <trkpt lat="46.51494" lon="0.37731">
        <ele>104.8</ele>
        <time>2020-12-20T09:08:32Z</time>
      </trkpt>
      <trkpt lat="46.51489" lon="0.37713">
        <ele>105.6</ele>
        <time>2020-12-20T09:08:36Z</time>
      </trkpt>
      <trkpt lat="46.51488" lon="0.37707">
        <ele>105.8</ele>
        <time>2020-12-20T09:08:37Z</time>
      </trkpt>
      <trkpt lat="46.51485" lon="0.37687">
        <ele>106.6</ele>
        <time>2020-12-20T09:08:42Z</time>
      </trkpt>
      <trkpt lat="46.51483" lon="0.37679">
        <ele>107.2</ele>
        <time>2020-12-20T09:08:44Z</time>
      </trkpt>
      <trkpt lat="46.51477" lon="0.37663">
        <ele>107.4</ele>
        <time>2020-12-20T09:08:48Z</time>
      </trkpt>
      <trkpt lat="46.51468" lon="0.37642">
        <ele>107.8</ele>
        <time>2020-12-20T09:08:53Z</time>
      </trkpt>
      <trkpt lat="46.51462" lon="0.37629">
        <ele>108.2</ele>
        <time>2020-12-20T09:08:56Z</time>
      </trkpt>
      <trkpt lat="46.51457" lon="0.37618">
        <ele>108.4</ele>
        <time>2020-12-20T09:08:59Z</time>
      </trkpt>
      <trkpt lat="46.51449" lon="0.37604">
        <ele>109.2</ele>
        <time>2020-12-20T09:09:03Z</time>
      </trkpt>
      <trkpt lat="46.51439" lon="0.37585">
        <ele>109.8</ele>
        <time>2020-12-20T09:09:07Z</time>
      </trkpt>
      <trkpt lat="46.51435" lon="0.37575">
        <ele>110.2</ele>
        <time>2020-12-20T09:09:09Z</time>
      </trkpt>
      <trkpt lat="46.51427" lon="0.37552">
        <ele>110.6</ele>
        <time>2020-12-20T09:09:14Z</time>
      </trkpt>
      <trkpt lat="46.51423" lon="0.37534">
        <ele>110.6</ele>
        <time>2020-12-20T09:09:18Z</time>
      </trkpt>
      <trkpt lat="46.51426" lon="0.37516">
        <ele>110.6</ele>
        <time>2020-12-20T09:09:23Z</time>
      </trkpt>
      <trkpt lat="46.5143" lon="0.37493">
        <ele>110.4</ele>
        <time>2020-12-20T09:09:28Z</time>
      </trkpt>
      <trkpt lat="46.51437" lon="0.37477">
        <ele>109.8</ele>
        <time>2020-12-20T09:09:32Z</time>
      </trkpt>
      <trkpt lat="46.51439" lon="0.37473">
        <ele>109.6</ele>
        <time>2020-12-20T09:09:33Z</time>
      </trkpt>
      <trkpt lat="46.51443" lon="0.37467">
        <ele>109.2</ele>
        <time>2020-12-20T09:09:35Z</time>
      </trkpt>
      <trkpt lat="46.51446" lon="0.37465">
        <ele>108.2</ele>
        <time>2020-12-20T09:09:37Z</time>
      </trkpt>
      <trkpt lat="46.51448" lon="0.37465">
        <ele>107.8</ele>
        <time>2020-12-20T09:09:38Z</time>
      </trkpt>
      <trkpt lat="46.51449" lon="0.37463">
        <ele>107.8</ele>
        <time>2020-12-20T09:09:39Z</time>
      </trkpt>
      <trkpt lat="46.51456" lon="0.37457">
        <ele>107.4</ele>
        <time>2020-12-20T09:09:42Z</time>
      </trkpt>
      <trkpt lat="46.51459" lon="0.37455">
        <ele>107.2</ele>
        <time>2020-12-20T09:09:43Z</time>
      </trkpt>
      <trkpt lat="46.51462" lon="0.37453">
        <ele>106.6</ele>
        <time>2020-12-20T09:09:44Z</time>
      </trkpt>
      <trkpt lat="46.51467" lon="0.37452">
        <ele>105</ele>
        <time>2020-12-20T09:09:46Z</time>
      </trkpt>
      <trkpt lat="46.51468" lon="0.37452">
        <ele>104.4</ele>
        <time>2020-12-20T09:09:47Z</time>
      </trkpt>
      <trkpt lat="46.51472" lon="0.37454">
        <ele>104</ele>
        <time>2020-12-20T09:09:49Z</time>
      </trkpt>
      <trkpt lat="46.51475" lon="0.37455">
        <ele>104</ele>
        <time>2020-12-20T09:09:50Z</time>
      </trkpt>
      <trkpt lat="46.51479" lon="0.37458">
        <ele>104.2</ele>
        <time>2020-12-20T09:09:52Z</time>
      </trkpt>
      <trkpt lat="46.51481" lon="0.37459">
        <ele>104.4</ele>
        <time>2020-12-20T09:09:53Z</time>
      </trkpt>
      <trkpt lat="46.51482" lon="0.3746">
        <ele>104.6</ele>
        <time>2020-12-20T09:09:54Z</time>
      </trkpt>
      <trkpt lat="46.51484" lon="0.37462">
        <ele>105</ele>
        <time>2020-12-20T09:09:56Z</time>
      </trkpt>
      <trkpt lat="46.51488" lon="0.37462">
        <ele>105</ele>
        <time>2020-12-20T09:09:58Z</time>
      </trkpt>
      <trkpt lat="46.51493" lon="0.37464">
        <ele>104.8</ele>
        <time>2020-12-20T09:10:02Z</time>
      </trkpt>
      <trkpt lat="46.51494" lon="0.37467">
        <ele>105.2</ele>
        <time>2020-12-20T09:10:04Z</time>
      </trkpt>
      <trkpt lat="46.51496" lon="0.37471">
        <ele>105.6</ele>
        <time>2020-12-20T09:10:06Z</time>
      </trkpt>
      <trkpt lat="46.51505" lon="0.37488">
        <ele>106.4</ele>
        <time>2020-12-20T09:10:12Z</time>
      </trkpt>
      <trkpt lat="46.51509" lon="0.37487">
        <ele>106.2</ele>
        <time>2020-12-20T09:10:15Z</time>
      </trkpt>
      <trkpt lat="46.5151" lon="0.37484">
        <ele>106.2</ele>
        <time>2020-12-20T09:10:17Z</time>
      </trkpt>
      <trkpt lat="46.5151" lon="0.37481">
        <ele>106</ele>
        <time>2020-12-20T09:10:19Z</time>
      </trkpt>
      <trkpt lat="46.51511" lon="0.3748">
        <ele>105.8</ele>
        <time>2020-12-20T09:10:21Z</time>
      </trkpt>
      <trkpt lat="46.51512" lon="0.3748">
        <ele>105.6</ele>
        <time>2020-12-20T09:10:22Z</time>
      </trkpt>
      <trkpt lat="46.51517" lon="0.37479">
        <ele>105.4</ele>
        <time>2020-12-20T09:10:24Z</time>
      </trkpt>
      <trkpt lat="46.51518" lon="0.37477">
        <ele>105.2</ele>
        <time>2020-12-20T09:10:25Z</time>
      </trkpt>
      <trkpt lat="46.51519" lon="0.37474">
        <ele>105.2</ele>
        <time>2020-12-20T09:10:26Z</time>
      </trkpt>
      <trkpt lat="46.51523" lon="0.37472">
        <ele>104.8</ele>
        <time>2020-12-20T09:10:28Z</time>
      </trkpt>
      <trkpt lat="46.51526" lon="0.37474">
        <ele>104.4</ele>
        <time>2020-12-20T09:10:30Z</time>
      </trkpt>
      <trkpt lat="46.5153" lon="0.37475">
        <ele>104.2</ele>
        <time>2020-12-20T09:10:32Z</time>
      </trkpt>
      <trkpt lat="46.51534" lon="0.37475">
        <ele>104.2</ele>
        <time>2020-12-20T09:10:34Z</time>
      </trkpt>
      <trkpt lat="46.51536" lon="0.37474">
        <ele>104</ele>
        <time>2020-12-20T09:10:35Z</time>
      </trkpt>
      <trkpt lat="46.51537" lon="0.37473">
        <ele>104</ele>
        <time>2020-12-20T09:10:36Z</time>
      </trkpt>
      <trkpt lat="46.51537" lon="0.37467">
        <ele>103.6</ele>
        <time>2020-12-20T09:10:39Z</time>
      </trkpt>
      <trkpt lat="46.51536" lon="0.37462">
        <ele>103.4</ele>
        <time>2020-12-20T09:10:41Z</time>
      </trkpt>
      <trkpt lat="46.51537" lon="0.37457">
        <ele>103.2</ele>
        <time>2020-12-20T09:10:43Z</time>
      </trkpt>
      <trkpt lat="46.51539" lon="0.37455">
        <ele>102.8</ele>
        <time>2020-12-20T09:10:44Z</time>
      </trkpt>
      <trkpt lat="46.51539" lon="0.37448">
        <ele>102</ele>
        <time>2020-12-20T09:10:46Z</time>
      </trkpt>
      <trkpt lat="46.51538" lon="0.37446">
        <ele>101.4</ele>
        <time>2020-12-20T09:10:47Z</time>
      </trkpt>
      <trkpt lat="46.51536" lon="0.37443">
        <ele>100.8</ele>
        <time>2020-12-20T09:10:48Z</time>
      </trkpt>
      <trkpt lat="46.51528" lon="0.37433">
        <ele>100.4</ele>
        <time>2020-12-20T09:10:52Z</time>
      </trkpt>
      <trkpt lat="46.51526" lon="0.37427">
        <ele>100.4</ele>
        <time>2020-12-20T09:10:54Z</time>
      </trkpt>
      <trkpt lat="46.51526" lon="0.37417">
        <ele>99.4</ele>
        <time>2020-12-20T09:10:58Z</time>
      </trkpt>
      <trkpt lat="46.51525" lon="0.37414">
        <ele>99</ele>
        <time>2020-12-20T09:10:59Z</time>
      </trkpt>
      <trkpt lat="46.51523" lon="0.37413">
        <ele>98.8</ele>
        <time>2020-12-20T09:11:00Z</time>
      </trkpt>
      <trkpt lat="46.5152" lon="0.37413">
        <ele>98.4</ele>
        <time>2020-12-20T09:11:04Z</time>
      </trkpt>
      <trkpt lat="46.51518" lon="0.37414">
        <ele>99.2</ele>
        <time>2020-12-20T09:11:07Z</time>
      </trkpt>
      <trkpt lat="46.51515" lon="0.3741">
        <ele>99.4</ele>
        <time>2020-12-20T09:11:09Z</time>
      </trkpt>
      <trkpt lat="46.51515" lon="0.37408">
        <ele>99.4</ele>
        <time>2020-12-20T09:11:10Z</time>
      </trkpt>
      <trkpt lat="46.51515" lon="0.37394">
        <ele>99.4</ele>
        <time>2020-12-20T09:11:13Z</time>
      </trkpt>
      <trkpt lat="46.51514" lon="0.37392">
        <ele>98.8</ele>
        <time>2020-12-20T09:11:14Z</time>
      </trkpt>
      <trkpt lat="46.5151" lon="0.37388">
        <ele>98</ele>
        <time>2020-12-20T09:11:16Z</time>
      </trkpt>
      <trkpt lat="46.51509" lon="0.37387">
        <ele>98</ele>
        <time>2020-12-20T09:11:17Z</time>
      </trkpt>
      <trkpt lat="46.51506" lon="0.37386">
        <ele>98.4</ele>
        <time>2020-12-20T09:11:19Z</time>
      </trkpt>
      <trkpt lat="46.51501" lon="0.37387">
        <ele>99</ele>
        <time>2020-12-20T09:11:22Z</time>
      </trkpt>
      <trkpt lat="46.51499" lon="0.37389">
        <ele>99.4</ele>
        <time>2020-12-20T09:11:24Z</time>
      </trkpt>
      <trkpt lat="46.51498" lon="0.37391">
        <ele>100.2</ele>
        <time>2020-12-20T09:11:26Z</time>
      </trkpt>
      <trkpt lat="46.51496" lon="0.37398">
        <ele>101.4</ele>
        <time>2020-12-20T09:11:31Z</time>
      </trkpt>
      <trkpt lat="46.51491" lon="0.37401">
        <ele>102.2</ele>
        <time>2020-12-20T09:11:35Z</time>
      </trkpt>
      <trkpt lat="46.5149" lon="0.37402">
        <ele>102.4</ele>
        <time>2020-12-20T09:11:36Z</time>
      </trkpt>
      <trkpt lat="46.51489" lon="0.37402">
        <ele>102.4</ele>
        <time>2020-12-20T09:11:37Z</time>
      </trkpt>
      <trkpt lat="46.51486" lon="0.37404">
        <ele>104</ele>
        <time>2020-12-20T09:11:38Z</time>
      </trkpt>
      <trkpt lat="46.51482" lon="0.37408">
        <ele>105</ele>
        <time>2020-12-20T09:11:44Z</time>
      </trkpt>
      <trkpt lat="46.51477" lon="0.37407">
        <ele>105.4</ele>
        <time>2020-12-20T09:11:48Z</time>
      </trkpt>
      <trkpt lat="46.51473" lon="0.37407">
        <ele>105.4</ele>
        <time>2020-12-20T09:11:50Z</time>
      </trkpt>
      <trkpt lat="46.51463" lon="0.37402">
        <ele>106</ele>
        <time>2020-12-20T09:11:55Z</time>
      </trkpt>
      <trkpt lat="46.51462" lon="0.374">
        <ele>106</ele>
        <time>2020-12-20T09:11:56Z</time>
      </trkpt>
      <trkpt lat="46.51462" lon="0.37397">
        <ele>106.2</ele>
        <time>2020-12-20T09:11:57Z</time>
      </trkpt>
      <trkpt lat="46.51463" lon="0.37387">
        <ele>106</ele>
        <time>2020-12-20T09:12:00Z</time>
      </trkpt>
      <trkpt lat="46.51467" lon="0.3736">
        <ele>105</ele>
        <time>2020-12-20T09:12:07Z</time>
      </trkpt>
      <trkpt lat="46.51468" lon="0.37337">
        <ele>105</ele>
        <time>2020-12-20T09:12:12Z</time>
      </trkpt>
      <trkpt lat="46.51468" lon="0.37317">
        <ele>104.6</ele>
        <time>2020-12-20T09:12:18Z</time>
      </trkpt>
      <trkpt lat="46.5147" lon="0.373">
        <ele>104.2</ele>
        <time>2020-12-20T09:12:24Z</time>
      </trkpt>
      <trkpt lat="46.5147" lon="0.37298">
        <ele>104</ele>
        <time>2020-12-20T09:12:25Z</time>
      </trkpt>
      <trkpt lat="46.5147" lon="0.37281">
        <ele>103.6</ele>
        <time>2020-12-20T09:12:30Z</time>
      </trkpt>
      <trkpt lat="46.51471" lon="0.3727">
        <ele>103.4</ele>
        <time>2020-12-20T09:12:34Z</time>
      </trkpt>
      <trkpt lat="46.51471" lon="0.37268">
        <ele>103</ele>
        <time>2020-12-20T09:12:35Z</time>
      </trkpt>
      <trkpt lat="46.51471" lon="0.37267">
        <ele>102.8</ele>
        <time>2020-12-20T09:12:36Z</time>
      </trkpt>
      <trkpt lat="46.51472" lon="0.37263">
        <ele>102.8</ele>
        <time>2020-12-20T09:12:38Z</time>
      </trkpt>
      <trkpt lat="46.51473" lon="0.37254">
        <ele>101.6</ele>
        <time>2020-12-20T09:12:41Z</time>
      </trkpt>
      <trkpt lat="46.51474" lon="0.37248">
        <ele>101</ele>
        <time>2020-12-20T09:12:43Z</time>
      </trkpt>
      <trkpt lat="46.51474" lon="0.37245">
        <ele>100.6</ele>
        <time>2020-12-20T09:12:45Z</time>
      </trkpt>
      <trkpt lat="46.51474" lon="0.37244">
        <ele>100.6</ele>
        <time>2020-12-20T09:12:46Z</time>
      </trkpt>
      <trkpt lat="46.51475" lon="0.37241">
        <ele>100.4</ele>
        <time>2020-12-20T09:13:02Z</time>
      </trkpt>
      <trkpt lat="46.51478" lon="0.37235">
        <ele>99.2</ele>
        <time>2020-12-20T09:13:13Z</time>
      </trkpt>
      <trkpt lat="46.51478" lon="0.37234">
        <ele>99</ele>
        <time>2020-12-20T09:13:14Z</time>
      </trkpt>
      <trkpt lat="46.5148" lon="0.3723">
        <ele>98.6</ele>
        <time>2020-12-20T09:13:16Z</time>
      </trkpt>
      <trkpt lat="46.51481" lon="0.37228">
        <ele>98</ele>
        <time>2020-12-20T09:13:17Z</time>
      </trkpt>
      <trkpt lat="46.51484" lon="0.37223">
        <ele>96.4</ele>
        <time>2020-12-20T09:13:19Z</time>
      </trkpt>
      <trkpt lat="46.51487" lon="0.3722">
        <ele>95.2</ele>
        <time>2020-12-20T09:13:21Z</time>
      </trkpt>
      <trkpt lat="46.51488" lon="0.37219">
        <ele>94.8</ele>
        <time>2020-12-20T09:13:22Z</time>
      </trkpt>
      <trkpt lat="46.5149" lon="0.37215">
        <ele>94.2</ele>
        <time>2020-12-20T09:13:24Z</time>
      </trkpt>
      <trkpt lat="46.51495" lon="0.37213">
        <ele>92.8</ele>
        <time>2020-12-20T09:13:27Z</time>
      </trkpt>
      <trkpt lat="46.51497" lon="0.37211">
        <ele>91.6</ele>
        <time>2020-12-20T09:13:29Z</time>
      </trkpt>
      <trkpt lat="46.515" lon="0.37207">
        <ele>90.6</ele>
        <time>2020-12-20T09:13:31Z</time>
      </trkpt>
      <trkpt lat="46.51502" lon="0.37205">
        <ele>89</ele>
        <time>2020-12-20T09:13:33Z</time>
      </trkpt>
      <trkpt lat="46.51508" lon="0.37202">
        <ele>87.4</ele>
        <time>2020-12-20T09:13:35Z</time>
      </trkpt>
      <trkpt lat="46.51513" lon="0.372">
        <ele>86.4</ele>
        <time>2020-12-20T09:13:36Z</time>
      </trkpt>
      <trkpt lat="46.51517" lon="0.37198">
        <ele>85.4</ele>
        <time>2020-12-20T09:13:37Z</time>
      </trkpt>
      <trkpt lat="46.5152" lon="0.37195">
        <ele>84.2</ele>
        <time>2020-12-20T09:13:38Z</time>
      </trkpt>
      <trkpt lat="46.51522" lon="0.37192">
        <ele>83</ele>
        <time>2020-12-20T09:13:39Z</time>
      </trkpt>
      <trkpt lat="46.51524" lon="0.3719">
        <ele>81.8</ele>
        <time>2020-12-20T09:13:40Z</time>
      </trkpt>
      <trkpt lat="46.51527" lon="0.37187">
        <ele>80.2</ele>
        <time>2020-12-20T09:13:42Z</time>
      </trkpt>
      <trkpt lat="46.51528" lon="0.37186">
        <ele>80</ele>
        <time>2020-12-20T09:13:43Z</time>
      </trkpt>
      <trkpt lat="46.51528" lon="0.37183">
        <ele>79.8</ele>
        <time>2020-12-20T09:13:45Z</time>
      </trkpt>
      <trkpt lat="46.51532" lon="0.37177">
        <ele>79.8</ele>
        <time>2020-12-20T09:13:56Z</time>
      </trkpt>
      <trkpt lat="46.5153" lon="0.3716">
        <ele>79.8</ele>
        <time>2020-12-20T09:14:10Z</time>
      </trkpt>
      <trkpt lat="46.5153" lon="0.37158">
        <ele>79.8</ele>
        <time>2020-12-20T09:14:11Z</time>
      </trkpt>
      <trkpt lat="46.51527" lon="0.37145">
        <ele>81</ele>
        <time>2020-12-20T09:14:16Z</time>
      </trkpt>
      <trkpt lat="46.51526" lon="0.37139">
        <ele>81.4</ele>
        <time>2020-12-20T09:14:19Z</time>
      </trkpt>
      <trkpt lat="46.51524" lon="0.37135">
        <ele>82</ele>
        <time>2020-12-20T09:14:22Z</time>
      </trkpt>
      <trkpt lat="46.51523" lon="0.37131">
        <ele>82.4</ele>
        <time>2020-12-20T09:14:25Z</time>
      </trkpt>
      <trkpt lat="46.5152" lon="0.37122">
        <ele>83.4</ele>
        <time>2020-12-20T09:14:30Z</time>
      </trkpt>
      <trkpt lat="46.51516" lon="0.3711">
        <ele>84.6</ele>
        <time>2020-12-20T09:14:36Z</time>
      </trkpt>
      <trkpt lat="46.51515" lon="0.37106">
        <ele>85</ele>
        <time>2020-12-20T09:14:38Z</time>
      </trkpt>
      <trkpt lat="46.51509" lon="0.37094">
        <ele>85.4</ele>
        <time>2020-12-20T09:14:46Z</time>
      </trkpt>
      <trkpt lat="46.51508" lon="0.37093">
        <ele>85.4</ele>
        <time>2020-12-20T09:14:47Z</time>
      </trkpt>
      <trkpt lat="46.51506" lon="0.37092">
        <ele>85.6</ele>
        <time>2020-12-20T09:14:51Z</time>
      </trkpt>
      <trkpt lat="46.51506" lon="0.37093">
        <ele>85.6</ele>
        <time>2020-12-20T09:14:52Z</time>
      </trkpt>
      <trkpt lat="46.51505" lon="0.37093">
        <ele>86.4</ele>
        <time>2020-12-20T09:14:54Z</time>
      </trkpt>
      <trkpt lat="46.51505" lon="0.37093">
        <ele>86.4</ele>
        <time>2020-12-20T09:14:55Z</time>
      </trkpt>
      <trkpt lat="46.51504" lon="0.37094">
        <ele>86.8</ele>
        <time>2020-12-20T09:14:56Z</time>
      </trkpt>
      <trkpt lat="46.515" lon="0.37095">
        <ele>87.6</ele>
        <time>2020-12-20T09:14:59Z</time>
      </trkpt>
      <trkpt lat="46.51497" lon="0.37095">
        <ele>87.8</ele>
        <time>2020-12-20T09:15:00Z</time>
      </trkpt>
      <trkpt lat="46.51491" lon="0.37096">
        <ele>89.2</ele>
        <time>2020-12-20T09:15:03Z</time>
      </trkpt>
      <trkpt lat="46.51483" lon="0.37096">
        <ele>90.4</ele>
        <time>2020-12-20T09:15:08Z</time>
      </trkpt>
      <trkpt lat="46.51479" lon="0.37096">
        <ele>91.2</ele>
        <time>2020-12-20T09:15:11Z</time>
      </trkpt>
      <trkpt lat="46.51477" lon="0.37096">
        <ele>91.6</ele>
        <time>2020-12-20T09:15:12Z</time>
      </trkpt>
      <trkpt lat="46.51474" lon="0.37098">
        <ele>92.8</ele>
        <time>2020-12-20T09:15:15Z</time>
      </trkpt>
      <trkpt lat="46.51472" lon="0.37099">
        <ele>93.4</ele>
        <time>2020-12-20T09:15:17Z</time>
      </trkpt>
      <trkpt lat="46.5147" lon="0.371">
        <ele>93.8</ele>
        <time>2020-12-20T09:15:19Z</time>
      </trkpt>
      <trkpt lat="46.51465" lon="0.37104">
        <ele>95</ele>
        <time>2020-12-20T09:15:23Z</time>
      </trkpt>
      <trkpt lat="46.51461" lon="0.37113">
        <ele>96.2</ele>
        <time>2020-12-20T09:15:27Z</time>
      </trkpt>
      <trkpt lat="46.51461" lon="0.37116">
        <ele>96.6</ele>
        <time>2020-12-20T09:15:29Z</time>
      </trkpt>
      <trkpt lat="46.5146" lon="0.37119">
        <ele>97.2</ele>
        <time>2020-12-20T09:15:31Z</time>
      </trkpt>
      <trkpt lat="46.51459" lon="0.37121">
        <ele>97.2</ele>
        <time>2020-12-20T09:15:32Z</time>
      </trkpt>
      <trkpt lat="46.51459" lon="0.37123">
        <ele>97.6</ele>
        <time>2020-12-20T09:15:33Z</time>
      </trkpt>
      <trkpt lat="46.51457" lon="0.37129">
        <ele>98.6</ele>
        <time>2020-12-20T09:15:37Z</time>
      </trkpt>
      <trkpt lat="46.51456" lon="0.37131">
        <ele>98.8</ele>
        <time>2020-12-20T09:15:38Z</time>
      </trkpt>
      <trkpt lat="46.51454" lon="0.37137">
        <ele>99.6</ele>
        <time>2020-12-20T09:15:41Z</time>
      </trkpt>
      <trkpt lat="46.51451" lon="0.37151">
        <ele>100.8</ele>
        <time>2020-12-20T09:15:49Z</time>
      </trkpt>
      <trkpt lat="46.5145" lon="0.37155">
        <ele>101</ele>
        <time>2020-12-20T09:15:51Z</time>
      </trkpt>
      <trkpt lat="46.51449" lon="0.37168">
        <ele>101.8</ele>
        <time>2020-12-20T09:15:59Z</time>
      </trkpt>
      <trkpt lat="46.51449" lon="0.37172">
        <ele>102</ele>
        <time>2020-12-20T09:16:01Z</time>
      </trkpt>
      <trkpt lat="46.51448" lon="0.37176">
        <ele>102.2</ele>
        <time>2020-12-20T09:16:04Z</time>
      </trkpt>
      <trkpt lat="46.51449" lon="0.37181">
        <ele>101.8</ele>
        <time>2020-12-20T09:16:19Z</time>
      </trkpt>
      <trkpt lat="46.51449" lon="0.3718">
        <ele>102</ele>
        <time>2020-12-20T09:16:35Z</time>
      </trkpt>
      <trkpt lat="46.5145" lon="0.37181">
        <ele>102</ele>
        <time>2020-12-20T09:16:51Z</time>
      </trkpt>
      <trkpt lat="46.51455" lon="0.3718">
        <ele>101.6</ele>
        <time>2020-12-20T09:16:58Z</time>
      </trkpt>
      <trkpt lat="46.51461" lon="0.37176">
        <ele>100.8</ele>
        <time>2020-12-20T09:17:01Z</time>
      </trkpt>
      <trkpt lat="46.51462" lon="0.37175">
        <ele>100.6</ele>
        <time>2020-12-20T09:17:02Z</time>
      </trkpt>
      <trkpt lat="46.51466" lon="0.37173">
        <ele>99.4</ele>
        <time>2020-12-20T09:17:04Z</time>
      </trkpt>
      <trkpt lat="46.51472" lon="0.37166">
        <ele>98.4</ele>
        <time>2020-12-20T09:17:07Z</time>
      </trkpt>
      <trkpt lat="46.51475" lon="0.37163">
        <ele>97</ele>
        <time>2020-12-20T09:17:08Z</time>
      </trkpt>
      <trkpt lat="46.51479" lon="0.37161">
        <ele>96.4</ele>
        <time>2020-12-20T09:17:09Z</time>
      </trkpt>
      <trkpt lat="46.51481" lon="0.37159">
        <ele>95.2</ele>
        <time>2020-12-20T09:17:10Z</time>
      </trkpt>
      <trkpt lat="46.51485" lon="0.37154">
        <ele>93.6</ele>
        <time>2020-12-20T09:17:12Z</time>
      </trkpt>
      <trkpt lat="46.51488" lon="0.37151">
        <ele>92.2</ele>
        <time>2020-12-20T09:17:14Z</time>
      </trkpt>
      <trkpt lat="46.51491" lon="0.37146">
        <ele>90.6</ele>
        <time>2020-12-20T09:17:16Z</time>
      </trkpt>
      <trkpt lat="46.51491" lon="0.37144">
        <ele>90</ele>
        <time>2020-12-20T09:17:17Z</time>
      </trkpt>
      <trkpt lat="46.51493" lon="0.37142">
        <ele>89.4</ele>
        <time>2020-12-20T09:17:18Z</time>
      </trkpt>
      <trkpt lat="46.51498" lon="0.37141">
        <ele>87.8</ele>
        <time>2020-12-20T09:17:21Z</time>
      </trkpt>
      <trkpt lat="46.51501" lon="0.37142">
        <ele>86.4</ele>
        <time>2020-12-20T09:17:23Z</time>
      </trkpt>
      <trkpt lat="46.51505" lon="0.37144">
        <ele>85.4</ele>
        <time>2020-12-20T09:17:25Z</time>
      </trkpt>
      <trkpt lat="46.51512" lon="0.37147">
        <ele>84</ele>
        <time>2020-12-20T09:17:27Z</time>
      </trkpt>
      <trkpt lat="46.51515" lon="0.37149">
        <ele>83.6</ele>
        <time>2020-12-20T09:17:28Z</time>
      </trkpt>
      <trkpt lat="46.51518" lon="0.37151">
        <ele>82.8</ele>
        <time>2020-12-20T09:17:29Z</time>
      </trkpt>
      <trkpt lat="46.5152" lon="0.37153">
        <ele>81.8</ele>
        <time>2020-12-20T09:17:30Z</time>
      </trkpt>
      <trkpt lat="46.51523" lon="0.37159">
        <ele>80.8</ele>
        <time>2020-12-20T09:17:32Z</time>
      </trkpt>
      <trkpt lat="46.51525" lon="0.37166">
        <ele>80.4</ele>
        <time>2020-12-20T09:17:34Z</time>
      </trkpt>
      <trkpt lat="46.51531" lon="0.37179">
        <ele>79.8</ele>
        <time>2020-12-20T09:17:38Z</time>
      </trkpt>
      <trkpt lat="46.51534" lon="0.37186">
        <ele>79.4</ele>
        <time>2020-12-20T09:17:40Z</time>
      </trkpt>
      <trkpt lat="46.51535" lon="0.37191">
        <ele>79.2</ele>
        <time>2020-12-20T09:17:42Z</time>
      </trkpt>
      <trkpt lat="46.51536" lon="0.372">
        <ele>79.2</ele>
        <time>2020-12-20T09:17:45Z</time>
      </trkpt>
      <trkpt lat="46.51539" lon="0.3722">
        <ele>79.2</ele>
        <time>2020-12-20T09:17:51Z</time>
      </trkpt>
      <trkpt lat="46.51544" lon="0.37239">
        <ele>79.6</ele>
        <time>2020-12-20T09:17:57Z</time>
      </trkpt>
      <trkpt lat="46.51549" lon="0.37265">
        <ele>79.4</ele>
        <time>2020-12-20T09:18:02Z</time>
      </trkpt>
      <trkpt lat="46.51556" lon="0.37295">
        <ele>79.2</ele>
        <time>2020-12-20T09:18:09Z</time>
      </trkpt>
      <trkpt lat="46.51563" lon="0.3731">
        <ele>79.4</ele>
        <time>2020-12-20T09:18:14Z</time>
      </trkpt>
      <trkpt lat="46.51574" lon="0.37331">
        <ele>80</ele>
        <time>2020-12-20T09:18:21Z</time>
      </trkpt>
      <trkpt lat="46.51583" lon="0.37346">
        <ele>79.8</ele>
        <time>2020-12-20T09:18:26Z</time>
      </trkpt>
      <trkpt lat="46.51599" lon="0.37365">
        <ele>79.8</ele>
        <time>2020-12-20T09:18:33Z</time>
      </trkpt>
      <trkpt lat="46.51613" lon="0.37382">
        <ele>80.2</ele>
        <time>2020-12-20T09:18:39Z</time>
      </trkpt>
      <trkpt lat="46.51629" lon="0.37399">
        <ele>80</ele>
        <time>2020-12-20T09:18:45Z</time>
      </trkpt>
      <trkpt lat="46.51631" lon="0.37402">
        <ele>80</ele>
        <time>2020-12-20T09:18:46Z</time>
      </trkpt>
      <trkpt lat="46.51646" lon="0.37415">
        <ele>79.8</ele>
        <time>2020-12-20T09:18:50Z</time>
      </trkpt>
      <trkpt lat="46.51663" lon="0.37427">
        <ele>80.2</ele>
        <time>2020-12-20T09:18:55Z</time>
      </trkpt>
      <trkpt lat="46.51671" lon="0.37431">
        <ele>80.4</ele>
        <time>2020-12-20T09:18:57Z</time>
      </trkpt>
      <trkpt lat="46.51688" lon="0.37441">
        <ele>80.4</ele>
        <time>2020-12-20T09:19:01Z</time>
      </trkpt>
      <trkpt lat="46.517" lon="0.37449">
        <ele>80.2</ele>
        <time>2020-12-20T09:19:04Z</time>
      </trkpt>
      <trkpt lat="46.51708" lon="0.37454">
        <ele>80</ele>
        <time>2020-12-20T09:19:06Z</time>
      </trkpt>
      <trkpt lat="46.5172" lon="0.3746">
        <ele>80</ele>
        <time>2020-12-20T09:19:10Z</time>
      </trkpt>
      <trkpt lat="46.51738" lon="0.37467">
        <ele>80.2</ele>
        <time>2020-12-20T09:19:17Z</time>
      </trkpt>
      <trkpt lat="46.51741" lon="0.37471">
        <ele>80.2</ele>
        <time>2020-12-20T09:19:19Z</time>
      </trkpt>
      <trkpt lat="46.51743" lon="0.37475">
        <ele>80.8</ele>
        <time>2020-12-20T09:19:21Z</time>
      </trkpt>
      <trkpt lat="46.51749" lon="0.37486">
        <ele>81.6</ele>
        <time>2020-12-20T09:19:26Z</time>
      </trkpt>
      <trkpt lat="46.5175" lon="0.37488">
        <ele>82</ele>
        <time>2020-12-20T09:19:27Z</time>
      </trkpt>
      <trkpt lat="46.51753" lon="0.37495">
        <ele>83.2</ele>
        <time>2020-12-20T09:19:30Z</time>
      </trkpt>
      <trkpt lat="46.51755" lon="0.37499">
        <ele>84.4</ele>
        <time>2020-12-20T09:19:32Z</time>
      </trkpt>
      <trkpt lat="46.51755" lon="0.37501">
        <ele>84.8</ele>
        <time>2020-12-20T09:19:33Z</time>
      </trkpt>
      <trkpt lat="46.51756" lon="0.37503">
        <ele>85.6</ele>
        <time>2020-12-20T09:19:35Z</time>
      </trkpt>
      <trkpt lat="46.51755" lon="0.3751">
        <ele>86.8</ele>
        <time>2020-12-20T09:19:39Z</time>
      </trkpt>
      <trkpt lat="46.51755" lon="0.37511">
        <ele>87.2</ele>
        <time>2020-12-20T09:19:40Z</time>
      </trkpt>
      <trkpt lat="46.51755" lon="0.37513">
        <ele>87.4</ele>
        <time>2020-12-20T09:19:41Z</time>
      </trkpt>
      <trkpt lat="46.51755" lon="0.37514">
        <ele>87.8</ele>
        <time>2020-12-20T09:19:42Z</time>
      </trkpt>
      <trkpt lat="46.51755" lon="0.37517">
        <ele>88.4</ele>
        <time>2020-12-20T09:19:46Z</time>
      </trkpt>
      <trkpt lat="46.51755" lon="0.37521">
        <ele>89</ele>
        <time>2020-12-20T09:19:52Z</time>
      </trkpt>
      <trkpt lat="46.51755" lon="0.37524">
        <ele>89.8</ele>
        <time>2020-12-20T09:19:56Z</time>
      </trkpt>
      <trkpt lat="46.51756" lon="0.37526">
        <ele>90</ele>
        <time>2020-12-20T09:20:00Z</time>
      </trkpt>
      <trkpt lat="46.51755" lon="0.37536">
        <ele>90.6</ele>
        <time>2020-12-20T09:20:06Z</time>
      </trkpt>
      <trkpt lat="46.51754" lon="0.3754">
        <ele>91.2</ele>
        <time>2020-12-20T09:20:09Z</time>
      </trkpt>
      <trkpt lat="46.51753" lon="0.37546">
        <ele>92.2</ele>
        <time>2020-12-20T09:20:12Z</time>
      </trkpt>
      <trkpt lat="46.51751" lon="0.37552">
        <ele>93</ele>
        <time>2020-12-20T09:20:17Z</time>
      </trkpt>
      <trkpt lat="46.51751" lon="0.37553">
        <ele>93.2</ele>
        <time>2020-12-20T09:20:18Z</time>
      </trkpt>
      <trkpt lat="46.51749" lon="0.37558">
        <ele>93.8</ele>
        <time>2020-12-20T09:20:21Z</time>
      </trkpt>
      <trkpt lat="46.51747" lon="0.37563">
        <ele>94.4</ele>
        <time>2020-12-20T09:20:24Z</time>
      </trkpt>
      <trkpt lat="46.51747" lon="0.37565">
        <ele>94.4</ele>
        <time>2020-12-20T09:20:25Z</time>
      </trkpt>
      <trkpt lat="46.51745" lon="0.37574">
        <ele>95.4</ele>
        <time>2020-12-20T09:20:29Z</time>
      </trkpt>
      <trkpt lat="46.51744" lon="0.37576">
        <ele>95.6</ele>
        <time>2020-12-20T09:20:30Z</time>
      </trkpt>
      <trkpt lat="46.5174" lon="0.37591">
        <ele>96.6</ele>
        <time>2020-12-20T09:20:36Z</time>
      </trkpt>
      <trkpt lat="46.51736" lon="0.37604">
        <ele>97.2</ele>
        <time>2020-12-20T09:20:40Z</time>
      </trkpt>
      <trkpt lat="46.51736" lon="0.37613">
        <ele>97.6</ele>
        <time>2020-12-20T09:20:43Z</time>
      </trkpt>
      <trkpt lat="46.51734" lon="0.37623">
        <ele>98</ele>
        <time>2020-12-20T09:20:46Z</time>
      </trkpt>
      <trkpt lat="46.51728" lon="0.3764">
        <ele>98.8</ele>
        <time>2020-12-20T09:20:50Z</time>
      </trkpt>
      <trkpt lat="46.51726" lon="0.37649">
        <ele>99</ele>
        <time>2020-12-20T09:20:52Z</time>
      </trkpt>
      <trkpt lat="46.51718" lon="0.37671">
        <ele>99.4</ele>
        <time>2020-12-20T09:20:58Z</time>
      </trkpt>
      <trkpt lat="46.51711" lon="0.37697">
        <ele>99.8</ele>
        <time>2020-12-20T09:21:05Z</time>
      </trkpt>
      <trkpt lat="46.51703" lon="0.37724">
        <ele>100</ele>
        <time>2020-12-20T09:21:10Z</time>
      </trkpt>
      <trkpt lat="46.51692" lon="0.37754">
        <ele>100.2</ele>
        <time>2020-12-20T09:21:15Z</time>
      </trkpt>
      <trkpt lat="46.51691" lon="0.37759">
        <ele>100.2</ele>
        <time>2020-12-20T09:21:16Z</time>
      </trkpt>
      <trkpt lat="46.51677" lon="0.37796">
        <ele>99.6</ele>
        <time>2020-12-20T09:21:21Z</time>
      </trkpt>
      <trkpt lat="46.51675" lon="0.37804">
        <ele>99.2</ele>
        <time>2020-12-20T09:21:22Z</time>
      </trkpt>
      <trkpt lat="46.51672" lon="0.37814">
        <ele>98.8</ele>
        <time>2020-12-20T09:21:23Z</time>
      </trkpt>
      <trkpt lat="46.51664" lon="0.37836">
        <ele>97.6</ele>
        <time>2020-12-20T09:21:25Z</time>
      </trkpt>
      <trkpt lat="46.51651" lon="0.3788">
        <ele>96.8</ele>
        <time>2020-12-20T09:21:30Z</time>
      </trkpt>
      <trkpt lat="46.51644" lon="0.37899">
        <ele>97</ele>
        <time>2020-12-20T09:21:33Z</time>
      </trkpt>
      <trkpt lat="46.51641" lon="0.37912">
        <ele>97.2</ele>
        <time>2020-12-20T09:21:35Z</time>
      </trkpt>
      <trkpt lat="46.51637" lon="0.37924">
        <ele>97.4</ele>
        <time>2020-12-20T09:21:37Z</time>
      </trkpt>
      <trkpt lat="46.5163" lon="0.3795">
        <ele>97.6</ele>
        <time>2020-12-20T09:21:42Z</time>
      </trkpt>
      <trkpt lat="46.51627" lon="0.37955">
        <ele>97.6</ele>
        <time>2020-12-20T09:21:43Z</time>
      </trkpt>
      <trkpt lat="46.51619" lon="0.37961">
        <ele>97.2</ele>
        <time>2020-12-20T09:21:46Z</time>
      </trkpt>
      <trkpt lat="46.51618" lon="0.3796">
        <ele>97.2</ele>
        <time>2020-12-20T09:21:47Z</time>
      </trkpt>
      <trkpt lat="46.51608" lon="0.37958">
        <ele>97.4</ele>
        <time>2020-12-20T09:21:52Z</time>
      </trkpt>
      <trkpt lat="46.51597" lon="0.3795">
        <ele>98.4</ele>
        <time>2020-12-20T09:21:57Z</time>
      </trkpt>
      <trkpt lat="46.51594" lon="0.37945">
        <ele>98.8</ele>
        <time>2020-12-20T09:21:59Z</time>
      </trkpt>
      <trkpt lat="46.51586" lon="0.37932">
        <ele>99.8</ele>
        <time>2020-12-20T09:22:03Z</time>
      </trkpt>
      <trkpt lat="46.51582" lon="0.37925">
        <ele>100</ele>
        <time>2020-12-20T09:22:05Z</time>
      </trkpt>
      <trkpt lat="46.51564" lon="0.37903">
        <ele>100.4</ele>
        <time>2020-12-20T09:22:12Z</time>
      </trkpt>
      <trkpt lat="46.51553" lon="0.37894">
        <ele>100.6</ele>
        <time>2020-12-20T09:22:18Z</time>
      </trkpt>
      <trkpt lat="46.51549" lon="0.37896">
        <ele>101</ele>
        <time>2020-12-20T09:22:21Z</time>
      </trkpt>
      <trkpt lat="46.51548" lon="0.37897">
        <ele>101</ele>
        <time>2020-12-20T09:22:22Z</time>
      </trkpt>
      <trkpt lat="46.51539" lon="0.37916">
        <ele>100.4</ele>
        <time>2020-12-20T09:22:29Z</time>
      </trkpt>
      <trkpt lat="46.51531" lon="0.37929">
        <ele>100</ele>
        <time>2020-12-20T09:22:35Z</time>
      </trkpt>
      <trkpt lat="46.5153" lon="0.37931">
        <ele>100</ele>
        <time>2020-12-20T09:22:36Z</time>
      </trkpt>
      <trkpt lat="46.51529" lon="0.37933">
        <ele>100</ele>
        <time>2020-12-20T09:22:37Z</time>
      </trkpt>
      <trkpt lat="46.51529" lon="0.37939">
        <ele>99.8</ele>
        <time>2020-12-20T09:22:40Z</time>
      </trkpt>
      <trkpt lat="46.5153" lon="0.37945">
        <ele>99.8</ele>
        <time>2020-12-20T09:22:43Z</time>
      </trkpt>
      <trkpt lat="46.51532" lon="0.37955">
        <ele>99</ele>
        <time>2020-12-20T09:22:47Z</time>
      </trkpt>
      <trkpt lat="46.51533" lon="0.37963">
        <ele>98.6</ele>
        <time>2020-12-20T09:22:49Z</time>
      </trkpt>
      <trkpt lat="46.51534" lon="0.37968">
        <ele>98.4</ele>
        <time>2020-12-20T09:22:50Z</time>
      </trkpt>
      <trkpt lat="46.51533" lon="0.37976">
        <ele>98.4</ele>
        <time>2020-12-20T09:22:51Z</time>
      </trkpt>
      <trkpt lat="46.51532" lon="0.37983">
        <ele>97.8</ele>
        <time>2020-12-20T09:22:52Z</time>
      </trkpt>
      <trkpt lat="46.51531" lon="0.37991">
        <ele>96.8</ele>
        <time>2020-12-20T09:22:53Z</time>
      </trkpt>
      <trkpt lat="46.51528" lon="0.37999">
        <ele>96.2</ele>
        <time>2020-12-20T09:22:54Z</time>
      </trkpt>
      <trkpt lat="46.51523" lon="0.38012">
        <ele>95</ele>
        <time>2020-12-20T09:22:56Z</time>
      </trkpt>
      <trkpt lat="46.51521" lon="0.38019">
        <ele>93.4</ele>
        <time>2020-12-20T09:22:57Z</time>
      </trkpt>
      <trkpt lat="46.51517" lon="0.38032">
        <ele>91.8</ele>
        <time>2020-12-20T09:22:59Z</time>
      </trkpt>
      <trkpt lat="46.51512" lon="0.38047">
        <ele>90.6</ele>
        <time>2020-12-20T09:23:01Z</time>
      </trkpt>
      <trkpt lat="46.51504" lon="0.38071">
        <ele>87.6</ele>
        <time>2020-12-20T09:23:04Z</time>
      </trkpt>
      <trkpt lat="46.51502" lon="0.38077">
        <ele>86.6</ele>
        <time>2020-12-20T09:23:05Z</time>
      </trkpt>
      <trkpt lat="46.51497" lon="0.38084">
        <ele>84.8</ele>
        <time>2020-12-20T09:23:07Z</time>
      </trkpt>
      <trkpt lat="46.51496" lon="0.38085">
        <ele>84.2</ele>
        <time>2020-12-20T09:23:08Z</time>
      </trkpt>
      <trkpt lat="46.5149" lon="0.38086">
        <ele>83.6</ele>
        <time>2020-12-20T09:23:10Z</time>
      </trkpt>
      <trkpt lat="46.51479" lon="0.38088">
        <ele>83.4</ele>
        <time>2020-12-20T09:23:13Z</time>
      </trkpt>
      <trkpt lat="46.51464" lon="0.38089">
        <ele>83.8</ele>
        <time>2020-12-20T09:23:16Z</time>
      </trkpt>
      <trkpt lat="46.51452" lon="0.38087">
        <ele>84</ele>
        <time>2020-12-20T09:23:18Z</time>
      </trkpt>
      <trkpt lat="46.51439" lon="0.38088">
        <ele>83.4</ele>
        <time>2020-12-20T09:23:20Z</time>
      </trkpt>
      <trkpt lat="46.51421" lon="0.38091">
        <ele>83</ele>
        <time>2020-12-20T09:23:23Z</time>
      </trkpt>
      <trkpt lat="46.51411" lon="0.38093">
        <ele>82.6</ele>
        <time>2020-12-20T09:23:25Z</time>
      </trkpt>
      <trkpt lat="46.514" lon="0.38097">
        <ele>82.2</ele>
        <time>2020-12-20T09:23:27Z</time>
      </trkpt>
      <trkpt lat="46.51382" lon="0.381">
        <ele>81.6</ele>
        <time>2020-12-20T09:23:30Z</time>
      </trkpt>
      <trkpt lat="46.51377" lon="0.38099">
        <ele>81.6</ele>
        <time>2020-12-20T09:23:31Z</time>
      </trkpt>
      <trkpt lat="46.51373" lon="0.38098">
        <ele>81.4</ele>
        <time>2020-12-20T09:23:32Z</time>
      </trkpt>
      <trkpt lat="46.51342" lon="0.3809">
        <ele>81</ele>
        <time>2020-12-20T09:23:38Z</time>
      </trkpt>
      <trkpt lat="46.51323" lon="0.38087">
        <ele>80.4</ele>
        <time>2020-12-20T09:23:42Z</time>
      </trkpt>
      <trkpt lat="46.51308" lon="0.38082">
        <ele>80.8</ele>
        <time>2020-12-20T09:23:45Z</time>
      </trkpt>
      <trkpt lat="46.51299" lon="0.38079">
        <ele>80.8</ele>
        <time>2020-12-20T09:23:47Z</time>
      </trkpt>
      <trkpt lat="46.51288" lon="0.38076">
        <ele>80.6</ele>
        <time>2020-12-20T09:23:50Z</time>
      </trkpt>
      <trkpt lat="46.51269" lon="0.3807">
        <ele>80.8</ele>
        <time>2020-12-20T09:23:55Z</time>
      </trkpt>
      <trkpt lat="46.51265" lon="0.38067">
        <ele>80.8</ele>
        <time>2020-12-20T09:23:56Z</time>
      </trkpt>
      <trkpt lat="46.51247" lon="0.38058">
        <ele>81.2</ele>
        <time>2020-12-20T09:24:01Z</time>
      </trkpt>
      <trkpt lat="46.51244" lon="0.38056">
        <ele>81.6</ele>
        <time>2020-12-20T09:24:02Z</time>
      </trkpt>
      <trkpt lat="46.51229" lon="0.38047">
        <ele>82.6</ele>
        <time>2020-12-20T09:24:06Z</time>
      </trkpt>
      <trkpt lat="46.51227" lon="0.38045">
        <ele>82.8</ele>
        <time>2020-12-20T09:24:07Z</time>
      </trkpt>
      <trkpt lat="46.51218" lon="0.38037">
        <ele>83.8</ele>
        <time>2020-12-20T09:24:11Z</time>
      </trkpt>
      <trkpt lat="46.51213" lon="0.38033">
        <ele>84.2</ele>
        <time>2020-12-20T09:24:13Z</time>
      </trkpt>
      <trkpt lat="46.51204" lon="0.38026">
        <ele>85</ele>
        <time>2020-12-20T09:24:17Z</time>
      </trkpt>
      <trkpt lat="46.51195" lon="0.38019">
        <ele>85.8</ele>
        <time>2020-12-20T09:24:21Z</time>
      </trkpt>
      <trkpt lat="46.51193" lon="0.38017">
        <ele>86.2</ele>
        <time>2020-12-20T09:24:22Z</time>
      </trkpt>
      <trkpt lat="46.51179" lon="0.38007">
        <ele>86.8</ele>
        <time>2020-12-20T09:24:27Z</time>
      </trkpt>
      <trkpt lat="46.51175" lon="0.38005">
        <ele>87.2</ele>
        <time>2020-12-20T09:24:28Z</time>
      </trkpt>
      <trkpt lat="46.51158" lon="0.37998">
        <ele>88.2</ele>
        <time>2020-12-20T09:24:33Z</time>
      </trkpt>
      <trkpt lat="46.51155" lon="0.37997">
        <ele>88.4</ele>
        <time>2020-12-20T09:24:34Z</time>
      </trkpt>
      <trkpt lat="46.51142" lon="0.37991">
        <ele>89.4</ele>
        <time>2020-12-20T09:24:38Z</time>
      </trkpt>
      <trkpt lat="46.51139" lon="0.3799">
        <ele>89.6</ele>
        <time>2020-12-20T09:24:39Z</time>
      </trkpt>
      <trkpt lat="46.51126" lon="0.37987">
        <ele>90.4</ele>
        <time>2020-12-20T09:24:43Z</time>
      </trkpt>
      <trkpt lat="46.51114" lon="0.37987">
        <ele>91.2</ele>
        <time>2020-12-20T09:24:47Z</time>
      </trkpt>
      <trkpt lat="46.51104" lon="0.37985">
        <ele>91.6</ele>
        <time>2020-12-20T09:24:51Z</time>
      </trkpt>
      <trkpt lat="46.51097" lon="0.37985">
        <ele>91.8</ele>
        <time>2020-12-20T09:24:54Z</time>
      </trkpt>
      <trkpt lat="46.51083" lon="0.37983">
        <ele>92.2</ele>
        <time>2020-12-20T09:24:59Z</time>
      </trkpt>
      <trkpt lat="46.51067" lon="0.37983">
        <ele>92.2</ele>
        <time>2020-12-20T09:25:05Z</time>
      </trkpt>
      <trkpt lat="46.51043" lon="0.37982">
        <ele>92.2</ele>
        <time>2020-12-20T09:25:13Z</time>
      </trkpt>
      <trkpt lat="46.51028" lon="0.37984">
        <ele>92.6</ele>
        <time>2020-12-20T09:25:19Z</time>
      </trkpt>
      <trkpt lat="46.51022" lon="0.37986">
        <ele>93.2</ele>
        <time>2020-12-20T09:25:24Z</time>
      </trkpt>
      <trkpt lat="46.51021" lon="0.37986">
        <ele>93.2</ele>
        <time>2020-12-20T09:25:25Z</time>
      </trkpt>
      <trkpt lat="46.51021" lon="0.37986">
        <ele>93.4</ele>
        <time>2020-12-20T09:25:26Z</time>
      </trkpt>
      <trkpt lat="46.5102" lon="0.37983">
        <ele>93.4</ele>
        <time>2020-12-20T09:25:30Z</time>
      </trkpt>
      <trkpt lat="46.51019" lon="0.37973">
        <ele>93.2</ele>
        <time>2020-12-20T09:25:34Z</time>
      </trkpt>
      <trkpt lat="46.51011" lon="0.3797">
        <ele>93.6</ele>
        <time>2020-12-20T09:25:38Z</time>
      </trkpt>
      <trkpt lat="46.51008" lon="0.3797">
        <ele>93.8</ele>
        <time>2020-12-20T09:25:39Z</time>
      </trkpt>
      <trkpt lat="46.51" lon="0.37969">
        <ele>94.4</ele>
        <time>2020-12-20T09:25:43Z</time>
      </trkpt>
      <trkpt lat="46.50997" lon="0.37968">
        <ele>94.4</ele>
        <time>2020-12-20T09:25:45Z</time>
      </trkpt>
      <trkpt lat="46.50991" lon="0.37966">
        <ele>94.4</ele>
        <time>2020-12-20T09:25:51Z</time>
      </trkpt>
      <trkpt lat="46.5099" lon="0.37966">
        <ele>94.4</ele>
        <time>2020-12-20T09:25:52Z</time>
      </trkpt>
      <trkpt lat="46.50978" lon="0.37962">
        <ele>94.6</ele>
        <time>2020-12-20T09:25:58Z</time>
      </trkpt>
      <trkpt lat="46.50974" lon="0.37959">
        <ele>95</ele>
        <time>2020-12-20T09:26:01Z</time>
      </trkpt>
      <trkpt lat="46.50975" lon="0.37956">
        <ele>95.6</ele>
        <time>2020-12-20T09:26:03Z</time>
      </trkpt>
      <trkpt lat="46.50975" lon="0.37955">
        <ele>96</ele>
        <time>2020-12-20T09:26:04Z</time>
      </trkpt>
      <trkpt lat="46.50975" lon="0.37951">
        <ele>96.8</ele>
        <time>2020-12-20T09:26:06Z</time>
      </trkpt>
      <trkpt lat="46.50975" lon="0.37949">
        <ele>97.2</ele>
        <time>2020-12-20T09:26:07Z</time>
      </trkpt>
      <trkpt lat="46.50976" lon="0.37943">
        <ele>98.4</ele>
        <time>2020-12-20T09:26:11Z</time>
      </trkpt>
      <trkpt lat="46.50979" lon="0.37935">
        <ele>99.6</ele>
        <time>2020-12-20T09:26:15Z</time>
      </trkpt>
      <trkpt lat="46.50981" lon="0.37929">
        <ele>100.8</ele>
        <time>2020-12-20T09:26:18Z</time>
      </trkpt>
      <trkpt lat="46.50984" lon="0.37917">
        <ele>102</ele>
        <time>2020-12-20T09:26:24Z</time>
      </trkpt>
      <trkpt lat="46.50987" lon="0.37908">
        <ele>102.4</ele>
        <time>2020-12-20T09:26:28Z</time>
      </trkpt>
      <trkpt lat="46.50989" lon="0.37899">
        <ele>103</ele>
        <time>2020-12-20T09:26:33Z</time>
      </trkpt>
      <trkpt lat="46.50993" lon="0.37886">
        <ele>104</ele>
        <time>2020-12-20T09:26:40Z</time>
      </trkpt>
      <trkpt lat="46.50994" lon="0.37884">
        <ele>104.2</ele>
        <time>2020-12-20T09:26:41Z</time>
      </trkpt>
      <trkpt lat="46.50997" lon="0.37869">
        <ele>105.4</ele>
        <time>2020-12-20T09:26:48Z</time>
      </trkpt>
      <trkpt lat="46.51" lon="0.37859">
        <ele>106.4</ele>
        <time>2020-12-20T09:26:52Z</time>
      </trkpt>
      <trkpt lat="46.51004" lon="0.37847">
        <ele>107.2</ele>
        <time>2020-12-20T09:26:57Z</time>
      </trkpt>
      <trkpt lat="46.51005" lon="0.37842">
        <ele>107.6</ele>
        <time>2020-12-20T09:26:59Z</time>
      </trkpt>
      <trkpt lat="46.51009" lon="0.37833">
        <ele>108.6</ele>
        <time>2020-12-20T09:27:03Z</time>
      </trkpt>
      <trkpt lat="46.5101" lon="0.3783">
        <ele>108.8</ele>
        <time>2020-12-20T09:27:04Z</time>
      </trkpt>
      <trkpt lat="46.51014" lon="0.37815">
        <ele>109.6</ele>
        <time>2020-12-20T09:27:11Z</time>
      </trkpt>
      <trkpt lat="46.51016" lon="0.37809">
        <ele>109.8</ele>
        <time>2020-12-20T09:27:13Z</time>
      </trkpt>
      <trkpt lat="46.51019" lon="0.37798">
        <ele>110.2</ele>
        <time>2020-12-20T09:27:16Z</time>
      </trkpt>
      <trkpt lat="46.51026" lon="0.37781">
        <ele>110.6</ele>
        <time>2020-12-20T09:27:21Z</time>
      </trkpt>
      <trkpt lat="46.51029" lon="0.37773">
        <ele>110.8</ele>
        <time>2020-12-20T09:27:24Z</time>
      </trkpt>
      <trkpt lat="46.51032" lon="0.37766">
        <ele>111.4</ele>
        <time>2020-12-20T09:27:27Z</time>
      </trkpt>
      <trkpt lat="46.51035" lon="0.37752">
        <ele>112</ele>
        <time>2020-12-20T09:27:32Z</time>
      </trkpt>
      <trkpt lat="46.51034" lon="0.3775">
        <ele>112.2</ele>
        <time>2020-12-20T09:27:33Z</time>
      </trkpt>
      <trkpt lat="46.51029" lon="0.37732">
        <ele>112.8</ele>
        <time>2020-12-20T09:27:38Z</time>
      </trkpt>
      <trkpt lat="46.51026" lon="0.3772">
        <ele>113.2</ele>
        <time>2020-12-20T09:27:41Z</time>
      </trkpt>
      <trkpt lat="46.51025" lon="0.37707">
        <ele>113.6</ele>
        <time>2020-12-20T09:27:44Z</time>
      </trkpt>
      <trkpt lat="46.51026" lon="0.37683">
        <ele>114</ele>
        <time>2020-12-20T09:27:50Z</time>
      </trkpt>
      <trkpt lat="46.51029" lon="0.37666">
        <ele>114.4</ele>
        <time>2020-12-20T09:27:54Z</time>
      </trkpt>
      <trkpt lat="46.5103" lon="0.37657">
        <ele>114.6</ele>
        <time>2020-12-20T09:27:56Z</time>
      </trkpt>
      <trkpt lat="46.51036" lon="0.3762">
        <ele>115.2</ele>
        <time>2020-12-20T09:28:03Z</time>
      </trkpt>
      <trkpt lat="46.51037" lon="0.37616">
        <ele>115.4</ele>
        <time>2020-12-20T09:28:04Z</time>
      </trkpt>
      <trkpt lat="46.51039" lon="0.37614">
        <ele>115.6</ele>
        <time>2020-12-20T09:28:05Z</time>
      </trkpt>
      <trkpt lat="46.51041" lon="0.37613">
        <ele>115.8</ele>
        <time>2020-12-20T09:28:06Z</time>
      </trkpt>
      <trkpt lat="46.51049" lon="0.37619">
        <ele>116</ele>
        <time>2020-12-20T09:28:10Z</time>
      </trkpt>
      <trkpt lat="46.51061" lon="0.37623">
        <ele>115.8</ele>
        <time>2020-12-20T09:28:15Z</time>
      </trkpt>
      <trkpt lat="46.51079" lon="0.37631">
        <ele>115.6</ele>
        <time>2020-12-20T09:28:21Z</time>
      </trkpt>
      <trkpt lat="46.51088" lon="0.37635">
        <ele>115.2</ele>
        <time>2020-12-20T09:28:26Z</time>
      </trkpt>
      <trkpt lat="46.51089" lon="0.37637">
        <ele>115.2</ele>
        <time>2020-12-20T09:28:27Z</time>
      </trkpt>
      <trkpt lat="46.51097" lon="0.37644">
        <ele>115</ele>
        <time>2020-12-20T09:28:32Z</time>
      </trkpt>
      <trkpt lat="46.51102" lon="0.37648">
        <ele>115.2</ele>
        <time>2020-12-20T09:28:36Z</time>
      </trkpt>
      <trkpt lat="46.51107" lon="0.3765">
        <ele>115</ele>
        <time>2020-12-20T09:28:39Z</time>
      </trkpt>
      <trkpt lat="46.51121" lon="0.37651">
        <ele>114.8</ele>
        <time>2020-12-20T09:28:47Z</time>
      </trkpt>
      <trkpt lat="46.51124" lon="0.37652">
        <ele>114.8</ele>
        <time>2020-12-20T09:29:03Z</time>
      </trkpt>
      <trkpt lat="46.51136" lon="0.37661">
        <ele>114.6</ele>
        <time>2020-12-20T09:29:10Z</time>
      </trkpt>
      <trkpt lat="46.51143" lon="0.37665">
        <ele>114.8</ele>
        <time>2020-12-20T09:29:12Z</time>
      </trkpt>
      <trkpt lat="46.51152" lon="0.3767">
        <ele>114.4</ele>
        <time>2020-12-20T09:29:15Z</time>
      </trkpt>
      <trkpt lat="46.51157" lon="0.37676">
        <ele>114.2</ele>
        <time>2020-12-20T09:29:17Z</time>
      </trkpt>
      <trkpt lat="46.51163" lon="0.37679">
        <ele>114</ele>
        <time>2020-12-20T09:29:19Z</time>
      </trkpt>
      <trkpt lat="46.51166" lon="0.37681">
        <ele>114</ele>
        <time>2020-12-20T09:29:20Z</time>
      </trkpt>
      <trkpt lat="46.51169" lon="0.37683">
        <ele>113.8</ele>
        <time>2020-12-20T09:29:21Z</time>
      </trkpt>
      <trkpt lat="46.51172" lon="0.37688">
        <ele>113.6</ele>
        <time>2020-12-20T09:29:23Z</time>
      </trkpt>
      <trkpt lat="46.51173" lon="0.37691">
        <ele>113.6</ele>
        <time>2020-12-20T09:29:24Z</time>
      </trkpt>
      <trkpt lat="46.51173" lon="0.37711">
        <ele>113.2</ele>
        <time>2020-12-20T09:29:30Z</time>
      </trkpt>
      <trkpt lat="46.5117" lon="0.37741">
        <ele>112.6</ele>
        <time>2020-12-20T09:29:37Z</time>
      </trkpt>
      <trkpt lat="46.5117" lon="0.37752">
        <ele>112.2</ele>
        <time>2020-12-20T09:29:39Z</time>
      </trkpt>
      <trkpt lat="46.51169" lon="0.37758">
        <ele>112.2</ele>
        <time>2020-12-20T09:29:40Z</time>
      </trkpt>
      <trkpt lat="46.51168" lon="0.37764">
        <ele>112.2</ele>
        <time>2020-12-20T09:29:41Z</time>
      </trkpt>
      <trkpt lat="46.51166" lon="0.37769">
        <ele>111.8</ele>
        <time>2020-12-20T09:29:42Z</time>
      </trkpt>
      <trkpt lat="46.51165" lon="0.37777">
        <ele>111.2</ele>
        <time>2020-12-20T09:29:43Z</time>
      </trkpt>
      <trkpt lat="46.51164" lon="0.37784">
        <ele>110.8</ele>
        <time>2020-12-20T09:29:44Z</time>
      </trkpt>
      <trkpt lat="46.51159" lon="0.37807">
        <ele>109.2</ele>
        <time>2020-12-20T09:29:47Z</time>
      </trkpt>
      <trkpt lat="46.51156" lon="0.37814">
        <ele>108</ele>
        <time>2020-12-20T09:29:48Z</time>
      </trkpt>
      <trkpt lat="46.51154" lon="0.37824">
        <ele>107</ele>
        <time>2020-12-20T09:29:49Z</time>
      </trkpt>
      <trkpt lat="46.51148" lon="0.37843">
        <ele>105</ele>
        <time>2020-12-20T09:29:51Z</time>
      </trkpt>
      <trkpt lat="46.51146" lon="0.37849">
        <ele>103.8</ele>
        <time>2020-12-20T09:29:52Z</time>
      </trkpt>
      <trkpt lat="46.51144" lon="0.37855">
        <ele>102.8</ele>
        <time>2020-12-20T09:29:53Z</time>
      </trkpt>
      <trkpt lat="46.51143" lon="0.3786">
        <ele>101.4</ele>
        <time>2020-12-20T09:29:54Z</time>
      </trkpt>
      <trkpt lat="46.51141" lon="0.37867">
        <ele>100.2</ele>
        <time>2020-12-20T09:29:55Z</time>
      </trkpt>
      <trkpt lat="46.51139" lon="0.37872">
        <ele>99.2</ele>
        <time>2020-12-20T09:29:56Z</time>
      </trkpt>
      <trkpt lat="46.51137" lon="0.37878">
        <ele>98</ele>
        <time>2020-12-20T09:29:57Z</time>
      </trkpt>
      <trkpt lat="46.51136" lon="0.37884">
        <ele>96.4</ele>
        <time>2020-12-20T09:29:58Z</time>
      </trkpt>
      <trkpt lat="46.51133" lon="0.37892">
        <ele>94.6</ele>
        <time>2020-12-20T09:29:59Z</time>
      </trkpt>
      <trkpt lat="46.51131" lon="0.379">
        <ele>93</ele>
        <time>2020-12-20T09:30:00Z</time>
      </trkpt>
      <trkpt lat="46.51128" lon="0.37908">
        <ele>91.8</ele>
        <time>2020-12-20T09:30:01Z</time>
      </trkpt>
      <trkpt lat="46.51125" lon="0.37918">
        <ele>90.8</ele>
        <time>2020-12-20T09:30:02Z</time>
      </trkpt>
      <trkpt lat="46.51123" lon="0.37924">
        <ele>90.4</ele>
        <time>2020-12-20T09:30:03Z</time>
      </trkpt>
      <trkpt lat="46.51119" lon="0.37934">
        <ele>90</ele>
        <time>2020-12-20T09:30:05Z</time>
      </trkpt>
      <trkpt lat="46.51117" lon="0.37937">
        <ele>90</ele>
        <time>2020-12-20T09:30:06Z</time>
      </trkpt>
      <trkpt lat="46.51115" lon="0.37945">
        <ele>90</ele>
        <time>2020-12-20T09:30:08Z</time>
      </trkpt>
      <trkpt lat="46.51112" lon="0.37952">
        <ele>90</ele>
        <time>2020-12-20T09:30:10Z</time>
      </trkpt>
      <trkpt lat="46.51103" lon="0.37972">
        <ele>90.2</ele>
        <time>2020-12-20T09:30:23Z</time>
      </trkpt>
      <trkpt lat="46.51097" lon="0.37974">
        <ele>90</ele>
        <time>2020-12-20T09:30:38Z</time>
      </trkpt>
      <trkpt lat="46.51089" lon="0.37975">
        <ele>90</ele>
        <time>2020-12-20T09:30:45Z</time>
      </trkpt>
      <trkpt lat="46.51089" lon="0.37976">
        <ele>90</ele>
        <time>2020-12-20T09:30:46Z</time>
      </trkpt>
      <trkpt lat="46.51089" lon="0.37978">
        <ele>90</ele>
        <time>2020-12-20T09:30:48Z</time>
      </trkpt>
      <trkpt lat="46.5109" lon="0.37979">
        <ele>90</ele>
        <time>2020-12-20T09:30:51Z</time>
      </trkpt>
      <trkpt lat="46.5109" lon="0.3798">
        <ele>90</ele>
        <time>2020-12-20T09:30:52Z</time>
      </trkpt>
      <trkpt lat="46.51091" lon="0.3798">
        <ele>90.2</ele>
        <time>2020-12-20T09:30:53Z</time>
      </trkpt>
      <trkpt lat="46.51092" lon="0.37982">
        <ele>90.8</ele>
        <time>2020-12-20T09:30:55Z</time>
      </trkpt>
      <trkpt lat="46.51093" lon="0.37982">
        <ele>91.4</ele>
        <time>2020-12-20T09:30:57Z</time>
      </trkpt>
      <trkpt lat="46.51093" lon="0.37986">
        <ele>92.2</ele>
        <time>2020-12-20T09:31:00Z</time>
      </trkpt>
      <trkpt lat="46.51093" lon="0.37988">
        <ele>92.6</ele>
        <time>2020-12-20T09:31:01Z</time>
      </trkpt>
      <trkpt lat="46.51093" lon="0.37997">
        <ele>94</ele>
        <time>2020-12-20T09:31:06Z</time>
      </trkpt>
      <trkpt lat="46.51093" lon="0.38">
        <ele>95</ele>
        <time>2020-12-20T09:31:08Z</time>
      </trkpt>
      <trkpt lat="46.51093" lon="0.38002">
        <ele>95.2</ele>
        <time>2020-12-20T09:31:09Z</time>
      </trkpt>
      <trkpt lat="46.51093" lon="0.3801">
        <ele>96.2</ele>
        <time>2020-12-20T09:31:14Z</time>
      </trkpt>
      <trkpt lat="46.51091" lon="0.38019">
        <ele>97.4</ele>
        <time>2020-12-20T09:31:20Z</time>
      </trkpt>
      <trkpt lat="46.51091" lon="0.38022">
        <ele>98.4</ele>
        <time>2020-12-20T09:31:23Z</time>
      </trkpt>
      <trkpt lat="46.51091" lon="0.38023">
        <ele>98.8</ele>
        <time>2020-12-20T09:31:24Z</time>
      </trkpt>
      <trkpt lat="46.51091" lon="0.38029">
        <ele>99.4</ele>
        <time>2020-12-20T09:31:29Z</time>
      </trkpt>
      <trkpt lat="46.51088" lon="0.38037">
        <ele>99.6</ele>
        <time>2020-12-20T09:31:36Z</time>
      </trkpt>
      <trkpt lat="46.51088" lon="0.38039">
        <ele>99.8</ele>
        <time>2020-12-20T09:31:37Z</time>
      </trkpt>
      <trkpt lat="46.51088" lon="0.38041">
        <ele>100.4</ele>
        <time>2020-12-20T09:31:39Z</time>
      </trkpt>
      <trkpt lat="46.51087" lon="0.38043">
        <ele>100.6</ele>
        <time>2020-12-20T09:31:42Z</time>
      </trkpt>
      <trkpt lat="46.51086" lon="0.38045">
        <ele>101</ele>
        <time>2020-12-20T09:31:44Z</time>
      </trkpt>
      <trkpt lat="46.51085" lon="0.38048">
        <ele>101.2</ele>
        <time>2020-12-20T09:31:46Z</time>
      </trkpt>
      <trkpt lat="46.51083" lon="0.38055">
        <ele>101.6</ele>
        <time>2020-12-20T09:31:50Z</time>
      </trkpt>
      <trkpt lat="46.51082" lon="0.3806">
        <ele>102.2</ele>
        <time>2020-12-20T09:31:51Z</time>
      </trkpt>
      <trkpt lat="46.51076" lon="0.38081">
        <ele>103.2</ele>
        <time>2020-12-20T09:31:59Z</time>
      </trkpt>
      <trkpt lat="46.51075" lon="0.38084">
        <ele>103.2</ele>
        <time>2020-12-20T09:32:00Z</time>
      </trkpt>
      <trkpt lat="46.51071" lon="0.38102">
        <ele>103.6</ele>
        <time>2020-12-20T09:32:06Z</time>
      </trkpt>
      <trkpt lat="46.51071" lon="0.38105">
        <ele>103.6</ele>
        <time>2020-12-20T09:32:07Z</time>
      </trkpt>
      <trkpt lat="46.51064" lon="0.38125">
        <ele>102.4</ele>
        <time>2020-12-20T09:32:14Z</time>
      </trkpt>
      <trkpt lat="46.51061" lon="0.3813">
        <ele>102.2</ele>
        <time>2020-12-20T09:32:16Z</time>
      </trkpt>
      <trkpt lat="46.5106" lon="0.38133">
        <ele>102.2</ele>
        <time>2020-12-20T09:32:17Z</time>
      </trkpt>
      <trkpt lat="46.51057" lon="0.38138">
        <ele>102</ele>
        <time>2020-12-20T09:32:19Z</time>
      </trkpt>
      <trkpt lat="46.51048" lon="0.38154">
        <ele>101.8</ele>
        <time>2020-12-20T09:32:25Z</time>
      </trkpt>
      <trkpt lat="46.51043" lon="0.38161">
        <ele>101.6</ele>
        <time>2020-12-20T09:32:28Z</time>
      </trkpt>
      <trkpt lat="46.51039" lon="0.3817">
        <ele>101.6</ele>
        <time>2020-12-20T09:32:31Z</time>
      </trkpt>
      <trkpt lat="46.51029" lon="0.38182">
        <ele>101.6</ele>
        <time>2020-12-20T09:32:35Z</time>
      </trkpt>
      <trkpt lat="46.51027" lon="0.38185">
        <ele>101.6</ele>
        <time>2020-12-20T09:32:36Z</time>
      </trkpt>
      <trkpt lat="46.51014" lon="0.38202">
        <ele>101.4</ele>
        <time>2020-12-20T09:32:42Z</time>
      </trkpt>
      <trkpt lat="46.51008" lon="0.38214">
        <ele>101</ele>
        <time>2020-12-20T09:32:46Z</time>
      </trkpt>
      <trkpt lat="46.51004" lon="0.38222">
        <ele>100.8</ele>
        <time>2020-12-20T09:32:48Z</time>
      </trkpt>
      <trkpt lat="46.51003" lon="0.38225">
        <ele>100.8</ele>
        <time>2020-12-20T09:32:49Z</time>
      </trkpt>
      <trkpt lat="46.51" lon="0.38238">
        <ele>100.8</ele>
        <time>2020-12-20T09:32:52Z</time>
      </trkpt>
      <trkpt lat="46.50998" lon="0.38248">
        <ele>100.6</ele>
        <time>2020-12-20T09:32:54Z</time>
      </trkpt>
      <trkpt lat="46.50994" lon="0.38258">
        <ele>100.4</ele>
        <time>2020-12-20T09:32:56Z</time>
      </trkpt>
      <trkpt lat="46.50973" lon="0.38288">
        <ele>100</ele>
        <time>2020-12-20T09:33:02Z</time>
      </trkpt>
      <trkpt lat="46.50956" lon="0.38311">
        <ele>101</ele>
        <time>2020-12-20T09:33:08Z</time>
      </trkpt>
      <trkpt lat="46.50952" lon="0.38314">
        <ele>101.2</ele>
        <time>2020-12-20T09:33:09Z</time>
      </trkpt>
      <trkpt lat="46.50944" lon="0.38325">
        <ele>102</ele>
        <time>2020-12-20T09:33:13Z</time>
      </trkpt>
      <trkpt lat="46.50933" lon="0.3834">
        <ele>102</ele>
        <time>2020-12-20T09:33:19Z</time>
      </trkpt>
      <trkpt lat="46.50919" lon="0.38354">
        <ele>102</ele>
        <time>2020-12-20T09:33:26Z</time>
      </trkpt>
      <trkpt lat="46.5091" lon="0.3836">
        <ele>102.4</ele>
        <time>2020-12-20T09:33:31Z</time>
      </trkpt>
      <trkpt lat="46.50903" lon="0.38369">
        <ele>102.4</ele>
        <time>2020-12-20T09:33:36Z</time>
      </trkpt>
      <trkpt lat="46.50885" lon="0.38386">
        <ele>102.6</ele>
        <time>2020-12-20T09:33:45Z</time>
      </trkpt>
      <trkpt lat="46.50881" lon="0.3839">
        <ele>102.6</ele>
        <time>2020-12-20T09:33:48Z</time>
      </trkpt>
      <trkpt lat="46.50877" lon="0.38395">
        <ele>102.4</ele>
        <time>2020-12-20T09:33:51Z</time>
      </trkpt>
      <trkpt lat="46.50871" lon="0.38401">
        <ele>102.2</ele>
        <time>2020-12-20T09:33:54Z</time>
      </trkpt>
      <trkpt lat="46.50869" lon="0.384">
        <ele>102.2</ele>
        <time>2020-12-20T09:33:56Z</time>
      </trkpt>
      <trkpt lat="46.50856" lon="0.38399">
        <ele>103.4</ele>
        <time>2020-12-20T09:34:04Z</time>
      </trkpt>
      <trkpt lat="46.50853" lon="0.38398">
        <ele>103.6</ele>
        <time>2020-12-20T09:34:05Z</time>
      </trkpt>
      <trkpt lat="46.50851" lon="0.38394">
        <ele>103.8</ele>
        <time>2020-12-20T09:34:07Z</time>
      </trkpt>
      <trkpt lat="46.50851" lon="0.38391">
        <ele>103.8</ele>
        <time>2020-12-20T09:34:08Z</time>
      </trkpt>
      <trkpt lat="46.50851" lon="0.38389">
        <ele>104</ele>
        <time>2020-12-20T09:34:09Z</time>
      </trkpt>
      <trkpt lat="46.50855" lon="0.38378">
        <ele>104.8</ele>
        <time>2020-12-20T09:34:12Z</time>
      </trkpt>
      <trkpt lat="46.50855" lon="0.38378">
        <ele>104.8</ele>
        <time>2020-12-20T09:34:13Z</time>
      </trkpt>
      <trkpt lat="46.50862" lon="0.38366">
        <ele>105.6</ele>
        <time>2020-12-20T09:34:19Z</time>
      </trkpt>
      <trkpt lat="46.50867" lon="0.38355">
        <ele>105.8</ele>
        <time>2020-12-20T09:34:23Z</time>
      </trkpt>
      <trkpt lat="46.50873" lon="0.38344">
        <ele>106.2</ele>
        <time>2020-12-20T09:34:27Z</time>
      </trkpt>
      <trkpt lat="46.50882" lon="0.38336">
        <ele>106.6</ele>
        <time>2020-12-20T09:34:31Z</time>
      </trkpt>
      <trkpt lat="46.50897" lon="0.38322">
        <ele>106.2</ele>
        <time>2020-12-20T09:34:36Z</time>
      </trkpt>
      <trkpt lat="46.509" lon="0.38317">
        <ele>106</ele>
        <time>2020-12-20T09:34:37Z</time>
      </trkpt>
      <trkpt lat="46.50904" lon="0.38309">
        <ele>106</ele>
        <time>2020-12-20T09:34:39Z</time>
      </trkpt>
      <trkpt lat="46.50907" lon="0.38297">
        <ele>106.2</ele>
        <time>2020-12-20T09:34:42Z</time>
      </trkpt>
      <trkpt lat="46.50919" lon="0.38264">
        <ele>106.6</ele>
        <time>2020-12-20T09:34:49Z</time>
      </trkpt>
      <trkpt lat="46.50923" lon="0.38254">
        <ele>106.8</ele>
        <time>2020-12-20T09:34:51Z</time>
      </trkpt>
      <trkpt lat="46.5093" lon="0.38236">
        <ele>107</ele>
        <time>2020-12-20T09:34:55Z</time>
      </trkpt>
      <trkpt lat="46.50941" lon="0.38206">
        <ele>106.8</ele>
        <time>2020-12-20T09:35:01Z</time>
      </trkpt>
      <trkpt lat="46.50944" lon="0.38201">
        <ele>106.8</ele>
        <time>2020-12-20T09:35:02Z</time>
      </trkpt>
      <trkpt lat="46.50949" lon="0.38191">
        <ele>106.6</ele>
        <time>2020-12-20T09:35:04Z</time>
      </trkpt>
      <trkpt lat="46.50959" lon="0.38171">
        <ele>106.6</ele>
        <time>2020-12-20T09:35:08Z</time>
      </trkpt>
      <trkpt lat="46.50961" lon="0.38162">
        <ele>106.2</ele>
        <time>2020-12-20T09:35:10Z</time>
      </trkpt>
      <trkpt lat="46.5096" lon="0.38152">
        <ele>105.8</ele>
        <time>2020-12-20T09:35:12Z</time>
      </trkpt>
      <trkpt lat="46.50959" lon="0.38141">
        <ele>105.8</ele>
        <time>2020-12-20T09:35:14Z</time>
      </trkpt>
      <trkpt lat="46.50957" lon="0.38128">
        <ele>105.6</ele>
        <time>2020-12-20T09:35:16Z</time>
      </trkpt>
      <trkpt lat="46.50956" lon="0.38116">
        <ele>105.4</ele>
        <time>2020-12-20T09:35:18Z</time>
      </trkpt>
      <trkpt lat="46.50956" lon="0.38104">
        <ele>105</ele>
        <time>2020-12-20T09:35:20Z</time>
      </trkpt>
      <trkpt lat="46.50956" lon="0.381">
        <ele>104</ele>
        <time>2020-12-20T09:35:21Z</time>
      </trkpt>
      <trkpt lat="46.50955" lon="0.38089">
        <ele>103.8</ele>
        <time>2020-12-20T09:35:23Z</time>
      </trkpt>
      <trkpt lat="46.50952" lon="0.38077">
        <ele>103</ele>
        <time>2020-12-20T09:35:25Z</time>
      </trkpt>
      <trkpt lat="46.50951" lon="0.38072">
        <ele>102.4</ele>
        <time>2020-12-20T09:35:26Z</time>
      </trkpt>
      <trkpt lat="46.50945" lon="0.38059">
        <ele>101</ele>
        <time>2020-12-20T09:35:28Z</time>
      </trkpt>
      <trkpt lat="46.50939" lon="0.38043">
        <ele>100</ele>
        <time>2020-12-20T09:35:30Z</time>
      </trkpt>
      <trkpt lat="46.5093" lon="0.38014">
        <ele>98</ele>
        <time>2020-12-20T09:35:33Z</time>
      </trkpt>
      <trkpt lat="46.50925" lon="0.38003">
        <ele>97.4</ele>
        <time>2020-12-20T09:35:34Z</time>
      </trkpt>
      <trkpt lat="46.50923" lon="0.37995">
        <ele>96.6</ele>
        <time>2020-12-20T09:35:35Z</time>
      </trkpt>
      <trkpt lat="46.50921" lon="0.37989">
        <ele>96</ele>
        <time>2020-12-20T09:35:36Z</time>
      </trkpt>
      <trkpt lat="46.5092" lon="0.37982">
        <ele>95.2</ele>
        <time>2020-12-20T09:35:37Z</time>
      </trkpt>
      <trkpt lat="46.5092" lon="0.37977">
        <ele>94.8</ele>
        <time>2020-12-20T09:35:38Z</time>
      </trkpt>
      <trkpt lat="46.50921" lon="0.37971">
        <ele>94.2</ele>
        <time>2020-12-20T09:35:39Z</time>
      </trkpt>
      <trkpt lat="46.50923" lon="0.37961">
        <ele>93.6</ele>
        <time>2020-12-20T09:35:42Z</time>
      </trkpt>
      <trkpt lat="46.50923" lon="0.37957">
        <ele>93.4</ele>
        <time>2020-12-20T09:35:43Z</time>
      </trkpt>
      <trkpt lat="46.50922" lon="0.37949">
        <ele>93.4</ele>
        <time>2020-12-20T09:35:46Z</time>
      </trkpt>
      <trkpt lat="46.50923" lon="0.37947">
        <ele>93.4</ele>
        <time>2020-12-20T09:35:47Z</time>
      </trkpt>
      <trkpt lat="46.50929" lon="0.37934">
        <ele>94.8</ele>
        <time>2020-12-20T09:35:53Z</time>
      </trkpt>
      <trkpt lat="46.5093" lon="0.37932">
        <ele>95.2</ele>
        <time>2020-12-20T09:35:54Z</time>
      </trkpt>
      <trkpt lat="46.50932" lon="0.37931">
        <ele>95.6</ele>
        <time>2020-12-20T09:35:55Z</time>
      </trkpt>
      <trkpt lat="46.50933" lon="0.37927">
        <ele>96.6</ele>
        <time>2020-12-20T09:35:57Z</time>
      </trkpt>
      <trkpt lat="46.50936" lon="0.37923">
        <ele>97.6</ele>
        <time>2020-12-20T09:35:59Z</time>
      </trkpt>
      <trkpt lat="46.50937" lon="0.37922">
        <ele>97.8</ele>
        <time>2020-12-20T09:36:00Z</time>
      </trkpt>
      <trkpt lat="46.50941" lon="0.37917">
        <ele>99</ele>
        <time>2020-12-20T09:36:03Z</time>
      </trkpt>
      <trkpt lat="46.50947" lon="0.3791">
        <ele>100</ele>
        <time>2020-12-20T09:36:07Z</time>
      </trkpt>
      <trkpt lat="46.50948" lon="0.37908">
        <ele>100</ele>
        <time>2020-12-20T09:36:08Z</time>
      </trkpt>
      <trkpt lat="46.50955" lon="0.379">
        <ele>100.8</ele>
        <time>2020-12-20T09:36:13Z</time>
      </trkpt>
      <trkpt lat="46.50958" lon="0.37895">
        <ele>101.2</ele>
        <time>2020-12-20T09:36:15Z</time>
      </trkpt>
      <trkpt lat="46.50963" lon="0.37885">
        <ele>101.8</ele>
        <time>2020-12-20T09:36:20Z</time>
      </trkpt>
      <trkpt lat="46.50966" lon="0.37881">
        <ele>102.2</ele>
        <time>2020-12-20T09:36:22Z</time>
      </trkpt>
      <trkpt lat="46.5097" lon="0.37871">
        <ele>103.2</ele>
        <time>2020-12-20T09:36:27Z</time>
      </trkpt>
      <trkpt lat="46.50971" lon="0.37869">
        <ele>103.4</ele>
        <time>2020-12-20T09:36:28Z</time>
      </trkpt>
      <trkpt lat="46.50977" lon="0.37859">
        <ele>104.2</ele>
        <time>2020-12-20T09:36:32Z</time>
      </trkpt>
      <trkpt lat="46.50978" lon="0.37857">
        <ele>104.4</ele>
        <time>2020-12-20T09:36:33Z</time>
      </trkpt>
      <trkpt lat="46.50982" lon="0.37843">
        <ele>105.6</ele>
        <time>2020-12-20T09:36:39Z</time>
      </trkpt>
      <trkpt lat="46.50986" lon="0.37832">
        <ele>106.8</ele>
        <time>2020-12-20T09:36:44Z</time>
      </trkpt>
      <trkpt lat="46.50988" lon="0.37825">
        <ele>107.6</ele>
        <time>2020-12-20T09:36:47Z</time>
      </trkpt>
      <trkpt lat="46.5099" lon="0.3782">
        <ele>108</ele>
        <time>2020-12-20T09:36:49Z</time>
      </trkpt>
      <trkpt lat="46.50996" lon="0.37809">
        <ele>108.6</ele>
        <time>2020-12-20T09:36:54Z</time>
      </trkpt>
      <trkpt lat="46.51003" lon="0.37794">
        <ele>109.2</ele>
        <time>2020-12-20T09:37:01Z</time>
      </trkpt>
      <trkpt lat="46.51014" lon="0.37773">
        <ele>110</ele>
        <time>2020-12-20T09:37:09Z</time>
      </trkpt>
      <trkpt lat="46.51018" lon="0.37759">
        <ele>110.4</ele>
        <time>2020-12-20T09:37:14Z</time>
      </trkpt>
      <trkpt lat="46.51019" lon="0.37756">
        <ele>110.4</ele>
        <time>2020-12-20T09:37:15Z</time>
      </trkpt>
      <trkpt lat="46.51023" lon="0.37749">
        <ele>110.8</ele>
        <time>2020-12-20T09:37:18Z</time>
      </trkpt>
      <trkpt lat="46.51028" lon="0.37745">
        <ele>111.2</ele>
        <time>2020-12-20T09:37:21Z</time>
      </trkpt>
      <trkpt lat="46.51029" lon="0.3774">
        <ele>111.2</ele>
        <time>2020-12-20T09:37:23Z</time>
      </trkpt>
      <trkpt lat="46.51028" lon="0.37737">
        <ele>111.2</ele>
        <time>2020-12-20T09:37:25Z</time>
      </trkpt>
      <trkpt lat="46.51027" lon="0.37728">
        <ele>111.6</ele>
        <time>2020-12-20T09:37:28Z</time>
      </trkpt>
      <trkpt lat="46.51026" lon="0.37719">
        <ele>112.2</ele>
        <time>2020-12-20T09:37:31Z</time>
      </trkpt>
      <trkpt lat="46.51026" lon="0.37696">
        <ele>112.6</ele>
        <time>2020-12-20T09:37:36Z</time>
      </trkpt>
      <trkpt lat="46.51033" lon="0.37654">
        <ele>113.4</ele>
        <time>2020-12-20T09:37:43Z</time>
      </trkpt>
      <trkpt lat="46.51036" lon="0.37642">
        <ele>114</ele>
        <time>2020-12-20T09:37:45Z</time>
      </trkpt>
      <trkpt lat="46.51038" lon="0.37621">
        <ele>114.6</ele>
        <time>2020-12-20T09:37:49Z</time>
      </trkpt>
      <trkpt lat="46.51043" lon="0.37602">
        <ele>114.6</ele>
        <time>2020-12-20T09:37:54Z</time>
      </trkpt>
      <trkpt lat="46.51044" lon="0.37586">
        <ele>115</ele>
        <time>2020-12-20T09:38:01Z</time>
      </trkpt>
      <trkpt lat="46.51044" lon="0.37585">
        <ele>115</ele>
        <time>2020-12-20T09:38:02Z</time>
      </trkpt>
      <trkpt lat="46.51043" lon="0.37584">
        <ele>115</ele>
        <time>2020-12-20T09:38:16Z</time>
      </trkpt>
      <trkpt lat="46.51044" lon="0.37581">
        <ele>114.8</ele>
        <time>2020-12-20T09:38:35Z</time>
      </trkpt>
      <trkpt lat="46.51045" lon="0.37579">
        <ele>114.8</ele>
        <time>2020-12-20T09:38:56Z</time>
      </trkpt>
      <trkpt lat="46.51046" lon="0.37576">
        <ele>115</ele>
        <time>2020-12-20T09:39:09Z</time>
      </trkpt>
      <trkpt lat="46.51046" lon="0.37575">
        <ele>115</ele>
        <time>2020-12-20T09:39:24Z</time>
      </trkpt>
      <trkpt lat="46.51047" lon="0.37575">
        <ele>115</ele>
        <time>2020-12-20T09:39:34Z</time>
      </trkpt>
      <trkpt lat="46.51046" lon="0.37571">
        <ele>115</ele>
        <time>2020-12-20T09:39:49Z</time>
      </trkpt>
      <trkpt lat="46.5105" lon="0.37569">
        <ele>115</ele>
        <time>2020-12-20T09:40:03Z</time>
      </trkpt>
      <trkpt lat="46.51054" lon="0.37571">
        <ele>115</ele>
        <time>2020-12-20T09:40:17Z</time>
      </trkpt>
      <trkpt lat="46.51052" lon="0.37572">
        <ele>115</ele>
        <time>2020-12-20T09:40:32Z</time>
      </trkpt>
      <trkpt lat="46.5105" lon="0.37567">
        <ele>115</ele>
        <time>2020-12-20T09:40:43Z</time>
      </trkpt>
      <trkpt lat="46.51047" lon="0.37563">
        <ele>115</ele>
        <time>2020-12-20T09:40:46Z</time>
      </trkpt>
      <trkpt lat="46.51038" lon="0.37549">
        <ele>114.8</ele>
        <time>2020-12-20T09:40:52Z</time>
      </trkpt>
      <trkpt lat="46.51025" lon="0.37527">
        <ele>115.2</ele>
        <time>2020-12-20T09:40:58Z</time>
      </trkpt>
      <trkpt lat="46.51019" lon="0.37516">
        <ele>115.2</ele>
        <time>2020-12-20T09:41:01Z</time>
      </trkpt>
      <trkpt lat="46.51009" lon="0.37501">
        <ele>115</ele>
        <time>2020-12-20T09:41:05Z</time>
      </trkpt>
      <trkpt lat="46.50996" lon="0.37479">
        <ele>115.4</ele>
        <time>2020-12-20T09:41:10Z</time>
      </trkpt>
      <trkpt lat="46.50994" lon="0.37473">
        <ele>115.4</ele>
        <time>2020-12-20T09:41:11Z</time>
      </trkpt>
      <trkpt lat="46.50991" lon="0.37468">
        <ele>115.4</ele>
        <time>2020-12-20T09:41:12Z</time>
      </trkpt>
      <trkpt lat="46.50981" lon="0.37447">
        <ele>116</ele>
        <time>2020-12-20T09:41:16Z</time>
      </trkpt>
      <trkpt lat="46.50978" lon="0.37442">
        <ele>116.2</ele>
        <time>2020-12-20T09:41:17Z</time>
      </trkpt>
      <trkpt lat="46.50975" lon="0.37436">
        <ele>116.4</ele>
        <time>2020-12-20T09:41:18Z</time>
      </trkpt>
      <trkpt lat="46.50963" lon="0.37414">
        <ele>116.6</ele>
        <time>2020-12-20T09:41:22Z</time>
      </trkpt>
      <trkpt lat="46.50958" lon="0.37401">
        <ele>116.4</ele>
        <time>2020-12-20T09:41:24Z</time>
      </trkpt>
      <trkpt lat="46.50946" lon="0.37373">
        <ele>116.2</ele>
        <time>2020-12-20T09:41:30Z</time>
      </trkpt>
      <trkpt lat="46.50935" lon="0.37351">
        <ele>116.2</ele>
        <time>2020-12-20T09:41:36Z</time>
      </trkpt>
      <trkpt lat="46.50922" lon="0.37322">
        <ele>116.2</ele>
        <time>2020-12-20T09:41:42Z</time>
      </trkpt>
      <trkpt lat="46.50911" lon="0.37287">
        <ele>116.6</ele>
        <time>2020-12-20T09:41:49Z</time>
      </trkpt>
      <trkpt lat="46.50909" lon="0.37279">
        <ele>116.6</ele>
        <time>2020-12-20T09:41:51Z</time>
      </trkpt>
      <trkpt lat="46.50905" lon="0.37265">
        <ele>116.8</ele>
        <time>2020-12-20T09:41:54Z</time>
      </trkpt>
      <trkpt lat="46.509" lon="0.37246">
        <ele>117.2</ele>
        <time>2020-12-20T09:41:58Z</time>
      </trkpt>
      <trkpt lat="46.50898" lon="0.37242">
        <ele>117.2</ele>
        <time>2020-12-20T09:41:59Z</time>
      </trkpt>
      <trkpt lat="46.50893" lon="0.37234">
        <ele>117.2</ele>
        <time>2020-12-20T09:42:01Z</time>
      </trkpt>
      <trkpt lat="46.50885" lon="0.37214">
        <ele>117.2</ele>
        <time>2020-12-20T09:42:05Z</time>
      </trkpt>
      <trkpt lat="46.50878" lon="0.37189">
        <ele>117</ele>
        <time>2020-12-20T09:42:11Z</time>
      </trkpt>
      <trkpt lat="46.50872" lon="0.37152">
        <ele>117.4</ele>
        <time>2020-12-20T09:42:18Z</time>
      </trkpt>
      <trkpt lat="46.50866" lon="0.37119">
        <ele>117.4</ele>
        <time>2020-12-20T09:42:23Z</time>
      </trkpt>
      <trkpt lat="46.50864" lon="0.37115">
        <ele>117.4</ele>
        <time>2020-12-20T09:42:24Z</time>
      </trkpt>
      <trkpt lat="46.50858" lon="0.37098">
        <ele>117.4</ele>
        <time>2020-12-20T09:42:27Z</time>
      </trkpt>
      <trkpt lat="46.50852" lon="0.37085">
        <ele>117.4</ele>
        <time>2020-12-20T09:42:30Z</time>
      </trkpt>
      <trkpt lat="46.50851" lon="0.3708">
        <ele>117.4</ele>
        <time>2020-12-20T09:42:31Z</time>
      </trkpt>
      <trkpt lat="46.50848" lon="0.37074">
        <ele>117.4</ele>
        <time>2020-12-20T09:42:32Z</time>
      </trkpt>
      <trkpt lat="46.5084" lon="0.37048">
        <ele>117.2</ele>
        <time>2020-12-20T09:42:37Z</time>
      </trkpt>
      <trkpt lat="46.50837" lon="0.37019">
        <ele>117.4</ele>
        <time>2020-12-20T09:42:42Z</time>
      </trkpt>
      <trkpt lat="46.50833" lon="0.36986">
        <ele>117.4</ele>
        <time>2020-12-20T09:42:48Z</time>
      </trkpt>
      <trkpt lat="46.50833" lon="0.36981">
        <ele>117.4</ele>
        <time>2020-12-20T09:42:49Z</time>
      </trkpt>
      <trkpt lat="46.50831" lon="0.36961">
        <ele>117.4</ele>
        <time>2020-12-20T09:42:52Z</time>
      </trkpt>
      <trkpt lat="46.50829" lon="0.36946">
        <ele>117.8</ele>
        <time>2020-12-20T09:42:54Z</time>
      </trkpt>
      <trkpt lat="46.50823" lon="0.36925">
        <ele>117.8</ele>
        <time>2020-12-20T09:42:57Z</time>
      </trkpt>
      <trkpt lat="46.50819" lon="0.36912">
        <ele>117.8</ele>
        <time>2020-12-20T09:42:59Z</time>
      </trkpt>
      <trkpt lat="46.50805" lon="0.36876">
        <ele>117.4</ele>
        <time>2020-12-20T09:43:04Z</time>
      </trkpt>
      <trkpt lat="46.50795" lon="0.36853">
        <ele>117</ele>
        <time>2020-12-20T09:43:08Z</time>
      </trkpt>
      <trkpt lat="46.50788" lon="0.36843">
        <ele>117</ele>
        <time>2020-12-20T09:43:10Z</time>
      </trkpt>
      <trkpt lat="46.50781" lon="0.36836">
        <ele>116.6</ele>
        <time>2020-12-20T09:43:12Z</time>
      </trkpt>
      <trkpt lat="46.50765" lon="0.36822">
        <ele>116.2</ele>
        <time>2020-12-20T09:43:16Z</time>
      </trkpt>
      <trkpt lat="46.50755" lon="0.36812">
        <ele>116.2</ele>
        <time>2020-12-20T09:43:18Z</time>
      </trkpt>
      <trkpt lat="46.50747" lon="0.36805">
        <ele>116</ele>
        <time>2020-12-20T09:43:20Z</time>
      </trkpt>
      <trkpt lat="46.50739" lon="0.36797">
        <ele>116</ele>
        <time>2020-12-20T09:43:22Z</time>
      </trkpt>
      <trkpt lat="46.50734" lon="0.36793">
        <ele>115.8</ele>
        <time>2020-12-20T09:43:23Z</time>
      </trkpt>
      <trkpt lat="46.50724" lon="0.36782">
        <ele>115.8</ele>
        <time>2020-12-20T09:43:25Z</time>
      </trkpt>
      <trkpt lat="46.50719" lon="0.36777">
        <ele>115.8</ele>
        <time>2020-12-20T09:43:26Z</time>
      </trkpt>
      <trkpt lat="46.50707" lon="0.36766">
        <ele>115.2</ele>
        <time>2020-12-20T09:43:29Z</time>
      </trkpt>
      <trkpt lat="46.50698" lon="0.36762">
        <ele>115</ele>
        <time>2020-12-20T09:43:31Z</time>
      </trkpt>
      <trkpt lat="46.50694" lon="0.36761">
        <ele>114.8</ele>
        <time>2020-12-20T09:43:32Z</time>
      </trkpt>
      <trkpt lat="46.5067" lon="0.36756">
        <ele>114.8</ele>
        <time>2020-12-20T09:43:38Z</time>
      </trkpt>
      <trkpt lat="46.50664" lon="0.36755">
        <ele>114.6</ele>
        <time>2020-12-20T09:43:40Z</time>
      </trkpt>
      <trkpt lat="46.50662" lon="0.36757">
        <ele>114.4</ele>
        <time>2020-12-20T09:43:42Z</time>
      </trkpt>
      <trkpt lat="46.5066" lon="0.36761">
        <ele>114.4</ele>
        <time>2020-12-20T09:43:45Z</time>
      </trkpt>
      <trkpt lat="46.50657" lon="0.36764">
        <ele>114.4</ele>
        <time>2020-12-20T09:43:47Z</time>
      </trkpt>
      <trkpt lat="46.50654" lon="0.36768">
        <ele>114.4</ele>
        <time>2020-12-20T09:43:50Z</time>
      </trkpt>
      <trkpt lat="46.50651" lon="0.36776">
        <ele>114.6</ele>
        <time>2020-12-20T09:43:53Z</time>
      </trkpt>
      <trkpt lat="46.50646" lon="0.36785">
        <ele>115</ele>
        <time>2020-12-20T09:43:57Z</time>
      </trkpt>
      <trkpt lat="46.50645" lon="0.36787">
        <ele>115.2</ele>
        <time>2020-12-20T09:43:58Z</time>
      </trkpt>
      <trkpt lat="46.50641" lon="0.36789">
        <ele>115.4</ele>
        <time>2020-12-20T09:44:02Z</time>
      </trkpt>
      <trkpt lat="46.5064" lon="0.36791">
        <ele>115.2</ele>
        <time>2020-12-20T09:44:14Z</time>
      </trkpt>
      <trkpt lat="46.5064" lon="0.36791">
        <ele>115.2</ele>
        <time>2020-12-20T09:44:16Z</time>
      </trkpt>
      <trkpt lat="46.50639" lon="0.36791">
        <ele>115.2</ele>
        <time>2020-12-20T09:44:34Z</time>
      </trkpt>
      <trkpt lat="46.50639" lon="0.36791">
        <ele>115</ele>
        <time>2020-12-20T09:45:00Z</time>
      </trkpt>
      <trkpt lat="46.50639" lon="0.36791">
        <ele>114.8</ele>
        <time>2020-12-20T09:46:05Z</time>
      </trkpt>
      <trkpt lat="46.5064" lon="0.36793">
        <ele>114.8</ele>
        <time>2020-12-20T09:47:25Z</time>
      </trkpt>
      <trkpt lat="46.5064" lon="0.36794">
        <ele>114.8</ele>
        <time>2020-12-20T09:47:26Z</time>
      </trkpt>
      <trkpt lat="46.50642" lon="0.3679">
        <ele>114.8</ele>
        <time>2020-12-20T09:47:52Z</time>
      </trkpt>
      <trkpt lat="46.50646" lon="0.36784">
        <ele>114.8</ele>
        <time>2020-12-20T09:48:08Z</time>
      </trkpt>
      <trkpt lat="46.50646" lon="0.3678">
        <ele>114.8</ele>
        <time>2020-12-20T09:48:20Z</time>
      </trkpt>
      <trkpt lat="46.50645" lon="0.36776">
        <ele>114.8</ele>
        <time>2020-12-20T09:48:35Z</time>
      </trkpt>
      <trkpt lat="46.50649" lon="0.36779">
        <ele>114.8</ele>
        <time>2020-12-20T09:48:40Z</time>
      </trkpt>
      <trkpt lat="46.50649" lon="0.36781">
        <ele>114.8</ele>
        <time>2020-12-20T09:48:41Z</time>
      </trkpt>
      <trkpt lat="46.50645" lon="0.36796">
        <ele>115</ele>
        <time>2020-12-20T09:48:48Z</time>
      </trkpt>
      <trkpt lat="46.50642" lon="0.36799">
        <ele>115.2</ele>
        <time>2020-12-20T09:48:50Z</time>
      </trkpt>
      <trkpt lat="46.50638" lon="0.36797">
        <ele>115.2</ele>
        <time>2020-12-20T09:48:52Z</time>
      </trkpt>
      <trkpt lat="46.50627" lon="0.36792">
        <ele>115</ele>
        <time>2020-12-20T09:48:58Z</time>
      </trkpt>
      <trkpt lat="46.50611" lon="0.36785">
        <ele>115.2</ele>
        <time>2020-12-20T09:49:04Z</time>
      </trkpt>
      <trkpt lat="46.50597" lon="0.36776">
        <ele>115.2</ele>
        <time>2020-12-20T09:49:09Z</time>
      </trkpt>
      <trkpt lat="46.50594" lon="0.36773">
        <ele>114.8</ele>
        <time>2020-12-20T09:49:11Z</time>
      </trkpt>
      <trkpt lat="46.50592" lon="0.36769">
        <ele>114.4</ele>
        <time>2020-12-20T09:49:13Z</time>
      </trkpt>
      <trkpt lat="46.50588" lon="0.36765">
        <ele>113.8</ele>
        <time>2020-12-20T09:49:15Z</time>
      </trkpt>
      <trkpt lat="46.50579" lon="0.36762">
        <ele>113.6</ele>
        <time>2020-12-20T09:49:18Z</time>
      </trkpt>
      <trkpt lat="46.50575" lon="0.3676">
        <ele>113.6</ele>
        <time>2020-12-20T09:49:19Z</time>
      </trkpt>
      <trkpt lat="46.50564" lon="0.36758">
        <ele>113.4</ele>
        <time>2020-12-20T09:49:22Z</time>
      </trkpt>
      <trkpt lat="46.50557" lon="0.36757">
        <ele>113.4</ele>
        <time>2020-12-20T09:49:24Z</time>
      </trkpt>
      <trkpt lat="46.50544" lon="0.36754">
        <ele>113.2</ele>
        <time>2020-12-20T09:49:28Z</time>
      </trkpt>
      <trkpt lat="46.5054" lon="0.36752">
        <ele>113.2</ele>
        <time>2020-12-20T09:49:29Z</time>
      </trkpt>
      <trkpt lat="46.50535" lon="0.3675">
        <ele>113</ele>
        <time>2020-12-20T09:49:31Z</time>
      </trkpt>
      <trkpt lat="46.50529" lon="0.36752">
        <ele>113</ele>
        <time>2020-12-20T09:49:33Z</time>
      </trkpt>
      <trkpt lat="46.50517" lon="0.36753">
        <ele>112.8</ele>
        <time>2020-12-20T09:49:38Z</time>
      </trkpt>
      <trkpt lat="46.50516" lon="0.36752">
        <ele>112.8</ele>
        <time>2020-12-20T09:49:39Z</time>
      </trkpt>
      <trkpt lat="46.5051" lon="0.36747">
        <ele>112.6</ele>
        <time>2020-12-20T09:49:42Z</time>
      </trkpt>
      <trkpt lat="46.50491" lon="0.36741">
        <ele>112.2</ele>
        <time>2020-12-20T09:49:47Z</time>
      </trkpt>
      <trkpt lat="46.5047" lon="0.3673">
        <ele>112.2</ele>
        <time>2020-12-20T09:49:52Z</time>
      </trkpt>
      <trkpt lat="46.50459" lon="0.36728">
        <ele>112.6</ele>
        <time>2020-12-20T09:49:54Z</time>
      </trkpt>
      <trkpt lat="46.50444" lon="0.36729">
        <ele>113.2</ele>
        <time>2020-12-20T09:49:57Z</time>
      </trkpt>
      <trkpt lat="46.50424" lon="0.36727">
        <ele>113</ele>
        <time>2020-12-20T09:50:01Z</time>
      </trkpt>
      <trkpt lat="46.50419" lon="0.36726">
        <ele>113</ele>
        <time>2020-12-20T09:50:02Z</time>
      </trkpt>
      <trkpt lat="46.50408" lon="0.36719">
        <ele>112.8</ele>
        <time>2020-12-20T09:50:04Z</time>
      </trkpt>
      <trkpt lat="46.50403" lon="0.36716">
        <ele>112.8</ele>
        <time>2020-12-20T09:50:05Z</time>
      </trkpt>
      <trkpt lat="46.50387" lon="0.36707">
        <ele>113</ele>
        <time>2020-12-20T09:50:08Z</time>
      </trkpt>
      <trkpt lat="46.50381" lon="0.36704">
        <ele>113</ele>
        <time>2020-12-20T09:50:10Z</time>
      </trkpt>
      <trkpt lat="46.50373" lon="0.36702">
        <ele>113</ele>
        <time>2020-12-20T09:50:12Z</time>
      </trkpt>
      <trkpt lat="46.50366" lon="0.367">
        <ele>113</ele>
        <time>2020-12-20T09:50:14Z</time>
      </trkpt>
      <trkpt lat="46.50364" lon="0.36699">
        <ele>113.2</ele>
        <time>2020-12-20T09:50:15Z</time>
      </trkpt>
      <trkpt lat="46.50361" lon="0.36693">
        <ele>113</ele>
        <time>2020-12-20T09:50:17Z</time>
      </trkpt>
      <trkpt lat="46.5036" lon="0.3668">
        <ele>113</ele>
        <time>2020-12-20T09:50:20Z</time>
      </trkpt>
      <trkpt lat="46.50357" lon="0.36672">
        <ele>112.8</ele>
        <time>2020-12-20T09:50:22Z</time>
      </trkpt>
      <trkpt lat="46.5035" lon="0.36665">
        <ele>112</ele>
        <time>2020-12-20T09:50:25Z</time>
      </trkpt>
      <trkpt lat="46.5034" lon="0.36661">
        <ele>112.2</ele>
        <time>2020-12-20T09:50:31Z</time>
      </trkpt>
      <trkpt lat="46.5034" lon="0.36661">
        <ele>112.2</ele>
        <time>2020-12-20T09:50:32Z</time>
      </trkpt>
      <trkpt lat="46.50336" lon="0.36663">
        <ele>112.4</ele>
        <time>2020-12-20T09:50:35Z</time>
      </trkpt>
      <trkpt lat="46.50325" lon="0.36664">
        <ele>112.6</ele>
        <time>2020-12-20T09:50:41Z</time>
      </trkpt>
      <trkpt lat="46.50317" lon="0.36662">
        <ele>113</ele>
        <time>2020-12-20T09:50:45Z</time>
      </trkpt>
      <trkpt lat="46.50312" lon="0.36658">
        <ele>113.2</ele>
        <time>2020-12-20T09:50:47Z</time>
      </trkpt>
      <trkpt lat="46.50302" lon="0.36652">
        <ele>113.2</ele>
        <time>2020-12-20T09:50:50Z</time>
      </trkpt>
      <trkpt lat="46.50299" lon="0.36651">
        <ele>113.4</ele>
        <time>2020-12-20T09:50:51Z</time>
      </trkpt>
      <trkpt lat="46.50279" lon="0.36656">
        <ele>113.4</ele>
        <time>2020-12-20T09:50:58Z</time>
      </trkpt>
      <trkpt lat="46.50275" lon="0.36659">
        <ele>113.8</ele>
        <time>2020-12-20T09:51:01Z</time>
      </trkpt>
      <trkpt lat="46.50272" lon="0.36663">
        <ele>114</ele>
        <time>2020-12-20T09:51:03Z</time>
      </trkpt>
      <trkpt lat="46.50268" lon="0.36667">
        <ele>114.2</ele>
        <time>2020-12-20T09:51:06Z</time>
      </trkpt>
      <trkpt lat="46.50263" lon="0.36671">
        <ele>114.4</ele>
        <time>2020-12-20T09:51:08Z</time>
      </trkpt>
      <trkpt lat="46.50262" lon="0.36674">
        <ele>114.4</ele>
        <time>2020-12-20T09:51:09Z</time>
      </trkpt>
      <trkpt lat="46.50259" lon="0.3668">
        <ele>114.4</ele>
        <time>2020-12-20T09:51:12Z</time>
      </trkpt>
      <trkpt lat="46.50255" lon="0.36692">
        <ele>114.6</ele>
        <time>2020-12-20T09:51:16Z</time>
      </trkpt>
      <trkpt lat="46.50245" lon="0.36704">
        <ele>114.8</ele>
        <time>2020-12-20T09:51:20Z</time>
      </trkpt>
      <trkpt lat="46.5024" lon="0.3671">
        <ele>114.8</ele>
        <time>2020-12-20T09:51:22Z</time>
      </trkpt>
      <trkpt lat="46.50238" lon="0.36714">
        <ele>114.8</ele>
        <time>2020-12-20T09:51:23Z</time>
      </trkpt>
      <trkpt lat="46.50235" lon="0.36728">
        <ele>114.8</ele>
        <time>2020-12-20T09:51:26Z</time>
      </trkpt>
      <trkpt lat="46.50232" lon="0.36738">
        <ele>114.8</ele>
        <time>2020-12-20T09:51:28Z</time>
      </trkpt>
      <trkpt lat="46.50232" lon="0.36748">
        <ele>115</ele>
        <time>2020-12-20T09:51:31Z</time>
      </trkpt>
      <trkpt lat="46.50229" lon="0.36752">
        <ele>115.2</ele>
        <time>2020-12-20T09:51:33Z</time>
      </trkpt>
      <trkpt lat="46.50227" lon="0.36763">
        <ele>115.2</ele>
        <time>2020-12-20T09:51:36Z</time>
      </trkpt>
      <trkpt lat="46.50226" lon="0.36774">
        <ele>115.2</ele>
        <time>2020-12-20T09:51:38Z</time>
      </trkpt>
      <trkpt lat="46.50225" lon="0.36789">
        <ele>115.2</ele>
        <time>2020-12-20T09:51:41Z</time>
      </trkpt>
      <trkpt lat="46.50219" lon="0.36805">
        <ele>115.4</ele>
        <time>2020-12-20T09:51:45Z</time>
      </trkpt>
      <trkpt lat="46.50221" lon="0.36817">
        <ele>115.4</ele>
        <time>2020-12-20T09:51:49Z</time>
      </trkpt>
      <trkpt lat="46.5021" lon="0.36829">
        <ele>115.6</ele>
        <time>2020-12-20T09:51:53Z</time>
      </trkpt>
      <trkpt lat="46.50202" lon="0.36834">
        <ele>115.6</ele>
        <time>2020-12-20T09:51:55Z</time>
      </trkpt>
      <trkpt lat="46.50195" lon="0.36839">
        <ele>115.6</ele>
        <time>2020-12-20T09:51:57Z</time>
      </trkpt>
      <trkpt lat="46.50191" lon="0.36842">
        <ele>115.6</ele>
        <time>2020-12-20T09:51:58Z</time>
      </trkpt>
      <trkpt lat="46.50177" lon="0.36853">
        <ele>115.8</ele>
        <time>2020-12-20T09:52:02Z</time>
      </trkpt>
      <trkpt lat="46.50174" lon="0.36855">
        <ele>115.8</ele>
        <time>2020-12-20T09:52:03Z</time>
      </trkpt>
      <trkpt lat="46.50171" lon="0.36861">
        <ele>115.8</ele>
        <time>2020-12-20T09:52:05Z</time>
      </trkpt>
      <trkpt lat="46.50171" lon="0.36866">
        <ele>115.8</ele>
        <time>2020-12-20T09:52:06Z</time>
      </trkpt>
      <trkpt lat="46.50171" lon="0.3687">
        <ele>115.8</ele>
        <time>2020-12-20T09:52:07Z</time>
      </trkpt>
      <trkpt lat="46.50175" lon="0.36882">
        <ele>115.8</ele>
        <time>2020-12-20T09:52:10Z</time>
      </trkpt>
      <trkpt lat="46.50176" lon="0.36887">
        <ele>115.8</ele>
        <time>2020-12-20T09:52:11Z</time>
      </trkpt>
      <trkpt lat="46.50184" lon="0.36916">
        <ele>115.2</ele>
        <time>2020-12-20T09:52:18Z</time>
      </trkpt>
      <trkpt lat="46.50188" lon="0.36931">
        <ele>115</ele>
        <time>2020-12-20T09:52:21Z</time>
      </trkpt>
      <trkpt lat="46.50191" lon="0.3694">
        <ele>115</ele>
        <time>2020-12-20T09:52:23Z</time>
      </trkpt>
      <trkpt lat="46.50192" lon="0.36944">
        <ele>115</ele>
        <time>2020-12-20T09:52:24Z</time>
      </trkpt>
      <trkpt lat="46.50197" lon="0.36958">
        <ele>115</ele>
        <time>2020-12-20T09:52:27Z</time>
      </trkpt>
      <trkpt lat="46.50201" lon="0.36977">
        <ele>115.2</ele>
        <time>2020-12-20T09:52:30Z</time>
      </trkpt>
      <trkpt lat="46.50206" lon="0.37003">
        <ele>114.8</ele>
        <time>2020-12-20T09:52:34Z</time>
      </trkpt>
      <trkpt lat="46.50207" lon="0.37009">
        <ele>114.8</ele>
        <time>2020-12-20T09:52:35Z</time>
      </trkpt>
      <trkpt lat="46.50208" lon="0.37013">
        <ele>114.8</ele>
        <time>2020-12-20T09:52:36Z</time>
      </trkpt>
      <trkpt lat="46.50209" lon="0.3702">
        <ele>114.4</ele>
        <time>2020-12-20T09:52:37Z</time>
      </trkpt>
      <trkpt lat="46.50209" lon="0.37039">
        <ele>114.6</ele>
        <time>2020-12-20T09:52:39Z</time>
      </trkpt>
      <trkpt lat="46.50208" lon="0.37048">
        <ele>114.6</ele>
        <time>2020-12-20T09:52:40Z</time>
      </trkpt>
      <trkpt lat="46.50212" lon="0.37057">
        <ele>114.4</ele>
        <time>2020-12-20T09:52:42Z</time>
      </trkpt>
      <trkpt lat="46.50216" lon="0.37066">
        <ele>114.4</ele>
        <time>2020-12-20T09:52:44Z</time>
      </trkpt>
      <trkpt lat="46.50218" lon="0.37073">
        <ele>114.4</ele>
        <time>2020-12-20T09:52:45Z</time>
      </trkpt>
      <trkpt lat="46.50221" lon="0.37077">
        <ele>114.4</ele>
        <time>2020-12-20T09:52:46Z</time>
      </trkpt>
      <trkpt lat="46.50225" lon="0.37081">
        <ele>114.2</ele>
        <time>2020-12-20T09:52:48Z</time>
      </trkpt>
      <trkpt lat="46.50228" lon="0.3708">
        <ele>114</ele>
        <time>2020-12-20T09:52:49Z</time>
      </trkpt>
      <trkpt lat="46.50232" lon="0.37078">
        <ele>114</ele>
        <time>2020-12-20T09:52:50Z</time>
      </trkpt>
      <trkpt lat="46.5025" lon="0.37065">
        <ele>114.4</ele>
        <time>2020-12-20T09:52:55Z</time>
      </trkpt>
      <trkpt lat="46.5026" lon="0.37059">
        <ele>114.4</ele>
        <time>2020-12-20T09:52:56Z</time>
      </trkpt>
      <trkpt lat="46.50277" lon="0.37048">
        <ele>114.4</ele>
        <time>2020-12-20T09:53:01Z</time>
      </trkpt>
      <trkpt lat="46.5028" lon="0.37045">
        <ele>114.4</ele>
        <time>2020-12-20T09:53:02Z</time>
      </trkpt>
      <trkpt lat="46.5029" lon="0.37029">
        <ele>114.8</ele>
        <time>2020-12-20T09:53:06Z</time>
      </trkpt>
      <trkpt lat="46.50296" lon="0.37031">
        <ele>114.8</ele>
        <time>2020-12-20T09:53:09Z</time>
      </trkpt>
      <trkpt lat="46.50301" lon="0.37037">
        <ele>115</ele>
        <time>2020-12-20T09:53:11Z</time>
      </trkpt>
      <trkpt lat="46.50306" lon="0.37042">
        <ele>115</ele>
        <time>2020-12-20T09:53:13Z</time>
      </trkpt>
      <trkpt lat="46.50321" lon="0.37046">
        <ele>114.8</ele>
        <time>2020-12-20T09:53:17Z</time>
      </trkpt>
      <trkpt lat="46.50326" lon="0.37045">
        <ele>114.8</ele>
        <time>2020-12-20T09:53:18Z</time>
      </trkpt>
      <trkpt lat="46.50331" lon="0.37043">
        <ele>114.6</ele>
        <time>2020-12-20T09:53:19Z</time>
      </trkpt>
      <trkpt lat="46.50349" lon="0.3703">
        <ele>114.8</ele>
        <time>2020-12-20T09:53:23Z</time>
      </trkpt>
      <trkpt lat="46.50353" lon="0.37026">
        <ele>114.8</ele>
        <time>2020-12-20T09:53:24Z</time>
      </trkpt>
      <trkpt lat="46.50363" lon="0.37016">
        <ele>115</ele>
        <time>2020-12-20T09:53:26Z</time>
      </trkpt>
      <trkpt lat="46.50367" lon="0.37011">
        <ele>115</ele>
        <time>2020-12-20T09:53:27Z</time>
      </trkpt>
      <trkpt lat="46.50373" lon="0.36999">
        <ele>115</ele>
        <time>2020-12-20T09:53:29Z</time>
      </trkpt>
      <trkpt lat="46.50382" lon="0.36988">
        <ele>115.2</ele>
        <time>2020-12-20T09:53:31Z</time>
      </trkpt>
      <trkpt lat="46.50388" lon="0.36983">
        <ele>115.2</ele>
        <time>2020-12-20T09:53:32Z</time>
      </trkpt>
      <trkpt lat="46.50411" lon="0.36965">
        <ele>114.8</ele>
        <time>2020-12-20T09:53:36Z</time>
      </trkpt>
      <trkpt lat="46.50416" lon="0.3696">
        <ele>114.6</ele>
        <time>2020-12-20T09:53:37Z</time>
      </trkpt>
      <trkpt lat="46.50426" lon="0.36947">
        <ele>114.6</ele>
        <time>2020-12-20T09:53:40Z</time>
      </trkpt>
      <trkpt lat="46.50433" lon="0.36939">
        <ele>114.2</ele>
        <time>2020-12-20T09:53:44Z</time>
      </trkpt>
      <trkpt lat="46.50445" lon="0.36938">
        <ele>114.2</ele>
        <time>2020-12-20T09:53:50Z</time>
      </trkpt>
      <trkpt lat="46.5046" lon="0.3694">
        <ele>114.2</ele>
        <time>2020-12-20T09:53:57Z</time>
      </trkpt>
      <trkpt lat="46.50475" lon="0.36944">
        <ele>114</ele>
        <time>2020-12-20T09:54:04Z</time>
      </trkpt>
      <trkpt lat="46.50494" lon="0.36946">
        <ele>114.6</ele>
        <time>2020-12-20T09:54:10Z</time>
      </trkpt>
      <trkpt lat="46.5052" lon="0.36947">
        <ele>115.4</ele>
        <time>2020-12-20T09:54:17Z</time>
      </trkpt>
      <trkpt lat="46.50538" lon="0.36951">
        <ele>115.6</ele>
        <time>2020-12-20T09:54:23Z</time>
      </trkpt>
      <trkpt lat="46.5054" lon="0.36951">
        <ele>115.8</ele>
        <time>2020-12-20T09:54:24Z</time>
      </trkpt>
      <trkpt lat="46.50543" lon="0.36952">
        <ele>115.8</ele>
        <time>2020-12-20T09:54:25Z</time>
      </trkpt>
      <trkpt lat="46.50547" lon="0.36954">
        <ele>115.8</ele>
        <time>2020-12-20T09:54:27Z</time>
      </trkpt>
      <trkpt lat="46.50553" lon="0.36954">
        <ele>115.8</ele>
        <time>2020-12-20T09:54:29Z</time>
      </trkpt>
      <trkpt lat="46.50566" lon="0.36953">
        <ele>115.8</ele>
        <time>2020-12-20T09:54:34Z</time>
      </trkpt>
      <trkpt lat="46.50567" lon="0.36953">
        <ele>115.8</ele>
        <time>2020-12-20T09:54:36Z</time>
      </trkpt>
      <trkpt lat="46.5057" lon="0.36954">
        <ele>115.8</ele>
        <time>2020-12-20T09:54:38Z</time>
      </trkpt>
      <trkpt lat="46.50575" lon="0.36956">
        <ele>115.8</ele>
        <time>2020-12-20T09:54:42Z</time>
      </trkpt>
      <trkpt lat="46.50577" lon="0.36957">
        <ele>115.8</ele>
        <time>2020-12-20T09:54:43Z</time>
      </trkpt>
      <trkpt lat="46.50588" lon="0.36965">
        <ele>116</ele>
        <time>2020-12-20T09:54:52Z</time>
      </trkpt>
      <trkpt lat="46.50591" lon="0.36968">
        <ele>115.8</ele>
        <time>2020-12-20T09:54:54Z</time>
      </trkpt>
      <trkpt lat="46.50592" lon="0.36969">
        <ele>115.8</ele>
        <time>2020-12-20T09:54:55Z</time>
      </trkpt>
      <trkpt lat="46.50611" lon="0.36978">
        <ele>116</ele>
        <time>2020-12-20T09:55:03Z</time>
      </trkpt>
      <trkpt lat="46.50633" lon="0.36987">
        <ele>116</ele>
        <time>2020-12-20T09:55:10Z</time>
      </trkpt>
      <trkpt lat="46.50649" lon="0.36999">
        <ele>116</ele>
        <time>2020-12-20T09:55:16Z</time>
      </trkpt>
      <trkpt lat="46.50661" lon="0.37015">
        <ele>116</ele>
        <time>2020-12-20T09:55:22Z</time>
      </trkpt>
      <trkpt lat="46.50671" lon="0.37032">
        <ele>115.8</ele>
        <time>2020-12-20T09:55:28Z</time>
      </trkpt>
      <trkpt lat="46.50679" lon="0.37039">
        <ele>115.6</ele>
        <time>2020-12-20T09:55:31Z</time>
      </trkpt>
      <trkpt lat="46.50685" lon="0.37041">
        <ele>115.6</ele>
        <time>2020-12-20T09:55:33Z</time>
      </trkpt>
      <trkpt lat="46.50707" lon="0.37044">
        <ele>115.6</ele>
        <time>2020-12-20T09:55:40Z</time>
      </trkpt>
      <trkpt lat="46.50725" lon="0.3704">
        <ele>115.6</ele>
        <time>2020-12-20T09:55:45Z</time>
      </trkpt>
      <trkpt lat="46.50743" lon="0.37041">
        <ele>116.2</ele>
        <time>2020-12-20T09:55:51Z</time>
      </trkpt>
      <trkpt lat="46.50747" lon="0.37041">
        <ele>116.2</ele>
        <time>2020-12-20T09:55:52Z</time>
      </trkpt>
      <trkpt lat="46.5075" lon="0.3704">
        <ele>116.4</ele>
        <time>2020-12-20T09:55:53Z</time>
      </trkpt>
      <trkpt lat="46.50772" lon="0.37038">
        <ele>116.4</ele>
        <time>2020-12-20T09:55:59Z</time>
      </trkpt>
      <trkpt lat="46.50794" lon="0.37036">
        <ele>116.2</ele>
        <time>2020-12-20T09:56:05Z</time>
      </trkpt>
      <trkpt lat="46.50815" lon="0.37033">
        <ele>116.2</ele>
        <time>2020-12-20T09:56:11Z</time>
      </trkpt>
      <trkpt lat="46.50831" lon="0.37036">
        <ele>116.2</ele>
        <time>2020-12-20T09:56:16Z</time>
      </trkpt>
      <trkpt lat="46.50852" lon="0.37045">
        <ele>116.2</ele>
        <time>2020-12-20T09:56:21Z</time>
      </trkpt>
      <trkpt lat="46.50861" lon="0.37047">
        <ele>116</ele>
        <time>2020-12-20T09:56:23Z</time>
      </trkpt>
      <trkpt lat="46.50875" lon="0.37046">
        <ele>116</ele>
        <time>2020-12-20T09:56:26Z</time>
      </trkpt>
      <trkpt lat="46.5088" lon="0.37046">
        <ele>116</ele>
        <time>2020-12-20T09:56:27Z</time>
      </trkpt>
      <trkpt lat="46.509" lon="0.37044">
        <ele>116</ele>
        <time>2020-12-20T09:56:31Z</time>
      </trkpt>
      <trkpt lat="46.50906" lon="0.37042">
        <ele>116</ele>
        <time>2020-12-20T09:56:32Z</time>
      </trkpt>
      <trkpt lat="46.50911" lon="0.3704">
        <ele>116</ele>
        <time>2020-12-20T09:56:33Z</time>
      </trkpt>
      <trkpt lat="46.50929" lon="0.37023">
        <ele>116.2</ele>
        <time>2020-12-20T09:56:37Z</time>
      </trkpt>
      <trkpt lat="46.50946" lon="0.37004">
        <ele>116.2</ele>
        <time>2020-12-20T09:56:42Z</time>
      </trkpt>
      <trkpt lat="46.50956" lon="0.36993">
        <ele>116</ele>
        <time>2020-12-20T09:56:45Z</time>
      </trkpt>
      <trkpt lat="46.50962" lon="0.36984">
        <ele>116</ele>
        <time>2020-12-20T09:56:47Z</time>
      </trkpt>
      <trkpt lat="46.50965" lon="0.36979">
        <ele>116</ele>
        <time>2020-12-20T09:56:48Z</time>
      </trkpt>
      <trkpt lat="46.50968" lon="0.36975">
        <ele>116</ele>
        <time>2020-12-20T09:56:49Z</time>
      </trkpt>
      <trkpt lat="46.50974" lon="0.3697">
        <ele>116.2</ele>
        <time>2020-12-20T09:56:51Z</time>
      </trkpt>
      <trkpt lat="46.50977" lon="0.36969">
        <ele>116.2</ele>
        <time>2020-12-20T09:56:52Z</time>
      </trkpt>
      <trkpt lat="46.5098" lon="0.36969">
        <ele>116.4</ele>
        <time>2020-12-20T09:56:53Z</time>
      </trkpt>
      <trkpt lat="46.50984" lon="0.36973">
        <ele>116.2</ele>
        <time>2020-12-20T09:56:55Z</time>
      </trkpt>
      <trkpt lat="46.50986" lon="0.36975">
        <ele>116.2</ele>
        <time>2020-12-20T09:56:56Z</time>
      </trkpt>
      <trkpt lat="46.50988" lon="0.36977">
        <ele>116.2</ele>
        <time>2020-12-20T09:56:57Z</time>
      </trkpt>
      <trkpt lat="46.50995" lon="0.36978">
        <ele>116.2</ele>
        <time>2020-12-20T09:57:00Z</time>
      </trkpt>
      <trkpt lat="46.51001" lon="0.36975">
        <ele>116.2</ele>
        <time>2020-12-20T09:57:02Z</time>
      </trkpt>
      <trkpt lat="46.51009" lon="0.36971">
        <ele>116.2</ele>
        <time>2020-12-20T09:57:04Z</time>
      </trkpt>
      <trkpt lat="46.51018" lon="0.36966">
        <ele>116</ele>
        <time>2020-12-20T09:57:06Z</time>
      </trkpt>
      <trkpt lat="46.51027" lon="0.3696">
        <ele>115.6</ele>
        <time>2020-12-20T09:57:08Z</time>
      </trkpt>
      <trkpt lat="46.51032" lon="0.36958">
        <ele>115.6</ele>
        <time>2020-12-20T09:57:09Z</time>
      </trkpt>
      <trkpt lat="46.51037" lon="0.36957">
        <ele>115.4</ele>
        <time>2020-12-20T09:57:10Z</time>
      </trkpt>
      <trkpt lat="46.51045" lon="0.36957">
        <ele>115.4</ele>
        <time>2020-12-20T09:57:12Z</time>
      </trkpt>
      <trkpt lat="46.51048" lon="0.36958">
        <ele>115.4</ele>
        <time>2020-12-20T09:57:13Z</time>
      </trkpt>
      <trkpt lat="46.51052" lon="0.3696">
        <ele>115.2</ele>
        <time>2020-12-20T09:57:14Z</time>
      </trkpt>
      <trkpt lat="46.5106" lon="0.36966">
        <ele>114.8</ele>
        <time>2020-12-20T09:57:16Z</time>
      </trkpt>
      <trkpt lat="46.51063" lon="0.36969">
        <ele>114.6</ele>
        <time>2020-12-20T09:57:17Z</time>
      </trkpt>
      <trkpt lat="46.51069" lon="0.36976">
        <ele>114.6</ele>
        <time>2020-12-20T09:57:19Z</time>
      </trkpt>
      <trkpt lat="46.51074" lon="0.36983">
        <ele>114.6</ele>
        <time>2020-12-20T09:57:21Z</time>
      </trkpt>
      <trkpt lat="46.51077" lon="0.36985">
        <ele>114.6</ele>
        <time>2020-12-20T09:57:22Z</time>
      </trkpt>
      <trkpt lat="46.51084" lon="0.3699">
        <ele>114.6</ele>
        <time>2020-12-20T09:57:24Z</time>
      </trkpt>
      <trkpt lat="46.51093" lon="0.36992">
        <ele>114.2</ele>
        <time>2020-12-20T09:57:27Z</time>
      </trkpt>
      <trkpt lat="46.51105" lon="0.37001">
        <ele>113.8</ele>
        <time>2020-12-20T09:57:32Z</time>
      </trkpt>
      <trkpt lat="46.51107" lon="0.37002">
        <ele>113.8</ele>
        <time>2020-12-20T09:57:33Z</time>
      </trkpt>
      <trkpt lat="46.5111" lon="0.37002">
        <ele>113.2</ele>
        <time>2020-12-20T09:57:34Z</time>
      </trkpt>
      <trkpt lat="46.51114" lon="0.37003">
        <ele>113</ele>
        <time>2020-12-20T09:57:35Z</time>
      </trkpt>
      <trkpt lat="46.51123" lon="0.37007">
        <ele>112.8</ele>
        <time>2020-12-20T09:57:38Z</time>
      </trkpt>
      <trkpt lat="46.51126" lon="0.37008">
        <ele>112.8</ele>
        <time>2020-12-20T09:57:39Z</time>
      </trkpt>
      <trkpt lat="46.5113" lon="0.37009">
        <ele>112.8</ele>
        <time>2020-12-20T09:57:40Z</time>
      </trkpt>
      <trkpt lat="46.51136" lon="0.37011">
        <ele>112.6</ele>
        <time>2020-12-20T09:57:42Z</time>
      </trkpt>
      <trkpt lat="46.51143" lon="0.3701">
        <ele>112.2</ele>
        <time>2020-12-20T09:57:44Z</time>
      </trkpt>
      <trkpt lat="46.51149" lon="0.3701">
        <ele>111.8</ele>
        <time>2020-12-20T09:57:46Z</time>
      </trkpt>
      <trkpt lat="46.51154" lon="0.37013">
        <ele>111.4</ele>
        <time>2020-12-20T09:57:48Z</time>
      </trkpt>
      <trkpt lat="46.51157" lon="0.37013">
        <ele>111.2</ele>
        <time>2020-12-20T09:57:49Z</time>
      </trkpt>
      <trkpt lat="46.5116" lon="0.37015">
        <ele>110.8</ele>
        <time>2020-12-20T09:57:50Z</time>
      </trkpt>
      <trkpt lat="46.51168" lon="0.37017">
        <ele>110.4</ele>
        <time>2020-12-20T09:57:53Z</time>
      </trkpt>
      <trkpt lat="46.51171" lon="0.37017">
        <ele>110.4</ele>
        <time>2020-12-20T09:57:54Z</time>
      </trkpt>
      <trkpt lat="46.51178" lon="0.37018">
        <ele>110</ele>
        <time>2020-12-20T09:57:56Z</time>
      </trkpt>
      <trkpt lat="46.51188" lon="0.37015">
        <ele>109.4</ele>
        <time>2020-12-20T09:57:59Z</time>
      </trkpt>
      <trkpt lat="46.51206" lon="0.37003">
        <ele>109.4</ele>
        <time>2020-12-20T09:58:05Z</time>
      </trkpt>
      <trkpt lat="46.51209" lon="0.37001">
        <ele>109.6</ele>
        <time>2020-12-20T09:58:07Z</time>
      </trkpt>
      <trkpt lat="46.51213" lon="0.36999">
        <ele>109.6</ele>
        <time>2020-12-20T09:58:09Z</time>
      </trkpt>
      <trkpt lat="46.51223" lon="0.36991">
        <ele>109.8</ele>
        <time>2020-12-20T09:58:12Z</time>
      </trkpt>
      <trkpt lat="46.51232" lon="0.36985">
        <ele>109.8</ele>
        <time>2020-12-20T09:58:14Z</time>
      </trkpt>
      <trkpt lat="46.51242" lon="0.36976">
        <ele>110</ele>
        <time>2020-12-20T09:58:17Z</time>
      </trkpt>
      <trkpt lat="46.51248" lon="0.36973">
        <ele>109.6</ele>
        <time>2020-12-20T09:58:19Z</time>
      </trkpt>
      <trkpt lat="46.51254" lon="0.3697">
        <ele>109.2</ele>
        <time>2020-12-20T09:58:21Z</time>
      </trkpt>
      <trkpt lat="46.51257" lon="0.36967">
        <ele>108.8</ele>
        <time>2020-12-20T09:58:22Z</time>
      </trkpt>
      <trkpt lat="46.5126" lon="0.36965">
        <ele>108.6</ele>
        <time>2020-12-20T09:58:23Z</time>
      </trkpt>
      <trkpt lat="46.51267" lon="0.36967">
        <ele>108.2</ele>
        <time>2020-12-20T09:58:25Z</time>
      </trkpt>
      <trkpt lat="46.51271" lon="0.36969">
        <ele>107.8</ele>
        <time>2020-12-20T09:58:26Z</time>
      </trkpt>
      <trkpt lat="46.51274" lon="0.3697">
        <ele>107.6</ele>
        <time>2020-12-20T09:58:27Z</time>
      </trkpt>
      <trkpt lat="46.51279" lon="0.36974">
        <ele>107.2</ele>
        <time>2020-12-20T09:58:29Z</time>
      </trkpt>
      <trkpt lat="46.51286" lon="0.36976">
        <ele>105.8</ele>
        <time>2020-12-20T09:58:30Z</time>
      </trkpt>
      <trkpt lat="46.51289" lon="0.36976">
        <ele>105.8</ele>
        <time>2020-12-20T09:58:32Z</time>
      </trkpt>
      <trkpt lat="46.51293" lon="0.36978">
        <ele>105</ele>
        <time>2020-12-20T09:58:34Z</time>
      </trkpt>
      <trkpt lat="46.51296" lon="0.3698">
        <ele>104.4</ele>
        <time>2020-12-20T09:58:35Z</time>
      </trkpt>
      <trkpt lat="46.513" lon="0.36983">
        <ele>103.2</ele>
        <time>2020-12-20T09:58:37Z</time>
      </trkpt>
      <trkpt lat="46.51312" lon="0.36989">
        <ele>101.6</ele>
        <time>2020-12-20T09:58:40Z</time>
      </trkpt>
      <trkpt lat="46.51318" lon="0.36992">
        <ele>100.8</ele>
        <time>2020-12-20T09:58:42Z</time>
      </trkpt>
      <trkpt lat="46.51321" lon="0.36993">
        <ele>100.2</ele>
        <time>2020-12-20T09:58:43Z</time>
      </trkpt>
      <trkpt lat="46.51326" lon="0.36996">
        <ele>99.6</ele>
        <time>2020-12-20T09:58:45Z</time>
      </trkpt>
      <trkpt lat="46.51331" lon="0.36997">
        <ele>99</ele>
        <time>2020-12-20T09:58:46Z</time>
      </trkpt>
      <trkpt lat="46.5134" lon="0.36999">
        <ele>97.8</ele>
        <time>2020-12-20T09:58:48Z</time>
      </trkpt>
      <trkpt lat="46.51349" lon="0.37003">
        <ele>96.8</ele>
        <time>2020-12-20T09:58:50Z</time>
      </trkpt>
      <trkpt lat="46.51357" lon="0.37006">
        <ele>95.4</ele>
        <time>2020-12-20T09:58:52Z</time>
      </trkpt>
      <trkpt lat="46.51361" lon="0.37008">
        <ele>94.6</ele>
        <time>2020-12-20T09:58:53Z</time>
      </trkpt>
      <trkpt lat="46.51365" lon="0.3701">
        <ele>94.2</ele>
        <time>2020-12-20T09:58:54Z</time>
      </trkpt>
      <trkpt lat="46.51372" lon="0.37015">
        <ele>93.2</ele>
        <time>2020-12-20T09:58:56Z</time>
      </trkpt>
      <trkpt lat="46.51379" lon="0.37021">
        <ele>92</ele>
        <time>2020-12-20T09:58:58Z</time>
      </trkpt>
      <trkpt lat="46.51382" lon="0.37023">
        <ele>90.4</ele>
        <time>2020-12-20T09:58:59Z</time>
      </trkpt>
      <trkpt lat="46.51388" lon="0.37021">
        <ele>89.4</ele>
        <time>2020-12-20T09:59:00Z</time>
      </trkpt>
      <trkpt lat="46.51394" lon="0.37019">
        <ele>88.8</ele>
        <time>2020-12-20T09:59:01Z</time>
      </trkpt>
      <trkpt lat="46.514" lon="0.37016">
        <ele>88.6</ele>
        <time>2020-12-20T09:59:02Z</time>
      </trkpt>
      <trkpt lat="46.51417" lon="0.37">
        <ele>88</ele>
        <time>2020-12-20T09:59:06Z</time>
      </trkpt>
      <trkpt lat="46.51421" lon="0.36995">
        <ele>87.6</ele>
        <time>2020-12-20T09:59:07Z</time>
      </trkpt>
      <trkpt lat="46.51427" lon="0.36985">
        <ele>87.2</ele>
        <time>2020-12-20T09:59:09Z</time>
      </trkpt>
      <trkpt lat="46.51434" lon="0.36979">
        <ele>86.2</ele>
        <time>2020-12-20T09:59:11Z</time>
      </trkpt>
      <trkpt lat="46.51436" lon="0.36978">
        <ele>85.6</ele>
        <time>2020-12-20T09:59:12Z</time>
      </trkpt>
      <trkpt lat="46.51437" lon="0.36978">
        <ele>85.2</ele>
        <time>2020-12-20T09:59:13Z</time>
      </trkpt>
      <trkpt lat="46.51441" lon="0.36977">
        <ele>84.6</ele>
        <time>2020-12-20T09:59:15Z</time>
      </trkpt>
      <trkpt lat="46.51444" lon="0.36976">
        <ele>84</ele>
        <time>2020-12-20T09:59:16Z</time>
      </trkpt>
      <trkpt lat="46.51449" lon="0.36969">
        <ele>83</ele>
        <time>2020-12-20T09:59:18Z</time>
      </trkpt>
      <trkpt lat="46.51452" lon="0.36965">
        <ele>82.4</ele>
        <time>2020-12-20T09:59:19Z</time>
      </trkpt>
      <trkpt lat="46.51457" lon="0.36956">
        <ele>81.6</ele>
        <time>2020-12-20T09:59:21Z</time>
      </trkpt>
      <trkpt lat="46.51466" lon="0.36925">
        <ele>80.6</ele>
        <time>2020-12-20T09:59:26Z</time>
      </trkpt>
      <trkpt lat="46.51468" lon="0.36919">
        <ele>80.4</ele>
        <time>2020-12-20T09:59:27Z</time>
      </trkpt>
      <trkpt lat="46.51474" lon="0.36893">
        <ele>80.2</ele>
        <time>2020-12-20T09:59:31Z</time>
      </trkpt>
      <trkpt lat="46.51478" lon="0.3688">
        <ele>80.4</ele>
        <time>2020-12-20T09:59:33Z</time>
      </trkpt>
      <trkpt lat="46.51479" lon="0.36873">
        <ele>80.8</ele>
        <time>2020-12-20T09:59:34Z</time>
      </trkpt>
      <trkpt lat="46.5148" lon="0.36854">
        <ele>81.2</ele>
        <time>2020-12-20T09:59:37Z</time>
      </trkpt>
      <trkpt lat="46.51479" lon="0.36834">
        <ele>81.6</ele>
        <time>2020-12-20T09:59:40Z</time>
      </trkpt>
      <trkpt lat="46.51474" lon="0.36813">
        <ele>82</ele>
        <time>2020-12-20T09:59:43Z</time>
      </trkpt>
      <trkpt lat="46.51469" lon="0.36799">
        <ele>82</ele>
        <time>2020-12-20T09:59:46Z</time>
      </trkpt>
      <trkpt lat="46.51457" lon="0.36783">
        <ele>82.6</ele>
        <time>2020-12-20T09:59:52Z</time>
      </trkpt>
      <trkpt lat="46.51443" lon="0.3676">
        <ele>82.8</ele>
        <time>2020-12-20T09:59:59Z</time>
      </trkpt>
      <trkpt lat="46.51425" lon="0.36738">
        <ele>83.4</ele>
        <time>2020-12-20T10:00:06Z</time>
      </trkpt>
      <trkpt lat="46.51413" lon="0.36719">
        <ele>83.2</ele>
        <time>2020-12-20T10:00:11Z</time>
      </trkpt>
      <trkpt lat="46.51399" lon="0.36697">
        <ele>83.4</ele>
        <time>2020-12-20T10:00:17Z</time>
      </trkpt>
      <trkpt lat="46.51392" lon="0.36685">
        <ele>83.6</ele>
        <time>2020-12-20T10:00:21Z</time>
      </trkpt>
      <trkpt lat="46.5139" lon="0.36677">
        <ele>83.8</ele>
        <time>2020-12-20T10:00:23Z</time>
      </trkpt>
      <trkpt lat="46.51387" lon="0.36643">
        <ele>84</ele>
        <time>2020-12-20T10:00:29Z</time>
      </trkpt>
      <trkpt lat="46.51391" lon="0.36605">
        <ele>84.4</ele>
        <time>2020-12-20T10:00:36Z</time>
      </trkpt>
      <trkpt lat="46.51393" lon="0.36597">
        <ele>84.6</ele>
        <time>2020-12-20T10:00:38Z</time>
      </trkpt>
      <trkpt lat="46.51398" lon="0.36574">
        <ele>85.4</ele>
        <time>2020-12-20T10:00:43Z</time>
      </trkpt>
      <trkpt lat="46.51401" lon="0.36564">
        <ele>85.6</ele>
        <time>2020-12-20T10:00:45Z</time>
      </trkpt>
      <trkpt lat="46.51407" lon="0.36543">
        <ele>86.2</ele>
        <time>2020-12-20T10:00:50Z</time>
      </trkpt>
      <trkpt lat="46.5141" lon="0.3653">
        <ele>86.8</ele>
        <time>2020-12-20T10:00:53Z</time>
      </trkpt>
      <trkpt lat="46.51416" lon="0.36514">
        <ele>87.6</ele>
        <time>2020-12-20T10:00:57Z</time>
      </trkpt>
      <trkpt lat="46.51417" lon="0.36506">
        <ele>88</ele>
        <time>2020-12-20T10:00:59Z</time>
      </trkpt>
      <trkpt lat="46.51421" lon="0.36492">
        <ele>89</ele>
        <time>2020-12-20T10:01:03Z</time>
      </trkpt>
      <trkpt lat="46.51423" lon="0.36484">
        <ele>89.4</ele>
        <time>2020-12-20T10:01:05Z</time>
      </trkpt>
      <trkpt lat="46.51425" lon="0.3647">
        <ele>90</ele>
        <time>2020-12-20T10:01:08Z</time>
      </trkpt>
      <trkpt lat="46.51429" lon="0.36453">
        <ele>90.8</ele>
        <time>2020-12-20T10:01:12Z</time>
      </trkpt>
      <trkpt lat="46.51432" lon="0.36444">
        <ele>91.2</ele>
        <time>2020-12-20T10:01:14Z</time>
      </trkpt>
      <trkpt lat="46.51436" lon="0.36421">
        <ele>92.2</ele>
        <time>2020-12-20T10:01:19Z</time>
      </trkpt>
      <trkpt lat="46.51437" lon="0.36416">
        <ele>92.4</ele>
        <time>2020-12-20T10:01:20Z</time>
      </trkpt>
      <trkpt lat="46.51441" lon="0.36398">
        <ele>93.4</ele>
        <time>2020-12-20T10:01:24Z</time>
      </trkpt>
      <trkpt lat="46.51444" lon="0.36387">
        <ele>94</ele>
        <time>2020-12-20T10:01:27Z</time>
      </trkpt>
      <trkpt lat="46.51446" lon="0.36375">
        <ele>94.8</ele>
        <time>2020-12-20T10:01:30Z</time>
      </trkpt>
      <trkpt lat="46.51448" lon="0.3636">
        <ele>95.4</ele>
        <time>2020-12-20T10:01:34Z</time>
      </trkpt>
      <trkpt lat="46.51448" lon="0.36356">
        <ele>95.8</ele>
        <time>2020-12-20T10:01:35Z</time>
      </trkpt>
      <trkpt lat="46.51447" lon="0.36331">
        <ele>96.8</ele>
        <time>2020-12-20T10:01:41Z</time>
      </trkpt>
      <trkpt lat="46.51444" lon="0.36305">
        <ele>98</ele>
        <time>2020-12-20T10:01:48Z</time>
      </trkpt>
      <trkpt lat="46.5144" lon="0.3628">
        <ele>99.2</ele>
        <time>2020-12-20T10:01:54Z</time>
      </trkpt>
      <trkpt lat="46.5144" lon="0.36276">
        <ele>99.4</ele>
        <time>2020-12-20T10:01:55Z</time>
      </trkpt>
      <trkpt lat="46.51436" lon="0.36258">
        <ele>100.2</ele>
        <time>2020-12-20T10:02:00Z</time>
      </trkpt>
      <trkpt lat="46.51434" lon="0.3625">
        <ele>100.8</ele>
        <time>2020-12-20T10:02:02Z</time>
      </trkpt>
      <trkpt lat="46.51432" lon="0.36237">
        <ele>101.4</ele>
        <time>2020-12-20T10:02:05Z</time>
      </trkpt>
      <trkpt lat="46.51429" lon="0.36224">
        <ele>101.8</ele>
        <time>2020-12-20T10:02:08Z</time>
      </trkpt>
      <trkpt lat="46.51426" lon="0.36206">
        <ele>102.4</ele>
        <time>2020-12-20T10:02:12Z</time>
      </trkpt>
      <trkpt lat="46.51423" lon="0.36189">
        <ele>102.4</ele>
        <time>2020-12-20T10:02:15Z</time>
      </trkpt>
      <trkpt lat="46.51415" lon="0.36145">
        <ele>103.2</ele>
        <time>2020-12-20T10:02:23Z</time>
      </trkpt>
      <trkpt lat="46.51412" lon="0.36132">
        <ele>103.4</ele>
        <time>2020-12-20T10:02:26Z</time>
      </trkpt>
      <trkpt lat="46.51409" lon="0.36118">
        <ele>103.8</ele>
        <time>2020-12-20T10:02:29Z</time>
      </trkpt>
      <trkpt lat="46.51405" lon="0.36104">
        <ele>104.6</ele>
        <time>2020-12-20T10:02:32Z</time>
      </trkpt>
      <trkpt lat="46.51402" lon="0.36091">
        <ele>105.8</ele>
        <time>2020-12-20T10:02:35Z</time>
      </trkpt>
      <trkpt lat="46.514" lon="0.36082">
        <ele>106.2</ele>
        <time>2020-12-20T10:02:37Z</time>
      </trkpt>
      <trkpt lat="46.51396" lon="0.36066">
        <ele>106.8</ele>
        <time>2020-12-20T10:02:41Z</time>
      </trkpt>
      <trkpt lat="46.51395" lon="0.36053">
        <ele>107.8</ele>
        <time>2020-12-20T10:02:44Z</time>
      </trkpt>
      <trkpt lat="46.51394" lon="0.36044">
        <ele>108.2</ele>
        <time>2020-12-20T10:02:46Z</time>
      </trkpt>
      <trkpt lat="46.5139" lon="0.3602">
        <ele>109</ele>
        <time>2020-12-20T10:02:52Z</time>
      </trkpt>
      <trkpt lat="46.51389" lon="0.36008">
        <ele>109.6</ele>
        <time>2020-12-20T10:02:55Z</time>
      </trkpt>
      <trkpt lat="46.51388" lon="0.35999">
        <ele>110</ele>
        <time>2020-12-20T10:02:57Z</time>
      </trkpt>
      <trkpt lat="46.51385" lon="0.35976">
        <ele>110.8</ele>
        <time>2020-12-20T10:03:02Z</time>
      </trkpt>
      <trkpt lat="46.51383" lon="0.35956">
        <ele>111.2</ele>
        <time>2020-12-20T10:03:06Z</time>
      </trkpt>
      <trkpt lat="46.5138" lon="0.35936">
        <ele>111.4</ele>
        <time>2020-12-20T10:03:10Z</time>
      </trkpt>
      <trkpt lat="46.51373" lon="0.35903">
        <ele>111.6</ele>
        <time>2020-12-20T10:03:17Z</time>
      </trkpt>
      <trkpt lat="46.51372" lon="0.35885">
        <ele>112.2</ele>
        <time>2020-12-20T10:03:21Z</time>
      </trkpt>
      <trkpt lat="46.5137" lon="0.35869">
        <ele>112.8</ele>
        <time>2020-12-20T10:03:25Z</time>
      </trkpt>
      <trkpt lat="46.51366" lon="0.3585">
        <ele>113.2</ele>
        <time>2020-12-20T10:03:31Z</time>
      </trkpt>
      <trkpt lat="46.51366" lon="0.35846">
        <ele>113.4</ele>
        <time>2020-12-20T10:03:32Z</time>
      </trkpt>
      <trkpt lat="46.51364" lon="0.35814">
        <ele>114</ele>
        <time>2020-12-20T10:03:38Z</time>
      </trkpt>
      <trkpt lat="46.51367" lon="0.35784">
        <ele>114</ele>
        <time>2020-12-20T10:03:43Z</time>
      </trkpt>
      <trkpt lat="46.5137" lon="0.35766">
        <ele>114.4</ele>
        <time>2020-12-20T10:03:46Z</time>
      </trkpt>
      <trkpt lat="46.51371" lon="0.35753">
        <ele>114.6</ele>
        <time>2020-12-20T10:03:48Z</time>
      </trkpt>
      <trkpt lat="46.5137" lon="0.35746">
        <ele>114.8</ele>
        <time>2020-12-20T10:03:49Z</time>
      </trkpt>
      <trkpt lat="46.51364" lon="0.3569">
        <ele>115.2</ele>
        <time>2020-12-20T10:03:57Z</time>
      </trkpt>
      <trkpt lat="46.51356" lon="0.35636">
        <ele>115</ele>
        <time>2020-12-20T10:04:04Z</time>
      </trkpt>
      <trkpt lat="46.5135" lon="0.35591">
        <ele>114.6</ele>
        <time>2020-12-20T10:04:10Z</time>
      </trkpt>
      <trkpt lat="46.51349" lon="0.35586">
        <ele>114.4</ele>
        <time>2020-12-20T10:04:11Z</time>
      </trkpt>
      <trkpt lat="46.51344" lon="0.35578">
        <ele>114.2</ele>
        <time>2020-12-20T10:04:13Z</time>
      </trkpt>
      <trkpt lat="46.5134" lon="0.35577">
        <ele>114.2</ele>
        <time>2020-12-20T10:04:14Z</time>
      </trkpt>
      <trkpt lat="46.51333" lon="0.35578">
        <ele>114</ele>
        <time>2020-12-20T10:04:17Z</time>
      </trkpt>
      <trkpt lat="46.51318" lon="0.35581">
        <ele>114.4</ele>
        <time>2020-12-20T10:04:22Z</time>
      </trkpt>
      <trkpt lat="46.51307" lon="0.35579">
        <ele>114.6</ele>
        <time>2020-12-20T10:04:25Z</time>
      </trkpt>
      <trkpt lat="46.51302" lon="0.35579">
        <ele>114.6</ele>
        <time>2020-12-20T10:04:26Z</time>
      </trkpt>
      <trkpt lat="46.51283" lon="0.35579">
        <ele>114.8</ele>
        <time>2020-12-20T10:04:30Z</time>
      </trkpt>
      <trkpt lat="46.51273" lon="0.35577">
        <ele>114.8</ele>
        <time>2020-12-20T10:04:32Z</time>
      </trkpt>
      <trkpt lat="46.51268" lon="0.35575">
        <ele>114.8</ele>
        <time>2020-12-20T10:04:33Z</time>
      </trkpt>
      <trkpt lat="46.5126" lon="0.3557">
        <ele>114.8</ele>
        <time>2020-12-20T10:04:35Z</time>
      </trkpt>
      <trkpt lat="46.51255" lon="0.3556">
        <ele>114.8</ele>
        <time>2020-12-20T10:04:37Z</time>
      </trkpt>
      <trkpt lat="46.51254" lon="0.35545">
        <ele>114.8</ele>
        <time>2020-12-20T10:04:39Z</time>
      </trkpt>
      <trkpt lat="46.51256" lon="0.3553">
        <ele>114.8</ele>
        <time>2020-12-20T10:04:40Z</time>
      </trkpt>
      <trkpt lat="46.51256" lon="0.35516">
        <ele>114.8</ele>
        <time>2020-12-20T10:04:43Z</time>
      </trkpt>
      <trkpt lat="46.51254" lon="0.35502">
        <ele>115</ele>
        <time>2020-12-20T10:04:45Z</time>
      </trkpt>
      <trkpt lat="46.51252" lon="0.35496">
        <ele>115</ele>
        <time>2020-12-20T10:04:46Z</time>
      </trkpt>
      <trkpt lat="46.51247" lon="0.35483">
        <ele>115.2</ele>
        <time>2020-12-20T10:04:48Z</time>
      </trkpt>
      <trkpt lat="46.51239" lon="0.35473">
        <ele>115</ele>
        <time>2020-12-20T10:04:50Z</time>
      </trkpt>
      <trkpt lat="46.51229" lon="0.35467">
        <ele>115</ele>
        <time>2020-12-20T10:04:52Z</time>
      </trkpt>
      <trkpt lat="46.51218" lon="0.35462">
        <ele>114.8</ele>
        <time>2020-12-20T10:04:54Z</time>
      </trkpt>
      <trkpt lat="46.51209" lon="0.35453">
        <ele>114.8</ele>
        <time>2020-12-20T10:04:56Z</time>
      </trkpt>
      <trkpt lat="46.51203" lon="0.35441">
        <ele>114.6</ele>
        <time>2020-12-20T10:04:58Z</time>
      </trkpt>
      <trkpt lat="46.51187" lon="0.354">
        <ele>114</ele>
        <time>2020-12-20T10:05:04Z</time>
      </trkpt>
      <trkpt lat="46.51188" lon="0.35376">
        <ele>113.2</ele>
        <time>2020-12-20T10:05:07Z</time>
      </trkpt>
      <trkpt lat="46.51188" lon="0.35369">
        <ele>112.8</ele>
        <time>2020-12-20T10:05:08Z</time>
      </trkpt>
      <trkpt lat="46.51187" lon="0.35352">
        <ele>111.8</ele>
        <time>2020-12-20T10:05:11Z</time>
      </trkpt>
      <trkpt lat="46.51188" lon="0.35347">
        <ele>111.6</ele>
        <time>2020-12-20T10:05:12Z</time>
      </trkpt>
      <trkpt lat="46.51186" lon="0.35337">
        <ele>111</ele>
        <time>2020-12-20T10:05:14Z</time>
      </trkpt>
      <trkpt lat="46.51185" lon="0.35331">
        <ele>110.6</ele>
        <time>2020-12-20T10:05:15Z</time>
      </trkpt>
      <trkpt lat="46.51183" lon="0.35327">
        <ele>110.6</ele>
        <time>2020-12-20T10:05:16Z</time>
      </trkpt>
      <trkpt lat="46.51176" lon="0.35319">
        <ele>110.6</ele>
        <time>2020-12-20T10:05:18Z</time>
      </trkpt>
      <trkpt lat="46.51171" lon="0.35317">
        <ele>110.6</ele>
        <time>2020-12-20T10:05:19Z</time>
      </trkpt>
      <trkpt lat="46.51167" lon="0.35314">
        <ele>110.6</ele>
        <time>2020-12-20T10:05:20Z</time>
      </trkpt>
      <trkpt lat="46.51158" lon="0.35309">
        <ele>110.6</ele>
        <time>2020-12-20T10:05:22Z</time>
      </trkpt>
      <trkpt lat="46.5115" lon="0.35304">
        <ele>110.6</ele>
        <time>2020-12-20T10:05:24Z</time>
      </trkpt>
      <trkpt lat="46.51142" lon="0.353">
        <ele>110.6</ele>
        <time>2020-12-20T10:05:26Z</time>
      </trkpt>
      <trkpt lat="46.51136" lon="0.35288">
        <ele>110.4</ele>
        <time>2020-12-20T10:05:29Z</time>
      </trkpt>
      <trkpt lat="46.51135" lon="0.35276">
        <ele>110</ele>
        <time>2020-12-20T10:05:31Z</time>
      </trkpt>
      <trkpt lat="46.51136" lon="0.35263">
        <ele>109.6</ele>
        <time>2020-12-20T10:05:33Z</time>
      </trkpt>
      <trkpt lat="46.51139" lon="0.3525">
        <ele>109.4</ele>
        <time>2020-12-20T10:05:35Z</time>
      </trkpt>
      <trkpt lat="46.51144" lon="0.35238">
        <ele>108.8</ele>
        <time>2020-12-20T10:05:37Z</time>
      </trkpt>
      <trkpt lat="46.51146" lon="0.3523">
        <ele>108.6</ele>
        <time>2020-12-20T10:05:38Z</time>
      </trkpt>
      <trkpt lat="46.51149" lon="0.35215">
        <ele>108.4</ele>
        <time>2020-12-20T10:05:40Z</time>
      </trkpt>
      <trkpt lat="46.51146" lon="0.35203">
        <ele>108.2</ele>
        <time>2020-12-20T10:05:42Z</time>
      </trkpt>
      <trkpt lat="46.5114" lon="0.35192">
        <ele>108</ele>
        <time>2020-12-20T10:05:44Z</time>
      </trkpt>
      <trkpt lat="46.51132" lon="0.35185">
        <ele>107.8</ele>
        <time>2020-12-20T10:05:46Z</time>
      </trkpt>
      <trkpt lat="46.51115" lon="0.3517">
        <ele>107.6</ele>
        <time>2020-12-20T10:05:51Z</time>
      </trkpt>
      <trkpt lat="46.51113" lon="0.35163">
        <ele>107.4</ele>
        <time>2020-12-20T10:05:53Z</time>
      </trkpt>
      <trkpt lat="46.51113" lon="0.35159">
        <ele>107.2</ele>
        <time>2020-12-20T10:05:54Z</time>
      </trkpt>
      <trkpt lat="46.51119" lon="0.35135">
        <ele>106.6</ele>
        <time>2020-12-20T10:05:58Z</time>
      </trkpt>
      <trkpt lat="46.51119" lon="0.35129">
        <ele>106.4</ele>
        <time>2020-12-20T10:05:59Z</time>
      </trkpt>
      <trkpt lat="46.51115" lon="0.35121">
        <ele>106.2</ele>
        <time>2020-12-20T10:06:01Z</time>
      </trkpt>
      <trkpt lat="46.51113" lon="0.35117">
        <ele>106.2</ele>
        <time>2020-12-20T10:06:02Z</time>
      </trkpt>
      <trkpt lat="46.51112" lon="0.35112">
        <ele>106</ele>
        <time>2020-12-20T10:06:03Z</time>
      </trkpt>
      <trkpt lat="46.51112" lon="0.35107">
        <ele>105.8</ele>
        <time>2020-12-20T10:06:04Z</time>
      </trkpt>
      <trkpt lat="46.51116" lon="0.35091">
        <ele>105</ele>
        <time>2020-12-20T10:06:07Z</time>
      </trkpt>
      <trkpt lat="46.51116" lon="0.35088">
        <ele>104.8</ele>
        <time>2020-12-20T10:06:08Z</time>
      </trkpt>
      <trkpt lat="46.51115" lon="0.35085">
        <ele>104.6</ele>
        <time>2020-12-20T10:06:09Z</time>
      </trkpt>
      <trkpt lat="46.51109" lon="0.35073">
        <ele>103.6</ele>
        <time>2020-12-20T10:06:12Z</time>
      </trkpt>
      <trkpt lat="46.51105" lon="0.35067">
        <ele>103.6</ele>
        <time>2020-12-20T10:06:13Z</time>
      </trkpt>
      <trkpt lat="46.51099" lon="0.35058">
        <ele>103</ele>
        <time>2020-12-20T10:06:15Z</time>
      </trkpt>
      <trkpt lat="46.51096" lon="0.35051">
        <ele>102.2</ele>
        <time>2020-12-20T10:06:17Z</time>
      </trkpt>
      <trkpt lat="46.51096" lon="0.35045">
        <ele>101.6</ele>
        <time>2020-12-20T10:06:19Z</time>
      </trkpt>
      <trkpt lat="46.51099" lon="0.3504">
        <ele>101</ele>
        <time>2020-12-20T10:06:21Z</time>
      </trkpt>
      <trkpt lat="46.51107" lon="0.35031">
        <ele>100.2</ele>
        <time>2020-12-20T10:06:24Z</time>
      </trkpt>
      <trkpt lat="46.51111" lon="0.35029">
        <ele>100</ele>
        <time>2020-12-20T10:06:25Z</time>
      </trkpt>
      <trkpt lat="46.51122" lon="0.35024">
        <ele>99.6</ele>
        <time>2020-12-20T10:06:28Z</time>
      </trkpt>
      <trkpt lat="46.51129" lon="0.35018">
        <ele>99.4</ele>
        <time>2020-12-20T10:06:30Z</time>
      </trkpt>
      <trkpt lat="46.51131" lon="0.35013">
        <ele>99.2</ele>
        <time>2020-12-20T10:06:31Z</time>
      </trkpt>
      <trkpt lat="46.51134" lon="0.35008">
        <ele>99</ele>
        <time>2020-12-20T10:06:32Z</time>
      </trkpt>
      <trkpt lat="46.51136" lon="0.35001">
        <ele>99</ele>
        <time>2020-12-20T10:06:33Z</time>
      </trkpt>
      <trkpt lat="46.51138" lon="0.34993">
        <ele>99</ele>
        <time>2020-12-20T10:06:34Z</time>
      </trkpt>
      <trkpt lat="46.51141" lon="0.34977">
        <ele>99</ele>
        <time>2020-12-20T10:06:36Z</time>
      </trkpt>
      <trkpt lat="46.51151" lon="0.34962">
        <ele>99.6</ele>
        <time>2020-12-20T10:06:39Z</time>
      </trkpt>
      <trkpt lat="46.51152" lon="0.34957">
        <ele>100.4</ele>
        <time>2020-12-20T10:06:40Z</time>
      </trkpt>
      <trkpt lat="46.51153" lon="0.34951">
        <ele>100.8</ele>
        <time>2020-12-20T10:06:41Z</time>
      </trkpt>
      <trkpt lat="46.51152" lon="0.34945">
        <ele>101.4</ele>
        <time>2020-12-20T10:06:42Z</time>
      </trkpt>
      <trkpt lat="46.51152" lon="0.34939">
        <ele>101.6</ele>
        <time>2020-12-20T10:06:43Z</time>
      </trkpt>
      <trkpt lat="46.51153" lon="0.34923">
        <ele>102.8</ele>
        <time>2020-12-20T10:06:46Z</time>
      </trkpt>
      <trkpt lat="46.51152" lon="0.34918">
        <ele>103</ele>
        <time>2020-12-20T10:06:47Z</time>
      </trkpt>
      <trkpt lat="46.51151" lon="0.34914">
        <ele>103.4</ele>
        <time>2020-12-20T10:06:48Z</time>
      </trkpt>
      <trkpt lat="46.51151" lon="0.3491">
        <ele>103.6</ele>
        <time>2020-12-20T10:06:49Z</time>
      </trkpt>
      <trkpt lat="46.5115" lon="0.34905">
        <ele>104</ele>
        <time>2020-12-20T10:06:50Z</time>
      </trkpt>
      <trkpt lat="46.51151" lon="0.3489">
        <ele>104.8</ele>
        <time>2020-12-20T10:06:53Z</time>
      </trkpt>
      <trkpt lat="46.51153" lon="0.34887">
        <ele>105</ele>
        <time>2020-12-20T10:06:54Z</time>
      </trkpt>
      <trkpt lat="46.51158" lon="0.34884">
        <ele>105.2</ele>
        <time>2020-12-20T10:06:56Z</time>
      </trkpt>
      <trkpt lat="46.51172" lon="0.34874">
        <ele>105.8</ele>
        <time>2020-12-20T10:07:02Z</time>
      </trkpt>
      <trkpt lat="46.51194" lon="0.34855">
        <ele>105.8</ele>
        <time>2020-12-20T10:07:08Z</time>
      </trkpt>
      <trkpt lat="46.51201" lon="0.34846">
        <ele>106</ele>
        <time>2020-12-20T10:07:10Z</time>
      </trkpt>
      <trkpt lat="46.51206" lon="0.34835">
        <ele>106</ele>
        <time>2020-12-20T10:07:12Z</time>
      </trkpt>
      <trkpt lat="46.51208" lon="0.34828">
        <ele>106.2</ele>
        <time>2020-12-20T10:07:13Z</time>
      </trkpt>
      <trkpt lat="46.51209" lon="0.34822">
        <ele>106.4</ele>
        <time>2020-12-20T10:07:14Z</time>
      </trkpt>
      <trkpt lat="46.5121" lon="0.34809">
        <ele>106.6</ele>
        <time>2020-12-20T10:07:16Z</time>
      </trkpt>
      <trkpt lat="46.5121" lon="0.34797">
        <ele>106.6</ele>
        <time>2020-12-20T10:07:18Z</time>
      </trkpt>
      <trkpt lat="46.5121" lon="0.34791">
        <ele>106.8</ele>
        <time>2020-12-20T10:07:19Z</time>
      </trkpt>
      <trkpt lat="46.51213" lon="0.3478">
        <ele>106.8</ele>
        <time>2020-12-20T10:07:21Z</time>
      </trkpt>
      <trkpt lat="46.51215" lon="0.34775">
        <ele>106.8</ele>
        <time>2020-12-20T10:07:22Z</time>
      </trkpt>
      <trkpt lat="46.51218" lon="0.34771">
        <ele>107</ele>
        <time>2020-12-20T10:07:23Z</time>
      </trkpt>
      <trkpt lat="46.51225" lon="0.34765">
        <ele>107</ele>
        <time>2020-12-20T10:07:25Z</time>
      </trkpt>
      <trkpt lat="46.5123" lon="0.34764">
        <ele>107</ele>
        <time>2020-12-20T10:07:26Z</time>
      </trkpt>
      <trkpt lat="46.51234" lon="0.34763">
        <ele>107</ele>
        <time>2020-12-20T10:07:27Z</time>
      </trkpt>
      <trkpt lat="46.51253" lon="0.34765">
        <ele>106.4</ele>
        <time>2020-12-20T10:07:31Z</time>
      </trkpt>
      <trkpt lat="46.51275" lon="0.34766">
        <ele>106</ele>
        <time>2020-12-20T10:07:37Z</time>
      </trkpt>
      <trkpt lat="46.51282" lon="0.34766">
        <ele>105.6</ele>
        <time>2020-12-20T10:07:41Z</time>
      </trkpt>
      <trkpt lat="46.51282" lon="0.34766">
        <ele>105.4</ele>
        <time>2020-12-20T10:07:42Z</time>
      </trkpt>
      <trkpt lat="46.51285" lon="0.34766">
        <ele>105.8</ele>
        <time>2020-12-20T10:07:57Z</time>
      </trkpt>
      <trkpt lat="46.51284" lon="0.34766">
        <ele>105.6</ele>
        <time>2020-12-20T10:08:20Z</time>
      </trkpt>
      <trkpt lat="46.51284" lon="0.34766">
        <ele>105.6</ele>
        <time>2020-12-20T10:08:37Z</time>
      </trkpt>
      <trkpt lat="46.51284" lon="0.34765">
        <ele>105.8</ele>
        <time>2020-12-20T10:08:49Z</time>
      </trkpt>
      <trkpt lat="46.51284" lon="0.34766">
        <ele>105.6</ele>
        <time>2020-12-20T10:09:10Z</time>
      </trkpt>
      <trkpt lat="46.51285" lon="0.34766">
        <ele>105.6</ele>
        <time>2020-12-20T10:09:27Z</time>
      </trkpt>
      <trkpt lat="46.5129" lon="0.3477">
        <ele>105.4</ele>
        <time>2020-12-20T10:09:37Z</time>
      </trkpt>
      <trkpt lat="46.51291" lon="0.34772">
        <ele>105.4</ele>
        <time>2020-12-20T10:09:38Z</time>
      </trkpt>
      <trkpt lat="46.51293" lon="0.34778">
        <ele>105</ele>
        <time>2020-12-20T10:09:41Z</time>
      </trkpt>
      <trkpt lat="46.51295" lon="0.34786">
        <ele>104.8</ele>
        <time>2020-12-20T10:09:44Z</time>
      </trkpt>
      <trkpt lat="46.51297" lon="0.34791">
        <ele>104.6</ele>
        <time>2020-12-20T10:09:47Z</time>
      </trkpt>
      <trkpt lat="46.513" lon="0.34792">
        <ele>104.4</ele>
        <time>2020-12-20T10:09:49Z</time>
      </trkpt>
      <trkpt lat="46.51301" lon="0.34791">
        <ele>104.2</ele>
        <time>2020-12-20T10:09:50Z</time>
      </trkpt>
      <trkpt lat="46.51302" lon="0.34792">
        <ele>104.2</ele>
        <time>2020-12-20T10:09:51Z</time>
      </trkpt>
      <trkpt lat="46.51307" lon="0.34794">
        <ele>104</ele>
        <time>2020-12-20T10:09:54Z</time>
      </trkpt>
      <trkpt lat="46.51308" lon="0.34796">
        <ele>103.8</ele>
        <time>2020-12-20T10:09:55Z</time>
      </trkpt>
      <trkpt lat="46.51309" lon="0.34798">
        <ele>103.8</ele>
        <time>2020-12-20T10:09:56Z</time>
      </trkpt>
      <trkpt lat="46.5131" lon="0.34808">
        <ele>103.6</ele>
        <time>2020-12-20T10:10:00Z</time>
      </trkpt>
      <trkpt lat="46.51311" lon="0.3481">
        <ele>103.4</ele>
        <time>2020-12-20T10:10:01Z</time>
      </trkpt>
      <trkpt lat="46.51314" lon="0.34812">
        <ele>102.8</ele>
        <time>2020-12-20T10:10:03Z</time>
      </trkpt>
      <trkpt lat="46.51316" lon="0.34813">
        <ele>102.8</ele>
        <time>2020-12-20T10:10:04Z</time>
      </trkpt>
      <trkpt lat="46.51317" lon="0.34813">
        <ele>102.8</ele>
        <time>2020-12-20T10:10:05Z</time>
      </trkpt>
      <trkpt lat="46.5133" lon="0.34812">
        <ele>103</ele>
        <time>2020-12-20T10:10:10Z</time>
      </trkpt>
      <trkpt lat="46.51333" lon="0.34814">
        <ele>102.4</ele>
        <time>2020-12-20T10:10:12Z</time>
      </trkpt>
      <trkpt lat="46.51337" lon="0.34819">
        <ele>101.8</ele>
        <time>2020-12-20T10:10:15Z</time>
      </trkpt>
      <trkpt lat="46.51343" lon="0.34822">
        <ele>100.6</ele>
        <time>2020-12-20T10:10:18Z</time>
      </trkpt>
      <trkpt lat="46.51346" lon="0.34824">
        <ele>99.6</ele>
        <time>2020-12-20T10:10:19Z</time>
      </trkpt>
      <trkpt lat="46.51348" lon="0.34825">
        <ele>99.4</ele>
        <time>2020-12-20T10:10:22Z</time>
      </trkpt>
      <trkpt lat="46.51359" lon="0.34833">
        <ele>98.6</ele>
        <time>2020-12-20T10:10:33Z</time>
      </trkpt>
      <trkpt lat="46.5136" lon="0.34835">
        <ele>98.2</ele>
        <time>2020-12-20T10:10:47Z</time>
      </trkpt>
      <trkpt lat="46.51362" lon="0.34835">
        <ele>97.4</ele>
        <time>2020-12-20T10:10:49Z</time>
      </trkpt>
      <trkpt lat="46.51363" lon="0.34836">
        <ele>97</ele>
        <time>2020-12-20T10:10:50Z</time>
      </trkpt>
      <trkpt lat="46.51364" lon="0.34836">
        <ele>95.8</ele>
        <time>2020-12-20T10:10:52Z</time>
      </trkpt>
      <trkpt lat="46.51368" lon="0.34835">
        <ele>94.4</ele>
        <time>2020-12-20T10:10:55Z</time>
      </trkpt>
      <trkpt lat="46.51374" lon="0.34835">
        <ele>94.2</ele>
        <time>2020-12-20T10:10:59Z</time>
      </trkpt>
      <trkpt lat="46.51376" lon="0.34835">
        <ele>94.2</ele>
        <time>2020-12-20T10:11:00Z</time>
      </trkpt>
      <trkpt lat="46.51389" lon="0.34826">
        <ele>95.4</ele>
        <time>2020-12-20T10:11:11Z</time>
      </trkpt>
      <trkpt lat="46.51401" lon="0.34811">
        <ele>94.8</ele>
        <time>2020-12-20T10:11:18Z</time>
      </trkpt>
      <trkpt lat="46.51412" lon="0.34795">
        <ele>95</ele>
        <time>2020-12-20T10:11:24Z</time>
      </trkpt>
      <trkpt lat="46.51418" lon="0.34781">
        <ele>93.2</ele>
        <time>2020-12-20T10:11:29Z</time>
      </trkpt>
      <trkpt lat="46.51418" lon="0.34779">
        <ele>93</ele>
        <time>2020-12-20T10:11:30Z</time>
      </trkpt>
      <trkpt lat="46.51418" lon="0.34774">
        <ele>92.8</ele>
        <time>2020-12-20T10:11:32Z</time>
      </trkpt>
      <trkpt lat="46.51419" lon="0.34771">
        <ele>92.8</ele>
        <time>2020-12-20T10:11:34Z</time>
      </trkpt>
      <trkpt lat="46.5142" lon="0.34766">
        <ele>93</ele>
        <time>2020-12-20T10:11:37Z</time>
      </trkpt>
      <trkpt lat="46.51426" lon="0.34751">
        <ele>92</ele>
        <time>2020-12-20T10:11:44Z</time>
      </trkpt>
      <trkpt lat="46.51427" lon="0.34748">
        <ele>91.8</ele>
        <time>2020-12-20T10:11:45Z</time>
      </trkpt>
      <trkpt lat="46.51431" lon="0.34741">
        <ele>90.4</ele>
        <time>2020-12-20T10:11:47Z</time>
      </trkpt>
      <trkpt lat="46.51436" lon="0.34727">
        <ele>89.4</ele>
        <time>2020-12-20T10:11:51Z</time>
      </trkpt>
      <trkpt lat="46.51438" lon="0.34718">
        <ele>88.8</ele>
        <time>2020-12-20T10:11:55Z</time>
      </trkpt>
      <trkpt lat="46.51439" lon="0.34713">
        <ele>89</ele>
        <time>2020-12-20T10:11:57Z</time>
      </trkpt>
      <trkpt lat="46.51439" lon="0.34708">
        <ele>89.6</ele>
        <time>2020-12-20T10:12:00Z</time>
      </trkpt>
      <trkpt lat="46.51441" lon="0.34704">
        <ele>89.8</ele>
        <time>2020-12-20T10:12:03Z</time>
      </trkpt>
      <trkpt lat="46.51442" lon="0.34699">
        <ele>89.8</ele>
        <time>2020-12-20T10:12:05Z</time>
      </trkpt>
      <trkpt lat="46.51448" lon="0.34681">
        <ele>89.4</ele>
        <time>2020-12-20T10:12:15Z</time>
      </trkpt>
      <trkpt lat="46.51449" lon="0.34677">
        <ele>89.6</ele>
        <time>2020-12-20T10:12:19Z</time>
      </trkpt>
      <trkpt lat="46.51453" lon="0.34661">
        <ele>88.2</ele>
        <time>2020-12-20T10:12:32Z</time>
      </trkpt>
      <trkpt lat="46.51455" lon="0.34658">
        <ele>87</ele>
        <time>2020-12-20T10:12:37Z</time>
      </trkpt>
      <trkpt lat="46.51458" lon="0.34656">
        <ele>85</ele>
        <time>2020-12-20T10:12:42Z</time>
      </trkpt>
      <trkpt lat="46.51459" lon="0.34654">
        <ele>84.4</ele>
        <time>2020-12-20T10:12:43Z</time>
      </trkpt>
      <trkpt lat="46.5146" lon="0.34653">
        <ele>84</ele>
        <time>2020-12-20T10:12:44Z</time>
      </trkpt>
      <trkpt lat="46.51461" lon="0.34652">
        <ele>83.8</ele>
        <time>2020-12-20T10:12:45Z</time>
      </trkpt>
      <trkpt lat="46.51463" lon="0.34649">
        <ele>83.6</ele>
        <time>2020-12-20T10:12:46Z</time>
      </trkpt>
      <trkpt lat="46.51464" lon="0.34648">
        <ele>83.4</ele>
        <time>2020-12-20T10:12:49Z</time>
      </trkpt>
      <trkpt lat="46.51466" lon="0.34647">
        <ele>83</ele>
        <time>2020-12-20T10:12:54Z</time>
      </trkpt>
      <trkpt lat="46.51472" lon="0.34632">
        <ele>83</ele>
        <time>2020-12-20T10:13:02Z</time>
      </trkpt>
      <trkpt lat="46.51477" lon="0.3461">
        <ele>82.6</ele>
        <time>2020-12-20T10:13:07Z</time>
      </trkpt>
      <trkpt lat="46.51487" lon="0.34579">
        <ele>82</ele>
        <time>2020-12-20T10:13:12Z</time>
      </trkpt>
      <trkpt lat="46.5149" lon="0.34572">
        <ele>81.8</ele>
        <time>2020-12-20T10:13:13Z</time>
      </trkpt>
      <trkpt lat="46.51497" lon="0.34548">
        <ele>81.6</ele>
        <time>2020-12-20T10:13:17Z</time>
      </trkpt>
      <trkpt lat="46.51507" lon="0.34524">
        <ele>82.2</ele>
        <time>2020-12-20T10:13:22Z</time>
      </trkpt>
      <trkpt lat="46.51519" lon="0.34505">
        <ele>82</ele>
        <time>2020-12-20T10:13:26Z</time>
      </trkpt>
      <trkpt lat="46.51528" lon="0.34492">
        <ele>81.8</ele>
        <time>2020-12-20T10:13:29Z</time>
      </trkpt>
      <trkpt lat="46.51538" lon="0.34477">
        <ele>81.2</ele>
        <time>2020-12-20T10:13:32Z</time>
      </trkpt>
      <trkpt lat="46.5155" lon="0.3446">
        <ele>80.8</ele>
        <time>2020-12-20T10:13:35Z</time>
      </trkpt>
      <trkpt lat="46.51558" lon="0.34448">
        <ele>80.6</ele>
        <time>2020-12-20T10:13:37Z</time>
      </trkpt>
      <trkpt lat="46.51568" lon="0.34437">
        <ele>80.4</ele>
        <time>2020-12-20T10:13:39Z</time>
      </trkpt>
      <trkpt lat="46.51586" lon="0.34416">
        <ele>79.6</ele>
        <time>2020-12-20T10:13:43Z</time>
      </trkpt>
      <trkpt lat="46.51607" lon="0.34391">
        <ele>78.6</ele>
        <time>2020-12-20T10:13:48Z</time>
      </trkpt>
      <trkpt lat="46.51611" lon="0.34386">
        <ele>78.4</ele>
        <time>2020-12-20T10:13:49Z</time>
      </trkpt>
      <trkpt lat="46.51628" lon="0.34362">
        <ele>76.8</ele>
        <time>2020-12-20T10:13:53Z</time>
      </trkpt>
      <trkpt lat="46.51639" lon="0.3435">
        <ele>75.4</ele>
        <time>2020-12-20T10:13:55Z</time>
      </trkpt>
      <trkpt lat="46.51651" lon="0.34335">
        <ele>73.2</ele>
        <time>2020-12-20T10:13:57Z</time>
      </trkpt>
      <trkpt lat="46.51662" lon="0.34317">
        <ele>72</ele>
        <time>2020-12-20T10:13:59Z</time>
      </trkpt>
      <trkpt lat="46.51668" lon="0.343">
        <ele>70</ele>
        <time>2020-12-20T10:14:01Z</time>
      </trkpt>
      <trkpt lat="46.51669" lon="0.34293">
        <ele>69.6</ele>
        <time>2020-12-20T10:14:02Z</time>
      </trkpt>
      <trkpt lat="46.51668" lon="0.34287">
        <ele>67.4</ele>
        <time>2020-12-20T10:14:03Z</time>
      </trkpt>
      <trkpt lat="46.51674" lon="0.3427">
        <ele>66.4</ele>
        <time>2020-12-20T10:14:06Z</time>
      </trkpt>
      <trkpt lat="46.51681" lon="0.34254">
        <ele>65.6</ele>
        <time>2020-12-20T10:14:08Z</time>
      </trkpt>
      <trkpt lat="46.51683" lon="0.34242">
        <ele>65.2</ele>
        <time>2020-12-20T10:14:09Z</time>
      </trkpt>
      <trkpt lat="46.51688" lon="0.34217">
        <ele>64.2</ele>
        <time>2020-12-20T10:14:11Z</time>
      </trkpt>
      <trkpt lat="46.51695" lon="0.3419">
        <ele>62.2</ele>
        <time>2020-12-20T10:14:12Z</time>
      </trkpt>
      <trkpt lat="46.51695" lon="0.3419">
        <ele>62.2</ele>
        <time>2020-12-20T10:14:13Z</time>
      </trkpt>
      <trkpt lat="46.51699" lon="0.34178">
        <ele>61.8</ele>
        <time>2020-12-20T10:14:14Z</time>
      </trkpt>
      <trkpt lat="46.51705" lon="0.34166">
        <ele>61.2</ele>
        <time>2020-12-20T10:14:15Z</time>
      </trkpt>
      <trkpt lat="46.51715" lon="0.34141">
        <ele>60.6</ele>
        <time>2020-12-20T10:14:17Z</time>
      </trkpt>
      <trkpt lat="46.51724" lon="0.34116">
        <ele>60</ele>
        <time>2020-12-20T10:14:19Z</time>
      </trkpt>
      <trkpt lat="46.5173" lon="0.34093">
        <ele>59.2</ele>
        <time>2020-12-20T10:14:21Z</time>
      </trkpt>
      <trkpt lat="46.51732" lon="0.34082">
        <ele>59</ele>
        <time>2020-12-20T10:14:22Z</time>
      </trkpt>
      <trkpt lat="46.51733" lon="0.34063">
        <ele>58.4</ele>
        <time>2020-12-20T10:14:24Z</time>
      </trkpt>
      <trkpt lat="46.51734" lon="0.34051">
        <ele>57.8</ele>
        <time>2020-12-20T10:14:26Z</time>
      </trkpt>
      <trkpt lat="46.51733" lon="0.34047">
        <ele>57.6</ele>
        <time>2020-12-20T10:14:27Z</time>
      </trkpt>
      <trkpt lat="46.51733" lon="0.34035">
        <ele>56.8</ele>
        <time>2020-12-20T10:14:32Z</time>
      </trkpt>
      <trkpt lat="46.51732" lon="0.34033">
        <ele>56.6</ele>
        <time>2020-12-20T10:14:45Z</time>
      </trkpt>
      <trkpt lat="46.51732" lon="0.34032">
        <ele>56.6</ele>
        <time>2020-12-20T10:15:04Z</time>
      </trkpt>
      <trkpt lat="46.51732" lon="0.34032">
        <ele>56.4</ele>
        <time>2020-12-20T10:15:18Z</time>
      </trkpt>
      <trkpt lat="46.51732" lon="0.34032">
        <ele>56.6</ele>
        <time>2020-12-20T10:15:37Z</time>
      </trkpt>
      <trkpt lat="46.51733" lon="0.3403">
        <ele>56.6</ele>
        <time>2020-12-20T10:15:47Z</time>
      </trkpt>
      <trkpt lat="46.51734" lon="0.34027">
        <ele>56.6</ele>
        <time>2020-12-20T10:15:49Z</time>
      </trkpt>
      <trkpt lat="46.51735" lon="0.34023">
        <ele>56.2</ele>
        <time>2020-12-20T10:15:56Z</time>
      </trkpt>
      <trkpt lat="46.51739" lon="0.34022">
        <ele>56</ele>
        <time>2020-12-20T10:16:09Z</time>
      </trkpt>
      <trkpt lat="46.51748" lon="0.34027">
        <ele>56.2</ele>
        <time>2020-12-20T10:16:20Z</time>
      </trkpt>
      <trkpt lat="46.51758" lon="0.34033">
        <ele>56.2</ele>
        <time>2020-12-20T10:16:24Z</time>
      </trkpt>
      <trkpt lat="46.51766" lon="0.34037">
        <ele>56.2</ele>
        <time>2020-12-20T10:16:26Z</time>
      </trkpt>
      <trkpt lat="46.51779" lon="0.34043">
        <ele>56.2</ele>
        <time>2020-12-20T10:16:29Z</time>
      </trkpt>
      <trkpt lat="46.51788" lon="0.34045">
        <ele>56.4</ele>
        <time>2020-12-20T10:16:31Z</time>
      </trkpt>
      <trkpt lat="46.51801" lon="0.34044">
        <ele>56.6</ele>
        <time>2020-12-20T10:16:33Z</time>
      </trkpt>
      <trkpt lat="46.51808" lon="0.34042">
        <ele>56.6</ele>
        <time>2020-12-20T10:16:34Z</time>
      </trkpt>
      <trkpt lat="46.51827" lon="0.34039">
        <ele>56.6</ele>
        <time>2020-12-20T10:16:37Z</time>
      </trkpt>
      <trkpt lat="46.51839" lon="0.34043">
        <ele>56.8</ele>
        <time>2020-12-20T10:16:39Z</time>
      </trkpt>
      <trkpt lat="46.51857" lon="0.34054">
        <ele>56.8</ele>
        <time>2020-12-20T10:16:42Z</time>
      </trkpt>
      <trkpt lat="46.51863" lon="0.34054">
        <ele>56.8</ele>
        <time>2020-12-20T10:16:43Z</time>
      </trkpt>
      <trkpt lat="46.51877" lon="0.34052">
        <ele>56.8</ele>
        <time>2020-12-20T10:16:45Z</time>
      </trkpt>
      <trkpt lat="46.51898" lon="0.34046">
        <ele>56.8</ele>
        <time>2020-12-20T10:16:48Z</time>
      </trkpt>
      <trkpt lat="46.51938" lon="0.34034">
        <ele>56.6</ele>
        <time>2020-12-20T10:16:54Z</time>
      </trkpt>
      <trkpt lat="46.51962" lon="0.34027">
        <ele>56.4</ele>
        <time>2020-12-20T10:16:58Z</time>
      </trkpt>
      <trkpt lat="46.51969" lon="0.34019">
        <ele>56.4</ele>
        <time>2020-12-20T10:17:00Z</time>
      </trkpt>
      <trkpt lat="46.51969" lon="0.34008">
        <ele>56.4</ele>
        <time>2020-12-20T10:17:02Z</time>
      </trkpt>
      <trkpt lat="46.51968" lon="0.34003">
        <ele>56.4</ele>
        <time>2020-12-20T10:17:03Z</time>
      </trkpt>
      <trkpt lat="46.51966" lon="0.3398">
        <ele>56.4</ele>
        <time>2020-12-20T10:17:08Z</time>
      </trkpt>
      <trkpt lat="46.51972" lon="0.33966">
        <ele>55.8</ele>
        <time>2020-12-20T10:17:11Z</time>
      </trkpt>
      <trkpt lat="46.51972" lon="0.33959">
        <ele>55.6</ele>
        <time>2020-12-20T10:17:12Z</time>
      </trkpt>
      <trkpt lat="46.51973" lon="0.33946">
        <ele>55.4</ele>
        <time>2020-12-20T10:17:14Z</time>
      </trkpt>
      <trkpt lat="46.51975" lon="0.33932">
        <ele>55.4</ele>
        <time>2020-12-20T10:17:16Z</time>
      </trkpt>
      <trkpt lat="46.51978" lon="0.33886">
        <ele>56.4</ele>
        <time>2020-12-20T10:17:23Z</time>
      </trkpt>
      <trkpt lat="46.51982" lon="0.33863">
        <ele>55.8</ele>
        <time>2020-12-20T10:17:27Z</time>
      </trkpt>
      <trkpt lat="46.51982" lon="0.3385">
        <ele>55.8</ele>
        <time>2020-12-20T10:17:29Z</time>
      </trkpt>
      <trkpt lat="46.51984" lon="0.33827">
        <ele>55.8</ele>
        <time>2020-12-20T10:17:33Z</time>
      </trkpt>
      <trkpt lat="46.51986" lon="0.33817">
        <ele>55.8</ele>
        <time>2020-12-20T10:17:35Z</time>
      </trkpt>
      <trkpt lat="46.51991" lon="0.33789">
        <ele>55.6</ele>
        <time>2020-12-20T10:17:41Z</time>
      </trkpt>
      <trkpt lat="46.51998" lon="0.33756">
        <ele>55.6</ele>
        <time>2020-12-20T10:17:48Z</time>
      </trkpt>
      <trkpt lat="46.52001" lon="0.33738">
        <ele>55.2</ele>
        <time>2020-12-20T10:17:53Z</time>
      </trkpt>
      <trkpt lat="46.52004" lon="0.33733">
        <ele>55.2</ele>
        <time>2020-12-20T10:17:55Z</time>
      </trkpt>
      <trkpt lat="46.52014" lon="0.3373">
        <ele>55.6</ele>
        <time>2020-12-20T10:18:01Z</time>
      </trkpt>
      <trkpt lat="46.52033" lon="0.33729">
        <ele>55.8</ele>
        <time>2020-12-20T10:18:07Z</time>
      </trkpt>
      <trkpt lat="46.52055" lon="0.33733">
        <ele>55.8</ele>
        <time>2020-12-20T10:18:13Z</time>
      </trkpt>
      <trkpt lat="46.52056" lon="0.33735">
        <ele>55.8</ele>
        <time>2020-12-20T10:18:14Z</time>
      </trkpt>
      <trkpt lat="46.52057" lon="0.33738">
        <ele>56.2</ele>
        <time>2020-12-20T10:18:15Z</time>
      </trkpt>
      <trkpt lat="46.52056" lon="0.33753">
        <ele>56.6</ele>
        <time>2020-12-20T10:18:18Z</time>
      </trkpt>
      <trkpt lat="46.52055" lon="0.33759">
        <ele>56.8</ele>
        <time>2020-12-20T10:18:19Z</time>
      </trkpt>
      <trkpt lat="46.52054" lon="0.33764">
        <ele>56.8</ele>
        <time>2020-12-20T10:18:20Z</time>
      </trkpt>
      <trkpt lat="46.52056" lon="0.33778">
        <ele>56.8</ele>
        <time>2020-12-20T10:18:23Z</time>
      </trkpt>
      <trkpt lat="46.52057" lon="0.33792">
        <ele>56.6</ele>
        <time>2020-12-20T10:18:26Z</time>
      </trkpt>
      <trkpt lat="46.52059" lon="0.33801">
        <ele>56.4</ele>
        <time>2020-12-20T10:18:28Z</time>
      </trkpt>
      <trkpt lat="46.52062" lon="0.3382">
        <ele>56</ele>
        <time>2020-12-20T10:18:34Z</time>
      </trkpt>
      <trkpt lat="46.52065" lon="0.33845">
        <ele>56.4</ele>
        <time>2020-12-20T10:18:39Z</time>
      </trkpt>
      <trkpt lat="46.52068" lon="0.33874">
        <ele>56.4</ele>
        <time>2020-12-20T10:18:43Z</time>
      </trkpt>
      <trkpt lat="46.5207" lon="0.33888">
        <ele>56.2</ele>
        <time>2020-12-20T10:18:45Z</time>
      </trkpt>
      <trkpt lat="46.5208" lon="0.3393">
        <ele>56</ele>
        <time>2020-12-20T10:18:51Z</time>
      </trkpt>
      <trkpt lat="46.52084" lon="0.33942">
        <ele>56.2</ele>
        <time>2020-12-20T10:18:53Z</time>
      </trkpt>
      <trkpt lat="46.52088" lon="0.33951">
        <ele>56.2</ele>
        <time>2020-12-20T10:18:55Z</time>
      </trkpt>
      <trkpt lat="46.52091" lon="0.33954">
        <ele>56.2</ele>
        <time>2020-12-20T10:18:56Z</time>
      </trkpt>
      <trkpt lat="46.52094" lon="0.33957">
        <ele>56.2</ele>
        <time>2020-12-20T10:18:57Z</time>
      </trkpt>
      <trkpt lat="46.52107" lon="0.33963">
        <ele>56.2</ele>
        <time>2020-12-20T10:19:00Z</time>
      </trkpt>
      <trkpt lat="46.52136" lon="0.33972">
        <ele>56.2</ele>
        <time>2020-12-20T10:19:05Z</time>
      </trkpt>
      <trkpt lat="46.52146" lon="0.33975">
        <ele>55.8</ele>
        <time>2020-12-20T10:19:07Z</time>
      </trkpt>
      <trkpt lat="46.52151" lon="0.33975">
        <ele>55.6</ele>
        <time>2020-12-20T10:19:08Z</time>
      </trkpt>
      <trkpt lat="46.5216" lon="0.33975">
        <ele>55.4</ele>
        <time>2020-12-20T10:19:10Z</time>
      </trkpt>
      <trkpt lat="46.52184" lon="0.33973">
        <ele>55.4</ele>
        <time>2020-12-20T10:19:16Z</time>
      </trkpt>
      <trkpt lat="46.5221" lon="0.33967">
        <ele>55.4</ele>
        <time>2020-12-20T10:19:22Z</time>
      </trkpt>
      <trkpt lat="46.52229" lon="0.33953">
        <ele>55.6</ele>
        <time>2020-12-20T10:19:27Z</time>
      </trkpt>
      <trkpt lat="46.52246" lon="0.33939">
        <ele>55.8</ele>
        <time>2020-12-20T10:19:31Z</time>
      </trkpt>
      <trkpt lat="46.52258" lon="0.3393">
        <ele>56</ele>
        <time>2020-12-20T10:19:34Z</time>
      </trkpt>
      <trkpt lat="46.52273" lon="0.33917">
        <ele>56.6</ele>
        <time>2020-12-20T10:19:38Z</time>
      </trkpt>
      <trkpt lat="46.52284" lon="0.33907">
        <ele>56.8</ele>
        <time>2020-12-20T10:19:41Z</time>
      </trkpt>
      <trkpt lat="46.52288" lon="0.33904">
        <ele>56.8</ele>
        <time>2020-12-20T10:19:42Z</time>
      </trkpt>
      <trkpt lat="46.52305" lon="0.33891">
        <ele>56.6</ele>
        <time>2020-12-20T10:19:46Z</time>
      </trkpt>
      <trkpt lat="46.5232" lon="0.33884">
        <ele>56.8</ele>
        <time>2020-12-20T10:19:49Z</time>
      </trkpt>
      <trkpt lat="46.52371" lon="0.33854">
        <ele>56.4</ele>
        <time>2020-12-20T10:19:58Z</time>
      </trkpt>
      <trkpt lat="46.52415" lon="0.3382">
        <ele>55.8</ele>
        <time>2020-12-20T10:20:06Z</time>
      </trkpt>
      <trkpt lat="46.5245" lon="0.33783">
        <ele>55.8</ele>
        <time>2020-12-20T10:20:12Z</time>
      </trkpt>
      <trkpt lat="46.52477" lon="0.33751">
        <ele>55.6</ele>
        <time>2020-12-20T10:20:19Z</time>
      </trkpt>
      <trkpt lat="46.52485" lon="0.33741">
        <ele>55.2</ele>
        <time>2020-12-20T10:20:21Z</time>
      </trkpt>
      <trkpt lat="46.52492" lon="0.33731">
        <ele>55</ele>
        <time>2020-12-20T10:20:23Z</time>
      </trkpt>
      <trkpt lat="46.52499" lon="0.33714">
        <ele>55.8</ele>
        <time>2020-12-20T10:20:26Z</time>
      </trkpt>
      <trkpt lat="46.52505" lon="0.33697">
        <ele>56.2</ele>
        <time>2020-12-20T10:20:29Z</time>
      </trkpt>
      <trkpt lat="46.52506" lon="0.33686">
        <ele>56.6</ele>
        <time>2020-12-20T10:20:31Z</time>
      </trkpt>
      <trkpt lat="46.52506" lon="0.3368">
        <ele>57</ele>
        <time>2020-12-20T10:20:32Z</time>
      </trkpt>
      <trkpt lat="46.52506" lon="0.3367">
        <ele>57.6</ele>
        <time>2020-12-20T10:20:34Z</time>
      </trkpt>
      <trkpt lat="46.52508" lon="0.33657">
        <ele>59</ele>
        <time>2020-12-20T10:20:37Z</time>
      </trkpt>
      <trkpt lat="46.52513" lon="0.33644">
        <ele>60</ele>
        <time>2020-12-20T10:20:42Z</time>
      </trkpt>
      <trkpt lat="46.52515" lon="0.33639">
        <ele>60.6</ele>
        <time>2020-12-20T10:20:44Z</time>
      </trkpt>
      <trkpt lat="46.52517" lon="0.33634">
        <ele>61</ele>
        <time>2020-12-20T10:20:46Z</time>
      </trkpt>
      <trkpt lat="46.52523" lon="0.33624">
        <ele>62</ele>
        <time>2020-12-20T10:20:50Z</time>
      </trkpt>
      <trkpt lat="46.52526" lon="0.33617">
        <ele>62.4</ele>
        <time>2020-12-20T10:20:52Z</time>
      </trkpt>
      <trkpt lat="46.5253" lon="0.33607">
        <ele>63</ele>
        <time>2020-12-20T10:20:55Z</time>
      </trkpt>
      <trkpt lat="46.52533" lon="0.33592">
        <ele>63.8</ele>
        <time>2020-12-20T10:20:59Z</time>
      </trkpt>
      <trkpt lat="46.52534" lon="0.33586">
        <ele>64.2</ele>
        <time>2020-12-20T10:21:01Z</time>
      </trkpt>
      <trkpt lat="46.52533" lon="0.33571">
        <ele>65</ele>
        <time>2020-12-20T10:21:06Z</time>
      </trkpt>
      <trkpt lat="46.52533" lon="0.33564">
        <ele>65.6</ele>
        <time>2020-12-20T10:21:08Z</time>
      </trkpt>
      <trkpt lat="46.52532" lon="0.33545">
        <ele>66.8</ele>
        <time>2020-12-20T10:21:13Z</time>
      </trkpt>
      <trkpt lat="46.52531" lon="0.33523">
        <ele>67.8</ele>
        <time>2020-12-20T10:21:19Z</time>
      </trkpt>
      <trkpt lat="46.52531" lon="0.33506">
        <ele>68.2</ele>
        <time>2020-12-20T10:21:23Z</time>
      </trkpt>
      <trkpt lat="46.52531" lon="0.33491">
        <ele>69.2</ele>
        <time>2020-12-20T10:21:27Z</time>
      </trkpt>
      <trkpt lat="46.52531" lon="0.33482">
        <ele>69.6</ele>
        <time>2020-12-20T10:21:29Z</time>
      </trkpt>
      <trkpt lat="46.52534" lon="0.33449">
        <ele>70</ele>
        <time>2020-12-20T10:21:36Z</time>
      </trkpt>
      <trkpt lat="46.52534" lon="0.33432">
        <ele>70.4</ele>
        <time>2020-12-20T10:21:39Z</time>
      </trkpt>
      <trkpt lat="46.52534" lon="0.33421">
        <ele>70.6</ele>
        <time>2020-12-20T10:21:41Z</time>
      </trkpt>
      <trkpt lat="46.5253" lon="0.33392">
        <ele>71.4</ele>
        <time>2020-12-20T10:21:47Z</time>
      </trkpt>
      <trkpt lat="46.52528" lon="0.33381">
        <ele>71.8</ele>
        <time>2020-12-20T10:21:49Z</time>
      </trkpt>
      <trkpt lat="46.52529" lon="0.33357">
        <ele>72.4</ele>
        <time>2020-12-20T10:21:54Z</time>
      </trkpt>
      <trkpt lat="46.52531" lon="0.33353">
        <ele>72.6</ele>
        <time>2020-12-20T10:21:55Z</time>
      </trkpt>
      <trkpt lat="46.52534" lon="0.33351">
        <ele>72.6</ele>
        <time>2020-12-20T10:21:56Z</time>
      </trkpt>
      <trkpt lat="46.5254" lon="0.3335">
        <ele>72.8</ele>
        <time>2020-12-20T10:21:58Z</time>
      </trkpt>
      <trkpt lat="46.52562" lon="0.3335">
        <ele>72.6</ele>
        <time>2020-12-20T10:22:04Z</time>
      </trkpt>
      <trkpt lat="46.52587" lon="0.33362">
        <ele>72.6</ele>
        <time>2020-12-20T10:22:10Z</time>
      </trkpt>
      <trkpt lat="46.526" lon="0.33371">
        <ele>72.4</ele>
        <time>2020-12-20T10:22:12Z</time>
      </trkpt>
      <trkpt lat="46.52608" lon="0.33377">
        <ele>72.2</ele>
        <time>2020-12-20T10:22:15Z</time>
      </trkpt>
      <trkpt lat="46.5262" lon="0.33391">
        <ele>72.4</ele>
        <time>2020-12-20T10:22:19Z</time>
      </trkpt>
      <trkpt lat="46.52622" lon="0.33394">
        <ele>72.6</ele>
        <time>2020-12-20T10:22:20Z</time>
      </trkpt>
      <trkpt lat="46.52625" lon="0.33402">
        <ele>72.8</ele>
        <time>2020-12-20T10:22:22Z</time>
      </trkpt>
      <trkpt lat="46.52629" lon="0.33407">
        <ele>73.2</ele>
        <time>2020-12-20T10:22:24Z</time>
      </trkpt>
      <trkpt lat="46.52632" lon="0.33409">
        <ele>73.4</ele>
        <time>2020-12-20T10:22:25Z</time>
      </trkpt>
      <trkpt lat="46.52635" lon="0.3341">
        <ele>73.6</ele>
        <time>2020-12-20T10:22:26Z</time>
      </trkpt>
      <trkpt lat="46.52649" lon="0.33413">
        <ele>74.4</ele>
        <time>2020-12-20T10:22:31Z</time>
      </trkpt>
      <trkpt lat="46.52654" lon="0.33415">
        <ele>74.6</ele>
        <time>2020-12-20T10:22:33Z</time>
      </trkpt>
      <trkpt lat="46.52666" lon="0.3342">
        <ele>75.6</ele>
        <time>2020-12-20T10:22:38Z</time>
      </trkpt>
      <trkpt lat="46.52669" lon="0.33421">
        <ele>75.6</ele>
        <time>2020-12-20T10:22:39Z</time>
      </trkpt>
      <trkpt lat="46.5268" lon="0.33425">
        <ele>76.8</ele>
        <time>2020-12-20T10:22:43Z</time>
      </trkpt>
      <trkpt lat="46.52686" lon="0.33426">
        <ele>77</ele>
        <time>2020-12-20T10:22:45Z</time>
      </trkpt>
      <trkpt lat="46.52704" lon="0.33426">
        <ele>77.8</ele>
        <time>2020-12-20T10:22:51Z</time>
      </trkpt>
      <trkpt lat="46.52722" lon="0.33428">
        <ele>78.8</ele>
        <time>2020-12-20T10:22:57Z</time>
      </trkpt>
      <trkpt lat="46.52724" lon="0.33429">
        <ele>78.8</ele>
        <time>2020-12-20T10:22:58Z</time>
      </trkpt>
      <trkpt lat="46.52736" lon="0.33439">
        <ele>79.2</ele>
        <time>2020-12-20T10:23:02Z</time>
      </trkpt>
      <trkpt lat="46.52754" lon="0.33443">
        <ele>79.2</ele>
        <time>2020-12-20T10:23:07Z</time>
      </trkpt>
      <trkpt lat="46.52765" lon="0.3344">
        <ele>80</ele>
        <time>2020-12-20T10:23:11Z</time>
      </trkpt>
      <trkpt lat="46.52771" lon="0.33438">
        <ele>80.2</ele>
        <time>2020-12-20T10:23:13Z</time>
      </trkpt>
      <trkpt lat="46.52783" lon="0.33433">
        <ele>80.6</ele>
        <time>2020-12-20T10:23:19Z</time>
      </trkpt>
      <trkpt lat="46.52786" lon="0.33432">
        <ele>80.8</ele>
        <time>2020-12-20T10:23:27Z</time>
      </trkpt>
      <trkpt lat="46.52788" lon="0.33433">
        <ele>81</ele>
        <time>2020-12-20T10:23:39Z</time>
      </trkpt>
      <trkpt lat="46.52789" lon="0.33432">
        <ele>80.6</ele>
        <time>2020-12-20T10:23:47Z</time>
      </trkpt>
      <trkpt lat="46.52796" lon="0.33429">
        <ele>80.8</ele>
        <time>2020-12-20T10:24:04Z</time>
      </trkpt>
      <trkpt lat="46.52795" lon="0.3343">
        <ele>80.4</ele>
        <time>2020-12-20T10:24:23Z</time>
      </trkpt>
      <trkpt lat="46.52797" lon="0.33432">
        <ele>80.4</ele>
        <time>2020-12-20T10:24:36Z</time>
      </trkpt>
      <trkpt lat="46.52797" lon="0.33432">
        <ele>80.4</ele>
        <time>2020-12-20T10:24:54Z</time>
      </trkpt>
      <trkpt lat="46.52798" lon="0.33432">
        <ele>80.4</ele>
        <time>2020-12-20T10:25:10Z</time>
      </trkpt>
      <trkpt lat="46.52801" lon="0.33432">
        <ele>80.4</ele>
        <time>2020-12-20T10:25:26Z</time>
      </trkpt>
      <trkpt lat="46.52801" lon="0.33433">
        <ele>80.4</ele>
        <time>2020-12-20T10:25:42Z</time>
      </trkpt>
      <trkpt lat="46.52801" lon="0.33432">
        <ele>80.4</ele>
        <time>2020-12-20T10:26:00Z</time>
      </trkpt>
      <trkpt lat="46.52802" lon="0.33431">
        <ele>80.4</ele>
        <time>2020-12-20T10:26:13Z</time>
      </trkpt>
      <trkpt lat="46.52809" lon="0.33427">
        <ele>80.4</ele>
        <time>2020-12-20T10:26:24Z</time>
      </trkpt>
      <trkpt lat="46.52822" lon="0.33423">
        <ele>80</ele>
        <time>2020-12-20T10:26:31Z</time>
      </trkpt>
      <trkpt lat="46.52826" lon="0.3342">
        <ele>80</ele>
        <time>2020-12-20T10:26:33Z</time>
      </trkpt>
      <trkpt lat="46.52842" lon="0.33414">
        <ele>79.8</ele>
        <time>2020-12-20T10:26:38Z</time>
      </trkpt>
      <trkpt lat="46.52861" lon="0.33415">
        <ele>80.2</ele>
        <time>2020-12-20T10:26:44Z</time>
      </trkpt>
      <trkpt lat="46.52872" lon="0.33418">
        <ele>81</ele>
        <time>2020-12-20T10:26:48Z</time>
      </trkpt>
      <trkpt lat="46.52874" lon="0.33418">
        <ele>81.4</ele>
        <time>2020-12-20T10:26:49Z</time>
      </trkpt>
      <trkpt lat="46.52882" lon="0.33418">
        <ele>82.2</ele>
        <time>2020-12-20T10:26:52Z</time>
      </trkpt>
      <trkpt lat="46.52889" lon="0.3342">
        <ele>82.6</ele>
        <time>2020-12-20T10:26:55Z</time>
      </trkpt>
      <trkpt lat="46.52892" lon="0.33421">
        <ele>83.2</ele>
        <time>2020-12-20T10:26:56Z</time>
      </trkpt>
      <trkpt lat="46.52901" lon="0.33421">
        <ele>84.2</ele>
        <time>2020-12-20T10:26:59Z</time>
      </trkpt>
      <trkpt lat="46.52907" lon="0.33421">
        <ele>84.8</ele>
        <time>2020-12-20T10:27:01Z</time>
      </trkpt>
      <trkpt lat="46.5292" lon="0.33421">
        <ele>85.4</ele>
        <time>2020-12-20T10:27:05Z</time>
      </trkpt>
      <trkpt lat="46.52929" lon="0.33419">
        <ele>86.2</ele>
        <time>2020-12-20T10:27:08Z</time>
      </trkpt>
      <trkpt lat="46.52933" lon="0.33421">
        <ele>86.4</ele>
        <time>2020-12-20T10:27:10Z</time>
      </trkpt>
      <trkpt lat="46.5294" lon="0.33426">
        <ele>86.6</ele>
        <time>2020-12-20T10:27:13Z</time>
      </trkpt>
      <trkpt lat="46.52949" lon="0.33444">
        <ele>86.2</ele>
        <time>2020-12-20T10:27:19Z</time>
      </trkpt>
      <trkpt lat="46.52955" lon="0.33451">
        <ele>85.6</ele>
        <time>2020-12-20T10:27:21Z</time>
      </trkpt>
      <trkpt lat="46.52962" lon="0.33457">
        <ele>85.4</ele>
        <time>2020-12-20T10:27:23Z</time>
      </trkpt>
      <trkpt lat="46.52965" lon="0.33461">
        <ele>85.4</ele>
        <time>2020-12-20T10:27:24Z</time>
      </trkpt>
      <trkpt lat="46.52973" lon="0.33481">
        <ele>85.4</ele>
        <time>2020-12-20T10:27:27Z</time>
      </trkpt>
      <trkpt lat="46.52983" lon="0.33493">
        <ele>85.4</ele>
        <time>2020-12-20T10:27:29Z</time>
      </trkpt>
      <trkpt lat="46.52997" lon="0.33507">
        <ele>84.6</ele>
        <time>2020-12-20T10:27:32Z</time>
      </trkpt>
      <trkpt lat="46.53" lon="0.33513">
        <ele>84.2</ele>
        <time>2020-12-20T10:27:33Z</time>
      </trkpt>
      <trkpt lat="46.53004" lon="0.33516">
        <ele>84</ele>
        <time>2020-12-20T10:27:34Z</time>
      </trkpt>
      <trkpt lat="46.53013" lon="0.33518">
        <ele>83.8</ele>
        <time>2020-12-20T10:27:36Z</time>
      </trkpt>
      <trkpt lat="46.53032" lon="0.33526">
        <ele>84</ele>
        <time>2020-12-20T10:27:40Z</time>
      </trkpt>
      <trkpt lat="46.5304" lon="0.33531">
        <ele>84</ele>
        <time>2020-12-20T10:27:42Z</time>
      </trkpt>
      <trkpt lat="46.53058" lon="0.33541">
        <ele>84</ele>
        <time>2020-12-20T10:27:46Z</time>
      </trkpt>
      <trkpt lat="46.53067" lon="0.33544">
        <ele>84</ele>
        <time>2020-12-20T10:27:48Z</time>
      </trkpt>
      <trkpt lat="46.53073" lon="0.33546">
        <ele>84.4</ele>
        <time>2020-12-20T10:27:50Z</time>
      </trkpt>
      <trkpt lat="46.53083" lon="0.33548">
        <ele>85.2</ele>
        <time>2020-12-20T10:27:53Z</time>
      </trkpt>
      <trkpt lat="46.53088" lon="0.33548">
        <ele>85.4</ele>
        <time>2020-12-20T10:27:54Z</time>
      </trkpt>
      <trkpt lat="46.53097" lon="0.33548">
        <ele>85.8</ele>
        <time>2020-12-20T10:27:56Z</time>
      </trkpt>
      <trkpt lat="46.53107" lon="0.33551">
        <ele>86.4</ele>
        <time>2020-12-20T10:27:58Z</time>
      </trkpt>
      <trkpt lat="46.53139" lon="0.33562">
        <ele>86.6</ele>
        <time>2020-12-20T10:28:05Z</time>
      </trkpt>
      <trkpt lat="46.53143" lon="0.33564">
        <ele>86.6</ele>
        <time>2020-12-20T10:28:06Z</time>
      </trkpt>
      <trkpt lat="46.53153" lon="0.33575">
        <ele>86.6</ele>
        <time>2020-12-20T10:28:09Z</time>
      </trkpt>
      <trkpt lat="46.53156" lon="0.33578">
        <ele>86.6</ele>
        <time>2020-12-20T10:28:10Z</time>
      </trkpt>
      <trkpt lat="46.53167" lon="0.33584">
        <ele>86.4</ele>
        <time>2020-12-20T10:28:12Z</time>
      </trkpt>
      <trkpt lat="46.53167" lon="0.33584">
        <ele>86.4</ele>
        <time>2020-12-20T10:28:13Z</time>
      </trkpt>
      <trkpt lat="46.53171" lon="0.33584">
        <ele>86.4</ele>
        <time>2020-12-20T10:28:14Z</time>
      </trkpt>
      <trkpt lat="46.53187" lon="0.33584">
        <ele>86.6</ele>
        <time>2020-12-20T10:28:18Z</time>
      </trkpt>
      <trkpt lat="46.53203" lon="0.33589">
        <ele>87.6</ele>
        <time>2020-12-20T10:28:23Z</time>
      </trkpt>
      <trkpt lat="46.53216" lon="0.33595">
        <ele>88</ele>
        <time>2020-12-20T10:28:29Z</time>
      </trkpt>
      <trkpt lat="46.53225" lon="0.33603">
        <ele>87.8</ele>
        <time>2020-12-20T10:28:36Z</time>
      </trkpt>
      <trkpt lat="46.53231" lon="0.33603">
        <ele>88.2</ele>
        <time>2020-12-20T10:28:48Z</time>
      </trkpt>
      <trkpt lat="46.53239" lon="0.33602">
        <ele>88</ele>
        <time>2020-12-20T10:29:05Z</time>
      </trkpt>
      <trkpt lat="46.53246" lon="0.33612">
        <ele>87.2</ele>
        <time>2020-12-20T10:29:14Z</time>
      </trkpt>
      <trkpt lat="46.53247" lon="0.33615">
        <ele>86.4</ele>
        <time>2020-12-20T10:29:16Z</time>
      </trkpt>
      <trkpt lat="46.53249" lon="0.3362">
        <ele>85.2</ele>
        <time>2020-12-20T10:29:20Z</time>
      </trkpt>
      <trkpt lat="46.53247" lon="0.33621">
        <ele>84.8</ele>
        <time>2020-12-20T10:29:23Z</time>
      </trkpt>
      <trkpt lat="46.53246" lon="0.33621">
        <ele>84</ele>
        <time>2020-12-20T10:29:26Z</time>
      </trkpt>
      <trkpt lat="46.53245" lon="0.33621">
        <ele>83.6</ele>
        <time>2020-12-20T10:29:27Z</time>
      </trkpt>
      <trkpt lat="46.53243" lon="0.33621">
        <ele>83</ele>
        <time>2020-12-20T10:29:30Z</time>
      </trkpt>
      <trkpt lat="46.53241" lon="0.33622">
        <ele>81.8</ele>
        <time>2020-12-20T10:29:33Z</time>
      </trkpt>
      <trkpt lat="46.5324" lon="0.33622">
        <ele>81.4</ele>
        <time>2020-12-20T10:29:36Z</time>
      </trkpt>
      <trkpt lat="46.53239" lon="0.33624">
        <ele>80.8</ele>
        <time>2020-12-20T10:29:42Z</time>
      </trkpt>
      <trkpt lat="46.5324" lon="0.33627">
        <ele>80.6</ele>
        <time>2020-12-20T10:29:45Z</time>
      </trkpt>
      <trkpt lat="46.5324" lon="0.33628">
        <ele>80.4</ele>
        <time>2020-12-20T10:29:47Z</time>
      </trkpt>
      <trkpt lat="46.53242" lon="0.3363">
        <ele>79.6</ele>
        <time>2020-12-20T10:29:50Z</time>
      </trkpt>
      <trkpt lat="46.53242" lon="0.33631">
        <ele>79.2</ele>
        <time>2020-12-20T10:29:51Z</time>
      </trkpt>
      <trkpt lat="46.53243" lon="0.33633">
        <ele>78.4</ele>
        <time>2020-12-20T10:29:53Z</time>
      </trkpt>
      <trkpt lat="46.53244" lon="0.33633">
        <ele>78</ele>
        <time>2020-12-20T10:29:54Z</time>
      </trkpt>
      <trkpt lat="46.53245" lon="0.33635">
        <ele>77.2</ele>
        <time>2020-12-20T10:29:56Z</time>
      </trkpt>
      <trkpt lat="46.53246" lon="0.33636">
        <ele>77</ele>
        <time>2020-12-20T10:29:57Z</time>
      </trkpt>
      <trkpt lat="46.53247" lon="0.33637">
        <ele>75.6</ele>
        <time>2020-12-20T10:29:59Z</time>
      </trkpt>
      <trkpt lat="46.5325" lon="0.33639">
        <ele>74.6</ele>
        <time>2020-12-20T10:30:04Z</time>
      </trkpt>
      <trkpt lat="46.53252" lon="0.3364">
        <ele>74.2</ele>
        <time>2020-12-20T10:30:06Z</time>
      </trkpt>
      <trkpt lat="46.53254" lon="0.33643">
        <ele>73.4</ele>
        <time>2020-12-20T10:30:10Z</time>
      </trkpt>
      <trkpt lat="46.5325" lon="0.33646">
        <ele>72.4</ele>
        <time>2020-12-20T10:30:19Z</time>
      </trkpt>
      <trkpt lat="46.53242" lon="0.33644">
        <ele>71.2</ele>
        <time>2020-12-20T10:30:24Z</time>
      </trkpt>
      <trkpt lat="46.53237" lon="0.33644">
        <ele>70</ele>
        <time>2020-12-20T10:30:26Z</time>
      </trkpt>
      <trkpt lat="46.53235" lon="0.33644">
        <ele>69.2</ele>
        <time>2020-12-20T10:30:27Z</time>
      </trkpt>
      <trkpt lat="46.53234" lon="0.33643">
        <ele>68.6</ele>
        <time>2020-12-20T10:30:28Z</time>
      </trkpt>
      <trkpt lat="46.53232" lon="0.33642">
        <ele>68</ele>
        <time>2020-12-20T10:30:30Z</time>
      </trkpt>
      <trkpt lat="46.53232" lon="0.33642">
        <ele>67.6</ele>
        <time>2020-12-20T10:30:32Z</time>
      </trkpt>
      <trkpt lat="46.53231" lon="0.33643">
        <ele>67</ele>
        <time>2020-12-20T10:30:35Z</time>
      </trkpt>
      <trkpt lat="46.5323" lon="0.33644">
        <ele>66.4</ele>
        <time>2020-12-20T10:30:38Z</time>
      </trkpt>
      <trkpt lat="46.5323" lon="0.33647">
        <ele>65.4</ele>
        <time>2020-12-20T10:30:44Z</time>
      </trkpt>
      <trkpt lat="46.5323" lon="0.33649">
        <ele>65</ele>
        <time>2020-12-20T10:30:46Z</time>
      </trkpt>
      <trkpt lat="46.53232" lon="0.33653">
        <ele>64.2</ele>
        <time>2020-12-20T10:30:50Z</time>
      </trkpt>
      <trkpt lat="46.53232" lon="0.33653">
        <ele>63.8</ele>
        <time>2020-12-20T10:30:51Z</time>
      </trkpt>
      <trkpt lat="46.53233" lon="0.33653">
        <ele>63.2</ele>
        <time>2020-12-20T10:30:52Z</time>
      </trkpt>
      <trkpt lat="46.53233" lon="0.33654">
        <ele>62.8</ele>
        <time>2020-12-20T10:30:53Z</time>
      </trkpt>
      <trkpt lat="46.53237" lon="0.33655">
        <ele>62.2</ele>
        <time>2020-12-20T10:30:59Z</time>
      </trkpt>
      <trkpt lat="46.53237" lon="0.33656">
        <ele>61.6</ele>
        <time>2020-12-20T10:31:01Z</time>
      </trkpt>
      <trkpt lat="46.53239" lon="0.33656">
        <ele>60.4</ele>
        <time>2020-12-20T10:31:05Z</time>
      </trkpt>
      <trkpt lat="46.5324" lon="0.3366">
        <ele>59.2</ele>
        <time>2020-12-20T10:31:11Z</time>
      </trkpt>
      <trkpt lat="46.5324" lon="0.33662">
        <ele>58.8</ele>
        <time>2020-12-20T10:31:14Z</time>
      </trkpt>
      <trkpt lat="46.53244" lon="0.33665">
        <ele>58.4</ele>
        <time>2020-12-20T10:31:19Z</time>
      </trkpt>
      <trkpt lat="46.53245" lon="0.33669">
        <ele>58.4</ele>
        <time>2020-12-20T10:31:20Z</time>
      </trkpt>
      <trkpt lat="46.53237" lon="0.33683">
        <ele>58.4</ele>
        <time>2020-12-20T10:31:22Z</time>
      </trkpt>
      <trkpt lat="46.53236" lon="0.33686">
        <ele>58.2</ele>
        <time>2020-12-20T10:31:23Z</time>
      </trkpt>
      <trkpt lat="46.53234" lon="0.33688">
        <ele>57.8</ele>
        <time>2020-12-20T10:31:25Z</time>
      </trkpt>
      <trkpt lat="46.53229" lon="0.33692">
        <ele>57.2</ele>
        <time>2020-12-20T10:31:34Z</time>
      </trkpt>
      <trkpt lat="46.53229" lon="0.33692">
        <ele>57</ele>
        <time>2020-12-20T10:31:35Z</time>
      </trkpt>
      <trkpt lat="46.53229" lon="0.33695">
        <ele>56</ele>
        <time>2020-12-20T10:31:41Z</time>
      </trkpt>
      <trkpt lat="46.53229" lon="0.33697">
        <ele>54.8</ele>
        <time>2020-12-20T10:31:44Z</time>
      </trkpt>
      <trkpt lat="46.53229" lon="0.33699">
        <ele>53.8</ele>
        <time>2020-12-20T10:31:47Z</time>
      </trkpt>
      <trkpt lat="46.53229" lon="0.337">
        <ele>53.6</ele>
        <time>2020-12-20T10:31:48Z</time>
      </trkpt>
      <trkpt lat="46.53227" lon="0.33701">
        <ele>53.4</ele>
        <time>2020-12-20T10:31:58Z</time>
      </trkpt>
      <trkpt lat="46.53224" lon="0.33703">
        <ele>53</ele>
        <time>2020-12-20T10:32:12Z</time>
      </trkpt>
      <trkpt lat="46.53224" lon="0.33703">
        <ele>53</ele>
        <time>2020-12-20T10:32:30Z</time>
      </trkpt>
      <trkpt lat="46.53224" lon="0.33703">
        <ele>52.8</ele>
        <time>2020-12-20T10:32:48Z</time>
      </trkpt>
      <trkpt lat="46.53224" lon="0.33703">
        <ele>52.8</ele>
        <time>2020-12-20T10:33:03Z</time>
      </trkpt>
      <trkpt lat="46.53231" lon="0.33705">
        <ele>52.8</ele>
        <time>2020-12-20T10:33:12Z</time>
      </trkpt>
      <trkpt lat="46.53233" lon="0.33706">
        <ele>52.8</ele>
        <time>2020-12-20T10:33:13Z</time>
      </trkpt>
      <trkpt lat="46.53245" lon="0.33712">
        <ele>52.6</ele>
        <time>2020-12-20T10:33:18Z</time>
      </trkpt>
      <trkpt lat="46.53248" lon="0.33714">
        <ele>52.4</ele>
        <time>2020-12-20T10:33:19Z</time>
      </trkpt>
      <trkpt lat="46.53264" lon="0.33723">
        <ele>52.8</ele>
        <time>2020-12-20T10:33:24Z</time>
      </trkpt>
      <trkpt lat="46.53276" lon="0.33734">
        <ele>52.8</ele>
        <time>2020-12-20T10:33:28Z</time>
      </trkpt>
      <trkpt lat="46.53283" lon="0.33737">
        <ele>52.8</ele>
        <time>2020-12-20T10:33:30Z</time>
      </trkpt>
      <trkpt lat="46.53299" lon="0.33747">
        <ele>52.8</ele>
        <time>2020-12-20T10:33:34Z</time>
      </trkpt>
      <trkpt lat="46.53312" lon="0.33753">
        <ele>52.8</ele>
        <time>2020-12-20T10:33:37Z</time>
      </trkpt>
      <trkpt lat="46.5333" lon="0.33762">
        <ele>53</ele>
        <time>2020-12-20T10:33:41Z</time>
      </trkpt>
      <trkpt lat="46.5335" lon="0.33771">
        <ele>53</ele>
        <time>2020-12-20T10:33:46Z</time>
      </trkpt>
      <trkpt lat="46.53354" lon="0.33773">
        <ele>53</ele>
        <time>2020-12-20T10:33:47Z</time>
      </trkpt>
      <trkpt lat="46.53379" lon="0.33785">
        <ele>52.8</ele>
        <time>2020-12-20T10:33:54Z</time>
      </trkpt>
      <trkpt lat="46.534" lon="0.33795">
        <ele>52.6</ele>
        <time>2020-12-20T10:34:00Z</time>
      </trkpt>
      <trkpt lat="46.5341" lon="0.33799">
        <ele>52.6</ele>
        <time>2020-12-20T10:34:02Z</time>
      </trkpt>
      <trkpt lat="46.53424" lon="0.33802">
        <ele>52.4</ele>
        <time>2020-12-20T10:34:05Z</time>
      </trkpt>
      <trkpt lat="46.53433" lon="0.33806">
        <ele>52.2</ele>
        <time>2020-12-20T10:34:07Z</time>
      </trkpt>
      <trkpt lat="46.5344" lon="0.3381">
        <ele>52</ele>
        <time>2020-12-20T10:34:09Z</time>
      </trkpt>
      <trkpt lat="46.53464" lon="0.33829">
        <ele>52.6</ele>
        <time>2020-12-20T10:34:16Z</time>
      </trkpt>
      <trkpt lat="46.53472" lon="0.33835">
        <ele>52.8</ele>
        <time>2020-12-20T10:34:18Z</time>
      </trkpt>
      <trkpt lat="46.53484" lon="0.33842">
        <ele>52.8</ele>
        <time>2020-12-20T10:34:21Z</time>
      </trkpt>
      <trkpt lat="46.53487" lon="0.33845">
        <ele>52.6</ele>
        <time>2020-12-20T10:34:22Z</time>
      </trkpt>
      <trkpt lat="46.53498" lon="0.33854">
        <ele>52.4</ele>
        <time>2020-12-20T10:34:25Z</time>
      </trkpt>
      <trkpt lat="46.53502" lon="0.33858">
        <ele>52.4</ele>
        <time>2020-12-20T10:34:26Z</time>
      </trkpt>
      <trkpt lat="46.5352" lon="0.33874">
        <ele>52.2</ele>
        <time>2020-12-20T10:34:32Z</time>
      </trkpt>
      <trkpt lat="46.53535" lon="0.3389">
        <ele>52.2</ele>
        <time>2020-12-20T10:34:38Z</time>
      </trkpt>
      <trkpt lat="46.53545" lon="0.33899">
        <ele>52.4</ele>
        <time>2020-12-20T10:34:42Z</time>
      </trkpt>
      <trkpt lat="46.53549" lon="0.339">
        <ele>52.4</ele>
        <time>2020-12-20T10:34:43Z</time>
      </trkpt>
      <trkpt lat="46.53574" lon="0.33915">
        <ele>53</ele>
        <time>2020-12-20T10:34:50Z</time>
      </trkpt>
      <trkpt lat="46.53593" lon="0.33932">
        <ele>53</ele>
        <time>2020-12-20T10:34:56Z</time>
      </trkpt>
      <trkpt lat="46.53619" lon="0.33948">
        <ele>53.4</ele>
        <time>2020-12-20T10:35:02Z</time>
      </trkpt>
      <trkpt lat="46.53628" lon="0.33951">
        <ele>53.4</ele>
        <time>2020-12-20T10:35:04Z</time>
      </trkpt>
      <trkpt lat="46.53636" lon="0.33955">
        <ele>53.2</ele>
        <time>2020-12-20T10:35:06Z</time>
      </trkpt>
      <trkpt lat="46.53646" lon="0.33959">
        <ele>53</ele>
        <time>2020-12-20T10:35:08Z</time>
      </trkpt>
      <trkpt lat="46.53662" lon="0.33968">
        <ele>53</ele>
        <time>2020-12-20T10:35:12Z</time>
      </trkpt>
      <trkpt lat="46.53674" lon="0.33977">
        <ele>53.4</ele>
        <time>2020-12-20T10:35:15Z</time>
      </trkpt>
      <trkpt lat="46.53689" lon="0.33988">
        <ele>53.4</ele>
        <time>2020-12-20T10:35:19Z</time>
      </trkpt>
      <trkpt lat="46.53696" lon="0.33994">
        <ele>53.4</ele>
        <time>2020-12-20T10:35:21Z</time>
      </trkpt>
      <trkpt lat="46.53709" lon="0.34007">
        <ele>53.2</ele>
        <time>2020-12-20T10:35:25Z</time>
      </trkpt>
      <trkpt lat="46.53715" lon="0.34013">
        <ele>53</ele>
        <time>2020-12-20T10:35:27Z</time>
      </trkpt>
      <trkpt lat="46.53737" lon="0.34033">
        <ele>53.2</ele>
        <time>2020-12-20T10:35:33Z</time>
      </trkpt>
      <trkpt lat="46.53741" lon="0.34035">
        <ele>53.2</ele>
        <time>2020-12-20T10:35:34Z</time>
      </trkpt>
      <trkpt lat="46.53751" lon="0.34043">
        <ele>53.2</ele>
        <time>2020-12-20T10:35:37Z</time>
      </trkpt>
      <trkpt lat="46.53759" lon="0.3405">
        <ele>53.2</ele>
        <time>2020-12-20T10:35:39Z</time>
      </trkpt>
      <trkpt lat="46.53773" lon="0.34065">
        <ele>53.2</ele>
        <time>2020-12-20T10:35:42Z</time>
      </trkpt>
      <trkpt lat="46.53786" lon="0.34078">
        <ele>53.2</ele>
        <time>2020-12-20T10:35:45Z</time>
      </trkpt>
      <trkpt lat="46.53796" lon="0.34083">
        <ele>53.2</ele>
        <time>2020-12-20T10:35:47Z</time>
      </trkpt>
      <trkpt lat="46.53801" lon="0.34086">
        <ele>53</ele>
        <time>2020-12-20T10:35:48Z</time>
      </trkpt>
      <trkpt lat="46.53811" lon="0.34091">
        <ele>53</ele>
        <time>2020-12-20T10:35:50Z</time>
      </trkpt>
      <trkpt lat="46.53829" lon="0.34103">
        <ele>53.2</ele>
        <time>2020-12-20T10:35:54Z</time>
      </trkpt>
      <trkpt lat="46.53865" lon="0.34118">
        <ele>52.8</ele>
        <time>2020-12-20T10:36:02Z</time>
      </trkpt>
      <trkpt lat="46.53884" lon="0.34118">
        <ele>52.8</ele>
        <time>2020-12-20T10:36:06Z</time>
      </trkpt>
      <trkpt lat="46.53888" lon="0.34118">
        <ele>52.6</ele>
        <time>2020-12-20T10:36:07Z</time>
      </trkpt>
      <trkpt lat="46.53902" lon="0.34121">
        <ele>52.6</ele>
        <time>2020-12-20T10:36:10Z</time>
      </trkpt>
      <trkpt lat="46.53915" lon="0.34127">
        <ele>53</ele>
        <time>2020-12-20T10:36:12Z</time>
      </trkpt>
      <trkpt lat="46.53915" lon="0.34127">
        <ele>53</ele>
        <time>2020-12-20T10:36:13Z</time>
      </trkpt>
      <trkpt lat="46.53927" lon="0.34138">
        <ele>53.2</ele>
        <time>2020-12-20T10:36:16Z</time>
      </trkpt>
      <trkpt lat="46.53932" lon="0.34146">
        <ele>53.4</ele>
        <time>2020-12-20T10:36:18Z</time>
      </trkpt>
      <trkpt lat="46.53935" lon="0.3415">
        <ele>53.2</ele>
        <time>2020-12-20T10:36:19Z</time>
      </trkpt>
      <trkpt lat="46.53944" lon="0.34164">
        <ele>53.2</ele>
        <time>2020-12-20T10:36:22Z</time>
      </trkpt>
      <trkpt lat="46.53947" lon="0.34168">
        <ele>53.4</ele>
        <time>2020-12-20T10:36:23Z</time>
      </trkpt>
      <trkpt lat="46.53954" lon="0.34176">
        <ele>53.4</ele>
        <time>2020-12-20T10:36:25Z</time>
      </trkpt>
      <trkpt lat="46.53963" lon="0.34181">
        <ele>53.4</ele>
        <time>2020-12-20T10:36:27Z</time>
      </trkpt>
      <trkpt lat="46.53967" lon="0.34181">
        <ele>53.4</ele>
        <time>2020-12-20T10:36:28Z</time>
      </trkpt>
      <trkpt lat="46.53971" lon="0.34181">
        <ele>53.2</ele>
        <time>2020-12-20T10:36:29Z</time>
      </trkpt>
      <trkpt lat="46.53997" lon="0.34175">
        <ele>53</ele>
        <time>2020-12-20T10:36:35Z</time>
      </trkpt>
      <trkpt lat="46.54017" lon="0.3416">
        <ele>52.8</ele>
        <time>2020-12-20T10:36:40Z</time>
      </trkpt>
      <trkpt lat="46.54024" lon="0.34152">
        <ele>52.8</ele>
        <time>2020-12-20T10:36:42Z</time>
      </trkpt>
      <trkpt lat="46.5403" lon="0.34145">
        <ele>52.6</ele>
        <time>2020-12-20T10:36:44Z</time>
      </trkpt>
      <trkpt lat="46.54033" lon="0.34142">
        <ele>52.8</ele>
        <time>2020-12-20T10:36:45Z</time>
      </trkpt>
      <trkpt lat="46.54037" lon="0.34139">
        <ele>52.8</ele>
        <time>2020-12-20T10:36:46Z</time>
      </trkpt>
      <trkpt lat="46.54042" lon="0.34132">
        <ele>53</ele>
        <time>2020-12-20T10:36:48Z</time>
      </trkpt>
      <trkpt lat="46.54045" lon="0.34127">
        <ele>53</ele>
        <time>2020-12-20T10:36:49Z</time>
      </trkpt>
      <trkpt lat="46.54055" lon="0.34105">
        <ele>52.8</ele>
        <time>2020-12-20T10:36:53Z</time>
      </trkpt>
      <trkpt lat="46.54061" lon="0.34095">
        <ele>52.8</ele>
        <time>2020-12-20T10:36:55Z</time>
      </trkpt>
      <trkpt lat="46.54064" lon="0.3409">
        <ele>52.6</ele>
        <time>2020-12-20T10:36:56Z</time>
      </trkpt>
      <trkpt lat="46.54068" lon="0.34078">
        <ele>52.6</ele>
        <time>2020-12-20T10:36:58Z</time>
      </trkpt>
      <trkpt lat="46.54068" lon="0.34071">
        <ele>52.6</ele>
        <time>2020-12-20T10:36:59Z</time>
      </trkpt>
      <trkpt lat="46.54068" lon="0.34065">
        <ele>52.6</ele>
        <time>2020-12-20T10:37:00Z</time>
      </trkpt>
      <trkpt lat="46.54065" lon="0.34037">
        <ele>52.6</ele>
        <time>2020-12-20T10:37:04Z</time>
      </trkpt>
      <trkpt lat="46.54064" lon="0.3403">
        <ele>52.6</ele>
        <time>2020-12-20T10:37:05Z</time>
      </trkpt>
      <trkpt lat="46.54065" lon="0.34017">
        <ele>52.2</ele>
        <time>2020-12-20T10:37:07Z</time>
      </trkpt>
      <trkpt lat="46.54066" lon="0.34011">
        <ele>52.2</ele>
        <time>2020-12-20T10:37:08Z</time>
      </trkpt>
      <trkpt lat="46.54073" lon="0.33982">
        <ele>52</ele>
        <time>2020-12-20T10:37:13Z</time>
      </trkpt>
      <trkpt lat="46.54076" lon="0.3397">
        <ele>52</ele>
        <time>2020-12-20T10:37:15Z</time>
      </trkpt>
      <trkpt lat="46.54083" lon="0.33939">
        <ele>52.4</ele>
        <time>2020-12-20T10:37:20Z</time>
      </trkpt>
      <trkpt lat="46.54085" lon="0.33925">
        <ele>52.6</ele>
        <time>2020-12-20T10:37:22Z</time>
      </trkpt>
      <trkpt lat="46.54089" lon="0.33879">
        <ele>52.8</ele>
        <time>2020-12-20T10:37:29Z</time>
      </trkpt>
      <trkpt lat="46.54089" lon="0.3384">
        <ele>52.2</ele>
        <time>2020-12-20T10:37:35Z</time>
      </trkpt>
      <trkpt lat="46.54088" lon="0.33828">
        <ele>52.2</ele>
        <time>2020-12-20T10:37:37Z</time>
      </trkpt>
      <trkpt lat="46.54087" lon="0.33811">
        <ele>52.6</ele>
        <time>2020-12-20T10:37:40Z</time>
      </trkpt>
      <trkpt lat="46.54084" lon="0.33785">
        <ele>53</ele>
        <time>2020-12-20T10:37:44Z</time>
      </trkpt>
      <trkpt lat="46.5408" lon="0.33745">
        <ele>52.8</ele>
        <time>2020-12-20T10:37:50Z</time>
      </trkpt>
      <trkpt lat="46.5408" lon="0.33733">
        <ele>52.8</ele>
        <time>2020-12-20T10:37:52Z</time>
      </trkpt>
      <trkpt lat="46.5408" lon="0.33727">
        <ele>52.8</ele>
        <time>2020-12-20T10:37:53Z</time>
      </trkpt>
      <trkpt lat="46.54078" lon="0.33715">
        <ele>52.6</ele>
        <time>2020-12-20T10:37:56Z</time>
      </trkpt>
      <trkpt lat="46.54076" lon="0.3369">
        <ele>52.6</ele>
        <time>2020-12-20T10:38:02Z</time>
      </trkpt>
      <trkpt lat="46.54071" lon="0.33667">
        <ele>53.4</ele>
        <time>2020-12-20T10:38:06Z</time>
      </trkpt>
      <trkpt lat="46.54066" lon="0.33655">
        <ele>53.4</ele>
        <time>2020-12-20T10:38:08Z</time>
      </trkpt>
      <trkpt lat="46.54061" lon="0.33641">
        <ele>53.6</ele>
        <time>2020-12-20T10:38:10Z</time>
      </trkpt>
      <trkpt lat="46.54059" lon="0.33634">
        <ele>53.6</ele>
        <time>2020-12-20T10:38:11Z</time>
      </trkpt>
      <trkpt lat="46.54054" lon="0.33614">
        <ele>53.6</ele>
        <time>2020-12-20T10:38:14Z</time>
      </trkpt>
      <trkpt lat="46.54047" lon="0.33589">
        <ele>53.4</ele>
        <time>2020-12-20T10:38:18Z</time>
      </trkpt>
      <trkpt lat="46.5404" lon="0.33579">
        <ele>53.4</ele>
        <time>2020-12-20T10:38:20Z</time>
      </trkpt>
      <trkpt lat="46.54028" lon="0.33566">
        <ele>53.4</ele>
        <time>2020-12-20T10:38:23Z</time>
      </trkpt>
      <trkpt lat="46.54022" lon="0.33555">
        <ele>53.4</ele>
        <time>2020-12-20T10:38:25Z</time>
      </trkpt>
      <trkpt lat="46.54003" lon="0.33518">
        <ele>52.8</ele>
        <time>2020-12-20T10:38:31Z</time>
      </trkpt>
      <trkpt lat="46.53997" lon="0.33508">
        <ele>52.8</ele>
        <time>2020-12-20T10:38:33Z</time>
      </trkpt>
      <trkpt lat="46.53992" lon="0.33494">
        <ele>52.8</ele>
        <time>2020-12-20T10:38:35Z</time>
      </trkpt>
      <trkpt lat="46.53986" lon="0.33482">
        <ele>52.6</ele>
        <time>2020-12-20T10:38:37Z</time>
      </trkpt>
      <trkpt lat="46.53982" lon="0.33473">
        <ele>52.4</ele>
        <time>2020-12-20T10:38:39Z</time>
      </trkpt>
      <trkpt lat="46.53968" lon="0.33452">
        <ele>52.2</ele>
        <time>2020-12-20T10:38:44Z</time>
      </trkpt>
      <trkpt lat="46.53961" lon="0.33432">
        <ele>52.4</ele>
        <time>2020-12-20T10:38:48Z</time>
      </trkpt>
      <trkpt lat="46.53951" lon="0.33399">
        <ele>52.6</ele>
        <time>2020-12-20T10:38:54Z</time>
      </trkpt>
      <trkpt lat="46.53943" lon="0.33377">
        <ele>52.8</ele>
        <time>2020-12-20T10:38:58Z</time>
      </trkpt>
      <trkpt lat="46.53939" lon="0.33357">
        <ele>52.8</ele>
        <time>2020-12-20T10:39:01Z</time>
      </trkpt>
      <trkpt lat="46.53929" lon="0.33315">
        <ele>52.4</ele>
        <time>2020-12-20T10:39:08Z</time>
      </trkpt>
      <trkpt lat="46.53922" lon="0.33295">
        <ele>52</ele>
        <time>2020-12-20T10:39:13Z</time>
      </trkpt>
      <trkpt lat="46.53911" lon="0.33264">
        <ele>52.6</ele>
        <time>2020-12-20T10:39:20Z</time>
      </trkpt>
      <trkpt lat="46.53902" lon="0.33232">
        <ele>53</ele>
        <time>2020-12-20T10:39:27Z</time>
      </trkpt>
      <trkpt lat="46.53899" lon="0.33212">
        <ele>53.2</ele>
        <time>2020-12-20T10:39:32Z</time>
      </trkpt>
      <trkpt lat="46.53894" lon="0.33193">
        <ele>53.6</ele>
        <time>2020-12-20T10:39:36Z</time>
      </trkpt>
      <trkpt lat="46.53888" lon="0.33173">
        <ele>53.6</ele>
        <time>2020-12-20T10:39:40Z</time>
      </trkpt>
      <trkpt lat="46.53877" lon="0.33147">
        <ele>54.6</ele>
        <time>2020-12-20T10:39:47Z</time>
      </trkpt>
      <trkpt lat="46.53876" lon="0.33141">
        <ele>54.6</ele>
        <time>2020-12-20T10:39:49Z</time>
      </trkpt>
      <trkpt lat="46.53877" lon="0.33138">
        <ele>54.6</ele>
        <time>2020-12-20T10:39:50Z</time>
      </trkpt>
      <trkpt lat="46.53878" lon="0.33133">
        <ele>54.8</ele>
        <time>2020-12-20T10:39:52Z</time>
      </trkpt>
      <trkpt lat="46.53886" lon="0.33114">
        <ele>54.8</ele>
        <time>2020-12-20T10:39:58Z</time>
      </trkpt>
      <trkpt lat="46.53889" lon="0.33097">
        <ele>55</ele>
        <time>2020-12-20T10:40:04Z</time>
      </trkpt>
      <trkpt lat="46.5389" lon="0.33091">
        <ele>54.2</ele>
        <time>2020-12-20T10:40:11Z</time>
      </trkpt>
      <trkpt lat="46.53889" lon="0.33087">
        <ele>54.2</ele>
        <time>2020-12-20T10:40:22Z</time>
      </trkpt>
      <trkpt lat="46.53888" lon="0.33084">
        <ele>54.2</ele>
        <time>2020-12-20T10:40:33Z</time>
      </trkpt>
      <trkpt lat="46.53884" lon="0.3307">
        <ele>54.2</ele>
        <time>2020-12-20T10:40:50Z</time>
      </trkpt>
      <trkpt lat="46.53895" lon="0.33055">
        <ele>54.2</ele>
        <time>2020-12-20T10:40:58Z</time>
      </trkpt>
      <trkpt lat="46.53908" lon="0.33037">
        <ele>54.2</ele>
        <time>2020-12-20T10:41:03Z</time>
      </trkpt>
      <trkpt lat="46.53917" lon="0.33019">
        <ele>54.6</ele>
        <time>2020-12-20T10:41:08Z</time>
      </trkpt>
      <trkpt lat="46.53927" lon="0.32993">
        <ele>54.6</ele>
        <time>2020-12-20T10:41:14Z</time>
      </trkpt>
      <trkpt lat="46.53932" lon="0.32983">
        <ele>54.8</ele>
        <time>2020-12-20T10:41:16Z</time>
      </trkpt>
      <trkpt lat="46.53939" lon="0.32968">
        <ele>55.4</ele>
        <time>2020-12-20T10:41:19Z</time>
      </trkpt>
      <trkpt lat="46.53941" lon="0.32964">
        <ele>55.6</ele>
        <time>2020-12-20T10:41:20Z</time>
      </trkpt>
      <trkpt lat="46.53943" lon="0.32958">
        <ele>55.4</ele>
        <time>2020-12-20T10:41:21Z</time>
      </trkpt>
      <trkpt lat="46.53948" lon="0.32949">
        <ele>55.4</ele>
        <time>2020-12-20T10:41:23Z</time>
      </trkpt>
      <trkpt lat="46.53951" lon="0.32945">
        <ele>55.4</ele>
        <time>2020-12-20T10:41:24Z</time>
      </trkpt>
      <trkpt lat="46.53955" lon="0.3294">
        <ele>55.2</ele>
        <time>2020-12-20T10:41:25Z</time>
      </trkpt>
      <trkpt lat="46.53964" lon="0.32928">
        <ele>54.6</ele>
        <time>2020-12-20T10:41:28Z</time>
      </trkpt>
      <trkpt lat="46.5397" lon="0.3292">
        <ele>54</ele>
        <time>2020-12-20T10:41:30Z</time>
      </trkpt>
      <trkpt lat="46.53977" lon="0.32912">
        <ele>53.6</ele>
        <time>2020-12-20T10:41:32Z</time>
      </trkpt>
      <trkpt lat="46.53984" lon="0.32903">
        <ele>54.2</ele>
        <time>2020-12-20T10:41:34Z</time>
      </trkpt>
      <trkpt lat="46.53996" lon="0.32895">
        <ele>54.4</ele>
        <time>2020-12-20T10:41:37Z</time>
      </trkpt>
      <trkpt lat="46.54001" lon="0.3289">
        <ele>53.8</ele>
        <time>2020-12-20T10:41:39Z</time>
      </trkpt>
      <trkpt lat="46.54007" lon="0.32884">
        <ele>53.6</ele>
        <time>2020-12-20T10:41:41Z</time>
      </trkpt>
      <trkpt lat="46.54033" lon="0.32876">
        <ele>54.2</ele>
        <time>2020-12-20T10:41:47Z</time>
      </trkpt>
      <trkpt lat="46.54045" lon="0.32871">
        <ele>54.6</ele>
        <time>2020-12-20T10:41:51Z</time>
      </trkpt>
      <trkpt lat="46.54061" lon="0.32865">
        <ele>55.6</ele>
        <time>2020-12-20T10:41:56Z</time>
      </trkpt>
      <trkpt lat="46.54072" lon="0.32857">
        <ele>56.2</ele>
        <time>2020-12-20T10:42:00Z</time>
      </trkpt>
      <trkpt lat="46.54076" lon="0.32851">
        <ele>56.4</ele>
        <time>2020-12-20T10:42:02Z</time>
      </trkpt>
      <trkpt lat="46.54078" lon="0.32848">
        <ele>56.6</ele>
        <time>2020-12-20T10:42:03Z</time>
      </trkpt>
      <trkpt lat="46.54088" lon="0.32839">
        <ele>57</ele>
        <time>2020-12-20T10:42:06Z</time>
      </trkpt>
      <trkpt lat="46.54105" lon="0.32817">
        <ele>56.4</ele>
        <time>2020-12-20T10:42:11Z</time>
      </trkpt>
      <trkpt lat="46.54109" lon="0.32812">
        <ele>55.6</ele>
        <time>2020-12-20T10:42:12Z</time>
      </trkpt>
      <trkpt lat="46.54113" lon="0.32806">
        <ele>55</ele>
        <time>2020-12-20T10:42:16Z</time>
      </trkpt>
      <trkpt lat="46.54122" lon="0.32802">
        <ele>54.4</ele>
        <time>2020-12-20T10:42:20Z</time>
      </trkpt>
      <trkpt lat="46.54129" lon="0.328">
        <ele>54</ele>
        <time>2020-12-20T10:42:22Z</time>
      </trkpt>
      <trkpt lat="46.54146" lon="0.32791">
        <ele>53.6</ele>
        <time>2020-12-20T10:42:26Z</time>
      </trkpt>
      <trkpt lat="46.54168" lon="0.32781">
        <ele>53.8</ele>
        <time>2020-12-20T10:42:32Z</time>
      </trkpt>
      <trkpt lat="46.54184" lon="0.3277">
        <ele>53.8</ele>
        <time>2020-12-20T10:42:38Z</time>
      </trkpt>
      <trkpt lat="46.54196" lon="0.32757">
        <ele>53.8</ele>
        <time>2020-12-20T10:42:42Z</time>
      </trkpt>
      <trkpt lat="46.54204" lon="0.3274">
        <ele>54</ele>
        <time>2020-12-20T10:42:46Z</time>
      </trkpt>
      <trkpt lat="46.54208" lon="0.32723">
        <ele>54.4</ele>
        <time>2020-12-20T10:42:52Z</time>
      </trkpt>
      <trkpt lat="46.54216" lon="0.32715">
        <ele>54.6</ele>
        <time>2020-12-20T10:42:57Z</time>
      </trkpt>
      <trkpt lat="46.54225" lon="0.32711">
        <ele>54.4</ele>
        <time>2020-12-20T10:43:04Z</time>
      </trkpt>
      <trkpt lat="46.54238" lon="0.32709">
        <ele>54.6</ele>
        <time>2020-12-20T10:43:10Z</time>
      </trkpt>
      <trkpt lat="46.54253" lon="0.32708">
        <ele>55</ele>
        <time>2020-12-20T10:43:17Z</time>
      </trkpt>
      <trkpt lat="46.54256" lon="0.3271">
        <ele>55.6</ele>
        <time>2020-12-20T10:43:20Z</time>
      </trkpt>
      <trkpt lat="46.54259" lon="0.32712">
        <ele>56.6</ele>
        <time>2020-12-20T10:43:23Z</time>
      </trkpt>
      <trkpt lat="46.5426" lon="0.32712">
        <ele>56.8</ele>
        <time>2020-12-20T10:43:24Z</time>
      </trkpt>
      <trkpt lat="46.54265" lon="0.32711">
        <ele>58</ele>
        <time>2020-12-20T10:43:27Z</time>
      </trkpt>
      <trkpt lat="46.54271" lon="0.3271">
        <ele>59</ele>
        <time>2020-12-20T10:43:30Z</time>
      </trkpt>
      <trkpt lat="46.54274" lon="0.32712">
        <ele>59.4</ele>
        <time>2020-12-20T10:43:32Z</time>
      </trkpt>
      <trkpt lat="46.54275" lon="0.32712">
        <ele>59.6</ele>
        <time>2020-12-20T10:43:33Z</time>
      </trkpt>
      <trkpt lat="46.54277" lon="0.32711">
        <ele>60</ele>
        <time>2020-12-20T10:43:35Z</time>
      </trkpt>
      <trkpt lat="46.5428" lon="0.32711">
        <ele>60.4</ele>
        <time>2020-12-20T10:43:37Z</time>
      </trkpt>
      <trkpt lat="46.54282" lon="0.32712">
        <ele>61</ele>
        <time>2020-12-20T10:43:40Z</time>
      </trkpt>
      <trkpt lat="46.54289" lon="0.32713">
        <ele>62</ele>
        <time>2020-12-20T10:43:47Z</time>
      </trkpt>
      <trkpt lat="46.5429" lon="0.32713">
        <ele>62.2</ele>
        <time>2020-12-20T10:43:48Z</time>
      </trkpt>
      <trkpt lat="46.54295" lon="0.32711">
        <ele>62.6</ele>
        <time>2020-12-20T10:43:55Z</time>
      </trkpt>
      <trkpt lat="46.54299" lon="0.32712">
        <ele>63.2</ele>
        <time>2020-12-20T10:44:01Z</time>
      </trkpt>
      <trkpt lat="46.54302" lon="0.32712">
        <ele>63.6</ele>
        <time>2020-12-20T10:44:04Z</time>
      </trkpt>
      <trkpt lat="46.54304" lon="0.32712">
        <ele>64.4</ele>
        <time>2020-12-20T10:44:09Z</time>
      </trkpt>
      <trkpt lat="46.54309" lon="0.32713">
        <ele>64.4</ele>
        <time>2020-12-20T10:44:13Z</time>
      </trkpt>
      <trkpt lat="46.54314" lon="0.32713">
        <ele>64.6</ele>
        <time>2020-12-20T10:44:22Z</time>
      </trkpt>
      <trkpt lat="46.54318" lon="0.32712">
        <ele>65.4</ele>
        <time>2020-12-20T10:44:28Z</time>
      </trkpt>
      <trkpt lat="46.54319" lon="0.32711">
        <ele>65.8</ele>
        <time>2020-12-20T10:44:31Z</time>
      </trkpt>
      <trkpt lat="46.54322" lon="0.32709">
        <ele>66.4</ele>
        <time>2020-12-20T10:44:35Z</time>
      </trkpt>
      <trkpt lat="46.54323" lon="0.32708">
        <ele>67.6</ele>
        <time>2020-12-20T10:44:40Z</time>
      </trkpt>
      <trkpt lat="46.54325" lon="0.32707">
        <ele>68.2</ele>
        <time>2020-12-20T10:44:44Z</time>
      </trkpt>
      <trkpt lat="46.54326" lon="0.32707">
        <ele>68.8</ele>
        <time>2020-12-20T10:44:47Z</time>
      </trkpt>
      <trkpt lat="46.5433" lon="0.32706">
        <ele>70</ele>
        <time>2020-12-20T10:44:56Z</time>
      </trkpt>
      <trkpt lat="46.54331" lon="0.32706">
        <ele>70.2</ele>
        <time>2020-12-20T10:44:57Z</time>
      </trkpt>
      <trkpt lat="46.54334" lon="0.32705">
        <ele>71.2</ele>
        <time>2020-12-20T10:45:03Z</time>
      </trkpt>
      <trkpt lat="46.54336" lon="0.32701">
        <ele>72</ele>
        <time>2020-12-20T10:45:10Z</time>
      </trkpt>
      <trkpt lat="46.54337" lon="0.327">
        <ele>72.2</ele>
        <time>2020-12-20T10:45:12Z</time>
      </trkpt>
      <trkpt lat="46.54337" lon="0.32699">
        <ele>73.2</ele>
        <time>2020-12-20T10:45:16Z</time>
      </trkpt>
      <trkpt lat="46.5434" lon="0.32697">
        <ele>74.2</ele>
        <time>2020-12-20T10:45:22Z</time>
      </trkpt>
      <trkpt lat="46.54341" lon="0.32697">
        <ele>74.6</ele>
        <time>2020-12-20T10:45:24Z</time>
      </trkpt>
      <trkpt lat="46.54345" lon="0.32694">
        <ele>75.4</ele>
        <time>2020-12-20T10:45:31Z</time>
      </trkpt>
      <trkpt lat="46.54349" lon="0.32692">
        <ele>76.6</ele>
        <time>2020-12-20T10:45:39Z</time>
      </trkpt>
      <trkpt lat="46.54349" lon="0.32692">
        <ele>76.6</ele>
        <time>2020-12-20T10:45:40Z</time>
      </trkpt>
      <trkpt lat="46.54353" lon="0.32693">
        <ele>77.6</ele>
        <time>2020-12-20T10:45:47Z</time>
      </trkpt>
      <trkpt lat="46.54357" lon="0.32693">
        <ele>78.4</ele>
        <time>2020-12-20T10:45:54Z</time>
      </trkpt>
      <trkpt lat="46.54359" lon="0.32694">
        <ele>78.6</ele>
        <time>2020-12-20T10:45:56Z</time>
      </trkpt>
      <trkpt lat="46.54363" lon="0.32695">
        <ele>79.8</ele>
        <time>2020-12-20T10:46:04Z</time>
      </trkpt>
      <trkpt lat="46.54364" lon="0.32696">
        <ele>80.4</ele>
        <time>2020-12-20T10:46:08Z</time>
      </trkpt>
      <trkpt lat="46.54366" lon="0.32696">
        <ele>80.8</ele>
        <time>2020-12-20T10:46:11Z</time>
      </trkpt>
      <trkpt lat="46.54368" lon="0.32695">
        <ele>81</ele>
        <time>2020-12-20T10:46:12Z</time>
      </trkpt>
      <trkpt lat="46.54368" lon="0.32695">
        <ele>81</ele>
        <time>2020-12-20T10:46:13Z</time>
      </trkpt>
      <trkpt lat="46.54372" lon="0.32696">
        <ele>82</ele>
        <time>2020-12-20T10:46:18Z</time>
      </trkpt>
      <trkpt lat="46.54375" lon="0.32696">
        <ele>82.8</ele>
        <time>2020-12-20T10:46:23Z</time>
      </trkpt>
      <trkpt lat="46.54377" lon="0.32697">
        <ele>83.2</ele>
        <time>2020-12-20T10:46:26Z</time>
      </trkpt>
      <trkpt lat="46.54378" lon="0.32697">
        <ele>83.4</ele>
        <time>2020-12-20T10:46:27Z</time>
      </trkpt>
      <trkpt lat="46.5438" lon="0.32696">
        <ele>83.6</ele>
        <time>2020-12-20T10:46:29Z</time>
      </trkpt>
      <trkpt lat="46.54381" lon="0.32696">
        <ele>84</ele>
        <time>2020-12-20T10:46:31Z</time>
      </trkpt>
      <trkpt lat="46.54382" lon="0.32695">
        <ele>84.2</ele>
        <time>2020-12-20T10:46:32Z</time>
      </trkpt>
      <trkpt lat="46.54383" lon="0.32695">
        <ele>84.4</ele>
        <time>2020-12-20T10:46:33Z</time>
      </trkpt>
      <trkpt lat="46.54384" lon="0.32694">
        <ele>84.6</ele>
        <time>2020-12-20T10:46:35Z</time>
      </trkpt>
      <trkpt lat="46.54385" lon="0.32694">
        <ele>85</ele>
        <time>2020-12-20T10:46:37Z</time>
      </trkpt>
      <trkpt lat="46.54386" lon="0.32694">
        <ele>85.4</ele>
        <time>2020-12-20T10:46:39Z</time>
      </trkpt>
      <trkpt lat="46.54392" lon="0.32693">
        <ele>86</ele>
        <time>2020-12-20T10:46:50Z</time>
      </trkpt>
      <trkpt lat="46.54394" lon="0.32694">
        <ele>86.4</ele>
        <time>2020-12-20T10:46:52Z</time>
      </trkpt>
      <trkpt lat="46.54395" lon="0.32694">
        <ele>86.6</ele>
        <time>2020-12-20T10:46:53Z</time>
      </trkpt>
      <trkpt lat="46.54399" lon="0.32695">
        <ele>86.8</ele>
        <time>2020-12-20T10:46:56Z</time>
      </trkpt>
      <trkpt lat="46.54403" lon="0.32695">
        <ele>87.6</ele>
        <time>2020-12-20T10:47:00Z</time>
      </trkpt>
      <trkpt lat="46.54408" lon="0.32695">
        <ele>87.8</ele>
        <time>2020-12-20T10:47:03Z</time>
      </trkpt>
      <trkpt lat="46.54415" lon="0.32696">
        <ele>88.6</ele>
        <time>2020-12-20T10:47:09Z</time>
      </trkpt>
      <trkpt lat="46.54427" lon="0.32693">
        <ele>89.4</ele>
        <time>2020-12-20T10:47:16Z</time>
      </trkpt>
      <trkpt lat="46.54433" lon="0.32691">
        <ele>89.6</ele>
        <time>2020-12-20T10:47:19Z</time>
      </trkpt>
      <trkpt lat="46.54439" lon="0.32688">
        <ele>89.8</ele>
        <time>2020-12-20T10:47:23Z</time>
      </trkpt>
      <trkpt lat="46.54451" lon="0.32683">
        <ele>90.6</ele>
        <time>2020-12-20T10:47:29Z</time>
      </trkpt>
      <trkpt lat="46.54452" lon="0.32682">
        <ele>90.8</ele>
        <time>2020-12-20T10:47:30Z</time>
      </trkpt>
      <trkpt lat="46.54461" lon="0.32678">
        <ele>91.6</ele>
        <time>2020-12-20T10:47:36Z</time>
      </trkpt>
      <trkpt lat="46.54463" lon="0.32678">
        <ele>91.8</ele>
        <time>2020-12-20T10:47:37Z</time>
      </trkpt>
      <trkpt lat="46.54466" lon="0.32677">
        <ele>92</ele>
        <time>2020-12-20T10:47:38Z</time>
      </trkpt>
      <trkpt lat="46.54479" lon="0.32673">
        <ele>92.8</ele>
        <time>2020-12-20T10:47:43Z</time>
      </trkpt>
      <trkpt lat="46.54486" lon="0.32672">
        <ele>93</ele>
        <time>2020-12-20T10:47:46Z</time>
      </trkpt>
      <trkpt lat="46.54501" lon="0.32669">
        <ele>94</ele>
        <time>2020-12-20T10:47:52Z</time>
      </trkpt>
      <trkpt lat="46.54503" lon="0.32668">
        <ele>94.2</ele>
        <time>2020-12-20T10:47:53Z</time>
      </trkpt>
      <trkpt lat="46.54522" lon="0.32665">
        <ele>94.6</ele>
        <time>2020-12-20T10:47:58Z</time>
      </trkpt>
      <trkpt lat="46.54539" lon="0.32658">
        <ele>93.8</ele>
        <time>2020-12-20T10:48:03Z</time>
      </trkpt>
      <trkpt lat="46.54561" lon="0.32646">
        <ele>93.8</ele>
        <time>2020-12-20T10:48:10Z</time>
      </trkpt>
      <trkpt lat="46.54583" lon="0.32633">
        <ele>94.8</ele>
        <time>2020-12-20T10:48:19Z</time>
      </trkpt>
      <trkpt lat="46.5459" lon="0.32626">
        <ele>95.4</ele>
        <time>2020-12-20T10:48:22Z</time>
      </trkpt>
      <trkpt lat="46.546" lon="0.32618">
        <ele>96.2</ele>
        <time>2020-12-20T10:48:26Z</time>
      </trkpt>
      <trkpt lat="46.54604" lon="0.32615">
        <ele>96.4</ele>
        <time>2020-12-20T10:48:28Z</time>
      </trkpt>
      <trkpt lat="46.54615" lon="0.32606">
        <ele>97.6</ele>
        <time>2020-12-20T10:48:33Z</time>
      </trkpt>
      <trkpt lat="46.54623" lon="0.32603">
        <ele>98.8</ele>
        <time>2020-12-20T10:48:37Z</time>
      </trkpt>
      <trkpt lat="46.54627" lon="0.32603">
        <ele>99.2</ele>
        <time>2020-12-20T10:48:39Z</time>
      </trkpt>
      <trkpt lat="46.54635" lon="0.32604">
        <ele>99.8</ele>
        <time>2020-12-20T10:48:42Z</time>
      </trkpt>
      <trkpt lat="46.54642" lon="0.32604">
        <ele>100.4</ele>
        <time>2020-12-20T10:48:45Z</time>
      </trkpt>
      <trkpt lat="46.54644" lon="0.32602">
        <ele>100.6</ele>
        <time>2020-12-20T10:48:46Z</time>
      </trkpt>
      <trkpt lat="46.54647" lon="0.32597">
        <ele>101</ele>
        <time>2020-12-20T10:48:48Z</time>
      </trkpt>
      <trkpt lat="46.54651" lon="0.32592">
        <ele>101.4</ele>
        <time>2020-12-20T10:48:50Z</time>
      </trkpt>
      <trkpt lat="46.54663" lon="0.32576">
        <ele>102</ele>
        <time>2020-12-20T10:48:56Z</time>
      </trkpt>
      <trkpt lat="46.54667" lon="0.3257">
        <ele>102.2</ele>
        <time>2020-12-20T10:48:58Z</time>
      </trkpt>
      <trkpt lat="46.54678" lon="0.32549">
        <ele>102.6</ele>
        <time>2020-12-20T10:49:05Z</time>
      </trkpt>
      <trkpt lat="46.54678" lon="0.32546">
        <ele>102.8</ele>
        <time>2020-12-20T10:49:06Z</time>
      </trkpt>
      <trkpt lat="46.54676" lon="0.3254">
        <ele>102.6</ele>
        <time>2020-12-20T10:49:10Z</time>
      </trkpt>
      <trkpt lat="46.54665" lon="0.3252">
        <ele>102.6</ele>
        <time>2020-12-20T10:49:15Z</time>
      </trkpt>
      <trkpt lat="46.54646" lon="0.32487">
        <ele>102</ele>
        <time>2020-12-20T10:49:21Z</time>
      </trkpt>
      <trkpt lat="46.54629" lon="0.32459">
        <ele>101.6</ele>
        <time>2020-12-20T10:49:27Z</time>
      </trkpt>
      <trkpt lat="46.54623" lon="0.3245">
        <ele>101.8</ele>
        <time>2020-12-20T10:49:29Z</time>
      </trkpt>
      <trkpt lat="46.54614" lon="0.3243">
        <ele>102.2</ele>
        <time>2020-12-20T10:49:33Z</time>
      </trkpt>
      <trkpt lat="46.54606" lon="0.32408">
        <ele>103</ele>
        <time>2020-12-20T10:49:38Z</time>
      </trkpt>
      <trkpt lat="46.54604" lon="0.32405">
        <ele>103.2</ele>
        <time>2020-12-20T10:49:39Z</time>
      </trkpt>
      <trkpt lat="46.54592" lon="0.324">
        <ele>103.8</ele>
        <time>2020-12-20T10:49:44Z</time>
      </trkpt>
      <trkpt lat="46.54584" lon="0.32414">
        <ele>104</ele>
        <time>2020-12-20T10:49:49Z</time>
      </trkpt>
      <trkpt lat="46.54576" lon="0.3243">
        <ele>104</ele>
        <time>2020-12-20T10:49:55Z</time>
      </trkpt>
      <trkpt lat="46.54575" lon="0.32431">
        <ele>104</ele>
        <time>2020-12-20T10:49:56Z</time>
      </trkpt>
      <trkpt lat="46.54569" lon="0.32432">
        <ele>103.8</ele>
        <time>2020-12-20T10:50:00Z</time>
      </trkpt>
      <trkpt lat="46.54558" lon="0.3244">
        <ele>103.8</ele>
        <time>2020-12-20T10:50:05Z</time>
      </trkpt>
      <trkpt lat="46.54554" lon="0.32441">
        <ele>103.8</ele>
        <time>2020-12-20T10:50:07Z</time>
      </trkpt>
      <trkpt lat="46.5455" lon="0.32443">
        <ele>104</ele>
        <time>2020-12-20T10:50:09Z</time>
      </trkpt>
      <trkpt lat="46.54547" lon="0.32445">
        <ele>104</ele>
        <time>2020-12-20T10:50:10Z</time>
      </trkpt>
      <trkpt lat="46.54532" lon="0.32454">
        <ele>103.4</ele>
        <time>2020-12-20T10:50:18Z</time>
      </trkpt>
      <trkpt lat="46.54515" lon="0.32467">
        <ele>103.6</ele>
        <time>2020-12-20T10:50:26Z</time>
      </trkpt>
      <trkpt lat="46.54511" lon="0.32469">
        <ele>103.4</ele>
        <time>2020-12-20T10:50:42Z</time>
      </trkpt>
      <trkpt lat="46.54505" lon="0.32472">
        <ele>103.6</ele>
        <time>2020-12-20T10:50:59Z</time>
      </trkpt>
      <trkpt lat="46.54494" lon="0.3247">
        <ele>103.6</ele>
        <time>2020-12-20T10:51:16Z</time>
      </trkpt>
      <trkpt lat="46.54501" lon="0.32468">
        <ele>103.4</ele>
        <time>2020-12-20T10:51:30Z</time>
      </trkpt>
      <trkpt lat="46.54498" lon="0.32473">
        <ele>103.4</ele>
        <time>2020-12-20T10:51:43Z</time>
      </trkpt>
      <trkpt lat="46.545" lon="0.32467">
        <ele>103.4</ele>
        <time>2020-12-20T10:51:47Z</time>
      </trkpt>
      <trkpt lat="46.54501" lon="0.32466">
        <ele>103.2</ele>
        <time>2020-12-20T10:51:49Z</time>
      </trkpt>
      <trkpt lat="46.54502" lon="0.32465">
        <ele>103.2</ele>
        <time>2020-12-20T10:51:50Z</time>
      </trkpt>
      <trkpt lat="46.54514" lon="0.3246">
        <ele>103</ele>
        <time>2020-12-20T10:51:56Z</time>
      </trkpt>
      <trkpt lat="46.54521" lon="0.3247">
        <ele>102.6</ele>
        <time>2020-12-20T10:52:02Z</time>
      </trkpt>
      <trkpt lat="46.54524" lon="0.32483">
        <ele>102.2</ele>
        <time>2020-12-20T10:52:08Z</time>
      </trkpt>
      <trkpt lat="46.54523" lon="0.32488">
        <ele>102</ele>
        <time>2020-12-20T10:52:10Z</time>
      </trkpt>
      <trkpt lat="46.54518" lon="0.32496">
        <ele>102</ele>
        <time>2020-12-20T10:52:12Z</time>
      </trkpt>
      <trkpt lat="46.54518" lon="0.32496">
        <ele>102</ele>
        <time>2020-12-20T10:52:13Z</time>
      </trkpt>
      <trkpt lat="46.54503" lon="0.32502">
        <ele>102</ele>
        <time>2020-12-20T10:52:19Z</time>
      </trkpt>
      <trkpt lat="46.54496" lon="0.3251">
        <ele>101.8</ele>
        <time>2020-12-20T10:52:23Z</time>
      </trkpt>
      <trkpt lat="46.54496" lon="0.32522">
        <ele>100.8</ele>
        <time>2020-12-20T10:52:26Z</time>
      </trkpt>
      <trkpt lat="46.54496" lon="0.32532">
        <ele>100.4</ele>
        <time>2020-12-20T10:52:28Z</time>
      </trkpt>
      <trkpt lat="46.545" lon="0.3254">
        <ele>99.6</ele>
        <time>2020-12-20T10:52:30Z</time>
      </trkpt>
      <trkpt lat="46.54502" lon="0.32547">
        <ele>99</ele>
        <time>2020-12-20T10:52:32Z</time>
      </trkpt>
      <trkpt lat="46.54504" lon="0.32552">
        <ele>98.4</ele>
        <time>2020-12-20T10:52:34Z</time>
      </trkpt>
      <trkpt lat="46.54507" lon="0.32563">
        <ele>98</ele>
        <time>2020-12-20T10:52:37Z</time>
      </trkpt>
      <trkpt lat="46.54504" lon="0.32573">
        <ele>97.4</ele>
        <time>2020-12-20T10:52:39Z</time>
      </trkpt>
      <trkpt lat="46.54502" lon="0.32575">
        <ele>97.4</ele>
        <time>2020-12-20T10:52:40Z</time>
      </trkpt>
      <trkpt lat="46.54493" lon="0.32582">
        <ele>97.6</ele>
        <time>2020-12-20T10:52:43Z</time>
      </trkpt>
      <trkpt lat="46.54483" lon="0.3259">
        <ele>96.8</ele>
        <time>2020-12-20T10:52:48Z</time>
      </trkpt>
      <trkpt lat="46.54468" lon="0.32593">
        <ele>96.4</ele>
        <time>2020-12-20T10:52:53Z</time>
      </trkpt>
      <trkpt lat="46.54461" lon="0.32592">
        <ele>96.4</ele>
        <time>2020-12-20T10:52:55Z</time>
      </trkpt>
      <trkpt lat="46.54454" lon="0.32593">
        <ele>96.4</ele>
        <time>2020-12-20T10:52:57Z</time>
      </trkpt>
      <trkpt lat="46.54452" lon="0.32595">
        <ele>96.4</ele>
        <time>2020-12-20T10:52:58Z</time>
      </trkpt>
      <trkpt lat="46.54449" lon="0.32597">
        <ele>96.4</ele>
        <time>2020-12-20T10:52:59Z</time>
      </trkpt>
      <trkpt lat="46.54445" lon="0.32603">
        <ele>96</ele>
        <time>2020-12-20T10:53:01Z</time>
      </trkpt>
      <trkpt lat="46.54444" lon="0.32607">
        <ele>94.8</ele>
        <time>2020-12-20T10:53:03Z</time>
      </trkpt>
      <trkpt lat="46.54444" lon="0.32608">
        <ele>94.6</ele>
        <time>2020-12-20T10:53:04Z</time>
      </trkpt>
      <trkpt lat="46.54441" lon="0.32609">
        <ele>93.8</ele>
        <time>2020-12-20T10:53:06Z</time>
      </trkpt>
      <trkpt lat="46.54437" lon="0.32612">
        <ele>93</ele>
        <time>2020-12-20T10:53:08Z</time>
      </trkpt>
      <trkpt lat="46.54435" lon="0.32613">
        <ele>92.6</ele>
        <time>2020-12-20T10:53:09Z</time>
      </trkpt>
      <trkpt lat="46.54427" lon="0.32621">
        <ele>91.4</ele>
        <time>2020-12-20T10:53:13Z</time>
      </trkpt>
      <trkpt lat="46.54415" lon="0.3263">
        <ele>90.8</ele>
        <time>2020-12-20T10:53:17Z</time>
      </trkpt>
      <trkpt lat="46.5441" lon="0.32637">
        <ele>90.4</ele>
        <time>2020-12-20T10:53:19Z</time>
      </trkpt>
      <trkpt lat="46.54408" lon="0.3264">
        <ele>90.4</ele>
        <time>2020-12-20T10:53:20Z</time>
      </trkpt>
      <trkpt lat="46.54407" lon="0.32646">
        <ele>89.2</ele>
        <time>2020-12-20T10:53:23Z</time>
      </trkpt>
      <trkpt lat="46.54406" lon="0.32649">
        <ele>89</ele>
        <time>2020-12-20T10:53:26Z</time>
      </trkpt>
      <trkpt lat="46.54395" lon="0.32665">
        <ele>88.8</ele>
        <time>2020-12-20T10:53:40Z</time>
      </trkpt>
      <trkpt lat="46.54384" lon="0.32671">
        <ele>89</ele>
        <time>2020-12-20T10:53:58Z</time>
      </trkpt>
      <trkpt lat="46.54386" lon="0.32673">
        <ele>88.6</ele>
        <time>2020-12-20T10:54:15Z</time>
      </trkpt>
      <trkpt lat="46.54388" lon="0.32677">
        <ele>88.2</ele>
        <time>2020-12-20T10:54:17Z</time>
      </trkpt>
      <trkpt lat="46.54388" lon="0.32679">
        <ele>87</ele>
        <time>2020-12-20T10:54:19Z</time>
      </trkpt>
      <trkpt lat="46.54387" lon="0.32681">
        <ele>86.4</ele>
        <time>2020-12-20T10:54:21Z</time>
      </trkpt>
      <trkpt lat="46.54386" lon="0.32681">
        <ele>86</ele>
        <time>2020-12-20T10:54:22Z</time>
      </trkpt>
      <trkpt lat="46.54377" lon="0.32681">
        <ele>84.8</ele>
        <time>2020-12-20T10:54:27Z</time>
      </trkpt>
      <trkpt lat="46.54375" lon="0.32685">
        <ele>83.6</ele>
        <time>2020-12-20T10:54:31Z</time>
      </trkpt>
      <trkpt lat="46.54374" lon="0.32691">
        <ele>82.4</ele>
        <time>2020-12-20T10:54:33Z</time>
      </trkpt>
      <trkpt lat="46.54373" lon="0.32694">
        <ele>81.4</ele>
        <time>2020-12-20T10:54:35Z</time>
      </trkpt>
      <trkpt lat="46.54372" lon="0.32695">
        <ele>80.8</ele>
        <time>2020-12-20T10:54:36Z</time>
      </trkpt>
      <trkpt lat="46.54372" lon="0.32698">
        <ele>80.4</ele>
        <time>2020-12-20T10:54:37Z</time>
      </trkpt>
      <trkpt lat="46.54371" lon="0.32699">
        <ele>80</ele>
        <time>2020-12-20T10:54:38Z</time>
      </trkpt>
      <trkpt lat="46.5437" lon="0.32701">
        <ele>79.2</ele>
        <time>2020-12-20T10:54:40Z</time>
      </trkpt>
      <trkpt lat="46.54366" lon="0.32705">
        <ele>78</ele>
        <time>2020-12-20T10:54:44Z</time>
      </trkpt>
      <trkpt lat="46.54364" lon="0.32705">
        <ele>77.4</ele>
        <time>2020-12-20T10:54:46Z</time>
      </trkpt>
      <trkpt lat="46.5436" lon="0.32707">
        <ele>76.4</ele>
        <time>2020-12-20T10:54:48Z</time>
      </trkpt>
      <trkpt lat="46.54357" lon="0.32708">
        <ele>76</ele>
        <time>2020-12-20T10:54:49Z</time>
      </trkpt>
      <trkpt lat="46.54355" lon="0.32708">
        <ele>75.2</ele>
        <time>2020-12-20T10:54:50Z</time>
      </trkpt>
      <trkpt lat="46.54352" lon="0.32708">
        <ele>74.4</ele>
        <time>2020-12-20T10:54:51Z</time>
      </trkpt>
      <trkpt lat="46.5435" lon="0.32707">
        <ele>73.6</ele>
        <time>2020-12-20T10:54:52Z</time>
      </trkpt>
      <trkpt lat="46.54348" lon="0.32707">
        <ele>73</ele>
        <time>2020-12-20T10:54:54Z</time>
      </trkpt>
      <trkpt lat="46.54347" lon="0.32707">
        <ele>72.8</ele>
        <time>2020-12-20T10:54:55Z</time>
      </trkpt>
      <trkpt lat="46.54347" lon="0.32706">
        <ele>72.4</ele>
        <time>2020-12-20T10:54:56Z</time>
      </trkpt>
      <trkpt lat="46.54344" lon="0.32706">
        <ele>71</ele>
        <time>2020-12-20T10:54:58Z</time>
      </trkpt>
      <trkpt lat="46.54342" lon="0.32706">
        <ele>69.6</ele>
        <time>2020-12-20T10:55:00Z</time>
      </trkpt>
      <trkpt lat="46.54338" lon="0.32706">
        <ele>68.4</ele>
        <time>2020-12-20T10:55:07Z</time>
      </trkpt>
      <trkpt lat="46.54337" lon="0.32707">
        <ele>67.8</ele>
        <time>2020-12-20T10:55:09Z</time>
      </trkpt>
      <trkpt lat="46.54336" lon="0.32708">
        <ele>67.4</ele>
        <time>2020-12-20T10:55:10Z</time>
      </trkpt>
      <trkpt lat="46.54335" lon="0.32708">
        <ele>67</ele>
        <time>2020-12-20T10:55:11Z</time>
      </trkpt>
      <trkpt lat="46.54332" lon="0.32709">
        <ele>65.8</ele>
        <time>2020-12-20T10:55:13Z</time>
      </trkpt>
      <trkpt lat="46.54329" lon="0.32709">
        <ele>64.4</ele>
        <time>2020-12-20T10:55:15Z</time>
      </trkpt>
      <trkpt lat="46.54323" lon="0.32709">
        <ele>62.8</ele>
        <time>2020-12-20T10:55:18Z</time>
      </trkpt>
      <trkpt lat="46.54319" lon="0.32708">
        <ele>61.6</ele>
        <time>2020-12-20T10:55:19Z</time>
      </trkpt>
      <trkpt lat="46.54309" lon="0.3271">
        <ele>60.4</ele>
        <time>2020-12-20T10:55:21Z</time>
      </trkpt>
      <trkpt lat="46.54304" lon="0.3271">
        <ele>60</ele>
        <time>2020-12-20T10:55:22Z</time>
      </trkpt>
      <trkpt lat="46.54299" lon="0.3271">
        <ele>59.4</ele>
        <time>2020-12-20T10:55:23Z</time>
      </trkpt>
      <trkpt lat="46.54294" lon="0.32711">
        <ele>58.6</ele>
        <time>2020-12-20T10:55:24Z</time>
      </trkpt>
      <trkpt lat="46.54287" lon="0.32712">
        <ele>56.8</ele>
        <time>2020-12-20T10:55:26Z</time>
      </trkpt>
      <trkpt lat="46.54284" lon="0.32712">
        <ele>56</ele>
        <time>2020-12-20T10:55:27Z</time>
      </trkpt>
      <trkpt lat="46.54282" lon="0.32712">
        <ele>55.4</ele>
        <time>2020-12-20T10:55:28Z</time>
      </trkpt>
      <trkpt lat="46.54281" lon="0.32713">
        <ele>55</ele>
        <time>2020-12-20T10:55:29Z</time>
      </trkpt>
      <trkpt lat="46.54278" lon="0.32713">
        <ele>54.4</ele>
        <time>2020-12-20T10:55:31Z</time>
      </trkpt>
      <trkpt lat="46.54277" lon="0.32712">
        <ele>54.2</ele>
        <time>2020-12-20T10:55:33Z</time>
      </trkpt>
      <trkpt lat="46.54262" lon="0.32715">
        <ele>54</ele>
        <time>2020-12-20T10:55:41Z</time>
      </trkpt>
      <trkpt lat="46.54257" lon="0.32714">
        <ele>54.2</ele>
        <time>2020-12-20T10:55:58Z</time>
      </trkpt>
      <trkpt lat="46.54253" lon="0.32716">
        <ele>54</ele>
        <time>2020-12-20T10:56:13Z</time>
      </trkpt>
      <trkpt lat="46.54251" lon="0.32718">
        <ele>54</ele>
        <time>2020-12-20T10:56:29Z</time>
      </trkpt>
      <trkpt lat="46.54251" lon="0.32721">
        <ele>54</ele>
        <time>2020-12-20T10:56:47Z</time>
      </trkpt>
      <trkpt lat="46.54252" lon="0.3272">
        <ele>54.2</ele>
        <time>2020-12-20T10:57:02Z</time>
      </trkpt>
      <trkpt lat="46.54251" lon="0.32721">
        <ele>54</ele>
        <time>2020-12-20T10:57:19Z</time>
      </trkpt>
      <trkpt lat="46.54252" lon="0.3272">
        <ele>54</ele>
        <time>2020-12-20T10:57:40Z</time>
      </trkpt>
      <trkpt lat="46.5425" lon="0.32717">
        <ele>54</ele>
        <time>2020-12-20T10:57:58Z</time>
      </trkpt>
      <trkpt lat="46.5425" lon="0.32717">
        <ele>54</ele>
        <time>2020-12-20T10:58:13Z</time>
      </trkpt>
      <trkpt lat="46.5425" lon="0.3272">
        <ele>54</ele>
        <time>2020-12-20T10:58:28Z</time>
      </trkpt>
      <trkpt lat="46.54248" lon="0.3272">
        <ele>54</ele>
        <time>2020-12-20T10:58:34Z</time>
      </trkpt>
      <trkpt lat="46.5424" lon="0.3272">
        <ele>54</ele>
        <time>2020-12-20T10:58:39Z</time>
      </trkpt>
      <trkpt lat="46.54226" lon="0.32716">
        <ele>53.8</ele>
        <time>2020-12-20T10:58:44Z</time>
      </trkpt>
      <trkpt lat="46.54219" lon="0.32718">
        <ele>53.6</ele>
        <time>2020-12-20T10:58:48Z</time>
      </trkpt>
      <trkpt lat="46.54218" lon="0.32719">
        <ele>53.6</ele>
        <time>2020-12-20T10:58:49Z</time>
      </trkpt>
      <trkpt lat="46.54217" lon="0.32733">
        <ele>53.6</ele>
        <time>2020-12-20T10:58:54Z</time>
      </trkpt>
      <trkpt lat="46.54217" lon="0.32738">
        <ele>53.4</ele>
        <time>2020-12-20T10:58:56Z</time>
      </trkpt>
      <trkpt lat="46.54214" lon="0.32743">
        <ele>53.2</ele>
        <time>2020-12-20T10:58:58Z</time>
      </trkpt>
      <trkpt lat="46.54205" lon="0.32754">
        <ele>52.6</ele>
        <time>2020-12-20T10:59:04Z</time>
      </trkpt>
      <trkpt lat="46.542" lon="0.32758">
        <ele>52.6</ele>
        <time>2020-12-20T10:59:07Z</time>
      </trkpt>
      <trkpt lat="46.54197" lon="0.32761">
        <ele>52.4</ele>
        <time>2020-12-20T10:59:13Z</time>
      </trkpt>
      <trkpt lat="46.54192" lon="0.32759">
        <ele>52.6</ele>
        <time>2020-12-20T10:59:22Z</time>
      </trkpt>
      <trkpt lat="46.54189" lon="0.32757">
        <ele>53</ele>
        <time>2020-12-20T10:59:25Z</time>
      </trkpt>
      <trkpt lat="46.54187" lon="0.32756">
        <ele>53.8</ele>
        <time>2020-12-20T10:59:27Z</time>
      </trkpt>
      <trkpt lat="46.54186" lon="0.32755">
        <ele>54.4</ele>
        <time>2020-12-20T10:59:29Z</time>
      </trkpt>
      <trkpt lat="46.54181" lon="0.32754">
        <ele>54.8</ele>
        <time>2020-12-20T10:59:33Z</time>
      </trkpt>
      <trkpt lat="46.54177" lon="0.32755">
        <ele>55.2</ele>
        <time>2020-12-20T10:59:36Z</time>
      </trkpt>
      <trkpt lat="46.54174" lon="0.32755">
        <ele>55.6</ele>
        <time>2020-12-20T10:59:38Z</time>
      </trkpt>
      <trkpt lat="46.54165" lon="0.32758">
        <ele>56.6</ele>
        <time>2020-12-20T10:59:44Z</time>
      </trkpt>
      <trkpt lat="46.54163" lon="0.32759">
        <ele>57</ele>
        <time>2020-12-20T10:59:45Z</time>
      </trkpt>
      <trkpt lat="46.54158" lon="0.3276">
        <ele>57.6</ele>
        <time>2020-12-20T10:59:48Z</time>
      </trkpt>
      <trkpt lat="46.54156" lon="0.3276">
        <ele>57.6</ele>
        <time>2020-12-20T10:59:49Z</time>
      </trkpt>
      <trkpt lat="46.54147" lon="0.32761">
        <ele>57.8</ele>
        <time>2020-12-20T10:59:54Z</time>
      </trkpt>
      <trkpt lat="46.54139" lon="0.32763">
        <ele>58.8</ele>
        <time>2020-12-20T10:59:59Z</time>
      </trkpt>
      <trkpt lat="46.54135" lon="0.32764">
        <ele>58.8</ele>
        <time>2020-12-20T11:00:05Z</time>
      </trkpt>
      <trkpt lat="46.54128" lon="0.32765">
        <ele>58.8</ele>
        <time>2020-12-20T11:00:20Z</time>
      </trkpt>
      <trkpt lat="46.54129" lon="0.32765">
        <ele>58.8</ele>
        <time>2020-12-20T11:00:33Z</time>
      </trkpt>
      <trkpt lat="46.54125" lon="0.32768">
        <ele>59.2</ele>
        <time>2020-12-20T11:00:43Z</time>
      </trkpt>
      <trkpt lat="46.54125" lon="0.32769">
        <ele>59.2</ele>
        <time>2020-12-20T11:00:44Z</time>
      </trkpt>
      <trkpt lat="46.54126" lon="0.32771">
        <ele>59.4</ele>
        <time>2020-12-20T11:00:47Z</time>
      </trkpt>
      <trkpt lat="46.54126" lon="0.32775">
        <ele>58.4</ele>
        <time>2020-12-20T11:00:51Z</time>
      </trkpt>
      <trkpt lat="46.54125" lon="0.32778">
        <ele>57.4</ele>
        <time>2020-12-20T11:00:53Z</time>
      </trkpt>
      <trkpt lat="46.54125" lon="0.32783">
        <ele>56.2</ele>
        <time>2020-12-20T11:00:56Z</time>
      </trkpt>
      <trkpt lat="46.54124" lon="0.32785">
        <ele>54.6</ele>
        <time>2020-12-20T11:00:58Z</time>
      </trkpt>
      <trkpt lat="46.54123" lon="0.32789">
        <ele>53.6</ele>
        <time>2020-12-20T11:01:02Z</time>
      </trkpt>
      <trkpt lat="46.54123" lon="0.32794">
        <ele>53.6</ele>
        <time>2020-12-20T11:01:09Z</time>
      </trkpt>
      <trkpt lat="46.54122" lon="0.32796">
        <ele>53.6</ele>
        <time>2020-12-20T11:01:16Z</time>
      </trkpt>
      <trkpt lat="46.54123" lon="0.32797">
        <ele>53.8</ele>
        <time>2020-12-20T11:01:37Z</time>
      </trkpt>
      <trkpt lat="46.54129" lon="0.32798">
        <ele>53.6</ele>
        <time>2020-12-20T11:01:53Z</time>
      </trkpt>
      <trkpt lat="46.54129" lon="0.32797">
        <ele>53.8</ele>
        <time>2020-12-20T11:02:12Z</time>
      </trkpt>
      <trkpt lat="46.54124" lon="0.32796">
        <ele>54</ele>
        <time>2020-12-20T11:02:29Z</time>
      </trkpt>
      <trkpt lat="46.54122" lon="0.32794">
        <ele>54</ele>
        <time>2020-12-20T11:02:47Z</time>
      </trkpt>
      <trkpt lat="46.54121" lon="0.32797">
        <ele>54</ele>
        <time>2020-12-20T11:03:05Z</time>
      </trkpt>
      <trkpt lat="46.54122" lon="0.32799">
        <ele>54</ele>
        <time>2020-12-20T11:03:25Z</time>
      </trkpt>
      <trkpt lat="46.54117" lon="0.328">
        <ele>54</ele>
        <time>2020-12-20T11:03:41Z</time>
      </trkpt>
      <trkpt lat="46.54117" lon="0.32801">
        <ele>54</ele>
        <time>2020-12-20T11:04:01Z</time>
      </trkpt>
      <trkpt lat="46.54113" lon="0.32806">
        <ele>54</ele>
        <time>2020-12-20T11:04:18Z</time>
      </trkpt>
      <trkpt lat="46.54109" lon="0.3281">
        <ele>54</ele>
        <time>2020-12-20T11:04:22Z</time>
      </trkpt>
      <trkpt lat="46.54107" lon="0.32812">
        <ele>54.6</ele>
        <time>2020-12-20T11:04:26Z</time>
      </trkpt>
      <trkpt lat="46.54105" lon="0.32814">
        <ele>54.8</ele>
        <time>2020-12-20T11:04:28Z</time>
      </trkpt>
      <trkpt lat="46.54103" lon="0.32817">
        <ele>55</ele>
        <time>2020-12-20T11:04:30Z</time>
      </trkpt>
      <trkpt lat="46.54097" lon="0.32827">
        <ele>55.6</ele>
        <time>2020-12-20T11:04:36Z</time>
      </trkpt>
      <trkpt lat="46.54095" lon="0.3283">
        <ele>55.8</ele>
        <time>2020-12-20T11:04:38Z</time>
      </trkpt>
      <trkpt lat="46.54079" lon="0.32846">
        <ele>56</ele>
        <time>2020-12-20T11:04:50Z</time>
      </trkpt>
      <trkpt lat="46.54063" lon="0.32853">
        <ele>54.8</ele>
        <time>2020-12-20T11:04:56Z</time>
      </trkpt>
      <trkpt lat="46.54061" lon="0.32854">
        <ele>54.4</ele>
        <time>2020-12-20T11:04:57Z</time>
      </trkpt>
      <trkpt lat="46.54047" lon="0.3286">
        <ele>53.6</ele>
        <time>2020-12-20T11:05:03Z</time>
      </trkpt>
      <trkpt lat="46.54037" lon="0.32865">
        <ele>53.2</ele>
        <time>2020-12-20T11:05:08Z</time>
      </trkpt>
      <trkpt lat="46.54036" lon="0.32865">
        <ele>53</ele>
        <time>2020-12-20T11:05:09Z</time>
      </trkpt>
      <trkpt lat="46.5403" lon="0.32868">
        <ele>53.2</ele>
        <time>2020-12-20T11:05:13Z</time>
      </trkpt>
      <trkpt lat="46.54028" lon="0.32869">
        <ele>53.2</ele>
        <time>2020-12-20T11:05:14Z</time>
      </trkpt>
      <trkpt lat="46.54015" lon="0.32882">
        <ele>53.6</ele>
        <time>2020-12-20T11:05:20Z</time>
      </trkpt>
      <trkpt lat="46.54" lon="0.32901">
        <ele>53</ele>
        <time>2020-12-20T11:05:27Z</time>
      </trkpt>
      <trkpt lat="46.53984" lon="0.32913">
        <ele>53.2</ele>
        <time>2020-12-20T11:05:34Z</time>
      </trkpt>
      <trkpt lat="46.53974" lon="0.32924">
        <ele>54</ele>
        <time>2020-12-20T11:05:40Z</time>
      </trkpt>
      <trkpt lat="46.53966" lon="0.32942">
        <ele>54.2</ele>
        <time>2020-12-20T11:05:46Z</time>
      </trkpt>
      <trkpt lat="46.53965" lon="0.32945">
        <ele>54.2</ele>
        <time>2020-12-20T11:05:48Z</time>
      </trkpt>
      <trkpt lat="46.53959" lon="0.3296">
        <ele>54.4</ele>
        <time>2020-12-20T11:05:55Z</time>
      </trkpt>
      <trkpt lat="46.53948" lon="0.3298">
        <ele>54.2</ele>
        <time>2020-12-20T11:06:01Z</time>
      </trkpt>
      <trkpt lat="46.53937" lon="0.33">
        <ele>54.2</ele>
        <time>2020-12-20T11:06:07Z</time>
      </trkpt>
      <trkpt lat="46.53936" lon="0.33004">
        <ele>54.2</ele>
        <time>2020-12-20T11:06:08Z</time>
      </trkpt>
      <trkpt lat="46.53929" lon="0.3302">
        <ele>54</ele>
        <time>2020-12-20T11:06:13Z</time>
      </trkpt>
      <trkpt lat="46.53916" lon="0.33043">
        <ele>54.6</ele>
        <time>2020-12-20T11:06:20Z</time>
      </trkpt>
      <trkpt lat="46.53911" lon="0.33053">
        <ele>55.2</ele>
        <time>2020-12-20T11:06:24Z</time>
      </trkpt>
      <trkpt lat="46.53909" lon="0.33055">
        <ele>55.6</ele>
        <time>2020-12-20T11:06:25Z</time>
      </trkpt>
      <trkpt lat="46.53905" lon="0.33064">
        <ele>55.8</ele>
        <time>2020-12-20T11:06:29Z</time>
      </trkpt>
      <trkpt lat="46.53903" lon="0.33068">
        <ele>55.8</ele>
        <time>2020-12-20T11:06:30Z</time>
      </trkpt>
      <trkpt lat="46.53896" lon="0.33086">
        <ele>55.4</ele>
        <time>2020-12-20T11:06:35Z</time>
      </trkpt>
      <trkpt lat="46.53896" lon="0.33089">
        <ele>55.6</ele>
        <time>2020-12-20T11:06:36Z</time>
      </trkpt>
      <trkpt lat="46.5389" lon="0.33109">
        <ele>54.8</ele>
        <time>2020-12-20T11:06:42Z</time>
      </trkpt>
      <trkpt lat="46.5389" lon="0.33112">
        <ele>54.8</ele>
        <time>2020-12-20T11:06:43Z</time>
      </trkpt>
      <trkpt lat="46.53889" lon="0.33118">
        <ele>55.2</ele>
        <time>2020-12-20T11:06:46Z</time>
      </trkpt>
      <trkpt lat="46.53887" lon="0.33123">
        <ele>55.2</ele>
        <time>2020-12-20T11:06:47Z</time>
      </trkpt>
      <trkpt lat="46.53877" lon="0.33142">
        <ele>56.4</ele>
        <time>2020-12-20T11:06:52Z</time>
      </trkpt>
      <trkpt lat="46.53876" lon="0.33145">
        <ele>56.6</ele>
        <time>2020-12-20T11:06:53Z</time>
      </trkpt>
      <trkpt lat="46.53869" lon="0.33161">
        <ele>57</ele>
        <time>2020-12-20T11:07:00Z</time>
      </trkpt>
      <trkpt lat="46.53865" lon="0.33172">
        <ele>57.4</ele>
        <time>2020-12-20T11:07:04Z</time>
      </trkpt>
      <trkpt lat="46.53862" lon="0.33181">
        <ele>58.2</ele>
        <time>2020-12-20T11:07:07Z</time>
      </trkpt>
      <trkpt lat="46.53861" lon="0.33188">
        <ele>58.4</ele>
        <time>2020-12-20T11:07:09Z</time>
      </trkpt>
      <trkpt lat="46.53854" lon="0.33213">
        <ele>59.2</ele>
        <time>2020-12-20T11:07:16Z</time>
      </trkpt>
      <trkpt lat="46.53851" lon="0.33221">
        <ele>59.6</ele>
        <time>2020-12-20T11:07:18Z</time>
      </trkpt>
      <trkpt lat="46.53847" lon="0.3323">
        <ele>60</ele>
        <time>2020-12-20T11:07:21Z</time>
      </trkpt>
      <trkpt lat="46.53846" lon="0.33237">
        <ele>60.6</ele>
        <time>2020-12-20T11:07:24Z</time>
      </trkpt>
      <trkpt lat="46.53844" lon="0.33243">
        <ele>61</ele>
        <time>2020-12-20T11:07:27Z</time>
      </trkpt>
      <trkpt lat="46.53842" lon="0.3325">
        <ele>61.4</ele>
        <time>2020-12-20T11:07:30Z</time>
      </trkpt>
      <trkpt lat="46.5384" lon="0.33252">
        <ele>61.8</ele>
        <time>2020-12-20T11:07:31Z</time>
      </trkpt>
      <trkpt lat="46.53838" lon="0.33257">
        <ele>62.4</ele>
        <time>2020-12-20T11:07:33Z</time>
      </trkpt>
      <trkpt lat="46.53834" lon="0.33268">
        <ele>62.8</ele>
        <time>2020-12-20T11:07:36Z</time>
      </trkpt>
      <trkpt lat="46.53827" lon="0.33287">
        <ele>63.2</ele>
        <time>2020-12-20T11:07:41Z</time>
      </trkpt>
      <trkpt lat="46.53823" lon="0.33306">
        <ele>63.8</ele>
        <time>2020-12-20T11:07:47Z</time>
      </trkpt>
      <trkpt lat="46.53822" lon="0.33309">
        <ele>64</ele>
        <time>2020-12-20T11:07:48Z</time>
      </trkpt>
      <trkpt lat="46.53818" lon="0.33325">
        <ele>64.2</ele>
        <time>2020-12-20T11:07:53Z</time>
      </trkpt>
      <trkpt lat="46.53809" lon="0.33346">
        <ele>64.8</ele>
        <time>2020-12-20T11:07:58Z</time>
      </trkpt>
      <trkpt lat="46.53807" lon="0.33353">
        <ele>65</ele>
        <time>2020-12-20T11:08:00Z</time>
      </trkpt>
      <trkpt lat="46.53801" lon="0.3337">
        <ele>65.6</ele>
        <time>2020-12-20T11:08:05Z</time>
      </trkpt>
      <trkpt lat="46.53794" lon="0.33395">
        <ele>66</ele>
        <time>2020-12-20T11:08:11Z</time>
      </trkpt>
      <trkpt lat="46.53789" lon="0.33418">
        <ele>66.4</ele>
        <time>2020-12-20T11:08:17Z</time>
      </trkpt>
      <trkpt lat="46.53781" lon="0.33444">
        <ele>67.2</ele>
        <time>2020-12-20T11:08:23Z</time>
      </trkpt>
      <trkpt lat="46.5378" lon="0.33449">
        <ele>67.4</ele>
        <time>2020-12-20T11:08:24Z</time>
      </trkpt>
      <trkpt lat="46.53773" lon="0.33468">
        <ele>68</ele>
        <time>2020-12-20T11:08:29Z</time>
      </trkpt>
      <trkpt lat="46.53763" lon="0.33501">
        <ele>68.2</ele>
        <time>2020-12-20T11:08:37Z</time>
      </trkpt>
      <trkpt lat="46.53757" lon="0.33513">
        <ele>68.2</ele>
        <time>2020-12-20T11:08:38Z</time>
      </trkpt>
      <trkpt lat="46.53752" lon="0.33524">
        <ele>68.4</ele>
        <time>2020-12-20T11:08:41Z</time>
      </trkpt>
      <trkpt lat="46.53748" lon="0.33534">
        <ele>68.4</ele>
        <time>2020-12-20T11:08:43Z</time>
      </trkpt>
      <trkpt lat="46.5374" lon="0.33566">
        <ele>68.4</ele>
        <time>2020-12-20T11:08:50Z</time>
      </trkpt>
      <trkpt lat="46.53736" lon="0.33587">
        <ele>69.4</ele>
        <time>2020-12-20T11:08:56Z</time>
      </trkpt>
      <trkpt lat="46.53732" lon="0.33601">
        <ele>70.6</ele>
        <time>2020-12-20T11:09:00Z</time>
      </trkpt>
      <trkpt lat="46.5373" lon="0.33609">
        <ele>71.2</ele>
        <time>2020-12-20T11:09:03Z</time>
      </trkpt>
      <trkpt lat="46.53727" lon="0.33616">
        <ele>71.6</ele>
        <time>2020-12-20T11:09:06Z</time>
      </trkpt>
      <trkpt lat="46.53721" lon="0.33628">
        <ele>72.6</ele>
        <time>2020-12-20T11:09:11Z</time>
      </trkpt>
      <trkpt lat="46.53719" lon="0.33631">
        <ele>72.8</ele>
        <time>2020-12-20T11:09:12Z</time>
      </trkpt>
      <trkpt lat="46.53708" lon="0.33645">
        <ele>73.6</ele>
        <time>2020-12-20T11:09:18Z</time>
      </trkpt>
      <trkpt lat="46.53704" lon="0.33648">
        <ele>73.8</ele>
        <time>2020-12-20T11:09:21Z</time>
      </trkpt>
      <trkpt lat="46.53698" lon="0.33651">
        <ele>73.8</ele>
        <time>2020-12-20T11:09:24Z</time>
      </trkpt>
      <trkpt lat="46.53695" lon="0.33652">
        <ele>74</ele>
        <time>2020-12-20T11:09:25Z</time>
      </trkpt>
      <trkpt lat="46.53681" lon="0.33653">
        <ele>74.8</ele>
        <time>2020-12-20T11:09:32Z</time>
      </trkpt>
      <trkpt lat="46.5368" lon="0.33652">
        <ele>75</ele>
        <time>2020-12-20T11:09:33Z</time>
      </trkpt>
      <trkpt lat="46.53677" lon="0.33652">
        <ele>75.6</ele>
        <time>2020-12-20T11:09:35Z</time>
      </trkpt>
      <trkpt lat="46.53673" lon="0.33649">
        <ele>76.2</ele>
        <time>2020-12-20T11:09:38Z</time>
      </trkpt>
      <trkpt lat="46.53671" lon="0.33648">
        <ele>76.6</ele>
        <time>2020-12-20T11:09:39Z</time>
      </trkpt>
      <trkpt lat="46.53666" lon="0.33645">
        <ele>77.4</ele>
        <time>2020-12-20T11:09:42Z</time>
      </trkpt>
      <trkpt lat="46.53656" lon="0.33639">
        <ele>78.4</ele>
        <time>2020-12-20T11:09:47Z</time>
      </trkpt>
      <trkpt lat="46.53654" lon="0.33637">
        <ele>78.4</ele>
        <time>2020-12-20T11:09:48Z</time>
      </trkpt>
      <trkpt lat="46.53641" lon="0.3363">
        <ele>79.4</ele>
        <time>2020-12-20T11:09:54Z</time>
      </trkpt>
      <trkpt lat="46.53639" lon="0.33629">
        <ele>79.8</ele>
        <time>2020-12-20T11:09:55Z</time>
      </trkpt>
      <trkpt lat="46.53629" lon="0.33621">
        <ele>80.8</ele>
        <time>2020-12-20T11:10:01Z</time>
      </trkpt>
      <trkpt lat="46.53625" lon="0.33618">
        <ele>81</ele>
        <time>2020-12-20T11:10:03Z</time>
      </trkpt>
      <trkpt lat="46.53621" lon="0.33612">
        <ele>82</ele>
        <time>2020-12-20T11:10:07Z</time>
      </trkpt>
      <trkpt lat="46.53618" lon="0.33607">
        <ele>82.4</ele>
        <time>2020-12-20T11:10:11Z</time>
      </trkpt>
      <trkpt lat="46.53615" lon="0.33603">
        <ele>83.2</ele>
        <time>2020-12-20T11:10:14Z</time>
      </trkpt>
      <trkpt lat="46.53608" lon="0.33594">
        <ele>84</ele>
        <time>2020-12-20T11:10:20Z</time>
      </trkpt>
      <trkpt lat="46.53606" lon="0.33592">
        <ele>84.4</ele>
        <time>2020-12-20T11:10:22Z</time>
      </trkpt>
      <trkpt lat="46.53598" lon="0.33583">
        <ele>85.4</ele>
        <time>2020-12-20T11:10:28Z</time>
      </trkpt>
      <trkpt lat="46.53598" lon="0.33582">
        <ele>85.8</ele>
        <time>2020-12-20T11:10:29Z</time>
      </trkpt>
      <trkpt lat="46.53595" lon="0.33577">
        <ele>86.2</ele>
        <time>2020-12-20T11:10:32Z</time>
      </trkpt>
      <trkpt lat="46.53592" lon="0.33574">
        <ele>86.6</ele>
        <time>2020-12-20T11:10:34Z</time>
      </trkpt>
      <trkpt lat="46.53591" lon="0.33573">
        <ele>86.8</ele>
        <time>2020-12-20T11:10:35Z</time>
      </trkpt>
      <trkpt lat="46.5359" lon="0.33571">
        <ele>86.8</ele>
        <time>2020-12-20T11:10:36Z</time>
      </trkpt>
      <trkpt lat="46.53586" lon="0.33567">
        <ele>87.4</ele>
        <time>2020-12-20T11:10:39Z</time>
      </trkpt>
      <trkpt lat="46.53583" lon="0.33565">
        <ele>87.8</ele>
        <time>2020-12-20T11:10:41Z</time>
      </trkpt>
      <trkpt lat="46.53581" lon="0.33564">
        <ele>87.8</ele>
        <time>2020-12-20T11:10:42Z</time>
      </trkpt>
      <trkpt lat="46.53574" lon="0.33555">
        <ele>88.6</ele>
        <time>2020-12-20T11:10:48Z</time>
      </trkpt>
      <trkpt lat="46.53572" lon="0.33553">
        <ele>88.8</ele>
        <time>2020-12-20T11:10:49Z</time>
      </trkpt>
      <trkpt lat="46.53559" lon="0.33537">
        <ele>89.8</ele>
        <time>2020-12-20T11:10:56Z</time>
      </trkpt>
      <trkpt lat="46.53558" lon="0.33536">
        <ele>90</ele>
        <time>2020-12-20T11:10:57Z</time>
      </trkpt>
      <trkpt lat="46.53551" lon="0.33522">
        <ele>90.4</ele>
        <time>2020-12-20T11:11:04Z</time>
      </trkpt>
      <trkpt lat="46.53549" lon="0.33519">
        <ele>90.8</ele>
        <time>2020-12-20T11:11:06Z</time>
      </trkpt>
      <trkpt lat="46.53533" lon="0.33495">
        <ele>91.8</ele>
        <time>2020-12-20T11:11:16Z</time>
      </trkpt>
      <trkpt lat="46.53532" lon="0.33493">
        <ele>91.8</ele>
        <time>2020-12-20T11:11:17Z</time>
      </trkpt>
      <trkpt lat="46.53519" lon="0.33474">
        <ele>92.8</ele>
        <time>2020-12-20T11:11:24Z</time>
      </trkpt>
      <trkpt lat="46.53515" lon="0.33466">
        <ele>93</ele>
        <time>2020-12-20T11:11:26Z</time>
      </trkpt>
      <trkpt lat="46.53509" lon="0.33451">
        <ele>93.4</ele>
        <time>2020-12-20T11:11:30Z</time>
      </trkpt>
      <trkpt lat="46.53507" lon="0.33432">
        <ele>93.8</ele>
        <time>2020-12-20T11:11:36Z</time>
      </trkpt>
      <trkpt lat="46.53501" lon="0.33406">
        <ele>93.8</ele>
        <time>2020-12-20T11:11:43Z</time>
      </trkpt>
      <trkpt lat="46.53499" lon="0.33378">
        <ele>94.2</ele>
        <time>2020-12-20T11:11:50Z</time>
      </trkpt>
      <trkpt lat="46.53495" lon="0.33352">
        <ele>94.8</ele>
        <time>2020-12-20T11:11:56Z</time>
      </trkpt>
      <trkpt lat="46.53492" lon="0.33327">
        <ele>95</ele>
        <time>2020-12-20T11:12:01Z</time>
      </trkpt>
      <trkpt lat="46.5349" lon="0.33307">
        <ele>95</ele>
        <time>2020-12-20T11:12:05Z</time>
      </trkpt>
      <trkpt lat="46.53491" lon="0.33298">
        <ele>95</ele>
        <time>2020-12-20T11:12:07Z</time>
      </trkpt>
      <trkpt lat="46.5349" lon="0.33292">
        <ele>95.4</ele>
        <time>2020-12-20T11:12:08Z</time>
      </trkpt>
      <trkpt lat="46.53491" lon="0.33287">
        <ele>95.6</ele>
        <time>2020-12-20T11:12:09Z</time>
      </trkpt>
      <trkpt lat="46.53494" lon="0.33268">
        <ele>96.2</ele>
        <time>2020-12-20T11:12:13Z</time>
      </trkpt>
      <trkpt lat="46.53485" lon="0.33227">
        <ele>96.2</ele>
        <time>2020-12-20T11:12:20Z</time>
      </trkpt>
      <trkpt lat="46.53483" lon="0.3322">
        <ele>96.4</ele>
        <time>2020-12-20T11:12:21Z</time>
      </trkpt>
      <trkpt lat="46.53469" lon="0.33185">
        <ele>96.6</ele>
        <time>2020-12-20T11:12:27Z</time>
      </trkpt>
      <trkpt lat="46.53465" lon="0.33173">
        <ele>96.2</ele>
        <time>2020-12-20T11:12:29Z</time>
      </trkpt>
      <trkpt lat="46.53461" lon="0.33165">
        <ele>95.6</ele>
        <time>2020-12-20T11:12:31Z</time>
      </trkpt>
      <trkpt lat="46.53456" lon="0.33162">
        <ele>95.4</ele>
        <time>2020-12-20T11:12:32Z</time>
      </trkpt>
      <trkpt lat="46.53448" lon="0.33158">
        <ele>95</ele>
        <time>2020-12-20T11:12:33Z</time>
      </trkpt>
      <trkpt lat="46.53428" lon="0.33152">
        <ele>94.8</ele>
        <time>2020-12-20T11:12:36Z</time>
      </trkpt>
      <trkpt lat="46.53418" lon="0.3315">
        <ele>94.8</ele>
        <time>2020-12-20T11:12:38Z</time>
      </trkpt>
      <trkpt lat="46.534" lon="0.33152">
        <ele>95.6</ele>
        <time>2020-12-20T11:12:42Z</time>
      </trkpt>
      <trkpt lat="46.53387" lon="0.33155">
        <ele>96.8</ele>
        <time>2020-12-20T11:12:45Z</time>
      </trkpt>
      <trkpt lat="46.5338" lon="0.33158">
        <ele>98.2</ele>
        <time>2020-12-20T11:12:47Z</time>
      </trkpt>
      <trkpt lat="46.53378" lon="0.33159">
        <ele>98.4</ele>
        <time>2020-12-20T11:12:48Z</time>
      </trkpt>
      <trkpt lat="46.53355" lon="0.33169">
        <ele>99.2</ele>
        <time>2020-12-20T11:12:55Z</time>
      </trkpt>
      <trkpt lat="46.53332" lon="0.33174">
        <ele>99.8</ele>
        <time>2020-12-20T11:13:02Z</time>
      </trkpt>
      <trkpt lat="46.53322" lon="0.33176">
        <ele>100.4</ele>
        <time>2020-12-20T11:13:05Z</time>
      </trkpt>
      <trkpt lat="46.53313" lon="0.3318">
        <ele>100.6</ele>
        <time>2020-12-20T11:13:08Z</time>
      </trkpt>
      <trkpt lat="46.53297" lon="0.33186">
        <ele>100.8</ele>
        <time>2020-12-20T11:13:14Z</time>
      </trkpt>
      <trkpt lat="46.53284" lon="0.33191">
        <ele>101.4</ele>
        <time>2020-12-20T11:13:19Z</time>
      </trkpt>
      <trkpt lat="46.53279" lon="0.33192">
        <ele>101.4</ele>
        <time>2020-12-20T11:13:21Z</time>
      </trkpt>
      <trkpt lat="46.53263" lon="0.332">
        <ele>102.4</ele>
        <time>2020-12-20T11:13:26Z</time>
      </trkpt>
      <trkpt lat="46.5326" lon="0.33201">
        <ele>102.6</ele>
        <time>2020-12-20T11:13:27Z</time>
      </trkpt>
      <trkpt lat="46.5324" lon="0.33221">
        <ele>103</ele>
        <time>2020-12-20T11:13:33Z</time>
      </trkpt>
      <trkpt lat="46.53224" lon="0.33255">
        <ele>102.8</ele>
        <time>2020-12-20T11:13:40Z</time>
      </trkpt>
      <trkpt lat="46.53221" lon="0.3326">
        <ele>102.8</ele>
        <time>2020-12-20T11:13:41Z</time>
      </trkpt>
      <trkpt lat="46.53208" lon="0.33285">
        <ele>102.2</ele>
        <time>2020-12-20T11:13:46Z</time>
      </trkpt>
      <trkpt lat="46.53203" lon="0.3329">
        <ele>102.2</ele>
        <time>2020-12-20T11:13:47Z</time>
      </trkpt>
      <trkpt lat="46.53188" lon="0.33306">
        <ele>102</ele>
        <time>2020-12-20T11:13:50Z</time>
      </trkpt>
      <trkpt lat="46.53183" lon="0.33311">
        <ele>101.8</ele>
        <time>2020-12-20T11:13:51Z</time>
      </trkpt>
      <trkpt lat="46.53172" lon="0.3332">
        <ele>101.4</ele>
        <time>2020-12-20T11:13:53Z</time>
      </trkpt>
      <trkpt lat="46.53147" lon="0.33337">
        <ele>100.8</ele>
        <time>2020-12-20T11:13:57Z</time>
      </trkpt>
      <trkpt lat="46.53117" lon="0.33353">
        <ele>100.4</ele>
        <time>2020-12-20T11:14:02Z</time>
      </trkpt>
      <trkpt lat="46.53112" lon="0.33355">
        <ele>100.4</ele>
        <time>2020-12-20T11:14:03Z</time>
      </trkpt>
      <trkpt lat="46.53106" lon="0.33356">
        <ele>100</ele>
        <time>2020-12-20T11:14:04Z</time>
      </trkpt>
      <trkpt lat="46.53078" lon="0.33364">
        <ele>99.2</ele>
        <time>2020-12-20T11:14:09Z</time>
      </trkpt>
      <trkpt lat="46.53073" lon="0.33365">
        <ele>99</ele>
        <time>2020-12-20T11:14:10Z</time>
      </trkpt>
      <trkpt lat="46.5306" lon="0.33367">
        <ele>97.6</ele>
        <time>2020-12-20T11:14:12Z</time>
      </trkpt>
      <trkpt lat="46.53056" lon="0.33368">
        <ele>97.2</ele>
        <time>2020-12-20T11:14:14Z</time>
      </trkpt>
      <trkpt lat="46.53053" lon="0.33369">
        <ele>96.6</ele>
        <time>2020-12-20T11:14:15Z</time>
      </trkpt>
      <trkpt lat="46.5304" lon="0.33374">
        <ele>95.8</ele>
        <time>2020-12-20T11:14:19Z</time>
      </trkpt>
      <trkpt lat="46.53037" lon="0.33376">
        <ele>95.8</ele>
        <time>2020-12-20T11:14:20Z</time>
      </trkpt>
      <trkpt lat="46.53033" lon="0.33377">
        <ele>95.6</ele>
        <time>2020-12-20T11:14:21Z</time>
      </trkpt>
      <trkpt lat="46.53024" lon="0.33382">
        <ele>95.4</ele>
        <time>2020-12-20T11:14:23Z</time>
      </trkpt>
      <trkpt lat="46.53011" lon="0.33389">
        <ele>94.8</ele>
        <time>2020-12-20T11:14:25Z</time>
      </trkpt>
      <trkpt lat="46.53004" lon="0.33393">
        <ele>94.4</ele>
        <time>2020-12-20T11:14:26Z</time>
      </trkpt>
      <trkpt lat="46.5299" lon="0.33399">
        <ele>93</ele>
        <time>2020-12-20T11:14:28Z</time>
      </trkpt>
      <trkpt lat="46.52978" lon="0.33405">
        <ele>91.6</ele>
        <time>2020-12-20T11:14:30Z</time>
      </trkpt>
      <trkpt lat="46.52965" lon="0.33409">
        <ele>90.4</ele>
        <time>2020-12-20T11:14:32Z</time>
      </trkpt>
      <trkpt lat="46.52951" lon="0.33413">
        <ele>89</ele>
        <time>2020-12-20T11:14:34Z</time>
      </trkpt>
      <trkpt lat="46.52944" lon="0.33413">
        <ele>88.4</ele>
        <time>2020-12-20T11:14:35Z</time>
      </trkpt>
      <trkpt lat="46.52937" lon="0.33413">
        <ele>88</ele>
        <time>2020-12-20T11:14:36Z</time>
      </trkpt>
      <trkpt lat="46.5291" lon="0.33411">
        <ele>86.2</ele>
        <time>2020-12-20T11:14:39Z</time>
      </trkpt>
      <trkpt lat="46.52891" lon="0.33411">
        <ele>84.6</ele>
        <time>2020-12-20T11:14:41Z</time>
      </trkpt>
      <trkpt lat="46.52864" lon="0.33416">
        <ele>83.6</ele>
        <time>2020-12-20T11:14:44Z</time>
      </trkpt>
      <trkpt lat="46.52838" lon="0.33426">
        <ele>82.6</ele>
        <time>2020-12-20T11:14:48Z</time>
      </trkpt>
      <trkpt lat="46.52833" lon="0.33429">
        <ele>82.6</ele>
        <time>2020-12-20T11:14:49Z</time>
      </trkpt>
      <trkpt lat="46.52814" lon="0.33436">
        <ele>81.6</ele>
        <time>2020-12-20T11:14:53Z</time>
      </trkpt>
      <trkpt lat="46.52809" lon="0.33438">
        <ele>81.4</ele>
        <time>2020-12-20T11:14:54Z</time>
      </trkpt>
      <trkpt lat="46.52803" lon="0.33439">
        <ele>81.2</ele>
        <time>2020-12-20T11:14:55Z</time>
      </trkpt>
      <trkpt lat="46.52785" lon="0.33441">
        <ele>80.8</ele>
        <time>2020-12-20T11:14:58Z</time>
      </trkpt>
      <trkpt lat="46.5278" lon="0.3344">
        <ele>80.8</ele>
        <time>2020-12-20T11:14:59Z</time>
      </trkpt>
      <trkpt lat="46.52775" lon="0.33438">
        <ele>80.6</ele>
        <time>2020-12-20T11:15:00Z</time>
      </trkpt>
      <trkpt lat="46.52766" lon="0.33435">
        <ele>80.2</ele>
        <time>2020-12-20T11:15:02Z</time>
      </trkpt>
      <trkpt lat="46.5276" lon="0.33433">
        <ele>80.2</ele>
        <time>2020-12-20T11:15:03Z</time>
      </trkpt>
      <trkpt lat="46.52755" lon="0.33431">
        <ele>80</ele>
        <time>2020-12-20T11:15:04Z</time>
      </trkpt>
      <trkpt lat="46.52733" lon="0.33431">
        <ele>79.8</ele>
        <time>2020-12-20T11:15:08Z</time>
      </trkpt>
      <trkpt lat="46.52726" lon="0.3343">
        <ele>79.6</ele>
        <time>2020-12-20T11:15:09Z</time>
      </trkpt>
      <trkpt lat="46.52714" lon="0.33428">
        <ele>79.2</ele>
        <time>2020-12-20T11:15:11Z</time>
      </trkpt>
      <trkpt lat="46.52693" lon="0.33425">
        <ele>78.6</ele>
        <time>2020-12-20T11:15:14Z</time>
      </trkpt>
      <trkpt lat="46.52687" lon="0.33423">
        <ele>78</ele>
        <time>2020-12-20T11:15:15Z</time>
      </trkpt>
      <trkpt lat="46.52666" lon="0.3342">
        <ele>76.8</ele>
        <time>2020-12-20T11:15:18Z</time>
      </trkpt>
      <trkpt lat="46.52658" lon="0.33418">
        <ele>76.4</ele>
        <time>2020-12-20T11:15:19Z</time>
      </trkpt>
      <trkpt lat="46.52652" lon="0.33414">
        <ele>76.2</ele>
        <time>2020-12-20T11:15:20Z</time>
      </trkpt>
      <trkpt lat="46.52644" lon="0.33406">
        <ele>75.4</ele>
        <time>2020-12-20T11:15:22Z</time>
      </trkpt>
      <trkpt lat="46.52636" lon="0.334">
        <ele>74.4</ele>
        <time>2020-12-20T11:15:24Z</time>
      </trkpt>
      <trkpt lat="46.52632" lon="0.33397">
        <ele>74</ele>
        <time>2020-12-20T11:15:25Z</time>
      </trkpt>
      <trkpt lat="46.52629" lon="0.33393">
        <ele>73.8</ele>
        <time>2020-12-20T11:15:26Z</time>
      </trkpt>
      <trkpt lat="46.52615" lon="0.33379">
        <ele>73.4</ele>
        <time>2020-12-20T11:15:30Z</time>
      </trkpt>
      <trkpt lat="46.52599" lon="0.33371">
        <ele>73</ele>
        <time>2020-12-20T11:15:33Z</time>
      </trkpt>
      <trkpt lat="46.52595" lon="0.33369">
        <ele>73</ele>
        <time>2020-12-20T11:15:34Z</time>
      </trkpt>
      <trkpt lat="46.52579" lon="0.33351">
        <ele>73</ele>
        <time>2020-12-20T11:15:39Z</time>
      </trkpt>
      <trkpt lat="46.52562" lon="0.33344">
        <ele>73.4</ele>
        <time>2020-12-20T11:15:44Z</time>
      </trkpt>
      <trkpt lat="46.52543" lon="0.33347">
        <ele>73.6</ele>
        <time>2020-12-20T11:15:49Z</time>
      </trkpt>
      <trkpt lat="46.52523" lon="0.3335">
        <ele>73.2</ele>
        <time>2020-12-20T11:15:55Z</time>
      </trkpt>
      <trkpt lat="46.52522" lon="0.33354">
        <ele>73.2</ele>
        <time>2020-12-20T11:15:56Z</time>
      </trkpt>
      <trkpt lat="46.52521" lon="0.33362">
        <ele>72.8</ele>
        <time>2020-12-20T11:15:58Z</time>
      </trkpt>
      <trkpt lat="46.52525" lon="0.33396">
        <ele>72.4</ele>
        <time>2020-12-20T11:16:05Z</time>
      </trkpt>
      <trkpt lat="46.52531" lon="0.33424">
        <ele>71.8</ele>
        <time>2020-12-20T11:16:10Z</time>
      </trkpt>
      <trkpt lat="46.52533" lon="0.33443">
        <ele>71.2</ele>
        <time>2020-12-20T11:16:12Z</time>
      </trkpt>
      <trkpt lat="46.52533" lon="0.33449">
        <ele>71.2</ele>
        <time>2020-12-20T11:16:14Z</time>
      </trkpt>
      <trkpt lat="46.52532" lon="0.33456">
        <ele>70.6</ele>
        <time>2020-12-20T11:16:15Z</time>
      </trkpt>
      <trkpt lat="46.52531" lon="0.33502">
        <ele>70</ele>
        <time>2020-12-20T11:16:22Z</time>
      </trkpt>
      <trkpt lat="46.52531" lon="0.33527">
        <ele>69.2</ele>
        <time>2020-12-20T11:16:25Z</time>
      </trkpt>
      <trkpt lat="46.52533" lon="0.33555">
        <ele>67.8</ele>
        <time>2020-12-20T11:16:28Z</time>
      </trkpt>
      <trkpt lat="46.52534" lon="0.33585">
        <ele>66.4</ele>
        <time>2020-12-20T11:16:31Z</time>
      </trkpt>
      <trkpt lat="46.52534" lon="0.33595">
        <ele>66.2</ele>
        <time>2020-12-20T11:16:32Z</time>
      </trkpt>
      <trkpt lat="46.52533" lon="0.33606">
        <ele>66</ele>
        <time>2020-12-20T11:16:33Z</time>
      </trkpt>
      <trkpt lat="46.5253" lon="0.33616">
        <ele>65.6</ele>
        <time>2020-12-20T11:16:34Z</time>
      </trkpt>
      <trkpt lat="46.52526" lon="0.33626">
        <ele>65</ele>
        <time>2020-12-20T11:16:35Z</time>
      </trkpt>
      <trkpt lat="46.52521" lon="0.33636">
        <ele>64.8</ele>
        <time>2020-12-20T11:16:36Z</time>
      </trkpt>
      <trkpt lat="46.52508" lon="0.33667">
        <ele>64</ele>
        <time>2020-12-20T11:16:39Z</time>
      </trkpt>
      <trkpt lat="46.52506" lon="0.33678">
        <ele>63.2</ele>
        <time>2020-12-20T11:16:40Z</time>
      </trkpt>
      <trkpt lat="46.52506" lon="0.33689">
        <ele>62.2</ele>
        <time>2020-12-20T11:16:41Z</time>
      </trkpt>
      <trkpt lat="46.52506" lon="0.337">
        <ele>61</ele>
        <time>2020-12-20T11:16:42Z</time>
      </trkpt>
      <trkpt lat="46.52504" lon="0.33709">
        <ele>59.6</ele>
        <time>2020-12-20T11:16:43Z</time>
      </trkpt>
      <trkpt lat="46.52502" lon="0.33718">
        <ele>58.4</ele>
        <time>2020-12-20T11:16:44Z</time>
      </trkpt>
      <trkpt lat="46.52498" lon="0.33726">
        <ele>57.8</ele>
        <time>2020-12-20T11:16:45Z</time>
      </trkpt>
      <trkpt lat="46.52493" lon="0.33733">
        <ele>57.4</ele>
        <time>2020-12-20T11:16:46Z</time>
      </trkpt>
      <trkpt lat="46.52473" lon="0.33759">
        <ele>57</ele>
        <time>2020-12-20T11:16:50Z</time>
      </trkpt>
      <trkpt lat="46.52458" lon="0.33775">
        <ele>56.4</ele>
        <time>2020-12-20T11:16:53Z</time>
      </trkpt>
      <trkpt lat="46.52439" lon="0.33795">
        <ele>56</ele>
        <time>2020-12-20T11:16:57Z</time>
      </trkpt>
      <trkpt lat="46.52403" lon="0.33834">
        <ele>56</ele>
        <time>2020-12-20T11:17:05Z</time>
      </trkpt>
      <trkpt lat="46.52365" lon="0.3386">
        <ele>56</ele>
        <time>2020-12-20T11:17:13Z</time>
      </trkpt>
      <trkpt lat="46.52323" lon="0.33889">
        <ele>56.2</ele>
        <time>2020-12-20T11:17:22Z</time>
      </trkpt>
      <trkpt lat="46.52285" lon="0.33917">
        <ele>56.2</ele>
        <time>2020-12-20T11:17:31Z</time>
      </trkpt>
      <trkpt lat="46.52254" lon="0.33942">
        <ele>56.4</ele>
        <time>2020-12-20T11:17:38Z</time>
      </trkpt>
      <trkpt lat="46.52219" lon="0.33976">
        <ele>55.6</ele>
        <time>2020-12-20T11:17:46Z</time>
      </trkpt>
      <trkpt lat="46.52214" lon="0.33978">
        <ele>55.6</ele>
        <time>2020-12-20T11:17:47Z</time>
      </trkpt>
      <trkpt lat="46.52206" lon="0.33981">
        <ele>55.4</ele>
        <time>2020-12-20T11:17:48Z</time>
      </trkpt>
      <trkpt lat="46.52198" lon="0.33982">
        <ele>55.4</ele>
        <time>2020-12-20T11:17:51Z</time>
      </trkpt>
      <trkpt lat="46.52194" lon="0.33983">
        <ele>55.4</ele>
        <time>2020-12-20T11:17:52Z</time>
      </trkpt>
      <trkpt lat="46.52182" lon="0.33985">
        <ele>55.2</ele>
        <time>2020-12-20T11:17:56Z</time>
      </trkpt>
      <trkpt lat="46.52159" lon="0.33985">
        <ele>55.2</ele>
        <time>2020-12-20T11:18:02Z</time>
      </trkpt>
      <trkpt lat="46.52155" lon="0.33983">
        <ele>55.2</ele>
        <time>2020-12-20T11:18:03Z</time>
      </trkpt>
      <trkpt lat="46.52144" lon="0.33979">
        <ele>55.4</ele>
        <time>2020-12-20T11:18:05Z</time>
      </trkpt>
      <trkpt lat="46.5214" lon="0.33978">
        <ele>55.4</ele>
        <time>2020-12-20T11:18:06Z</time>
      </trkpt>
      <trkpt lat="46.52104" lon="0.33965">
        <ele>55.6</ele>
        <time>2020-12-20T11:18:13Z</time>
      </trkpt>
      <trkpt lat="46.521" lon="0.33962">
        <ele>55.8</ele>
        <time>2020-12-20T11:18:14Z</time>
      </trkpt>
      <trkpt lat="46.52095" lon="0.33953">
        <ele>55.8</ele>
        <time>2020-12-20T11:18:16Z</time>
      </trkpt>
      <trkpt lat="46.5209" lon="0.33917">
        <ele>55.6</ele>
        <time>2020-12-20T11:18:22Z</time>
      </trkpt>
      <trkpt lat="46.5208" lon="0.33865">
        <ele>56</ele>
        <time>2020-12-20T11:18:29Z</time>
      </trkpt>
      <trkpt lat="46.52079" lon="0.33859">
        <ele>56</ele>
        <time>2020-12-20T11:18:30Z</time>
      </trkpt>
      <trkpt lat="46.52074" lon="0.33824">
        <ele>55.8</ele>
        <time>2020-12-20T11:18:35Z</time>
      </trkpt>
      <trkpt lat="46.52072" lon="0.33811">
        <ele>55.8</ele>
        <time>2020-12-20T11:18:37Z</time>
      </trkpt>
      <trkpt lat="46.5207" lon="0.33799">
        <ele>55.8</ele>
        <time>2020-12-20T11:18:39Z</time>
      </trkpt>
      <trkpt lat="46.52071" lon="0.33788">
        <ele>56</ele>
        <time>2020-12-20T11:18:41Z</time>
      </trkpt>
      <trkpt lat="46.52072" lon="0.33751">
        <ele>56.4</ele>
        <time>2020-12-20T11:18:48Z</time>
      </trkpt>
      <trkpt lat="46.52072" lon="0.33746">
        <ele>56.4</ele>
        <time>2020-12-20T11:18:50Z</time>
      </trkpt>
      <trkpt lat="46.52069" lon="0.33743">
        <ele>56.4</ele>
        <time>2020-12-20T11:18:52Z</time>
      </trkpt>
      <trkpt lat="46.52055" lon="0.33739">
        <ele>55.6</ele>
        <time>2020-12-20T11:18:56Z</time>
      </trkpt>
      <trkpt lat="46.52049" lon="0.33737">
        <ele>55.2</ele>
        <time>2020-12-20T11:18:58Z</time>
      </trkpt>
      <trkpt lat="46.5204" lon="0.33737">
        <ele>55</ele>
        <time>2020-12-20T11:19:01Z</time>
      </trkpt>
      <trkpt lat="46.52034" lon="0.33734">
        <ele>55</ele>
        <time>2020-12-20T11:19:03Z</time>
      </trkpt>
      <trkpt lat="46.52019" lon="0.33727">
        <ele>55.2</ele>
        <time>2020-12-20T11:19:08Z</time>
      </trkpt>
      <trkpt lat="46.52008" lon="0.33738">
        <ele>55.2</ele>
        <time>2020-12-20T11:19:12Z</time>
      </trkpt>
      <trkpt lat="46.52001" lon="0.33759">
        <ele>55.2</ele>
        <time>2020-12-20T11:19:16Z</time>
      </trkpt>
      <trkpt lat="46.52" lon="0.33765">
        <ele>55</ele>
        <time>2020-12-20T11:19:17Z</time>
      </trkpt>
      <trkpt lat="46.51997" lon="0.33776">
        <ele>55</ele>
        <time>2020-12-20T11:19:19Z</time>
      </trkpt>
      <trkpt lat="46.51994" lon="0.33794">
        <ele>55</ele>
        <time>2020-12-20T11:19:22Z</time>
      </trkpt>
      <trkpt lat="46.51992" lon="0.33818">
        <ele>55</ele>
        <time>2020-12-20T11:19:26Z</time>
      </trkpt>
      <trkpt lat="46.51991" lon="0.33829">
        <ele>54.8</ele>
        <time>2020-12-20T11:19:28Z</time>
      </trkpt>
      <trkpt lat="46.5199" lon="0.33876">
        <ele>54.6</ele>
        <time>2020-12-20T11:19:36Z</time>
      </trkpt>
      <trkpt lat="46.51985" lon="0.33914">
        <ele>54.2</ele>
        <time>2020-12-20T11:19:43Z</time>
      </trkpt>
      <trkpt lat="46.51983" lon="0.33919">
        <ele>54.2</ele>
        <time>2020-12-20T11:19:44Z</time>
      </trkpt>
      <trkpt lat="46.51978" lon="0.33925">
        <ele>54.4</ele>
        <time>2020-12-20T11:19:46Z</time>
      </trkpt>
      <trkpt lat="46.51974" lon="0.33926">
        <ele>54.6</ele>
        <time>2020-12-20T11:19:47Z</time>
      </trkpt>
      <trkpt lat="46.51968" lon="0.33938">
        <ele>55.4</ele>
        <time>2020-12-20T11:19:51Z</time>
      </trkpt>
      <trkpt lat="46.51966" lon="0.33969">
        <ele>55.4</ele>
        <time>2020-12-20T11:19:57Z</time>
      </trkpt>
      <trkpt lat="46.5197" lon="0.34012">
        <ele>55.6</ele>
        <time>2020-12-20T11:20:04Z</time>
      </trkpt>
      <trkpt lat="46.51971" lon="0.34018">
        <ele>55.6</ele>
        <time>2020-12-20T11:20:05Z</time>
      </trkpt>
      <trkpt lat="46.51967" lon="0.34031">
        <ele>55.6</ele>
        <time>2020-12-20T11:20:07Z</time>
      </trkpt>
      <trkpt lat="46.51963" lon="0.34034">
        <ele>55.6</ele>
        <time>2020-12-20T11:20:08Z</time>
      </trkpt>
      <trkpt lat="46.51959" lon="0.34036">
        <ele>55.6</ele>
        <time>2020-12-20T11:20:09Z</time>
      </trkpt>
      <trkpt lat="46.5194" lon="0.34042">
        <ele>55.8</ele>
        <time>2020-12-20T11:20:13Z</time>
      </trkpt>
      <trkpt lat="46.51891" lon="0.34056">
        <ele>55.8</ele>
        <time>2020-12-20T11:20:23Z</time>
      </trkpt>
      <trkpt lat="46.51867" lon="0.34063">
        <ele>56</ele>
        <time>2020-12-20T11:20:28Z</time>
      </trkpt>
      <trkpt lat="46.51863" lon="0.34061">
        <ele>56.2</ele>
        <time>2020-12-20T11:20:29Z</time>
      </trkpt>
      <trkpt lat="46.5186" lon="0.34058">
        <ele>56</ele>
        <time>2020-12-20T11:20:30Z</time>
      </trkpt>
      <trkpt lat="46.51853" lon="0.34053">
        <ele>56.2</ele>
        <time>2020-12-20T11:20:32Z</time>
      </trkpt>
      <trkpt lat="46.51845" lon="0.3405">
        <ele>56</ele>
        <time>2020-12-20T11:20:34Z</time>
      </trkpt>
      <trkpt lat="46.51836" lon="0.34049">
        <ele>56.2</ele>
        <time>2020-12-20T11:20:36Z</time>
      </trkpt>
      <trkpt lat="46.51823" lon="0.34053">
        <ele>56</ele>
        <time>2020-12-20T11:20:39Z</time>
      </trkpt>
      <trkpt lat="46.51804" lon="0.34055">
        <ele>55.8</ele>
        <time>2020-12-20T11:20:43Z</time>
      </trkpt>
      <trkpt lat="46.51799" lon="0.34054">
        <ele>55.8</ele>
        <time>2020-12-20T11:20:44Z</time>
      </trkpt>
      <trkpt lat="46.51791" lon="0.34051">
        <ele>55.8</ele>
        <time>2020-12-20T11:20:46Z</time>
      </trkpt>
      <trkpt lat="46.51781" lon="0.34045">
        <ele>56</ele>
        <time>2020-12-20T11:20:49Z</time>
      </trkpt>
      <trkpt lat="46.51778" lon="0.34042">
        <ele>56</ele>
        <time>2020-12-20T11:20:50Z</time>
      </trkpt>
      <trkpt lat="46.51772" lon="0.34038">
        <ele>56</ele>
        <time>2020-12-20T11:20:52Z</time>
      </trkpt>
      <trkpt lat="46.51767" lon="0.34034">
        <ele>55.8</ele>
        <time>2020-12-20T11:20:54Z</time>
      </trkpt>
      <trkpt lat="46.51761" lon="0.34028">
        <ele>55.6</ele>
        <time>2020-12-20T11:20:59Z</time>
      </trkpt>
      <trkpt lat="46.51759" lon="0.34028">
        <ele>55.6</ele>
        <time>2020-12-20T11:21:00Z</time>
      </trkpt>
      <trkpt lat="46.51755" lon="0.34028">
        <ele>55.4</ele>
        <time>2020-12-20T11:21:02Z</time>
      </trkpt>
      <trkpt lat="46.51752" lon="0.34029">
        <ele>55.2</ele>
        <time>2020-12-20T11:21:05Z</time>
      </trkpt>
      <trkpt lat="46.5175" lon="0.3403">
        <ele>55.2</ele>
        <time>2020-12-20T11:21:06Z</time>
      </trkpt>
      <trkpt lat="46.51748" lon="0.34034">
        <ele>55.2</ele>
        <time>2020-12-20T11:21:08Z</time>
      </trkpt>
      <trkpt lat="46.5174" lon="0.34042">
        <ele>55.6</ele>
        <time>2020-12-20T11:21:11Z</time>
      </trkpt>
      <trkpt lat="46.51735" lon="0.34064">
        <ele>56.4</ele>
        <time>2020-12-20T11:21:15Z</time>
      </trkpt>
      <trkpt lat="46.51727" lon="0.34112">
        <ele>56.6</ele>
        <time>2020-12-20T11:21:23Z</time>
      </trkpt>
      <trkpt lat="46.5172" lon="0.34133">
        <ele>57</ele>
        <time>2020-12-20T11:21:27Z</time>
      </trkpt>
      <trkpt lat="46.51717" lon="0.34142">
        <ele>57</ele>
        <time>2020-12-20T11:21:29Z</time>
      </trkpt>
      <trkpt lat="46.5171" lon="0.3416">
        <ele>57.4</ele>
        <time>2020-12-20T11:21:33Z</time>
      </trkpt>
      <trkpt lat="46.51702" lon="0.34178">
        <ele>57.8</ele>
        <time>2020-12-20T11:21:37Z</time>
      </trkpt>
      <trkpt lat="46.5169" lon="0.34208">
        <ele>58.6</ele>
        <time>2020-12-20T11:21:44Z</time>
      </trkpt>
      <trkpt lat="46.5169" lon="0.34223">
        <ele>60</ele>
        <time>2020-12-20T11:21:48Z</time>
      </trkpt>
      <trkpt lat="46.5169" lon="0.34233">
        <ele>60.6</ele>
        <time>2020-12-20T11:21:51Z</time>
      </trkpt>
      <trkpt lat="46.5169" lon="0.34236">
        <ele>61</ele>
        <time>2020-12-20T11:21:52Z</time>
      </trkpt>
      <trkpt lat="46.51689" lon="0.34253">
        <ele>62.2</ele>
        <time>2020-12-20T11:21:57Z</time>
      </trkpt>
      <trkpt lat="46.51688" lon="0.34265">
        <ele>63.2</ele>
        <time>2020-12-20T11:22:01Z</time>
      </trkpt>
      <trkpt lat="46.51687" lon="0.34267">
        <ele>63.4</ele>
        <time>2020-12-20T11:22:02Z</time>
      </trkpt>
      <trkpt lat="46.51685" lon="0.34269">
        <ele>63.6</ele>
        <time>2020-12-20T11:22:03Z</time>
      </trkpt>
      <trkpt lat="46.51683" lon="0.34273">
        <ele>63.8</ele>
        <time>2020-12-20T11:22:05Z</time>
      </trkpt>
      <trkpt lat="46.51683" lon="0.34277">
        <ele>64.4</ele>
        <time>2020-12-20T11:22:07Z</time>
      </trkpt>
      <trkpt lat="46.51683" lon="0.3428">
        <ele>64.6</ele>
        <time>2020-12-20T11:22:08Z</time>
      </trkpt>
      <trkpt lat="46.51685" lon="0.34292">
        <ele>65.6</ele>
        <time>2020-12-20T11:22:12Z</time>
      </trkpt>
      <trkpt lat="46.51683" lon="0.34302">
        <ele>66.2</ele>
        <time>2020-12-20T11:22:16Z</time>
      </trkpt>
      <trkpt lat="46.51682" lon="0.3431">
        <ele>66.8</ele>
        <time>2020-12-20T11:22:19Z</time>
      </trkpt>
      <trkpt lat="46.51677" lon="0.34319">
        <ele>67.6</ele>
        <time>2020-12-20T11:22:23Z</time>
      </trkpt>
      <trkpt lat="46.51675" lon="0.34321">
        <ele>67.8</ele>
        <time>2020-12-20T11:22:24Z</time>
      </trkpt>
      <trkpt lat="46.51669" lon="0.34333">
        <ele>69</ele>
        <time>2020-12-20T11:22:29Z</time>
      </trkpt>
      <trkpt lat="46.51665" lon="0.34336">
        <ele>69.2</ele>
        <time>2020-12-20T11:22:31Z</time>
      </trkpt>
      <trkpt lat="46.5166" lon="0.3434">
        <ele>70.2</ele>
        <time>2020-12-20T11:22:34Z</time>
      </trkpt>
      <trkpt lat="46.51654" lon="0.34343">
        <ele>70.8</ele>
        <time>2020-12-20T11:22:37Z</time>
      </trkpt>
      <trkpt lat="46.5165" lon="0.34347">
        <ele>71.2</ele>
        <time>2020-12-20T11:22:40Z</time>
      </trkpt>
      <trkpt lat="46.51645" lon="0.34352">
        <ele>72.4</ele>
        <time>2020-12-20T11:22:45Z</time>
      </trkpt>
      <trkpt lat="46.51639" lon="0.34358">
        <ele>73.6</ele>
        <time>2020-12-20T11:22:51Z</time>
      </trkpt>
      <trkpt lat="46.51633" lon="0.34363">
        <ele>74.2</ele>
        <time>2020-12-20T11:22:55Z</time>
      </trkpt>
      <trkpt lat="46.51629" lon="0.34367">
        <ele>74.6</ele>
        <time>2020-12-20T11:22:58Z</time>
      </trkpt>
      <trkpt lat="46.51623" lon="0.34372">
        <ele>75.4</ele>
        <time>2020-12-20T11:23:03Z</time>
      </trkpt>
      <trkpt lat="46.51619" lon="0.34376">
        <ele>75.8</ele>
        <time>2020-12-20T11:23:06Z</time>
      </trkpt>
      <trkpt lat="46.51618" lon="0.34377">
        <ele>76.2</ele>
        <time>2020-12-20T11:23:07Z</time>
      </trkpt>
      <trkpt lat="46.51615" lon="0.34382">
        <ele>76.4</ele>
        <time>2020-12-20T11:23:09Z</time>
      </trkpt>
      <trkpt lat="46.51609" lon="0.34388">
        <ele>77</ele>
        <time>2020-12-20T11:23:12Z</time>
      </trkpt>
      <trkpt lat="46.516" lon="0.34398">
        <ele>77.4</ele>
        <time>2020-12-20T11:23:16Z</time>
      </trkpt>
      <trkpt lat="46.51584" lon="0.3442">
        <ele>78</ele>
        <time>2020-12-20T11:23:23Z</time>
      </trkpt>
      <trkpt lat="46.51579" lon="0.34427">
        <ele>78.2</ele>
        <time>2020-12-20T11:23:25Z</time>
      </trkpt>
      <trkpt lat="46.51563" lon="0.34447">
        <ele>79.2</ele>
        <time>2020-12-20T11:23:32Z</time>
      </trkpt>
      <trkpt lat="46.51561" lon="0.34449">
        <ele>79</ele>
        <time>2020-12-20T11:23:33Z</time>
      </trkpt>
      <trkpt lat="46.51544" lon="0.34469">
        <ele>79.4</ele>
        <time>2020-12-20T11:23:41Z</time>
      </trkpt>
      <trkpt lat="46.51538" lon="0.34477">
        <ele>80.2</ele>
        <time>2020-12-20T11:23:44Z</time>
      </trkpt>
      <trkpt lat="46.51527" lon="0.34493">
        <ele>80.8</ele>
        <time>2020-12-20T11:23:49Z</time>
      </trkpt>
      <trkpt lat="46.51515" lon="0.34517">
        <ele>81.2</ele>
        <time>2020-12-20T11:23:55Z</time>
      </trkpt>
      <trkpt lat="46.51508" lon="0.34542">
        <ele>81.4</ele>
        <time>2020-12-20T11:24:01Z</time>
      </trkpt>
      <trkpt lat="46.51505" lon="0.3456">
        <ele>80.8</ele>
        <time>2020-12-20T11:24:04Z</time>
      </trkpt>
      <trkpt lat="46.51503" lon="0.3457">
        <ele>81</ele>
        <time>2020-12-20T11:24:06Z</time>
      </trkpt>
      <trkpt lat="46.515" lon="0.34583">
        <ele>81.4</ele>
        <time>2020-12-20T11:24:09Z</time>
      </trkpt>
      <trkpt lat="46.51497" lon="0.34594">
        <ele>81.6</ele>
        <time>2020-12-20T11:24:11Z</time>
      </trkpt>
      <trkpt lat="46.51493" lon="0.3461">
        <ele>81.8</ele>
        <time>2020-12-20T11:24:14Z</time>
      </trkpt>
      <trkpt lat="46.51489" lon="0.34627">
        <ele>82.4</ele>
        <time>2020-12-20T11:24:17Z</time>
      </trkpt>
      <trkpt lat="46.51486" lon="0.34637">
        <ele>82.4</ele>
        <time>2020-12-20T11:24:19Z</time>
      </trkpt>
      <trkpt lat="46.51475" lon="0.34662">
        <ele>83.4</ele>
        <time>2020-12-20T11:24:24Z</time>
      </trkpt>
      <trkpt lat="46.51466" lon="0.34703">
        <ele>84</ele>
        <time>2020-12-20T11:24:32Z</time>
      </trkpt>
      <trkpt lat="46.51464" lon="0.34712">
        <ele>84.4</ele>
        <time>2020-12-20T11:24:34Z</time>
      </trkpt>
      <trkpt lat="46.51461" lon="0.34738">
        <ele>85</ele>
        <time>2020-12-20T11:24:40Z</time>
      </trkpt>
      <trkpt lat="46.51458" lon="0.3475">
        <ele>85.6</ele>
        <time>2020-12-20T11:24:43Z</time>
      </trkpt>
      <trkpt lat="46.51457" lon="0.34761">
        <ele>86</ele>
        <time>2020-12-20T11:24:46Z</time>
      </trkpt>
      <trkpt lat="46.51455" lon="0.34773">
        <ele>86.6</ele>
        <time>2020-12-20T11:24:49Z</time>
      </trkpt>
      <trkpt lat="46.5145" lon="0.34791">
        <ele>87.4</ele>
        <time>2020-12-20T11:24:54Z</time>
      </trkpt>
      <trkpt lat="46.51447" lon="0.34798">
        <ele>87.6</ele>
        <time>2020-12-20T11:24:56Z</time>
      </trkpt>
      <trkpt lat="46.51429" lon="0.34821">
        <ele>88.2</ele>
        <time>2020-12-20T11:25:02Z</time>
      </trkpt>
      <trkpt lat="46.51413" lon="0.34844">
        <ele>88.4</ele>
        <time>2020-12-20T11:25:08Z</time>
      </trkpt>
      <trkpt lat="46.51409" lon="0.34851">
        <ele>88.6</ele>
        <time>2020-12-20T11:25:12Z</time>
      </trkpt>
      <trkpt lat="46.51408" lon="0.34851">
        <ele>88.8</ele>
        <time>2020-12-20T11:25:13Z</time>
      </trkpt>
      <trkpt lat="46.51398" lon="0.34859">
        <ele>89.4</ele>
        <time>2020-12-20T11:25:19Z</time>
      </trkpt>
      <trkpt lat="46.51392" lon="0.34864">
        <ele>89.8</ele>
        <time>2020-12-20T11:25:21Z</time>
      </trkpt>
      <trkpt lat="46.51386" lon="0.3487">
        <ele>90</ele>
        <time>2020-12-20T11:25:23Z</time>
      </trkpt>
      <trkpt lat="46.51383" lon="0.34874">
        <ele>90</ele>
        <time>2020-12-20T11:25:24Z</time>
      </trkpt>
      <trkpt lat="46.51372" lon="0.34898">
        <ele>89.8</ele>
        <time>2020-12-20T11:25:28Z</time>
      </trkpt>
      <trkpt lat="46.51353" lon="0.34926">
        <ele>89.8</ele>
        <time>2020-12-20T11:25:33Z</time>
      </trkpt>
      <trkpt lat="46.51331" lon="0.34955">
        <ele>90.8</ele>
        <time>2020-12-20T11:25:40Z</time>
      </trkpt>
      <trkpt lat="46.51328" lon="0.34957">
        <ele>91</ele>
        <time>2020-12-20T11:25:41Z</time>
      </trkpt>
      <trkpt lat="46.51317" lon="0.34965">
        <ele>91.8</ele>
        <time>2020-12-20T11:25:45Z</time>
      </trkpt>
      <trkpt lat="46.51305" lon="0.34972">
        <ele>92.2</ele>
        <time>2020-12-20T11:25:49Z</time>
      </trkpt>
      <trkpt lat="46.51291" lon="0.34983">
        <ele>93</ele>
        <time>2020-12-20T11:25:55Z</time>
      </trkpt>
      <trkpt lat="46.51286" lon="0.34986">
        <ele>93.2</ele>
        <time>2020-12-20T11:25:57Z</time>
      </trkpt>
      <trkpt lat="46.51274" lon="0.34992">
        <ele>94</ele>
        <time>2020-12-20T11:26:01Z</time>
      </trkpt>
      <trkpt lat="46.51258" lon="0.35003">
        <ele>94.6</ele>
        <time>2020-12-20T11:26:07Z</time>
      </trkpt>
      <trkpt lat="46.51251" lon="0.35008">
        <ele>95</ele>
        <time>2020-12-20T11:26:10Z</time>
      </trkpt>
      <trkpt lat="46.51238" lon="0.35013">
        <ele>95.6</ele>
        <time>2020-12-20T11:26:14Z</time>
      </trkpt>
      <trkpt lat="46.51217" lon="0.35012">
        <ele>95.6</ele>
        <time>2020-12-20T11:26:21Z</time>
      </trkpt>
      <trkpt lat="46.51189" lon="0.35009">
        <ele>96</ele>
        <time>2020-12-20T11:26:29Z</time>
      </trkpt>
      <trkpt lat="46.51183" lon="0.35008">
        <ele>96.2</ele>
        <time>2020-12-20T11:26:31Z</time>
      </trkpt>
      <trkpt lat="46.51167" lon="0.35005">
        <ele>96.4</ele>
        <time>2020-12-20T11:26:35Z</time>
      </trkpt>
      <trkpt lat="46.51137" lon="0.35">
        <ele>97.2</ele>
        <time>2020-12-20T11:26:42Z</time>
      </trkpt>
      <trkpt lat="46.51126" lon="0.34999">
        <ele>97.6</ele>
        <time>2020-12-20T11:26:45Z</time>
      </trkpt>
      <trkpt lat="46.51104" lon="0.34993">
        <ele>97.6</ele>
        <time>2020-12-20T11:26:51Z</time>
      </trkpt>
      <trkpt lat="46.51093" lon="0.34999">
        <ele>97.4</ele>
        <time>2020-12-20T11:26:55Z</time>
      </trkpt>
      <trkpt lat="46.51092" lon="0.35002">
        <ele>97.4</ele>
        <time>2020-12-20T11:26:56Z</time>
      </trkpt>
      <trkpt lat="46.51091" lon="0.35014">
        <ele>97.8</ele>
        <time>2020-12-20T11:26:59Z</time>
      </trkpt>
      <trkpt lat="46.51092" lon="0.3502">
        <ele>98.2</ele>
        <time>2020-12-20T11:27:01Z</time>
      </trkpt>
      <trkpt lat="46.51094" lon="0.35031">
        <ele>98.6</ele>
        <time>2020-12-20T11:27:04Z</time>
      </trkpt>
      <trkpt lat="46.51095" lon="0.35048">
        <ele>99.6</ele>
        <time>2020-12-20T11:27:09Z</time>
      </trkpt>
      <trkpt lat="46.51095" lon="0.35051">
        <ele>99.8</ele>
        <time>2020-12-20T11:27:10Z</time>
      </trkpt>
      <trkpt lat="46.51094" lon="0.35061">
        <ele>100.8</ele>
        <time>2020-12-20T11:27:13Z</time>
      </trkpt>
      <trkpt lat="46.51091" lon="0.35064">
        <ele>101</ele>
        <time>2020-12-20T11:27:14Z</time>
      </trkpt>
      <trkpt lat="46.51089" lon="0.35071">
        <ele>101.4</ele>
        <time>2020-12-20T11:27:16Z</time>
      </trkpt>
      <trkpt lat="46.51086" lon="0.35078">
        <ele>101.8</ele>
        <time>2020-12-20T11:27:18Z</time>
      </trkpt>
      <trkpt lat="46.51084" lon="0.35087">
        <ele>102</ele>
        <time>2020-12-20T11:27:21Z</time>
      </trkpt>
      <trkpt lat="46.51083" lon="0.35093">
        <ele>102.4</ele>
        <time>2020-12-20T11:27:23Z</time>
      </trkpt>
      <trkpt lat="46.51078" lon="0.35102">
        <ele>102.8</ele>
        <time>2020-12-20T11:27:26Z</time>
      </trkpt>
      <trkpt lat="46.51075" lon="0.35108">
        <ele>103.2</ele>
        <time>2020-12-20T11:27:28Z</time>
      </trkpt>
      <trkpt lat="46.51074" lon="0.35122">
        <ele>104</ele>
        <time>2020-12-20T11:27:33Z</time>
      </trkpt>
      <trkpt lat="46.51075" lon="0.35126">
        <ele>104.4</ele>
        <time>2020-12-20T11:27:34Z</time>
      </trkpt>
      <trkpt lat="46.51074" lon="0.35148">
        <ele>105</ele>
        <time>2020-12-20T11:27:42Z</time>
      </trkpt>
      <trkpt lat="46.51073" lon="0.35151">
        <ele>105.2</ele>
        <time>2020-12-20T11:27:43Z</time>
      </trkpt>
      <trkpt lat="46.51069" lon="0.35185">
        <ele>106.2</ele>
        <time>2020-12-20T11:27:52Z</time>
      </trkpt>
      <trkpt lat="46.51065" lon="0.35216">
        <ele>107</ele>
        <time>2020-12-20T11:28:00Z</time>
      </trkpt>
      <trkpt lat="46.51065" lon="0.35224">
        <ele>107.2</ele>
        <time>2020-12-20T11:28:02Z</time>
      </trkpt>
      <trkpt lat="46.51061" lon="0.35245">
        <ele>108</ele>
        <time>2020-12-20T11:28:07Z</time>
      </trkpt>
      <trkpt lat="46.51059" lon="0.35258">
        <ele>108.2</ele>
        <time>2020-12-20T11:28:10Z</time>
      </trkpt>
      <trkpt lat="46.51054" lon="0.35284">
        <ele>108.8</ele>
        <time>2020-12-20T11:28:16Z</time>
      </trkpt>
      <trkpt lat="46.51052" lon="0.35292">
        <ele>109.2</ele>
        <time>2020-12-20T11:28:18Z</time>
      </trkpt>
      <trkpt lat="46.51051" lon="0.35307">
        <ele>109.8</ele>
        <time>2020-12-20T11:28:22Z</time>
      </trkpt>
      <trkpt lat="46.5105" lon="0.3531">
        <ele>110</ele>
        <time>2020-12-20T11:28:23Z</time>
      </trkpt>
      <trkpt lat="46.51047" lon="0.35333">
        <ele>110</ele>
        <time>2020-12-20T11:28:30Z</time>
      </trkpt>
      <trkpt lat="46.5104" lon="0.35364">
        <ele>110.2</ele>
        <time>2020-12-20T11:28:37Z</time>
      </trkpt>
      <trkpt lat="46.51033" lon="0.35397">
        <ele>110.4</ele>
        <time>2020-12-20T11:28:43Z</time>
      </trkpt>
      <trkpt lat="46.5103" lon="0.35407">
        <ele>110.4</ele>
        <time>2020-12-20T11:28:45Z</time>
      </trkpt>
      <trkpt lat="46.51024" lon="0.35416">
        <ele>110.6</ele>
        <time>2020-12-20T11:28:47Z</time>
      </trkpt>
      <trkpt lat="46.51" lon="0.35446">
        <ele>111</ele>
        <time>2020-12-20T11:28:54Z</time>
      </trkpt>
      <trkpt lat="46.50989" lon="0.35458">
        <ele>111.4</ele>
        <time>2020-12-20T11:28:57Z</time>
      </trkpt>
      <trkpt lat="46.50986" lon="0.35462">
        <ele>111.4</ele>
        <time>2020-12-20T11:28:58Z</time>
      </trkpt>
      <trkpt lat="46.50985" lon="0.35467">
        <ele>111.4</ele>
        <time>2020-12-20T11:28:59Z</time>
      </trkpt>
      <trkpt lat="46.50982" lon="0.35475">
        <ele>111.4</ele>
        <time>2020-12-20T11:29:01Z</time>
      </trkpt>
      <trkpt lat="46.50978" lon="0.35481">
        <ele>111.2</ele>
        <time>2020-12-20T11:29:03Z</time>
      </trkpt>
      <trkpt lat="46.50958" lon="0.35512">
        <ele>111.8</ele>
        <time>2020-12-20T11:29:10Z</time>
      </trkpt>
      <trkpt lat="46.50954" lon="0.35522">
        <ele>112.2</ele>
        <time>2020-12-20T11:29:12Z</time>
      </trkpt>
      <trkpt lat="46.50949" lon="0.35532">
        <ele>112.4</ele>
        <time>2020-12-20T11:29:14Z</time>
      </trkpt>
      <trkpt lat="46.50941" lon="0.35544">
        <ele>112.8</ele>
        <time>2020-12-20T11:29:17Z</time>
      </trkpt>
      <trkpt lat="46.5092" lon="0.35578">
        <ele>113.2</ele>
        <time>2020-12-20T11:29:26Z</time>
      </trkpt>
      <trkpt lat="46.50913" lon="0.3559">
        <ele>113.6</ele>
        <time>2020-12-20T11:29:29Z</time>
      </trkpt>
      <trkpt lat="46.50902" lon="0.35608">
        <ele>113.8</ele>
        <time>2020-12-20T11:29:34Z</time>
      </trkpt>
      <trkpt lat="46.50888" lon="0.35631">
        <ele>114.6</ele>
        <time>2020-12-20T11:29:41Z</time>
      </trkpt>
      <trkpt lat="46.50884" lon="0.35637">
        <ele>114.8</ele>
        <time>2020-12-20T11:29:43Z</time>
      </trkpt>
      <trkpt lat="46.50865" lon="0.35663">
        <ele>115.6</ele>
        <time>2020-12-20T11:29:50Z</time>
      </trkpt>
      <trkpt lat="46.50862" lon="0.35668">
        <ele>115.8</ele>
        <time>2020-12-20T11:29:51Z</time>
      </trkpt>
      <trkpt lat="46.50851" lon="0.35679">
        <ele>116</ele>
        <time>2020-12-20T11:29:54Z</time>
      </trkpt>
      <trkpt lat="46.50845" lon="0.35688">
        <ele>116</ele>
        <time>2020-12-20T11:29:56Z</time>
      </trkpt>
      <trkpt lat="46.50829" lon="0.35721">
        <ele>116</ele>
        <time>2020-12-20T11:30:03Z</time>
      </trkpt>
      <trkpt lat="46.5082" lon="0.35732">
        <ele>116</ele>
        <time>2020-12-20T11:30:06Z</time>
      </trkpt>
      <trkpt lat="46.50813" lon="0.35743">
        <ele>116.2</ele>
        <time>2020-12-20T11:30:09Z</time>
      </trkpt>
      <trkpt lat="46.50815" lon="0.35762">
        <ele>116.4</ele>
        <time>2020-12-20T11:30:13Z</time>
      </trkpt>
      <trkpt lat="46.50818" lon="0.35778">
        <ele>116.6</ele>
        <time>2020-12-20T11:30:16Z</time>
      </trkpt>
      <trkpt lat="46.50819" lon="0.35802">
        <ele>116.8</ele>
        <time>2020-12-20T11:30:20Z</time>
      </trkpt>
      <trkpt lat="46.50807" lon="0.3584">
        <ele>116.8</ele>
        <time>2020-12-20T11:30:26Z</time>
      </trkpt>
      <trkpt lat="46.50803" lon="0.35854">
        <ele>116.8</ele>
        <time>2020-12-20T11:30:28Z</time>
      </trkpt>
      <trkpt lat="46.50802" lon="0.35868">
        <ele>116.8</ele>
        <time>2020-12-20T11:30:30Z</time>
      </trkpt>
      <trkpt lat="46.50802" lon="0.35875">
        <ele>116.8</ele>
        <time>2020-12-20T11:30:31Z</time>
      </trkpt>
      <trkpt lat="46.50808" lon="0.35921">
        <ele>115.4</ele>
        <time>2020-12-20T11:30:37Z</time>
      </trkpt>
      <trkpt lat="46.50809" lon="0.35929">
        <ele>114.8</ele>
        <time>2020-12-20T11:30:38Z</time>
      </trkpt>
      <trkpt lat="46.50812" lon="0.35945">
        <ele>114.4</ele>
        <time>2020-12-20T11:30:40Z</time>
      </trkpt>
      <trkpt lat="46.50815" lon="0.35952">
        <ele>114.2</ele>
        <time>2020-12-20T11:30:41Z</time>
      </trkpt>
      <trkpt lat="46.50819" lon="0.35958">
        <ele>114.2</ele>
        <time>2020-12-20T11:30:42Z</time>
      </trkpt>
      <trkpt lat="46.50827" lon="0.35965">
        <ele>113.8</ele>
        <time>2020-12-20T11:30:44Z</time>
      </trkpt>
      <trkpt lat="46.50834" lon="0.35971">
        <ele>113.6</ele>
        <time>2020-12-20T11:30:46Z</time>
      </trkpt>
      <trkpt lat="46.50837" lon="0.35984">
        <ele>113.4</ele>
        <time>2020-12-20T11:30:48Z</time>
      </trkpt>
      <trkpt lat="46.50838" lon="0.3599">
        <ele>113.4</ele>
        <time>2020-12-20T11:30:49Z</time>
      </trkpt>
      <trkpt lat="46.50842" lon="0.36021">
        <ele>113.6</ele>
        <time>2020-12-20T11:30:55Z</time>
      </trkpt>
      <trkpt lat="46.50841" lon="0.36024">
        <ele>113.6</ele>
        <time>2020-12-20T11:30:56Z</time>
      </trkpt>
      <trkpt lat="46.50835" lon="0.3603">
        <ele>113.8</ele>
        <time>2020-12-20T11:30:59Z</time>
      </trkpt>
      <trkpt lat="46.50816" lon="0.36038">
        <ele>113.8</ele>
        <time>2020-12-20T11:31:05Z</time>
      </trkpt>
      <trkpt lat="46.50803" lon="0.36041">
        <ele>113.4</ele>
        <time>2020-12-20T11:31:10Z</time>
      </trkpt>
      <trkpt lat="46.50798" lon="0.36043">
        <ele>113.2</ele>
        <time>2020-12-20T11:31:12Z</time>
      </trkpt>
      <trkpt lat="46.5079" lon="0.36041">
        <ele>113</ele>
        <time>2020-12-20T11:31:15Z</time>
      </trkpt>
      <trkpt lat="46.50788" lon="0.36039">
        <ele>113</ele>
        <time>2020-12-20T11:31:16Z</time>
      </trkpt>
      <trkpt lat="46.50786" lon="0.36021">
        <ele>113.6</ele>
        <time>2020-12-20T11:31:21Z</time>
      </trkpt>
      <trkpt lat="46.50784" lon="0.36014">
        <ele>113.6</ele>
        <time>2020-12-20T11:31:23Z</time>
      </trkpt>
      <trkpt lat="46.50781" lon="0.36013">
        <ele>113.4</ele>
        <time>2020-12-20T11:31:25Z</time>
      </trkpt>
      <trkpt lat="46.50777" lon="0.3602">
        <ele>112.6</ele>
        <time>2020-12-20T11:31:27Z</time>
      </trkpt>
      <trkpt lat="46.50777" lon="0.36026">
        <ele>112</ele>
        <time>2020-12-20T11:31:28Z</time>
      </trkpt>
      <trkpt lat="46.50778" lon="0.36047">
        <ele>111</ele>
        <time>2020-12-20T11:31:31Z</time>
      </trkpt>
      <trkpt lat="46.50778" lon="0.36064">
        <ele>110.4</ele>
        <time>2020-12-20T11:31:33Z</time>
      </trkpt>
      <trkpt lat="46.50779" lon="0.36081">
        <ele>109.8</ele>
        <time>2020-12-20T11:31:35Z</time>
      </trkpt>
      <trkpt lat="46.50777" lon="0.36089">
        <ele>109.6</ele>
        <time>2020-12-20T11:31:36Z</time>
      </trkpt>
      <trkpt lat="46.50775" lon="0.36095">
        <ele>109.4</ele>
        <time>2020-12-20T11:31:37Z</time>
      </trkpt>
      <trkpt lat="46.50772" lon="0.36101">
        <ele>109.2</ele>
        <time>2020-12-20T11:31:38Z</time>
      </trkpt>
      <trkpt lat="46.50768" lon="0.3611">
        <ele>109.2</ele>
        <time>2020-12-20T11:31:40Z</time>
      </trkpt>
      <trkpt lat="46.50765" lon="0.36115">
        <ele>109.4</ele>
        <time>2020-12-20T11:31:41Z</time>
      </trkpt>
      <trkpt lat="46.5076" lon="0.36124">
        <ele>110</ele>
        <time>2020-12-20T11:31:43Z</time>
      </trkpt>
      <trkpt lat="46.50756" lon="0.36136">
        <ele>110.4</ele>
        <time>2020-12-20T11:31:45Z</time>
      </trkpt>
      <trkpt lat="46.50751" lon="0.36169">
        <ele>110.8</ele>
        <time>2020-12-20T11:31:50Z</time>
      </trkpt>
      <trkpt lat="46.50749" lon="0.36184">
        <ele>110.8</ele>
        <time>2020-12-20T11:31:52Z</time>
      </trkpt>
      <trkpt lat="46.50739" lon="0.36243">
        <ele>110.2</ele>
        <time>2020-12-20T11:31:59Z</time>
      </trkpt>
      <trkpt lat="46.50733" lon="0.3628">
        <ele>109.6</ele>
        <time>2020-12-20T11:32:03Z</time>
      </trkpt>
      <trkpt lat="46.50731" lon="0.363">
        <ele>109.2</ele>
        <time>2020-12-20T11:32:05Z</time>
      </trkpt>
      <trkpt lat="46.5073" lon="0.3631">
        <ele>109.2</ele>
        <time>2020-12-20T11:32:06Z</time>
      </trkpt>
      <trkpt lat="46.50724" lon="0.3635">
        <ele>108.6</ele>
        <time>2020-12-20T11:32:10Z</time>
      </trkpt>
      <trkpt lat="46.50719" lon="0.36391">
        <ele>108.2</ele>
        <time>2020-12-20T11:32:14Z</time>
      </trkpt>
      <trkpt lat="46.50715" lon="0.36422">
        <ele>107.6</ele>
        <time>2020-12-20T11:32:17Z</time>
      </trkpt>
      <trkpt lat="46.50712" lon="0.36443">
        <ele>106.4</ele>
        <time>2020-12-20T11:32:19Z</time>
      </trkpt>
      <trkpt lat="46.5071" lon="0.36464">
        <ele>105.6</ele>
        <time>2020-12-20T11:32:21Z</time>
      </trkpt>
      <trkpt lat="46.50709" lon="0.36474">
        <ele>105.2</ele>
        <time>2020-12-20T11:32:22Z</time>
      </trkpt>
      <trkpt lat="46.50705" lon="0.36504">
        <ele>104.2</ele>
        <time>2020-12-20T11:32:25Z</time>
      </trkpt>
      <trkpt lat="46.507" lon="0.36544">
        <ele>102.8</ele>
        <time>2020-12-20T11:32:29Z</time>
      </trkpt>
      <trkpt lat="46.50697" lon="0.36563">
        <ele>102.6</ele>
        <time>2020-12-20T11:32:31Z</time>
      </trkpt>
      <trkpt lat="46.50692" lon="0.36579">
        <ele>102.6</ele>
        <time>2020-12-20T11:32:33Z</time>
      </trkpt>
      <trkpt lat="46.50689" lon="0.36585">
        <ele>102.6</ele>
        <time>2020-12-20T11:32:34Z</time>
      </trkpt>
      <trkpt lat="46.50686" lon="0.36589">
        <ele>102.8</ele>
        <time>2020-12-20T11:32:35Z</time>
      </trkpt>
      <trkpt lat="46.50676" lon="0.36601">
        <ele>103.2</ele>
        <time>2020-12-20T11:32:38Z</time>
      </trkpt>
      <trkpt lat="46.50664" lon="0.36621">
        <ele>103.6</ele>
        <time>2020-12-20T11:32:43Z</time>
      </trkpt>
      <trkpt lat="46.50663" lon="0.36624">
        <ele>103.8</ele>
        <time>2020-12-20T11:32:44Z</time>
      </trkpt>
      <trkpt lat="46.50656" lon="0.36644">
        <ele>104.6</ele>
        <time>2020-12-20T11:32:49Z</time>
      </trkpt>
      <trkpt lat="46.50655" lon="0.36654">
        <ele>105</ele>
        <time>2020-12-20T11:32:51Z</time>
      </trkpt>
      <trkpt lat="46.50654" lon="0.3667">
        <ele>106.2</ele>
        <time>2020-12-20T11:32:54Z</time>
      </trkpt>
      <trkpt lat="46.50652" lon="0.3669">
        <ele>107.2</ele>
        <time>2020-12-20T11:32:58Z</time>
      </trkpt>
      <trkpt lat="46.50649" lon="0.36709">
        <ele>108.2</ele>
        <time>2020-12-20T11:33:03Z</time>
      </trkpt>
      <trkpt lat="46.50647" lon="0.36717">
        <ele>108.4</ele>
        <time>2020-12-20T11:33:05Z</time>
      </trkpt>
      <trkpt lat="46.50647" lon="0.36732">
        <ele>108.8</ele>
        <time>2020-12-20T11:33:09Z</time>
      </trkpt>
      <trkpt lat="46.50648" lon="0.36742">
        <ele>109.4</ele>
        <time>2020-12-20T11:33:12Z</time>
      </trkpt>
      <trkpt lat="46.50648" lon="0.36749">
        <ele>109.8</ele>
        <time>2020-12-20T11:33:14Z</time>
      </trkpt>
      <trkpt lat="46.50647" lon="0.36759">
        <ele>110.4</ele>
        <time>2020-12-20T11:33:17Z</time>
      </trkpt>
      <trkpt lat="46.50647" lon="0.36768">
        <ele>110.6</ele>
        <time>2020-12-20T11:33:20Z</time>
      </trkpt>
      <trkpt lat="46.50642" lon="0.3678">
        <ele>111.2</ele>
        <time>2020-12-20T11:33:25Z</time>
      </trkpt>
      <trkpt lat="46.50641" lon="0.36783">
        <ele>111.2</ele>
        <time>2020-12-20T11:33:27Z</time>
      </trkpt>
      <trkpt lat="46.5064" lon="0.36784">
        <ele>111.4</ele>
        <time>2020-12-20T11:33:29Z</time>
      </trkpt>
    </trkseg>
  </trk>
</gpx>